<?xml version="1.0" encoding="UTF-8" standalone="no" ?>
<gpx xmlns="http://www.topografix.com/GPX/1/1" xmlns:xsi="http://www.w3.org/2001/XMLSchema-instance" xsi:schemaLocation="http://www.topografix.com/GPX/1/1 http://www.topografix.com/GPX/1/1/gpx.xsd" version="1.1" creator="VisuGPX - https://www.visugpx.com">
  <metadata>
    <name>MB. Sortie du 10/11/2019</name>
    <desc><![CDATA[Sortie VTT du dimanche 10 novembre 2019]]></desc>
  </metadata>
  <trk>
    <name><![CDATA[Pornichet Cyclisme]]></name>
    <trkseg>
      <trkpt lat="47.25982" lon="-2.32351">
        <ele>6.8000001907349</ele>
        <time>2019-11-10T08:00:42.000Z</time>
      </trkpt>
      <trkpt lat="47.2597" lon="-2.32366">
        <ele>6.8000001907349</ele>
        <time>2019-11-10T08:00:45.000Z</time>
      </trkpt>
      <trkpt lat="47.25966" lon="-2.32371">
        <ele>6.4000000953674</ele>
        <time>2019-11-10T08:00:46.000Z</time>
      </trkpt>
      <trkpt lat="47.25956" lon="-2.32386">
        <ele>6.4000000953674</ele>
        <time>2019-11-10T08:00:49.000Z</time>
      </trkpt>
      <trkpt lat="47.25927" lon="-2.3242">
        <ele>6.4000000953674</ele>
        <time>2019-11-10T08:00:56.000Z</time>
      </trkpt>
      <trkpt lat="47.259" lon="-2.3245">
        <ele>6.4000000953674</ele>
        <time>2019-11-10T08:01:03.000Z</time>
      </trkpt>
      <trkpt lat="47.25887" lon="-2.3246">
        <ele>6.4000000953674</ele>
        <time>2019-11-10T08:01:06.000Z</time>
      </trkpt>
      <trkpt lat="47.25878" lon="-2.32464">
        <ele>6.4000000953674</ele>
        <time>2019-11-10T08:01:08.000Z</time>
      </trkpt>
      <trkpt lat="47.25848" lon="-2.32469">
        <ele>6.4000000953674</ele>
        <time>2019-11-10T08:01:14.000Z</time>
      </trkpt>
      <trkpt lat="47.25844" lon="-2.32468">
        <ele>6.4000000953674</ele>
        <time>2019-11-10T08:01:15.000Z</time>
      </trkpt>
      <trkpt lat="47.25824" lon="-2.32462">
        <ele>6.4000000953674</ele>
        <time>2019-11-10T08:01:19.000Z</time>
      </trkpt>
      <trkpt lat="47.25792" lon="-2.32449">
        <ele>6.4000000953674</ele>
        <time>2019-11-10T08:01:26.000Z</time>
      </trkpt>
      <trkpt lat="47.25774" lon="-2.3244">
        <ele>6.4000000953674</ele>
        <time>2019-11-10T08:01:31.000Z</time>
      </trkpt>
      <trkpt lat="47.25765" lon="-2.32424">
        <ele>6.4000000953674</ele>
        <time>2019-11-10T08:01:34.000Z</time>
      </trkpt>
      <trkpt lat="47.25761" lon="-2.32422">
        <ele>6.4000000953674</ele>
        <time>2019-11-10T08:01:35.000Z</time>
      </trkpt>
      <trkpt lat="47.25739" lon="-2.32418">
        <ele>6.4000000953674</ele>
        <time>2019-11-10T08:01:39.000Z</time>
      </trkpt>
      <trkpt lat="47.25696" lon="-2.32418">
        <ele>6.4000000953674</ele>
        <time>2019-11-10T08:01:47.000Z</time>
      </trkpt>
      <trkpt lat="47.25671" lon="-2.32415">
        <ele>6.4000000953674</ele>
        <time>2019-11-10T08:01:52.000Z</time>
      </trkpt>
      <trkpt lat="47.25668" lon="-2.32417">
        <ele>6.4000000953674</ele>
        <time>2019-11-10T08:01:53.000Z</time>
      </trkpt>
      <trkpt lat="47.25665" lon="-2.32432">
        <ele>6.4000000953674</ele>
        <time>2019-11-10T08:01:56.000Z</time>
      </trkpt>
      <trkpt lat="47.25669" lon="-2.32451">
        <ele>6.4000000953674</ele>
        <time>2019-11-10T08:01:59.000Z</time>
      </trkpt>
      <trkpt lat="47.25673" lon="-2.32465">
        <ele>6.8000001907349</ele>
        <time>2019-11-10T08:02:01.000Z</time>
      </trkpt>
      <trkpt lat="47.25674" lon="-2.32471">
        <ele>7.1999998092651</ele>
        <time>2019-11-10T08:02:02.000Z</time>
      </trkpt>
      <trkpt lat="47.25676" lon="-2.32476">
        <ele>7.8000001907349</ele>
        <time>2019-11-10T08:02:03.000Z</time>
      </trkpt>
      <trkpt lat="47.25677" lon="-2.32482">
        <ele>8.1999998092651</ele>
        <time>2019-11-10T08:02:04.000Z</time>
      </trkpt>
      <trkpt lat="47.25679" lon="-2.32488">
        <ele>8.6000003814697</ele>
        <time>2019-11-10T08:02:05.000Z</time>
      </trkpt>
      <trkpt lat="47.2568" lon="-2.32494">
        <ele>8.6000003814697</ele>
        <time>2019-11-10T08:02:06.000Z</time>
      </trkpt>
      <trkpt lat="47.25691" lon="-2.32525">
        <ele>8.6000003814697</ele>
        <time>2019-11-10T08:02:12.000Z</time>
      </trkpt>
      <trkpt lat="47.25695" lon="-2.32536">
        <ele>9</ele>
        <time>2019-11-10T08:02:14.000Z</time>
      </trkpt>
      <trkpt lat="47.25697" lon="-2.32541">
        <ele>9.3999996185303</ele>
        <time>2019-11-10T08:02:15.000Z</time>
      </trkpt>
      <trkpt lat="47.25699" lon="-2.32547">
        <ele>10</ele>
        <time>2019-11-10T08:02:16.000Z</time>
      </trkpt>
      <trkpt lat="47.25701" lon="-2.32552">
        <ele>10.800000190735</ele>
        <time>2019-11-10T08:02:17.000Z</time>
      </trkpt>
      <trkpt lat="47.25702" lon="-2.32558">
        <ele>10.800000190735</ele>
        <time>2019-11-10T08:02:18.000Z</time>
      </trkpt>
      <trkpt lat="47.25712" lon="-2.32595">
        <ele>10.800000190735</ele>
        <time>2019-11-10T08:02:25.000Z</time>
      </trkpt>
      <trkpt lat="47.25711" lon="-2.32601">
        <ele>10.800000190735</ele>
        <time>2019-11-10T08:02:26.000Z</time>
      </trkpt>
      <trkpt lat="47.25704" lon="-2.3262">
        <ele>10.800000190735</ele>
        <time>2019-11-10T08:02:29.000Z</time>
      </trkpt>
      <trkpt lat="47.25692" lon="-2.32627">
        <ele>10.800000190735</ele>
        <time>2019-11-10T08:02:32.000Z</time>
      </trkpt>
      <trkpt lat="47.25683" lon="-2.3263">
        <ele>10.800000190735</ele>
        <time>2019-11-10T08:02:34.000Z</time>
      </trkpt>
      <trkpt lat="47.25679" lon="-2.32632">
        <ele>10.800000190735</ele>
        <time>2019-11-10T08:02:35.000Z</time>
      </trkpt>
      <trkpt lat="47.25663" lon="-2.3264">
        <ele>11.199999809265</ele>
        <time>2019-11-10T08:02:39.000Z</time>
      </trkpt>
      <trkpt lat="47.25659" lon="-2.32643">
        <ele>11.800000190735</ele>
        <time>2019-11-10T08:02:40.000Z</time>
      </trkpt>
      <trkpt lat="47.25655" lon="-2.32645">
        <ele>12.199999809265</ele>
        <time>2019-11-10T08:02:41.000Z</time>
      </trkpt>
      <trkpt lat="47.25651" lon="-2.32647">
        <ele>13.199999809265</ele>
        <time>2019-11-10T08:02:42.000Z</time>
      </trkpt>
      <trkpt lat="47.25642" lon="-2.32651">
        <ele>13.199999809265</ele>
        <time>2019-11-10T08:02:44.000Z</time>
      </trkpt>
      <trkpt lat="47.25638" lon="-2.32653">
        <ele>13.199999809265</ele>
        <time>2019-11-10T08:02:45.000Z</time>
      </trkpt>
      <trkpt lat="47.25625" lon="-2.32659">
        <ele>13.60000038147</ele>
        <time>2019-11-10T08:02:48.000Z</time>
      </trkpt>
      <trkpt lat="47.25621" lon="-2.32661">
        <ele>14</ele>
        <time>2019-11-10T08:02:49.000Z</time>
      </trkpt>
      <trkpt lat="47.25617" lon="-2.32662">
        <ele>14.39999961853</ele>
        <time>2019-11-10T08:02:50.000Z</time>
      </trkpt>
      <trkpt lat="47.25613" lon="-2.32664">
        <ele>14.800000190735</ele>
        <time>2019-11-10T08:02:51.000Z</time>
      </trkpt>
      <trkpt lat="47.25609" lon="-2.32666">
        <ele>15.199999809265</ele>
        <time>2019-11-10T08:02:52.000Z</time>
      </trkpt>
      <trkpt lat="47.25605" lon="-2.32667">
        <ele>15.199999809265</ele>
        <time>2019-11-10T08:02:53.000Z</time>
      </trkpt>
      <trkpt lat="47.25579" lon="-2.32681">
        <ele>15.199999809265</ele>
        <time>2019-11-10T08:02:59.000Z</time>
      </trkpt>
      <trkpt lat="47.25543" lon="-2.32694">
        <ele>15.199999809265</ele>
        <time>2019-11-10T08:03:07.000Z</time>
      </trkpt>
      <trkpt lat="47.25539" lon="-2.32697">
        <ele>15.199999809265</ele>
        <time>2019-11-10T08:03:08.000Z</time>
      </trkpt>
      <trkpt lat="47.2553" lon="-2.32702">
        <ele>15.199999809265</ele>
        <time>2019-11-10T08:03:10.000Z</time>
      </trkpt>
      <trkpt lat="47.25521" lon="-2.32705">
        <ele>15.199999809265</ele>
        <time>2019-11-10T08:03:12.000Z</time>
      </trkpt>
      <trkpt lat="47.25512" lon="-2.32705">
        <ele>15.199999809265</ele>
        <time>2019-11-10T08:03:14.000Z</time>
      </trkpt>
      <trkpt lat="47.25499" lon="-2.32706">
        <ele>15.199999809265</ele>
        <time>2019-11-10T08:03:17.000Z</time>
      </trkpt>
      <trkpt lat="47.25489" lon="-2.32708">
        <ele>15.199999809265</ele>
        <time>2019-11-10T08:03:19.000Z</time>
      </trkpt>
      <trkpt lat="47.25477" lon="-2.32716">
        <ele>15.199999809265</ele>
        <time>2019-11-10T08:03:22.000Z</time>
      </trkpt>
      <trkpt lat="47.25473" lon="-2.3272">
        <ele>15.199999809265</ele>
        <time>2019-11-10T08:03:23.000Z</time>
      </trkpt>
      <trkpt lat="47.25455" lon="-2.32743">
        <ele>15.199999809265</ele>
        <time>2019-11-10T08:03:28.000Z</time>
      </trkpt>
      <trkpt lat="47.25434" lon="-2.32772">
        <ele>15.199999809265</ele>
        <time>2019-11-10T08:03:34.000Z</time>
      </trkpt>
      <trkpt lat="47.25432" lon="-2.32778">
        <ele>15.199999809265</ele>
        <time>2019-11-10T08:03:35.000Z</time>
      </trkpt>
      <trkpt lat="47.25423" lon="-2.32794">
        <ele>14.800000190735</ele>
        <time>2019-11-10T08:03:38.000Z</time>
      </trkpt>
      <trkpt lat="47.25419" lon="-2.32799">
        <ele>14.199999809265</ele>
        <time>2019-11-10T08:03:39.000Z</time>
      </trkpt>
      <trkpt lat="47.25415" lon="-2.32805">
        <ele>13.800000190735</ele>
        <time>2019-11-10T08:03:40.000Z</time>
      </trkpt>
      <trkpt lat="47.25412" lon="-2.3281">
        <ele>13.39999961853</ele>
        <time>2019-11-10T08:03:41.000Z</time>
      </trkpt>
      <trkpt lat="47.25407" lon="-2.32815">
        <ele>13</ele>
        <time>2019-11-10T08:03:42.000Z</time>
      </trkpt>
      <trkpt lat="47.25387" lon="-2.32843">
        <ele>13</ele>
        <time>2019-11-10T08:03:47.000Z</time>
      </trkpt>
      <trkpt lat="47.25356" lon="-2.32875">
        <ele>13</ele>
        <time>2019-11-10T08:03:54.000Z</time>
      </trkpt>
      <trkpt lat="47.25331" lon="-2.32901">
        <ele>13</ele>
        <time>2019-11-10T08:04:00.000Z</time>
      </trkpt>
      <trkpt lat="47.25322" lon="-2.32909">
        <ele>13</ele>
        <time>2019-11-10T08:04:02.000Z</time>
      </trkpt>
      <trkpt lat="47.25311" lon="-2.32923">
        <ele>13</ele>
        <time>2019-11-10T08:04:05.000Z</time>
      </trkpt>
      <trkpt lat="47.25309" lon="-2.3293">
        <ele>13</ele>
        <time>2019-11-10T08:04:06.000Z</time>
      </trkpt>
      <trkpt lat="47.2531" lon="-2.32951">
        <ele>13</ele>
        <time>2019-11-10T08:04:09.000Z</time>
      </trkpt>
      <trkpt lat="47.25314" lon="-2.32965">
        <ele>13</ele>
        <time>2019-11-10T08:04:11.000Z</time>
      </trkpt>
      <trkpt lat="47.25327" lon="-2.32997">
        <ele>13</ele>
        <time>2019-11-10T08:04:16.000Z</time>
      </trkpt>
      <trkpt lat="47.25334" lon="-2.33016">
        <ele>13</ele>
        <time>2019-11-10T08:04:19.000Z</time>
      </trkpt>
      <trkpt lat="47.25342" lon="-2.33033">
        <ele>13</ele>
        <time>2019-11-10T08:04:22.000Z</time>
      </trkpt>
      <trkpt lat="47.25358" lon="-2.33074">
        <ele>13</ele>
        <time>2019-11-10T08:04:29.000Z</time>
      </trkpt>
      <trkpt lat="47.25369" lon="-2.33104">
        <ele>13</ele>
        <time>2019-11-10T08:04:35.000Z</time>
      </trkpt>
      <trkpt lat="47.25372" lon="-2.33111">
        <ele>12.39999961853</ele>
        <time>2019-11-10T08:04:38.000Z</time>
      </trkpt>
      <trkpt lat="47.25371" lon="-2.33112">
        <ele>12</ele>
        <time>2019-11-10T08:04:39.000Z</time>
      </trkpt>
      <trkpt lat="47.25371" lon="-2.33113">
        <ele>11.60000038147</ele>
        <time>2019-11-10T08:04:40.000Z</time>
      </trkpt>
      <trkpt lat="47.25371" lon="-2.33113">
        <ele>11.199999809265</ele>
        <time>2019-11-10T08:04:41.000Z</time>
      </trkpt>
      <trkpt lat="47.25371" lon="-2.33113">
        <ele>10.60000038147</ele>
        <time>2019-11-10T08:04:42.000Z</time>
      </trkpt>
      <trkpt lat="47.25372" lon="-2.33111">
        <ele>8.6000003814697</ele>
        <time>2019-11-10T08:08:11.000Z</time>
      </trkpt>
      <trkpt lat="47.25372" lon="-2.33109">
        <ele>8.6000003814697</ele>
        <time>2019-11-10T08:08:12.000Z</time>
      </trkpt>
      <trkpt lat="47.2537" lon="-2.33103">
        <ele>8.6000003814697</ele>
        <time>2019-11-10T08:08:16.000Z</time>
      </trkpt>
      <trkpt lat="47.25369" lon="-2.33098">
        <ele>8.6000003814697</ele>
        <time>2019-11-10T08:08:18.000Z</time>
      </trkpt>
      <trkpt lat="47.25366" lon="-2.33083">
        <ele>8.6000003814697</ele>
        <time>2019-11-10T08:08:24.000Z</time>
      </trkpt>
      <trkpt lat="47.25356" lon="-2.33061">
        <ele>8.6000003814697</ele>
        <time>2019-11-10T08:08:31.000Z</time>
      </trkpt>
      <trkpt lat="47.25346" lon="-2.33034">
        <ele>8.6000003814697</ele>
        <time>2019-11-10T08:08:38.000Z</time>
      </trkpt>
      <trkpt lat="47.25336" lon="-2.33008">
        <ele>8.6000003814697</ele>
        <time>2019-11-10T08:08:45.000Z</time>
      </trkpt>
      <trkpt lat="47.25322" lon="-2.32976">
        <ele>8.6000003814697</ele>
        <time>2019-11-10T08:08:52.000Z</time>
      </trkpt>
      <trkpt lat="47.25311" lon="-2.32949">
        <ele>8.6000003814697</ele>
        <time>2019-11-10T08:08:58.000Z</time>
      </trkpt>
      <trkpt lat="47.2531" lon="-2.32929">
        <ele>8.6000003814697</ele>
        <time>2019-11-10T08:09:02.000Z</time>
      </trkpt>
      <trkpt lat="47.2532" lon="-2.32912">
        <ele>8.6000003814697</ele>
        <time>2019-11-10T08:09:06.000Z</time>
      </trkpt>
      <trkpt lat="47.25323" lon="-2.32908">
        <ele>8.6000003814697</ele>
        <time>2019-11-10T08:09:07.000Z</time>
      </trkpt>
      <trkpt lat="47.25338" lon="-2.32889">
        <ele>8.6000003814697</ele>
        <time>2019-11-10T08:09:12.000Z</time>
      </trkpt>
      <trkpt lat="47.25337" lon="-2.32883">
        <ele>8.6000003814697</ele>
        <time>2019-11-10T08:09:13.000Z</time>
      </trkpt>
      <trkpt lat="47.25335" lon="-2.32871">
        <ele>8.6000003814697</ele>
        <time>2019-11-10T08:09:15.000Z</time>
      </trkpt>
      <trkpt lat="47.25328" lon="-2.32854">
        <ele>8.6000003814697</ele>
        <time>2019-11-10T08:09:18.000Z</time>
      </trkpt>
      <trkpt lat="47.25319" lon="-2.32837">
        <ele>8.6000003814697</ele>
        <time>2019-11-10T08:09:21.000Z</time>
      </trkpt>
      <trkpt lat="47.25301" lon="-2.328">
        <ele>9</ele>
        <time>2019-11-10T08:09:28.000Z</time>
      </trkpt>
      <trkpt lat="47.25299" lon="-2.32794">
        <ele>9.3999996185303</ele>
        <time>2019-11-10T08:09:29.000Z</time>
      </trkpt>
      <trkpt lat="47.25296" lon="-2.32789">
        <ele>9.8000001907349</ele>
        <time>2019-11-10T08:09:30.000Z</time>
      </trkpt>
      <trkpt lat="47.25293" lon="-2.32784">
        <ele>10.199999809265</ele>
        <time>2019-11-10T08:09:31.000Z</time>
      </trkpt>
      <trkpt lat="47.25291" lon="-2.32778">
        <ele>10.60000038147</ele>
        <time>2019-11-10T08:09:32.000Z</time>
      </trkpt>
      <trkpt lat="47.25283" lon="-2.32763">
        <ele>10.60000038147</ele>
        <time>2019-11-10T08:09:35.000Z</time>
      </trkpt>
      <trkpt lat="47.25274" lon="-2.3275">
        <ele>10.60000038147</ele>
        <time>2019-11-10T08:09:38.000Z</time>
      </trkpt>
      <trkpt lat="47.25253" lon="-2.32723">
        <ele>10.60000038147</ele>
        <time>2019-11-10T08:09:45.000Z</time>
      </trkpt>
      <trkpt lat="47.2525" lon="-2.32719">
        <ele>11</ele>
        <time>2019-11-10T08:09:46.000Z</time>
      </trkpt>
      <trkpt lat="47.25247" lon="-2.32715">
        <ele>11.39999961853</ele>
        <time>2019-11-10T08:09:47.000Z</time>
      </trkpt>
      <trkpt lat="47.25244" lon="-2.32712">
        <ele>11.800000190735</ele>
        <time>2019-11-10T08:09:48.000Z</time>
      </trkpt>
      <trkpt lat="47.25241" lon="-2.32708">
        <ele>12.199999809265</ele>
        <time>2019-11-10T08:09:49.000Z</time>
      </trkpt>
      <trkpt lat="47.25239" lon="-2.32705">
        <ele>12.60000038147</ele>
        <time>2019-11-10T08:09:50.000Z</time>
      </trkpt>
      <trkpt lat="47.25236" lon="-2.32701">
        <ele>12.60000038147</ele>
        <time>2019-11-10T08:09:51.000Z</time>
      </trkpt>
      <trkpt lat="47.25226" lon="-2.32695">
        <ele>12.60000038147</ele>
        <time>2019-11-10T08:09:56.000Z</time>
      </trkpt>
      <trkpt lat="47.25225" lon="-2.32696">
        <ele>12.60000038147</ele>
        <time>2019-11-10T08:09:57.000Z</time>
      </trkpt>
      <trkpt lat="47.25221" lon="-2.32699">
        <ele>12.60000038147</ele>
        <time>2019-11-10T08:10:00.000Z</time>
      </trkpt>
      <trkpt lat="47.25216" lon="-2.32702">
        <ele>12.60000038147</ele>
        <time>2019-11-10T08:10:04.000Z</time>
      </trkpt>
      <trkpt lat="47.25215" lon="-2.32706">
        <ele>12.60000038147</ele>
        <time>2019-11-10T08:10:05.000Z</time>
      </trkpt>
      <trkpt lat="47.25211" lon="-2.32727">
        <ele>12.60000038147</ele>
        <time>2019-11-10T08:10:09.000Z</time>
      </trkpt>
      <trkpt lat="47.25209" lon="-2.32734">
        <ele>12.60000038147</ele>
        <time>2019-11-10T08:10:11.000Z</time>
      </trkpt>
      <trkpt lat="47.25206" lon="-2.32734">
        <ele>12.60000038147</ele>
        <time>2019-11-10T08:10:12.000Z</time>
      </trkpt>
      <trkpt lat="47.25198" lon="-2.32727">
        <ele>12.60000038147</ele>
        <time>2019-11-10T08:10:15.000Z</time>
      </trkpt>
      <trkpt lat="47.25195" lon="-2.32723">
        <ele>12.60000038147</ele>
        <time>2019-11-10T08:10:16.000Z</time>
      </trkpt>
      <trkpt lat="47.25183" lon="-2.32708">
        <ele>12.60000038147</ele>
        <time>2019-11-10T08:10:20.000Z</time>
      </trkpt>
      <trkpt lat="47.25172" lon="-2.32708">
        <ele>12.60000038147</ele>
        <time>2019-11-10T08:10:23.000Z</time>
      </trkpt>
      <trkpt lat="47.25165" lon="-2.32715">
        <ele>12.60000038147</ele>
        <time>2019-11-10T08:10:25.000Z</time>
      </trkpt>
      <trkpt lat="47.25159" lon="-2.32722">
        <ele>12.60000038147</ele>
        <time>2019-11-10T08:10:27.000Z</time>
      </trkpt>
      <trkpt lat="47.25152" lon="-2.3273">
        <ele>12.60000038147</ele>
        <time>2019-11-10T08:10:29.000Z</time>
      </trkpt>
      <trkpt lat="47.25144" lon="-2.32735">
        <ele>12.60000038147</ele>
        <time>2019-11-10T08:10:31.000Z</time>
      </trkpt>
      <trkpt lat="47.25139" lon="-2.32738">
        <ele>12.60000038147</ele>
        <time>2019-11-10T08:10:32.000Z</time>
      </trkpt>
      <trkpt lat="47.25135" lon="-2.32741">
        <ele>12.199999809265</ele>
        <time>2019-11-10T08:10:33.000Z</time>
      </trkpt>
      <trkpt lat="47.2513" lon="-2.32743">
        <ele>11.800000190735</ele>
        <time>2019-11-10T08:10:34.000Z</time>
      </trkpt>
      <trkpt lat="47.25126" lon="-2.32746">
        <ele>11.39999961853</ele>
        <time>2019-11-10T08:10:35.000Z</time>
      </trkpt>
      <trkpt lat="47.25121" lon="-2.32746">
        <ele>11</ele>
        <time>2019-11-10T08:10:36.000Z</time>
      </trkpt>
      <trkpt lat="47.25117" lon="-2.32744">
        <ele>10.60000038147</ele>
        <time>2019-11-10T08:10:37.000Z</time>
      </trkpt>
      <trkpt lat="47.25103" lon="-2.32721">
        <ele>10.60000038147</ele>
        <time>2019-11-10T08:10:41.000Z</time>
      </trkpt>
      <trkpt lat="47.25101" lon="-2.32716">
        <ele>10.60000038147</ele>
        <time>2019-11-10T08:10:42.000Z</time>
      </trkpt>
      <trkpt lat="47.25095" lon="-2.32702">
        <ele>10.60000038147</ele>
        <time>2019-11-10T08:10:45.000Z</time>
      </trkpt>
      <trkpt lat="47.25081" lon="-2.32702">
        <ele>10.60000038147</ele>
        <time>2019-11-10T08:10:49.000Z</time>
      </trkpt>
      <trkpt lat="47.25073" lon="-2.3271">
        <ele>10.60000038147</ele>
        <time>2019-11-10T08:10:51.000Z</time>
      </trkpt>
      <trkpt lat="47.2506" lon="-2.32721">
        <ele>10.60000038147</ele>
        <time>2019-11-10T08:10:54.000Z</time>
      </trkpt>
      <trkpt lat="47.25047" lon="-2.32733">
        <ele>10.199999809265</ele>
        <time>2019-11-10T08:10:57.000Z</time>
      </trkpt>
      <trkpt lat="47.25042" lon="-2.32737">
        <ele>9.8000001907349</ele>
        <time>2019-11-10T08:10:58.000Z</time>
      </trkpt>
      <trkpt lat="47.25038" lon="-2.32741">
        <ele>9.3999996185303</ele>
        <time>2019-11-10T08:10:59.000Z</time>
      </trkpt>
      <trkpt lat="47.25033" lon="-2.32745">
        <ele>9</ele>
        <time>2019-11-10T08:11:00.000Z</time>
      </trkpt>
      <trkpt lat="47.25028" lon="-2.32749">
        <ele>8.6000003814697</ele>
        <time>2019-11-10T08:11:01.000Z</time>
      </trkpt>
      <trkpt lat="47.24997" lon="-2.32781">
        <ele>8.6000003814697</ele>
        <time>2019-11-10T08:11:08.000Z</time>
      </trkpt>
      <trkpt lat="47.24992" lon="-2.32786">
        <ele>8.6000003814697</ele>
        <time>2019-11-10T08:11:11.000Z</time>
      </trkpt>
      <trkpt lat="47.24986" lon="-2.32794">
        <ele>8.1999998092651</ele>
        <time>2019-11-10T08:11:16.000Z</time>
      </trkpt>
      <trkpt lat="47.24985" lon="-2.32795">
        <ele>7.8000001907349</ele>
        <time>2019-11-10T08:11:17.000Z</time>
      </trkpt>
      <trkpt lat="47.24983" lon="-2.32795">
        <ele>7.1999998092651</ele>
        <time>2019-11-10T08:11:18.000Z</time>
      </trkpt>
      <trkpt lat="47.24982" lon="-2.32796">
        <ele>6.8000001907349</ele>
        <time>2019-11-10T08:11:19.000Z</time>
      </trkpt>
      <trkpt lat="47.24981" lon="-2.32796">
        <ele>6.4000000953674</ele>
        <time>2019-11-10T08:11:20.000Z</time>
      </trkpt>
      <trkpt lat="47.24978" lon="-2.32796">
        <ele>6.4000000953674</ele>
        <time>2019-11-10T08:11:22.000Z</time>
      </trkpt>
      <trkpt lat="47.24969" lon="-2.32803">
        <ele>6.4000000953674</ele>
        <time>2019-11-10T08:11:26.000Z</time>
      </trkpt>
      <trkpt lat="47.24961" lon="-2.32809">
        <ele>6.4000000953674</ele>
        <time>2019-11-10T08:11:29.000Z</time>
      </trkpt>
      <trkpt lat="47.24954" lon="-2.32815">
        <ele>6.4000000953674</ele>
        <time>2019-11-10T08:11:32.000Z</time>
      </trkpt>
      <trkpt lat="47.24942" lon="-2.32822">
        <ele>6.8000001907349</ele>
        <time>2019-11-10T08:11:37.000Z</time>
      </trkpt>
      <trkpt lat="47.2494" lon="-2.32824">
        <ele>7.4000000953674</ele>
        <time>2019-11-10T08:11:38.000Z</time>
      </trkpt>
      <trkpt lat="47.24938" lon="-2.32825">
        <ele>7.8000001907349</ele>
        <time>2019-11-10T08:11:39.000Z</time>
      </trkpt>
      <trkpt lat="47.24936" lon="-2.32825">
        <ele>8.1999998092651</ele>
        <time>2019-11-10T08:11:40.000Z</time>
      </trkpt>
      <trkpt lat="47.24934" lon="-2.32825">
        <ele>8.6000003814697</ele>
        <time>2019-11-10T08:11:41.000Z</time>
      </trkpt>
      <trkpt lat="47.2493" lon="-2.3282">
        <ele>8.6000003814697</ele>
        <time>2019-11-10T08:11:44.000Z</time>
      </trkpt>
      <trkpt lat="47.2493" lon="-2.32817">
        <ele>8.6000003814697</ele>
        <time>2019-11-10T08:11:45.000Z</time>
      </trkpt>
      <trkpt lat="47.24929" lon="-2.32815">
        <ele>8.6000003814697</ele>
        <time>2019-11-10T08:11:46.000Z</time>
      </trkpt>
      <trkpt lat="47.24925" lon="-2.32806">
        <ele>8.6000003814697</ele>
        <time>2019-11-10T08:11:49.000Z</time>
      </trkpt>
      <trkpt lat="47.24917" lon="-2.32787">
        <ele>8.6000003814697</ele>
        <time>2019-11-10T08:11:54.000Z</time>
      </trkpt>
      <trkpt lat="47.24915" lon="-2.32783">
        <ele>8.6000003814697</ele>
        <time>2019-11-10T08:11:55.000Z</time>
      </trkpt>
      <trkpt lat="47.24903" lon="-2.32749">
        <ele>8.6000003814697</ele>
        <time>2019-11-10T08:12:02.000Z</time>
      </trkpt>
      <trkpt lat="47.24887" lon="-2.32709">
        <ele>8.6000003814697</ele>
        <time>2019-11-10T08:12:10.000Z</time>
      </trkpt>
      <trkpt lat="47.24884" lon="-2.32698">
        <ele>9</ele>
        <time>2019-11-10T08:12:12.000Z</time>
      </trkpt>
      <trkpt lat="47.24883" lon="-2.32693">
        <ele>9.3999996185303</ele>
        <time>2019-11-10T08:12:13.000Z</time>
      </trkpt>
      <trkpt lat="47.24881" lon="-2.32688">
        <ele>9.8000001907349</ele>
        <time>2019-11-10T08:12:14.000Z</time>
      </trkpt>
      <trkpt lat="47.24879" lon="-2.32683">
        <ele>10.199999809265</ele>
        <time>2019-11-10T08:12:15.000Z</time>
      </trkpt>
      <trkpt lat="47.24877" lon="-2.32679">
        <ele>10.60000038147</ele>
        <time>2019-11-10T08:12:16.000Z</time>
      </trkpt>
      <trkpt lat="47.24874" lon="-2.32669">
        <ele>10.60000038147</ele>
        <time>2019-11-10T08:12:18.000Z</time>
      </trkpt>
      <trkpt lat="47.24856" lon="-2.32635">
        <ele>10.60000038147</ele>
        <time>2019-11-10T08:12:25.000Z</time>
      </trkpt>
      <trkpt lat="47.24846" lon="-2.326">
        <ele>10.60000038147</ele>
        <time>2019-11-10T08:12:30.000Z</time>
      </trkpt>
      <trkpt lat="47.24841" lon="-2.32585">
        <ele>10.60000038147</ele>
        <time>2019-11-10T08:12:34.000Z</time>
      </trkpt>
      <trkpt lat="47.24835" lon="-2.32572">
        <ele>10.60000038147</ele>
        <time>2019-11-10T08:12:38.000Z</time>
      </trkpt>
      <trkpt lat="47.2482" lon="-2.32543">
        <ele>10.60000038147</ele>
        <time>2019-11-10T08:12:44.000Z</time>
      </trkpt>
      <trkpt lat="47.24815" lon="-2.32532">
        <ele>10.60000038147</ele>
        <time>2019-11-10T08:12:46.000Z</time>
      </trkpt>
      <trkpt lat="47.24805" lon="-2.32505">
        <ele>10.60000038147</ele>
        <time>2019-11-10T08:12:50.000Z</time>
      </trkpt>
      <trkpt lat="47.24788" lon="-2.32451">
        <ele>10.60000038147</ele>
        <time>2019-11-10T08:12:58.000Z</time>
      </trkpt>
      <trkpt lat="47.24769" lon="-2.32406">
        <ele>10.60000038147</ele>
        <time>2019-11-10T08:13:05.000Z</time>
      </trkpt>
      <trkpt lat="47.24755" lon="-2.32369">
        <ele>10.60000038147</ele>
        <time>2019-11-10T08:13:11.000Z</time>
      </trkpt>
      <trkpt lat="47.24745" lon="-2.32344">
        <ele>10.199999809265</ele>
        <time>2019-11-10T08:13:16.000Z</time>
      </trkpt>
      <trkpt lat="47.24743" lon="-2.3234">
        <ele>9.8000001907349</ele>
        <time>2019-11-10T08:13:17.000Z</time>
      </trkpt>
      <trkpt lat="47.24741" lon="-2.32337">
        <ele>9.3999996185303</ele>
        <time>2019-11-10T08:13:18.000Z</time>
      </trkpt>
      <trkpt lat="47.24739" lon="-2.32334">
        <ele>9</ele>
        <time>2019-11-10T08:13:19.000Z</time>
      </trkpt>
      <trkpt lat="47.24739" lon="-2.32331">
        <ele>8.6000003814697</ele>
        <time>2019-11-10T08:13:20.000Z</time>
      </trkpt>
      <trkpt lat="47.24737" lon="-2.32328">
        <ele>8.6000003814697</ele>
        <time>2019-11-10T08:13:21.000Z</time>
      </trkpt>
      <trkpt lat="47.24732" lon="-2.32317">
        <ele>8.6000003814697</ele>
        <time>2019-11-10T08:13:24.000Z</time>
      </trkpt>
      <trkpt lat="47.2473" lon="-2.32313">
        <ele>8.6000003814697</ele>
        <time>2019-11-10T08:13:25.000Z</time>
      </trkpt>
      <trkpt lat="47.24714" lon="-2.3228">
        <ele>8.6000003814697</ele>
        <time>2019-11-10T08:13:32.000Z</time>
      </trkpt>
      <trkpt lat="47.24689" lon="-2.32231">
        <ele>8.6000003814697</ele>
        <time>2019-11-10T08:13:41.000Z</time>
      </trkpt>
      <trkpt lat="47.24667" lon="-2.32191">
        <ele>8.6000003814697</ele>
        <time>2019-11-10T08:13:48.000Z</time>
      </trkpt>
      <trkpt lat="47.24644" lon="-2.32157">
        <ele>8.6000003814697</ele>
        <time>2019-11-10T08:13:55.000Z</time>
      </trkpt>
      <trkpt lat="47.24635" lon="-2.32144">
        <ele>8.6000003814697</ele>
        <time>2019-11-10T08:14:00.000Z</time>
      </trkpt>
      <trkpt lat="47.24621" lon="-2.32125">
        <ele>8.6000003814697</ele>
        <time>2019-11-10T08:14:06.000Z</time>
      </trkpt>
      <trkpt lat="47.24599" lon="-2.32091">
        <ele>8.6000003814697</ele>
        <time>2019-11-10T08:14:13.000Z</time>
      </trkpt>
      <trkpt lat="47.2459" lon="-2.32074">
        <ele>8.6000003814697</ele>
        <time>2019-11-10T08:14:18.000Z</time>
      </trkpt>
      <trkpt lat="47.24584" lon="-2.32067">
        <ele>8.6000003814697</ele>
        <time>2019-11-10T08:14:22.000Z</time>
      </trkpt>
      <trkpt lat="47.24571" lon="-2.32053">
        <ele>8.6000003814697</ele>
        <time>2019-11-10T08:14:27.000Z</time>
      </trkpt>
      <trkpt lat="47.2456" lon="-2.3205">
        <ele>8.6000003814697</ele>
        <time>2019-11-10T08:14:30.000Z</time>
      </trkpt>
      <trkpt lat="47.24533" lon="-2.32028">
        <ele>8.6000003814697</ele>
        <time>2019-11-10T08:14:37.000Z</time>
      </trkpt>
      <trkpt lat="47.2453" lon="-2.32026">
        <ele>8.6000003814697</ele>
        <time>2019-11-10T08:14:38.000Z</time>
      </trkpt>
      <trkpt lat="47.2452" lon="-2.32024">
        <ele>8.6000003814697</ele>
        <time>2019-11-10T08:14:41.000Z</time>
      </trkpt>
      <trkpt lat="47.24508" lon="-2.32016">
        <ele>8.6000003814697</ele>
        <time>2019-11-10T08:14:47.000Z</time>
      </trkpt>
      <trkpt lat="47.24497" lon="-2.32006">
        <ele>8.6000003814697</ele>
        <time>2019-11-10T08:14:51.000Z</time>
      </trkpt>
      <trkpt lat="47.24491" lon="-2.32001">
        <ele>9</ele>
        <time>2019-11-10T08:14:53.000Z</time>
      </trkpt>
      <trkpt lat="47.24489" lon="-2.31998">
        <ele>9.3999996185303</ele>
        <time>2019-11-10T08:14:54.000Z</time>
      </trkpt>
      <trkpt lat="47.24486" lon="-2.31994">
        <ele>9.8000001907349</ele>
        <time>2019-11-10T08:14:55.000Z</time>
      </trkpt>
      <trkpt lat="47.24483" lon="-2.31991">
        <ele>10.199999809265</ele>
        <time>2019-11-10T08:14:56.000Z</time>
      </trkpt>
      <trkpt lat="47.2448" lon="-2.31986">
        <ele>10.60000038147</ele>
        <time>2019-11-10T08:14:57.000Z</time>
      </trkpt>
      <trkpt lat="47.24472" lon="-2.3197">
        <ele>10.60000038147</ele>
        <time>2019-11-10T08:15:00.000Z</time>
      </trkpt>
      <trkpt lat="47.24458" lon="-2.31934">
        <ele>10.60000038147</ele>
        <time>2019-11-10T08:15:06.000Z</time>
      </trkpt>
      <trkpt lat="47.24443" lon="-2.31892">
        <ele>10.60000038147</ele>
        <time>2019-11-10T08:15:13.000Z</time>
      </trkpt>
      <trkpt lat="47.2444" lon="-2.31887">
        <ele>10.60000038147</ele>
        <time>2019-11-10T08:15:14.000Z</time>
      </trkpt>
      <trkpt lat="47.24434" lon="-2.31877">
        <ele>10.60000038147</ele>
        <time>2019-11-10T08:15:16.000Z</time>
      </trkpt>
      <trkpt lat="47.24421" lon="-2.3187">
        <ele>10.60000038147</ele>
        <time>2019-11-10T08:15:19.000Z</time>
      </trkpt>
      <trkpt lat="47.24407" lon="-2.31864">
        <ele>10.60000038147</ele>
        <time>2019-11-10T08:15:22.000Z</time>
      </trkpt>
      <trkpt lat="47.24393" lon="-2.31854">
        <ele>10.60000038147</ele>
        <time>2019-11-10T08:15:25.000Z</time>
      </trkpt>
      <trkpt lat="47.24377" lon="-2.31833">
        <ele>10.60000038147</ele>
        <time>2019-11-10T08:15:29.000Z</time>
      </trkpt>
      <trkpt lat="47.24369" lon="-2.31823">
        <ele>10.60000038147</ele>
        <time>2019-11-10T08:15:31.000Z</time>
      </trkpt>
      <trkpt lat="47.24361" lon="-2.31806">
        <ele>10.60000038147</ele>
        <time>2019-11-10T08:15:34.000Z</time>
      </trkpt>
      <trkpt lat="47.24351" lon="-2.31774">
        <ele>10.60000038147</ele>
        <time>2019-11-10T08:15:40.000Z</time>
      </trkpt>
      <trkpt lat="47.2435" lon="-2.31737">
        <ele>10.60000038147</ele>
        <time>2019-11-10T08:15:46.000Z</time>
      </trkpt>
      <trkpt lat="47.24353" lon="-2.31725">
        <ele>10.60000038147</ele>
        <time>2019-11-10T08:15:48.000Z</time>
      </trkpt>
      <trkpt lat="47.24358" lon="-2.31715">
        <ele>11</ele>
        <time>2019-11-10T08:15:50.000Z</time>
      </trkpt>
      <trkpt lat="47.2436" lon="-2.31709">
        <ele>11.60000038147</ele>
        <time>2019-11-10T08:15:51.000Z</time>
      </trkpt>
      <trkpt lat="47.24362" lon="-2.31703">
        <ele>12</ele>
        <time>2019-11-10T08:15:52.000Z</time>
      </trkpt>
      <trkpt lat="47.24364" lon="-2.31697">
        <ele>12.39999961853</ele>
        <time>2019-11-10T08:15:53.000Z</time>
      </trkpt>
      <trkpt lat="47.24366" lon="-2.31691">
        <ele>12.800000190735</ele>
        <time>2019-11-10T08:15:54.000Z</time>
      </trkpt>
      <trkpt lat="47.24371" lon="-2.3166">
        <ele>12.800000190735</ele>
        <time>2019-11-10T08:15:59.000Z</time>
      </trkpt>
      <trkpt lat="47.24376" lon="-2.31634">
        <ele>12.800000190735</ele>
        <time>2019-11-10T08:16:04.000Z</time>
      </trkpt>
      <trkpt lat="47.24375" lon="-2.3163">
        <ele>12.800000190735</ele>
        <time>2019-11-10T08:16:05.000Z</time>
      </trkpt>
      <trkpt lat="47.24375" lon="-2.3162">
        <ele>12.800000190735</ele>
        <time>2019-11-10T08:16:07.000Z</time>
      </trkpt>
      <trkpt lat="47.24372" lon="-2.31586">
        <ele>12.800000190735</ele>
        <time>2019-11-10T08:16:13.000Z</time>
      </trkpt>
      <trkpt lat="47.24369" lon="-2.31577">
        <ele>12.199999809265</ele>
        <time>2019-11-10T08:16:16.000Z</time>
      </trkpt>
      <trkpt lat="47.24368" lon="-2.31574">
        <ele>11.800000190735</ele>
        <time>2019-11-10T08:16:17.000Z</time>
      </trkpt>
      <trkpt lat="47.24367" lon="-2.31572">
        <ele>11.39999961853</ele>
        <time>2019-11-10T08:16:18.000Z</time>
      </trkpt>
      <trkpt lat="47.24366" lon="-2.31569">
        <ele>10.39999961853</ele>
        <time>2019-11-10T08:16:19.000Z</time>
      </trkpt>
      <trkpt lat="47.24364" lon="-2.31557">
        <ele>10.39999961853</ele>
        <time>2019-11-10T08:16:23.000Z</time>
      </trkpt>
      <trkpt lat="47.24365" lon="-2.31553">
        <ele>10</ele>
        <time>2019-11-10T08:16:24.000Z</time>
      </trkpt>
      <trkpt lat="47.24365" lon="-2.3155">
        <ele>9.6000003814697</ele>
        <time>2019-11-10T08:16:25.000Z</time>
      </trkpt>
      <trkpt lat="47.24365" lon="-2.31549">
        <ele>9</ele>
        <time>2019-11-10T08:16:26.000Z</time>
      </trkpt>
      <trkpt lat="47.24365" lon="-2.31546">
        <ele>8.6000003814697</ele>
        <time>2019-11-10T08:16:27.000Z</time>
      </trkpt>
      <trkpt lat="47.24365" lon="-2.31544">
        <ele>8.1999998092651</ele>
        <time>2019-11-10T08:16:28.000Z</time>
      </trkpt>
      <trkpt lat="47.24364" lon="-2.31535">
        <ele>8.1999998092651</ele>
        <time>2019-11-10T08:16:32.000Z</time>
      </trkpt>
      <trkpt lat="47.24363" lon="-2.31526">
        <ele>8.1999998092651</ele>
        <time>2019-11-10T08:16:36.000Z</time>
      </trkpt>
      <trkpt lat="47.24361" lon="-2.31522">
        <ele>8.1999998092651</ele>
        <time>2019-11-10T08:16:37.000Z</time>
      </trkpt>
      <trkpt lat="47.24356" lon="-2.31506">
        <ele>8.1999998092651</ele>
        <time>2019-11-10T08:16:40.000Z</time>
      </trkpt>
      <trkpt lat="47.24355" lon="-2.31494">
        <ele>8.1999998092651</ele>
        <time>2019-11-10T08:16:42.000Z</time>
      </trkpt>
      <trkpt lat="47.24356" lon="-2.31483">
        <ele>8.1999998092651</ele>
        <time>2019-11-10T08:16:44.000Z</time>
      </trkpt>
      <trkpt lat="47.24358" lon="-2.31471">
        <ele>8.1999998092651</ele>
        <time>2019-11-10T08:16:46.000Z</time>
      </trkpt>
      <trkpt lat="47.2437" lon="-2.31454">
        <ele>8.1999998092651</ele>
        <time>2019-11-10T08:16:50.000Z</time>
      </trkpt>
      <trkpt lat="47.24387" lon="-2.31432">
        <ele>8.1999998092651</ele>
        <time>2019-11-10T08:16:56.000Z</time>
      </trkpt>
      <trkpt lat="47.24391" lon="-2.31422">
        <ele>8.1999998092651</ele>
        <time>2019-11-10T08:16:58.000Z</time>
      </trkpt>
      <trkpt lat="47.24395" lon="-2.31418">
        <ele>8.6000003814697</ele>
        <time>2019-11-10T08:16:59.000Z</time>
      </trkpt>
      <trkpt lat="47.24399" lon="-2.31414">
        <ele>9</ele>
        <time>2019-11-10T08:17:00.000Z</time>
      </trkpt>
      <trkpt lat="47.24403" lon="-2.3141">
        <ele>9.3999996185303</ele>
        <time>2019-11-10T08:17:01.000Z</time>
      </trkpt>
      <trkpt lat="47.24407" lon="-2.31406">
        <ele>9.8000001907349</ele>
        <time>2019-11-10T08:17:02.000Z</time>
      </trkpt>
      <trkpt lat="47.2441" lon="-2.31401">
        <ele>10.199999809265</ele>
        <time>2019-11-10T08:17:03.000Z</time>
      </trkpt>
      <trkpt lat="47.24414" lon="-2.31396">
        <ele>10.199999809265</ele>
        <time>2019-11-10T08:17:04.000Z</time>
      </trkpt>
      <trkpt lat="47.24419" lon="-2.31387">
        <ele>10.199999809265</ele>
        <time>2019-11-10T08:17:06.000Z</time>
      </trkpt>
      <trkpt lat="47.24428" lon="-2.31374">
        <ele>10.60000038147</ele>
        <time>2019-11-10T08:17:09.000Z</time>
      </trkpt>
      <trkpt lat="47.2443" lon="-2.3137">
        <ele>11.199999809265</ele>
        <time>2019-11-10T08:17:10.000Z</time>
      </trkpt>
      <trkpt lat="47.24434" lon="-2.31367">
        <ele>11.60000038147</ele>
        <time>2019-11-10T08:17:11.000Z</time>
      </trkpt>
      <trkpt lat="47.24438" lon="-2.31363">
        <ele>12</ele>
        <time>2019-11-10T08:17:12.000Z</time>
      </trkpt>
      <trkpt lat="47.24441" lon="-2.31358">
        <ele>12.60000038147</ele>
        <time>2019-11-10T08:17:13.000Z</time>
      </trkpt>
      <trkpt lat="47.24448" lon="-2.31351">
        <ele>13</ele>
        <time>2019-11-10T08:17:15.000Z</time>
      </trkpt>
      <trkpt lat="47.24452" lon="-2.31347">
        <ele>13.39999961853</ele>
        <time>2019-11-10T08:17:16.000Z</time>
      </trkpt>
      <trkpt lat="47.24455" lon="-2.31344">
        <ele>13.800000190735</ele>
        <time>2019-11-10T08:17:17.000Z</time>
      </trkpt>
      <trkpt lat="47.24459" lon="-2.31341">
        <ele>14.199999809265</ele>
        <time>2019-11-10T08:17:18.000Z</time>
      </trkpt>
      <trkpt lat="47.24462" lon="-2.31338">
        <ele>14.800000190735</ele>
        <time>2019-11-10T08:17:19.000Z</time>
      </trkpt>
      <trkpt lat="47.24466" lon="-2.31335">
        <ele>14.800000190735</ele>
        <time>2019-11-10T08:17:20.000Z</time>
      </trkpt>
      <trkpt lat="47.24476" lon="-2.31327">
        <ele>15.199999809265</ele>
        <time>2019-11-10T08:17:23.000Z</time>
      </trkpt>
      <trkpt lat="47.24479" lon="-2.31324">
        <ele>15.60000038147</ele>
        <time>2019-11-10T08:17:24.000Z</time>
      </trkpt>
      <trkpt lat="47.24481" lon="-2.31322">
        <ele>16</ele>
        <time>2019-11-10T08:17:25.000Z</time>
      </trkpt>
      <trkpt lat="47.24482" lon="-2.31319">
        <ele>16.39999961853</ele>
        <time>2019-11-10T08:17:26.000Z</time>
      </trkpt>
      <trkpt lat="47.24484" lon="-2.31316">
        <ele>16.799999237061</ele>
        <time>2019-11-10T08:17:27.000Z</time>
      </trkpt>
      <trkpt lat="47.24484" lon="-2.3131">
        <ele>16.799999237061</ele>
        <time>2019-11-10T08:17:29.000Z</time>
      </trkpt>
      <trkpt lat="47.24482" lon="-2.31301">
        <ele>16.799999237061</ele>
        <time>2019-11-10T08:17:31.000Z</time>
      </trkpt>
      <trkpt lat="47.24479" lon="-2.31296">
        <ele>16.799999237061</ele>
        <time>2019-11-10T08:17:32.000Z</time>
      </trkpt>
      <trkpt lat="47.24468" lon="-2.31273">
        <ele>16.799999237061</ele>
        <time>2019-11-10T08:17:36.000Z</time>
      </trkpt>
      <trkpt lat="47.24458" lon="-2.31251">
        <ele>16.799999237061</ele>
        <time>2019-11-10T08:17:40.000Z</time>
      </trkpt>
      <trkpt lat="47.24456" lon="-2.31241">
        <ele>16.799999237061</ele>
        <time>2019-11-10T08:17:42.000Z</time>
      </trkpt>
      <trkpt lat="47.24449" lon="-2.31227">
        <ele>16.799999237061</ele>
        <time>2019-11-10T08:17:46.000Z</time>
      </trkpt>
      <trkpt lat="47.24443" lon="-2.31223">
        <ele>16.39999961853</ele>
        <time>2019-11-10T08:17:48.000Z</time>
      </trkpt>
      <trkpt lat="47.2444" lon="-2.31224">
        <ele>16</ele>
        <time>2019-11-10T08:17:49.000Z</time>
      </trkpt>
      <trkpt lat="47.24437" lon="-2.31224">
        <ele>15.39999961853</ele>
        <time>2019-11-10T08:17:50.000Z</time>
      </trkpt>
      <trkpt lat="47.24434" lon="-2.31226">
        <ele>15</ele>
        <time>2019-11-10T08:17:51.000Z</time>
      </trkpt>
      <trkpt lat="47.24431" lon="-2.31227">
        <ele>14.39999961853</ele>
        <time>2019-11-10T08:17:52.000Z</time>
      </trkpt>
      <trkpt lat="47.24428" lon="-2.31226">
        <ele>14</ele>
        <time>2019-11-10T08:17:53.000Z</time>
      </trkpt>
      <trkpt lat="47.24426" lon="-2.31224">
        <ele>13.39999961853</ele>
        <time>2019-11-10T08:17:54.000Z</time>
      </trkpt>
      <trkpt lat="47.24424" lon="-2.3122">
        <ele>13</ele>
        <time>2019-11-10T08:17:55.000Z</time>
      </trkpt>
      <trkpt lat="47.24423" lon="-2.31218">
        <ele>12.39999961853</ele>
        <time>2019-11-10T08:17:56.000Z</time>
      </trkpt>
      <trkpt lat="47.24422" lon="-2.31215">
        <ele>12</ele>
        <time>2019-11-10T08:17:57.000Z</time>
      </trkpt>
      <trkpt lat="47.24421" lon="-2.31211">
        <ele>12</ele>
        <time>2019-11-10T08:17:58.000Z</time>
      </trkpt>
      <trkpt lat="47.24416" lon="-2.31202">
        <ele>12</ele>
        <time>2019-11-10T08:18:01.000Z</time>
      </trkpt>
      <trkpt lat="47.24413" lon="-2.31192">
        <ele>12</ele>
        <time>2019-11-10T08:18:05.000Z</time>
      </trkpt>
      <trkpt lat="47.24412" lon="-2.3119">
        <ele>12</ele>
        <time>2019-11-10T08:18:06.000Z</time>
      </trkpt>
      <trkpt lat="47.24412" lon="-2.31188">
        <ele>12.39999961853</ele>
        <time>2019-11-10T08:18:07.000Z</time>
      </trkpt>
      <trkpt lat="47.2441" lon="-2.31185">
        <ele>12.800000190735</ele>
        <time>2019-11-10T08:18:08.000Z</time>
      </trkpt>
      <trkpt lat="47.24408" lon="-2.31183">
        <ele>13.199999809265</ele>
        <time>2019-11-10T08:18:09.000Z</time>
      </trkpt>
      <trkpt lat="47.24405" lon="-2.31181">
        <ele>13.60000038147</ele>
        <time>2019-11-10T08:18:10.000Z</time>
      </trkpt>
      <trkpt lat="47.24402" lon="-2.31178">
        <ele>14</ele>
        <time>2019-11-10T08:18:11.000Z</time>
      </trkpt>
      <trkpt lat="47.24392" lon="-2.31169">
        <ele>14</ele>
        <time>2019-11-10T08:18:14.000Z</time>
      </trkpt>
      <trkpt lat="47.24387" lon="-2.31164">
        <ele>14</ele>
        <time>2019-11-10T08:18:16.000Z</time>
      </trkpt>
      <trkpt lat="47.24376" lon="-2.31151">
        <ele>14.39999961853</ele>
        <time>2019-11-10T08:18:20.000Z</time>
      </trkpt>
      <trkpt lat="47.24374" lon="-2.31147">
        <ele>14.800000190735</ele>
        <time>2019-11-10T08:18:21.000Z</time>
      </trkpt>
      <trkpt lat="47.24372" lon="-2.31144">
        <ele>15.800000190735</ele>
        <time>2019-11-10T08:18:22.000Z</time>
      </trkpt>
      <trkpt lat="47.24371" lon="-2.31141">
        <ele>16.200000762939</ele>
        <time>2019-11-10T08:18:23.000Z</time>
      </trkpt>
      <trkpt lat="47.24364" lon="-2.31125">
        <ele>16.200000762939</ele>
        <time>2019-11-10T08:18:28.000Z</time>
      </trkpt>
      <trkpt lat="47.24356" lon="-2.31105">
        <ele>16.200000762939</ele>
        <time>2019-11-10T08:18:33.000Z</time>
      </trkpt>
      <trkpt lat="47.24348" lon="-2.3108">
        <ele>16.200000762939</ele>
        <time>2019-11-10T08:18:38.000Z</time>
      </trkpt>
      <trkpt lat="47.24336" lon="-2.31052">
        <ele>16.200000762939</ele>
        <time>2019-11-10T08:18:44.000Z</time>
      </trkpt>
      <trkpt lat="47.24323" lon="-2.31039">
        <ele>16.200000762939</ele>
        <time>2019-11-10T08:18:48.000Z</time>
      </trkpt>
      <trkpt lat="47.24319" lon="-2.31037">
        <ele>16.200000762939</ele>
        <time>2019-11-10T08:18:49.000Z</time>
      </trkpt>
      <trkpt lat="47.24303" lon="-2.31035">
        <ele>16.200000762939</ele>
        <time>2019-11-10T08:18:52.000Z</time>
      </trkpt>
      <trkpt lat="47.24293" lon="-2.31036">
        <ele>16.200000762939</ele>
        <time>2019-11-10T08:18:54.000Z</time>
      </trkpt>
      <trkpt lat="47.24289" lon="-2.31036">
        <ele>15.60000038147</ele>
        <time>2019-11-10T08:18:55.000Z</time>
      </trkpt>
      <trkpt lat="47.24285" lon="-2.31035">
        <ele>15.199999809265</ele>
        <time>2019-11-10T08:18:56.000Z</time>
      </trkpt>
      <trkpt lat="47.24282" lon="-2.31033">
        <ele>14.800000190735</ele>
        <time>2019-11-10T08:18:57.000Z</time>
      </trkpt>
      <trkpt lat="47.2428" lon="-2.31029">
        <ele>14.199999809265</ele>
        <time>2019-11-10T08:18:58.000Z</time>
      </trkpt>
      <trkpt lat="47.24279" lon="-2.31024">
        <ele>13.800000190735</ele>
        <time>2019-11-10T08:18:59.000Z</time>
      </trkpt>
      <trkpt lat="47.2428" lon="-2.31012">
        <ele>13.800000190735</ele>
        <time>2019-11-10T08:19:01.000Z</time>
      </trkpt>
      <trkpt lat="47.24281" lon="-2.31005">
        <ele>13.800000190735</ele>
        <time>2019-11-10T08:19:02.000Z</time>
      </trkpt>
      <trkpt lat="47.24284" lon="-2.30978">
        <ele>13.800000190735</ele>
        <time>2019-11-10T08:19:06.000Z</time>
      </trkpt>
      <trkpt lat="47.24288" lon="-2.3095">
        <ele>14.60000038147</ele>
        <time>2019-11-10T08:19:11.000Z</time>
      </trkpt>
      <trkpt lat="47.24289" lon="-2.30944">
        <ele>15</ele>
        <time>2019-11-10T08:19:12.000Z</time>
      </trkpt>
      <trkpt lat="47.24289" lon="-2.30939">
        <ele>15.60000038147</ele>
        <time>2019-11-10T08:19:13.000Z</time>
      </trkpt>
      <trkpt lat="47.2429" lon="-2.30934">
        <ele>16</ele>
        <time>2019-11-10T08:19:14.000Z</time>
      </trkpt>
      <trkpt lat="47.24289" lon="-2.30919">
        <ele>16.39999961853</ele>
        <time>2019-11-10T08:19:17.000Z</time>
      </trkpt>
      <trkpt lat="47.24289" lon="-2.30914">
        <ele>16.799999237061</ele>
        <time>2019-11-10T08:19:18.000Z</time>
      </trkpt>
      <trkpt lat="47.24289" lon="-2.3091">
        <ele>17.200000762939</ele>
        <time>2019-11-10T08:19:19.000Z</time>
      </trkpt>
      <trkpt lat="47.24289" lon="-2.30906">
        <ele>17.799999237061</ele>
        <time>2019-11-10T08:19:20.000Z</time>
      </trkpt>
      <trkpt lat="47.24288" lon="-2.30901">
        <ele>18.200000762939</ele>
        <time>2019-11-10T08:19:21.000Z</time>
      </trkpt>
      <trkpt lat="47.24286" lon="-2.30885">
        <ele>18.200000762939</ele>
        <time>2019-11-10T08:19:24.000Z</time>
      </trkpt>
      <trkpt lat="47.24287" lon="-2.30856">
        <ele>18.200000762939</ele>
        <time>2019-11-10T08:19:29.000Z</time>
      </trkpt>
      <trkpt lat="47.24288" lon="-2.3085">
        <ele>18.200000762939</ele>
        <time>2019-11-10T08:19:30.000Z</time>
      </trkpt>
      <trkpt lat="47.24289" lon="-2.30845">
        <ele>18.60000038147</ele>
        <time>2019-11-10T08:19:31.000Z</time>
      </trkpt>
      <trkpt lat="47.24291" lon="-2.3084">
        <ele>19</ele>
        <time>2019-11-10T08:19:32.000Z</time>
      </trkpt>
      <trkpt lat="47.24292" lon="-2.30837">
        <ele>19.39999961853</ele>
        <time>2019-11-10T08:19:33.000Z</time>
      </trkpt>
      <trkpt lat="47.24293" lon="-2.30832">
        <ele>19.799999237061</ele>
        <time>2019-11-10T08:19:34.000Z</time>
      </trkpt>
      <trkpt lat="47.24295" lon="-2.30827">
        <ele>20.200000762939</ele>
        <time>2019-11-10T08:19:35.000Z</time>
      </trkpt>
      <trkpt lat="47.24309" lon="-2.30809">
        <ele>20.200000762939</ele>
        <time>2019-11-10T08:19:40.000Z</time>
      </trkpt>
      <trkpt lat="47.24328" lon="-2.30795">
        <ele>20.200000762939</ele>
        <time>2019-11-10T08:19:46.000Z</time>
      </trkpt>
      <trkpt lat="47.24336" lon="-2.30792">
        <ele>20.60000038147</ele>
        <time>2019-11-10T08:19:48.000Z</time>
      </trkpt>
      <trkpt lat="47.2434" lon="-2.30791">
        <ele>21</ele>
        <time>2019-11-10T08:19:49.000Z</time>
      </trkpt>
      <trkpt lat="47.24345" lon="-2.30791">
        <ele>21.39999961853</ele>
        <time>2019-11-10T08:19:50.000Z</time>
      </trkpt>
      <trkpt lat="47.24349" lon="-2.3079">
        <ele>21.799999237061</ele>
        <time>2019-11-10T08:19:51.000Z</time>
      </trkpt>
      <trkpt lat="47.24352" lon="-2.30789">
        <ele>22.200000762939</ele>
        <time>2019-11-10T08:19:52.000Z</time>
      </trkpt>
      <trkpt lat="47.24372" lon="-2.30775">
        <ele>22.60000038147</ele>
        <time>2019-11-10T08:19:58.000Z</time>
      </trkpt>
      <trkpt lat="47.24375" lon="-2.30772">
        <ele>23.200000762939</ele>
        <time>2019-11-10T08:19:59.000Z</time>
      </trkpt>
      <trkpt lat="47.24377" lon="-2.30768">
        <ele>24</ele>
        <time>2019-11-10T08:20:00.000Z</time>
      </trkpt>
      <trkpt lat="47.24379" lon="-2.30765">
        <ele>24.39999961853</ele>
        <time>2019-11-10T08:20:01.000Z</time>
      </trkpt>
      <trkpt lat="47.24383" lon="-2.3076">
        <ele>24.39999961853</ele>
        <time>2019-11-10T08:20:03.000Z</time>
      </trkpt>
      <trkpt lat="47.24389" lon="-2.30753">
        <ele>24.799999237061</ele>
        <time>2019-11-10T08:20:06.000Z</time>
      </trkpt>
      <trkpt lat="47.24391" lon="-2.3075">
        <ele>25.200000762939</ele>
        <time>2019-11-10T08:20:07.000Z</time>
      </trkpt>
      <trkpt lat="47.24393" lon="-2.30748">
        <ele>25.60000038147</ele>
        <time>2019-11-10T08:20:08.000Z</time>
      </trkpt>
      <trkpt lat="47.24395" lon="-2.30745">
        <ele>26</ele>
        <time>2019-11-10T08:20:09.000Z</time>
      </trkpt>
      <trkpt lat="47.24396" lon="-2.30741">
        <ele>26.39999961853</ele>
        <time>2019-11-10T08:20:10.000Z</time>
      </trkpt>
      <trkpt lat="47.24398" lon="-2.3073">
        <ele>26.39999961853</ele>
        <time>2019-11-10T08:20:12.000Z</time>
      </trkpt>
      <trkpt lat="47.24404" lon="-2.30694">
        <ele>26.39999961853</ele>
        <time>2019-11-10T08:20:18.000Z</time>
      </trkpt>
      <trkpt lat="47.24406" lon="-2.30688">
        <ele>26.39999961853</ele>
        <time>2019-11-10T08:20:19.000Z</time>
      </trkpt>
      <trkpt lat="47.2441" lon="-2.30675">
        <ele>26.39999961853</ele>
        <time>2019-11-10T08:20:21.000Z</time>
      </trkpt>
      <trkpt lat="47.24411" lon="-2.30669">
        <ele>26.39999961853</ele>
        <time>2019-11-10T08:20:22.000Z</time>
      </trkpt>
      <trkpt lat="47.24417" lon="-2.30649">
        <ele>26.39999961853</ele>
        <time>2019-11-10T08:20:25.000Z</time>
      </trkpt>
      <trkpt lat="47.24421" lon="-2.30638">
        <ele>26.39999961853</ele>
        <time>2019-11-10T08:20:27.000Z</time>
      </trkpt>
      <trkpt lat="47.24426" lon="-2.30627">
        <ele>26.39999961853</ele>
        <time>2019-11-10T08:20:29.000Z</time>
      </trkpt>
      <trkpt lat="47.2444" lon="-2.3061">
        <ele>26.39999961853</ele>
        <time>2019-11-10T08:20:33.000Z</time>
      </trkpt>
      <trkpt lat="47.2446" lon="-2.30584">
        <ele>26.39999961853</ele>
        <time>2019-11-10T08:20:38.000Z</time>
      </trkpt>
      <trkpt lat="47.24466" lon="-2.30571">
        <ele>26.39999961853</ele>
        <time>2019-11-10T08:20:40.000Z</time>
      </trkpt>
      <trkpt lat="47.24471" lon="-2.30559">
        <ele>26</ele>
        <time>2019-11-10T08:20:42.000Z</time>
      </trkpt>
      <trkpt lat="47.24473" lon="-2.30553">
        <ele>25.60000038147</ele>
        <time>2019-11-10T08:20:43.000Z</time>
      </trkpt>
      <trkpt lat="47.24473" lon="-2.30549">
        <ele>25</ele>
        <time>2019-11-10T08:20:44.000Z</time>
      </trkpt>
      <trkpt lat="47.24471" lon="-2.30547">
        <ele>24.60000038147</ele>
        <time>2019-11-10T08:20:45.000Z</time>
      </trkpt>
      <trkpt lat="47.24469" lon="-2.30546">
        <ele>24.200000762939</ele>
        <time>2019-11-10T08:20:46.000Z</time>
      </trkpt>
      <trkpt lat="47.24466" lon="-2.30546">
        <ele>24.200000762939</ele>
        <time>2019-11-10T08:20:47.000Z</time>
      </trkpt>
      <trkpt lat="47.24457" lon="-2.30554">
        <ele>24.200000762939</ele>
        <time>2019-11-10T08:20:50.000Z</time>
      </trkpt>
      <trkpt lat="47.24453" lon="-2.30558">
        <ele>24.200000762939</ele>
        <time>2019-11-10T08:20:51.000Z</time>
      </trkpt>
      <trkpt lat="47.24449" lon="-2.30561">
        <ele>23.799999237061</ele>
        <time>2019-11-10T08:20:52.000Z</time>
      </trkpt>
      <trkpt lat="47.24444" lon="-2.30565">
        <ele>23.39999961853</ele>
        <time>2019-11-10T08:20:53.000Z</time>
      </trkpt>
      <trkpt lat="47.2444" lon="-2.30569">
        <ele>23</ele>
        <time>2019-11-10T08:20:54.000Z</time>
      </trkpt>
      <trkpt lat="47.24435" lon="-2.30572">
        <ele>22.60000038147</ele>
        <time>2019-11-10T08:20:55.000Z</time>
      </trkpt>
      <trkpt lat="47.24431" lon="-2.30575">
        <ele>22.200000762939</ele>
        <time>2019-11-10T08:20:56.000Z</time>
      </trkpt>
      <trkpt lat="47.24421" lon="-2.3058">
        <ele>22.200000762939</ele>
        <time>2019-11-10T08:20:58.000Z</time>
      </trkpt>
      <trkpt lat="47.2441" lon="-2.3058">
        <ele>22.200000762939</ele>
        <time>2019-11-10T08:21:00.000Z</time>
      </trkpt>
      <trkpt lat="47.24406" lon="-2.30579">
        <ele>21.799999237061</ele>
        <time>2019-11-10T08:21:01.000Z</time>
      </trkpt>
      <trkpt lat="47.24401" lon="-2.30576">
        <ele>21.200000762939</ele>
        <time>2019-11-10T08:21:02.000Z</time>
      </trkpt>
      <trkpt lat="47.24396" lon="-2.30575">
        <ele>20.799999237061</ele>
        <time>2019-11-10T08:21:03.000Z</time>
      </trkpt>
      <trkpt lat="47.24391" lon="-2.30573">
        <ele>20.39999961853</ele>
        <time>2019-11-10T08:21:04.000Z</time>
      </trkpt>
      <trkpt lat="47.24386" lon="-2.3057">
        <ele>20</ele>
        <time>2019-11-10T08:21:05.000Z</time>
      </trkpt>
      <trkpt lat="47.24373" lon="-2.30557">
        <ele>20</ele>
        <time>2019-11-10T08:21:08.000Z</time>
      </trkpt>
      <trkpt lat="47.2437" lon="-2.30551">
        <ele>20</ele>
        <time>2019-11-10T08:21:09.000Z</time>
      </trkpt>
      <trkpt lat="47.24365" lon="-2.30532">
        <ele>20</ele>
        <time>2019-11-10T08:21:13.000Z</time>
      </trkpt>
      <trkpt lat="47.24365" lon="-2.30515">
        <ele>20</ele>
        <time>2019-11-10T08:21:18.000Z</time>
      </trkpt>
      <trkpt lat="47.24371" lon="-2.30496">
        <ele>20.39999961853</ele>
        <time>2019-11-10T08:21:24.000Z</time>
      </trkpt>
      <trkpt lat="47.24373" lon="-2.30492">
        <ele>20.799999237061</ele>
        <time>2019-11-10T08:21:25.000Z</time>
      </trkpt>
      <trkpt lat="47.24375" lon="-2.30488">
        <ele>21.39999961853</ele>
        <time>2019-11-10T08:21:26.000Z</time>
      </trkpt>
      <trkpt lat="47.24376" lon="-2.30483">
        <ele>21.799999237061</ele>
        <time>2019-11-10T08:21:27.000Z</time>
      </trkpt>
      <trkpt lat="47.24377" lon="-2.30478">
        <ele>22.200000762939</ele>
        <time>2019-11-10T08:21:28.000Z</time>
      </trkpt>
      <trkpt lat="47.24378" lon="-2.30472">
        <ele>22.200000762939</ele>
        <time>2019-11-10T08:21:29.000Z</time>
      </trkpt>
      <trkpt lat="47.24379" lon="-2.30455">
        <ele>22.60000038147</ele>
        <time>2019-11-10T08:21:33.000Z</time>
      </trkpt>
      <trkpt lat="47.24378" lon="-2.30452">
        <ele>23</ele>
        <time>2019-11-10T08:21:34.000Z</time>
      </trkpt>
      <trkpt lat="47.24377" lon="-2.30452">
        <ele>23.39999961853</ele>
        <time>2019-11-10T08:21:35.000Z</time>
      </trkpt>
      <trkpt lat="47.24375" lon="-2.30451">
        <ele>24</ele>
        <time>2019-11-10T08:21:36.000Z</time>
      </trkpt>
      <trkpt lat="47.24373" lon="-2.30451">
        <ele>24.39999961853</ele>
        <time>2019-11-10T08:21:37.000Z</time>
      </trkpt>
      <trkpt lat="47.24367" lon="-2.30452">
        <ele>24.39999961853</ele>
        <time>2019-11-10T08:21:39.000Z</time>
      </trkpt>
      <trkpt lat="47.24361" lon="-2.30454">
        <ele>24.39999961853</ele>
        <time>2019-11-10T08:21:41.000Z</time>
      </trkpt>
      <trkpt lat="47.24358" lon="-2.30452">
        <ele>24.39999961853</ele>
        <time>2019-11-10T08:21:42.000Z</time>
      </trkpt>
      <trkpt lat="47.24349" lon="-2.3045">
        <ele>24.39999961853</ele>
        <time>2019-11-10T08:21:45.000Z</time>
      </trkpt>
      <trkpt lat="47.24336" lon="-2.30441">
        <ele>24.39999961853</ele>
        <time>2019-11-10T08:21:50.000Z</time>
      </trkpt>
      <trkpt lat="47.24322" lon="-2.3043">
        <ele>24.39999961853</ele>
        <time>2019-11-10T08:21:55.000Z</time>
      </trkpt>
      <trkpt lat="47.2432" lon="-2.30429">
        <ele>24.39999961853</ele>
        <time>2019-11-10T08:21:56.000Z</time>
      </trkpt>
      <trkpt lat="47.24315" lon="-2.30428">
        <ele>24.799999237061</ele>
        <time>2019-11-10T08:21:58.000Z</time>
      </trkpt>
      <trkpt lat="47.24313" lon="-2.30427">
        <ele>25.200000762939</ele>
        <time>2019-11-10T08:21:59.000Z</time>
      </trkpt>
      <trkpt lat="47.24311" lon="-2.30426">
        <ele>25.60000038147</ele>
        <time>2019-11-10T08:22:00.000Z</time>
      </trkpt>
      <trkpt lat="47.24309" lon="-2.30425">
        <ele>26</ele>
        <time>2019-11-10T08:22:01.000Z</time>
      </trkpt>
      <trkpt lat="47.24307" lon="-2.30424">
        <ele>26.39999961853</ele>
        <time>2019-11-10T08:22:02.000Z</time>
      </trkpt>
      <trkpt lat="47.24297" lon="-2.30419">
        <ele>26.39999961853</ele>
        <time>2019-11-10T08:22:05.000Z</time>
      </trkpt>
      <trkpt lat="47.24294" lon="-2.30415">
        <ele>26.39999961853</ele>
        <time>2019-11-10T08:22:06.000Z</time>
      </trkpt>
      <trkpt lat="47.24284" lon="-2.30402">
        <ele>26.39999961853</ele>
        <time>2019-11-10T08:22:09.000Z</time>
      </trkpt>
      <trkpt lat="47.24265" lon="-2.30373">
        <ele>26.39999961853</ele>
        <time>2019-11-10T08:22:15.000Z</time>
      </trkpt>
      <trkpt lat="47.2425" lon="-2.30351">
        <ele>26.39999961853</ele>
        <time>2019-11-10T08:22:21.000Z</time>
      </trkpt>
      <trkpt lat="47.24234" lon="-2.30324">
        <ele>26.39999961853</ele>
        <time>2019-11-10T08:22:28.000Z</time>
      </trkpt>
      <trkpt lat="47.24223" lon="-2.30328">
        <ele>26.39999961853</ele>
        <time>2019-11-10T08:22:31.000Z</time>
      </trkpt>
      <trkpt lat="47.24213" lon="-2.30331">
        <ele>26.39999961853</ele>
        <time>2019-11-10T08:22:33.000Z</time>
      </trkpt>
      <trkpt lat="47.2421" lon="-2.30331">
        <ele>26</ele>
        <time>2019-11-10T08:22:34.000Z</time>
      </trkpt>
      <trkpt lat="47.24207" lon="-2.30329">
        <ele>25.60000038147</ele>
        <time>2019-11-10T08:22:35.000Z</time>
      </trkpt>
      <trkpt lat="47.24204" lon="-2.30326">
        <ele>25.200000762939</ele>
        <time>2019-11-10T08:22:36.000Z</time>
      </trkpt>
      <trkpt lat="47.24202" lon="-2.30322">
        <ele>24.799999237061</ele>
        <time>2019-11-10T08:22:37.000Z</time>
      </trkpt>
      <trkpt lat="47.242" lon="-2.30316">
        <ele>24.200000762939</ele>
        <time>2019-11-10T08:22:38.000Z</time>
      </trkpt>
      <trkpt lat="47.24199" lon="-2.30309">
        <ele>23.60000038147</ele>
        <time>2019-11-10T08:22:39.000Z</time>
      </trkpt>
      <trkpt lat="47.24197" lon="-2.30302">
        <ele>23.200000762939</ele>
        <time>2019-11-10T08:22:40.000Z</time>
      </trkpt>
      <trkpt lat="47.24196" lon="-2.30296">
        <ele>22.60000038147</ele>
        <time>2019-11-10T08:22:41.000Z</time>
      </trkpt>
      <trkpt lat="47.24195" lon="-2.3029">
        <ele>22</ele>
        <time>2019-11-10T08:22:42.000Z</time>
      </trkpt>
      <trkpt lat="47.24194" lon="-2.30283">
        <ele>22</ele>
        <time>2019-11-10T08:22:43.000Z</time>
      </trkpt>
      <trkpt lat="47.24194" lon="-2.30276">
        <ele>22</ele>
        <time>2019-11-10T08:22:44.000Z</time>
      </trkpt>
      <trkpt lat="47.24193" lon="-2.30244">
        <ele>22</ele>
        <time>2019-11-10T08:22:50.000Z</time>
      </trkpt>
      <trkpt lat="47.24191" lon="-2.30237">
        <ele>22</ele>
        <time>2019-11-10T08:22:53.000Z</time>
      </trkpt>
      <trkpt lat="47.24189" lon="-2.30239">
        <ele>22</ele>
        <time>2019-11-10T08:22:54.000Z</time>
      </trkpt>
      <trkpt lat="47.24177" lon="-2.30246">
        <ele>22</ele>
        <time>2019-11-10T08:22:58.000Z</time>
      </trkpt>
      <trkpt lat="47.2417" lon="-2.30245">
        <ele>22</ele>
        <time>2019-11-10T08:23:00.000Z</time>
      </trkpt>
      <trkpt lat="47.24167" lon="-2.3024">
        <ele>22</ele>
        <time>2019-11-10T08:23:01.000Z</time>
      </trkpt>
      <trkpt lat="47.24157" lon="-2.30219">
        <ele>22</ele>
        <time>2019-11-10T08:23:06.000Z</time>
      </trkpt>
      <trkpt lat="47.2415" lon="-2.30199">
        <ele>22</ele>
        <time>2019-11-10T08:23:11.000Z</time>
      </trkpt>
      <trkpt lat="47.24149" lon="-2.30196">
        <ele>22</ele>
        <time>2019-11-10T08:23:12.000Z</time>
      </trkpt>
      <trkpt lat="47.24144" lon="-2.30181">
        <ele>22</ele>
        <time>2019-11-10T08:23:18.000Z</time>
      </trkpt>
      <trkpt lat="47.24143" lon="-2.3018">
        <ele>22.39999961853</ele>
        <time>2019-11-10T08:23:19.000Z</time>
      </trkpt>
      <trkpt lat="47.24143" lon="-2.30178">
        <ele>22.799999237061</ele>
        <time>2019-11-10T08:23:20.000Z</time>
      </trkpt>
      <trkpt lat="47.24142" lon="-2.30175">
        <ele>23.200000762939</ele>
        <time>2019-11-10T08:23:21.000Z</time>
      </trkpt>
      <trkpt lat="47.24141" lon="-2.30172">
        <ele>23.60000038147</ele>
        <time>2019-11-10T08:23:22.000Z</time>
      </trkpt>
      <trkpt lat="47.24142" lon="-2.3017">
        <ele>24.200000762939</ele>
        <time>2019-11-10T08:23:23.000Z</time>
      </trkpt>
      <trkpt lat="47.2414" lon="-2.30165">
        <ele>24.200000762939</ele>
        <time>2019-11-10T08:23:25.000Z</time>
      </trkpt>
      <trkpt lat="47.24137" lon="-2.3016">
        <ele>24.60000038147</ele>
        <time>2019-11-10T08:23:27.000Z</time>
      </trkpt>
      <trkpt lat="47.24136" lon="-2.30158">
        <ele>25</ele>
        <time>2019-11-10T08:23:28.000Z</time>
      </trkpt>
      <trkpt lat="47.24134" lon="-2.30156">
        <ele>25.39999961853</ele>
        <time>2019-11-10T08:23:29.000Z</time>
      </trkpt>
      <trkpt lat="47.24133" lon="-2.30154">
        <ele>25.799999237061</ele>
        <time>2019-11-10T08:23:30.000Z</time>
      </trkpt>
      <trkpt lat="47.24132" lon="-2.30151">
        <ele>26.39999961853</ele>
        <time>2019-11-10T08:23:31.000Z</time>
      </trkpt>
      <trkpt lat="47.2413" lon="-2.3015">
        <ele>26.39999961853</ele>
        <time>2019-11-10T08:23:32.000Z</time>
      </trkpt>
      <trkpt lat="47.24129" lon="-2.30149">
        <ele>26.39999961853</ele>
        <time>2019-11-10T08:23:34.000Z</time>
      </trkpt>
      <trkpt lat="47.24127" lon="-2.30149">
        <ele>26.39999961853</ele>
        <time>2019-11-10T08:23:35.000Z</time>
      </trkpt>
      <trkpt lat="47.24125" lon="-2.3015">
        <ele>26.799999237061</ele>
        <time>2019-11-10T08:23:37.000Z</time>
      </trkpt>
      <trkpt lat="47.24124" lon="-2.30154">
        <ele>27.200000762939</ele>
        <time>2019-11-10T08:23:38.000Z</time>
      </trkpt>
      <trkpt lat="47.24123" lon="-2.30155">
        <ele>27.60000038147</ele>
        <time>2019-11-10T08:23:39.000Z</time>
      </trkpt>
      <trkpt lat="47.24122" lon="-2.30158">
        <ele>28</ele>
        <time>2019-11-10T08:23:40.000Z</time>
      </trkpt>
      <trkpt lat="47.24121" lon="-2.3016">
        <ele>28.39999961853</ele>
        <time>2019-11-10T08:23:41.000Z</time>
      </trkpt>
      <trkpt lat="47.24118" lon="-2.30165">
        <ele>28.39999961853</ele>
        <time>2019-11-10T08:23:43.000Z</time>
      </trkpt>
      <trkpt lat="47.24116" lon="-2.30165">
        <ele>28.39999961853</ele>
        <time>2019-11-10T08:23:44.000Z</time>
      </trkpt>
      <trkpt lat="47.24106" lon="-2.30164">
        <ele>28.39999961853</ele>
        <time>2019-11-10T08:23:48.000Z</time>
      </trkpt>
      <trkpt lat="47.24104" lon="-2.30165">
        <ele>28.39999961853</ele>
        <time>2019-11-10T08:23:49.000Z</time>
      </trkpt>
      <trkpt lat="47.24092" lon="-2.30167">
        <ele>28.39999961853</ele>
        <time>2019-11-10T08:23:53.000Z</time>
      </trkpt>
      <trkpt lat="47.24081" lon="-2.30176">
        <ele>28.39999961853</ele>
        <time>2019-11-10T08:23:57.000Z</time>
      </trkpt>
      <trkpt lat="47.24075" lon="-2.3018">
        <ele>28.39999961853</ele>
        <time>2019-11-10T08:23:59.000Z</time>
      </trkpt>
      <trkpt lat="47.24062" lon="-2.30185">
        <ele>28.39999961853</ele>
        <time>2019-11-10T08:24:03.000Z</time>
      </trkpt>
      <trkpt lat="47.24058" lon="-2.30187">
        <ele>28.799999237061</ele>
        <time>2019-11-10T08:24:04.000Z</time>
      </trkpt>
      <trkpt lat="47.24054" lon="-2.30188">
        <ele>29.200000762939</ele>
        <time>2019-11-10T08:24:05.000Z</time>
      </trkpt>
      <trkpt lat="47.24051" lon="-2.3019">
        <ele>30</ele>
        <time>2019-11-10T08:24:06.000Z</time>
      </trkpt>
      <trkpt lat="47.24049" lon="-2.3019">
        <ele>30.39999961853</ele>
        <time>2019-11-10T08:24:07.000Z</time>
      </trkpt>
      <trkpt lat="47.24046" lon="-2.30189">
        <ele>30.39999961853</ele>
        <time>2019-11-10T08:24:08.000Z</time>
      </trkpt>
      <trkpt lat="47.24037" lon="-2.3018">
        <ele>30.39999961853</ele>
        <time>2019-11-10T08:24:12.000Z</time>
      </trkpt>
      <trkpt lat="47.2402" lon="-2.30165">
        <ele>30.39999961853</ele>
        <time>2019-11-10T08:24:17.000Z</time>
      </trkpt>
      <trkpt lat="47.2401" lon="-2.30155">
        <ele>30.39999961853</ele>
        <time>2019-11-10T08:24:21.000Z</time>
      </trkpt>
      <trkpt lat="47.24008" lon="-2.3015">
        <ele>30.39999961853</ele>
        <time>2019-11-10T08:24:22.000Z</time>
      </trkpt>
      <trkpt lat="47.24008" lon="-2.30142">
        <ele>30.39999961853</ele>
        <time>2019-11-10T08:24:24.000Z</time>
      </trkpt>
      <trkpt lat="47.24011" lon="-2.30132">
        <ele>30.39999961853</ele>
        <time>2019-11-10T08:24:28.000Z</time>
      </trkpt>
      <trkpt lat="47.24014" lon="-2.30127">
        <ele>30.39999961853</ele>
        <time>2019-11-10T08:24:32.000Z</time>
      </trkpt>
      <trkpt lat="47.24013" lon="-2.30123">
        <ele>30.39999961853</ele>
        <time>2019-11-10T08:24:34.000Z</time>
      </trkpt>
      <trkpt lat="47.24014" lon="-2.30114">
        <ele>30.39999961853</ele>
        <time>2019-11-10T08:24:37.000Z</time>
      </trkpt>
      <trkpt lat="47.24013" lon="-2.30097">
        <ele>30.39999961853</ele>
        <time>2019-11-10T08:24:43.000Z</time>
      </trkpt>
      <trkpt lat="47.24016" lon="-2.30084">
        <ele>30.39999961853</ele>
        <time>2019-11-10T08:24:47.000Z</time>
      </trkpt>
      <trkpt lat="47.24015" lon="-2.30083">
        <ele>30.39999961853</ele>
        <time>2019-11-10T08:24:48.000Z</time>
      </trkpt>
      <trkpt lat="47.24011" lon="-2.30082">
        <ele>30.39999961853</ele>
        <time>2019-11-10T08:24:51.000Z</time>
      </trkpt>
      <trkpt lat="47.24007" lon="-2.30085">
        <ele>30.39999961853</ele>
        <time>2019-11-10T08:24:53.000Z</time>
      </trkpt>
      <trkpt lat="47.23996" lon="-2.30084">
        <ele>30.39999961853</ele>
        <time>2019-11-10T08:24:58.000Z</time>
      </trkpt>
      <trkpt lat="47.23994" lon="-2.30077">
        <ele>30.39999961853</ele>
        <time>2019-11-10T08:25:01.000Z</time>
      </trkpt>
      <trkpt lat="47.23995" lon="-2.30071">
        <ele>30.39999961853</ele>
        <time>2019-11-10T08:25:02.000Z</time>
      </trkpt>
      <trkpt lat="47.23999" lon="-2.30058">
        <ele>30.39999961853</ele>
        <time>2019-11-10T08:25:05.000Z</time>
      </trkpt>
      <trkpt lat="47.24003" lon="-2.30047">
        <ele>30.39999961853</ele>
        <time>2019-11-10T08:25:08.000Z</time>
      </trkpt>
      <trkpt lat="47.24003" lon="-2.30021">
        <ele>30.39999961853</ele>
        <time>2019-11-10T08:25:14.000Z</time>
      </trkpt>
      <trkpt lat="47.24005" lon="-2.29999">
        <ele>30.39999961853</ele>
        <time>2019-11-10T08:25:18.000Z</time>
      </trkpt>
      <trkpt lat="47.24008" lon="-2.29987">
        <ele>31.39999961853</ele>
        <time>2019-11-10T08:25:20.000Z</time>
      </trkpt>
      <trkpt lat="47.24008" lon="-2.29983">
        <ele>31.799999237061</ele>
        <time>2019-11-10T08:25:21.000Z</time>
      </trkpt>
      <trkpt lat="47.24008" lon="-2.29977">
        <ele>32.200000762939</ele>
        <time>2019-11-10T08:25:22.000Z</time>
      </trkpt>
      <trkpt lat="47.24006" lon="-2.29971">
        <ele>32.599998474121</ele>
        <time>2019-11-10T08:25:23.000Z</time>
      </trkpt>
      <trkpt lat="47.24" lon="-2.29956">
        <ele>32.599998474121</ele>
        <time>2019-11-10T08:25:26.000Z</time>
      </trkpt>
      <trkpt lat="47.23998" lon="-2.29946">
        <ele>32.599998474121</ele>
        <time>2019-11-10T08:25:28.000Z</time>
      </trkpt>
      <trkpt lat="47.23999" lon="-2.29936">
        <ele>32.599998474121</ele>
        <time>2019-11-10T08:25:30.000Z</time>
      </trkpt>
      <trkpt lat="47.24003" lon="-2.2992">
        <ele>32.599998474121</ele>
        <time>2019-11-10T08:25:34.000Z</time>
      </trkpt>
      <trkpt lat="47.24004" lon="-2.29916">
        <ele>32.599998474121</ele>
        <time>2019-11-10T08:25:35.000Z</time>
      </trkpt>
      <trkpt lat="47.24009" lon="-2.29897">
        <ele>32.599998474121</ele>
        <time>2019-11-10T08:25:41.000Z</time>
      </trkpt>
      <trkpt lat="47.24014" lon="-2.29884">
        <ele>33.400001525879</ele>
        <time>2019-11-10T08:25:45.000Z</time>
      </trkpt>
      <trkpt lat="47.24015" lon="-2.29881">
        <ele>33.799999237061</ele>
        <time>2019-11-10T08:25:46.000Z</time>
      </trkpt>
      <trkpt lat="47.24016" lon="-2.29878">
        <ele>34.200000762939</ele>
        <time>2019-11-10T08:25:47.000Z</time>
      </trkpt>
      <trkpt lat="47.24017" lon="-2.29874">
        <ele>34.599998474121</ele>
        <time>2019-11-10T08:25:48.000Z</time>
      </trkpt>
      <trkpt lat="47.24017" lon="-2.29861">
        <ele>34.599998474121</ele>
        <time>2019-11-10T08:25:52.000Z</time>
      </trkpt>
      <trkpt lat="47.24018" lon="-2.29838">
        <ele>34.599998474121</ele>
        <time>2019-11-10T08:25:56.000Z</time>
      </trkpt>
      <trkpt lat="47.24015" lon="-2.298">
        <ele>34.599998474121</ele>
        <time>2019-11-10T08:26:01.000Z</time>
      </trkpt>
      <trkpt lat="47.24013" lon="-2.29776">
        <ele>34.599998474121</ele>
        <time>2019-11-10T08:26:05.000Z</time>
      </trkpt>
      <trkpt lat="47.24013" lon="-2.29759">
        <ele>34.599998474121</ele>
        <time>2019-11-10T08:26:07.000Z</time>
      </trkpt>
      <trkpt lat="47.24012" lon="-2.29713">
        <ele>34.599998474121</ele>
        <time>2019-11-10T08:26:13.000Z</time>
      </trkpt>
      <trkpt lat="47.24008" lon="-2.29667">
        <ele>34.599998474121</ele>
        <time>2019-11-10T08:26:19.000Z</time>
      </trkpt>
      <trkpt lat="47.24005" lon="-2.29624">
        <ele>34.599998474121</ele>
        <time>2019-11-10T08:26:25.000Z</time>
      </trkpt>
      <trkpt lat="47.24001" lon="-2.29577">
        <ele>34.599998474121</ele>
        <time>2019-11-10T08:26:31.000Z</time>
      </trkpt>
      <trkpt lat="47.23998" lon="-2.29541">
        <ele>34.599998474121</ele>
        <time>2019-11-10T08:26:36.000Z</time>
      </trkpt>
      <trkpt lat="47.23997" lon="-2.29504">
        <ele>34.599998474121</ele>
        <time>2019-11-10T08:26:41.000Z</time>
      </trkpt>
      <trkpt lat="47.23995" lon="-2.29497">
        <ele>34.599998474121</ele>
        <time>2019-11-10T08:26:42.000Z</time>
      </trkpt>
      <trkpt lat="47.23989" lon="-2.29482">
        <ele>34.599998474121</ele>
        <time>2019-11-10T08:26:45.000Z</time>
      </trkpt>
      <trkpt lat="47.23986" lon="-2.29477">
        <ele>34.599998474121</ele>
        <time>2019-11-10T08:26:46.000Z</time>
      </trkpt>
      <trkpt lat="47.23971" lon="-2.29448">
        <ele>34.599998474121</ele>
        <time>2019-11-10T08:26:51.000Z</time>
      </trkpt>
      <trkpt lat="47.23963" lon="-2.2943">
        <ele>34.599998474121</ele>
        <time>2019-11-10T08:26:54.000Z</time>
      </trkpt>
      <trkpt lat="47.23957" lon="-2.29419">
        <ele>34.599998474121</ele>
        <time>2019-11-10T08:26:56.000Z</time>
      </trkpt>
      <trkpt lat="47.23939" lon="-2.29385">
        <ele>34.200000762939</ele>
        <time>2019-11-10T08:27:02.000Z</time>
      </trkpt>
      <trkpt lat="47.23937" lon="-2.2938">
        <ele>33.799999237061</ele>
        <time>2019-11-10T08:27:03.000Z</time>
      </trkpt>
      <trkpt lat="47.23934" lon="-2.29375">
        <ele>33.400001525879</ele>
        <time>2019-11-10T08:27:04.000Z</time>
      </trkpt>
      <trkpt lat="47.23931" lon="-2.2937">
        <ele>33</ele>
        <time>2019-11-10T08:27:05.000Z</time>
      </trkpt>
      <trkpt lat="47.23928" lon="-2.29364">
        <ele>32.599998474121</ele>
        <time>2019-11-10T08:27:06.000Z</time>
      </trkpt>
      <trkpt lat="47.23923" lon="-2.29355">
        <ele>32.599998474121</ele>
        <time>2019-11-10T08:27:08.000Z</time>
      </trkpt>
      <trkpt lat="47.23907" lon="-2.29331">
        <ele>32.599998474121</ele>
        <time>2019-11-10T08:27:13.000Z</time>
      </trkpt>
      <trkpt lat="47.23903" lon="-2.29331">
        <ele>32.599998474121</ele>
        <time>2019-11-10T08:27:14.000Z</time>
      </trkpt>
      <trkpt lat="47.23885" lon="-2.29333">
        <ele>32.599998474121</ele>
        <time>2019-11-10T08:27:18.000Z</time>
      </trkpt>
      <trkpt lat="47.2388" lon="-2.29333">
        <ele>32.599998474121</ele>
        <time>2019-11-10T08:27:19.000Z</time>
      </trkpt>
      <trkpt lat="47.23868" lon="-2.29338">
        <ele>32.599998474121</ele>
        <time>2019-11-10T08:27:22.000Z</time>
      </trkpt>
      <trkpt lat="47.23864" lon="-2.29343">
        <ele>32.599998474121</ele>
        <time>2019-11-10T08:27:23.000Z</time>
      </trkpt>
      <trkpt lat="47.23852" lon="-2.29366">
        <ele>32.599998474121</ele>
        <time>2019-11-10T08:27:27.000Z</time>
      </trkpt>
      <trkpt lat="47.23829" lon="-2.29418">
        <ele>32.599998474121</ele>
        <time>2019-11-10T08:27:35.000Z</time>
      </trkpt>
      <trkpt lat="47.2382" lon="-2.2944">
        <ele>32.599998474121</ele>
        <time>2019-11-10T08:27:39.000Z</time>
      </trkpt>
      <trkpt lat="47.23819" lon="-2.29447">
        <ele>32.599998474121</ele>
        <time>2019-11-10T08:27:40.000Z</time>
      </trkpt>
      <trkpt lat="47.2382" lon="-2.29466">
        <ele>32.599998474121</ele>
        <time>2019-11-10T08:27:43.000Z</time>
      </trkpt>
      <trkpt lat="47.2382" lon="-2.29478">
        <ele>32.599998474121</ele>
        <time>2019-11-10T08:27:45.000Z</time>
      </trkpt>
      <trkpt lat="47.23822" lon="-2.29518">
        <ele>32.599998474121</ele>
        <time>2019-11-10T08:27:52.000Z</time>
      </trkpt>
      <trkpt lat="47.23822" lon="-2.29548">
        <ele>32.599998474121</ele>
        <time>2019-11-10T08:27:57.000Z</time>
      </trkpt>
      <trkpt lat="47.23821" lon="-2.29562">
        <ele>32.599998474121</ele>
        <time>2019-11-10T08:27:59.000Z</time>
      </trkpt>
      <trkpt lat="47.23819" lon="-2.29584">
        <ele>32.599998474121</ele>
        <time>2019-11-10T08:28:02.000Z</time>
      </trkpt>
      <trkpt lat="47.23818" lon="-2.2962">
        <ele>32.599998474121</ele>
        <time>2019-11-10T08:28:08.000Z</time>
      </trkpt>
      <trkpt lat="47.23818" lon="-2.29652">
        <ele>32.599998474121</ele>
        <time>2019-11-10T08:28:13.000Z</time>
      </trkpt>
      <trkpt lat="47.23811" lon="-2.29693">
        <ele>32.599998474121</ele>
        <time>2019-11-10T08:28:20.000Z</time>
      </trkpt>
      <trkpt lat="47.23795" lon="-2.29697">
        <ele>32.599998474121</ele>
        <time>2019-11-10T08:28:24.000Z</time>
      </trkpt>
      <trkpt lat="47.2378" lon="-2.29701">
        <ele>32.599998474121</ele>
        <time>2019-11-10T08:28:27.000Z</time>
      </trkpt>
      <trkpt lat="47.23769" lon="-2.29703">
        <ele>32.599998474121</ele>
        <time>2019-11-10T08:28:29.000Z</time>
      </trkpt>
      <trkpt lat="47.23745" lon="-2.29708">
        <ele>32.200000762939</ele>
        <time>2019-11-10T08:28:33.000Z</time>
      </trkpt>
      <trkpt lat="47.23739" lon="-2.29709">
        <ele>31.799999237061</ele>
        <time>2019-11-10T08:28:34.000Z</time>
      </trkpt>
      <trkpt lat="47.23733" lon="-2.2971">
        <ele>31.39999961853</ele>
        <time>2019-11-10T08:28:35.000Z</time>
      </trkpt>
      <trkpt lat="47.23726" lon="-2.29711">
        <ele>31</ele>
        <time>2019-11-10T08:28:36.000Z</time>
      </trkpt>
      <trkpt lat="47.2372" lon="-2.29712">
        <ele>30.60000038147</ele>
        <time>2019-11-10T08:28:37.000Z</time>
      </trkpt>
      <trkpt lat="47.23691" lon="-2.29716">
        <ele>30.200000762939</ele>
        <time>2019-11-10T08:28:41.000Z</time>
      </trkpt>
      <trkpt lat="47.23684" lon="-2.29717">
        <ele>29.799999237061</ele>
        <time>2019-11-10T08:28:42.000Z</time>
      </trkpt>
      <trkpt lat="47.23676" lon="-2.29718">
        <ele>29.39999961853</ele>
        <time>2019-11-10T08:28:43.000Z</time>
      </trkpt>
      <trkpt lat="47.23669" lon="-2.2972">
        <ele>29</ele>
        <time>2019-11-10T08:28:44.000Z</time>
      </trkpt>
      <trkpt lat="47.23662" lon="-2.29721">
        <ele>28.60000038147</ele>
        <time>2019-11-10T08:28:45.000Z</time>
      </trkpt>
      <trkpt lat="47.2365" lon="-2.29727">
        <ele>28</ele>
        <time>2019-11-10T08:28:47.000Z</time>
      </trkpt>
      <trkpt lat="47.23646" lon="-2.29733">
        <ele>27.60000038147</ele>
        <time>2019-11-10T08:28:48.000Z</time>
      </trkpt>
      <trkpt lat="47.23644" lon="-2.2974">
        <ele>27.200000762939</ele>
        <time>2019-11-10T08:28:49.000Z</time>
      </trkpt>
      <trkpt lat="47.23643" lon="-2.29748">
        <ele>26.60000038147</ele>
        <time>2019-11-10T08:28:50.000Z</time>
      </trkpt>
      <trkpt lat="47.23643" lon="-2.29756">
        <ele>26.200000762939</ele>
        <time>2019-11-10T08:28:51.000Z</time>
      </trkpt>
      <trkpt lat="47.23649" lon="-2.29779">
        <ele>26.200000762939</ele>
        <time>2019-11-10T08:28:54.000Z</time>
      </trkpt>
      <trkpt lat="47.23651" lon="-2.29787">
        <ele>26.200000762939</ele>
        <time>2019-11-10T08:28:55.000Z</time>
      </trkpt>
      <trkpt lat="47.23662" lon="-2.29817">
        <ele>26.60000038147</ele>
        <time>2019-11-10T08:28:59.000Z</time>
      </trkpt>
      <trkpt lat="47.23666" lon="-2.29825">
        <ele>27.39999961853</ele>
        <time>2019-11-10T08:29:00.000Z</time>
      </trkpt>
      <trkpt lat="47.23668" lon="-2.29831">
        <ele>27.39999961853</ele>
        <time>2019-11-10T08:29:01.000Z</time>
      </trkpt>
      <trkpt lat="47.23671" lon="-2.29838">
        <ele>27.799999237061</ele>
        <time>2019-11-10T08:29:02.000Z</time>
      </trkpt>
      <trkpt lat="47.23673" lon="-2.29844">
        <ele>28.200000762939</ele>
        <time>2019-11-10T08:29:03.000Z</time>
      </trkpt>
      <trkpt lat="47.23681" lon="-2.29864">
        <ele>28.200000762939</ele>
        <time>2019-11-10T08:29:07.000Z</time>
      </trkpt>
      <trkpt lat="47.23697" lon="-2.29885">
        <ele>28.200000762939</ele>
        <time>2019-11-10T08:29:13.000Z</time>
      </trkpt>
      <trkpt lat="47.237" lon="-2.29887">
        <ele>28.200000762939</ele>
        <time>2019-11-10T08:29:15.000Z</time>
      </trkpt>
      <trkpt lat="47.23704" lon="-2.29883">
        <ele>28.200000762939</ele>
        <time>2019-11-10T08:29:17.000Z</time>
      </trkpt>
      <trkpt lat="47.2371" lon="-2.29881">
        <ele>28.200000762939</ele>
        <time>2019-11-10T08:29:20.000Z</time>
      </trkpt>
      <trkpt lat="47.23711" lon="-2.29883">
        <ele>28.200000762939</ele>
        <time>2019-11-10T08:29:21.000Z</time>
      </trkpt>
      <trkpt lat="47.23714" lon="-2.2989">
        <ele>28.200000762939</ele>
        <time>2019-11-10T08:29:23.000Z</time>
      </trkpt>
      <trkpt lat="47.23718" lon="-2.299">
        <ele>28.200000762939</ele>
        <time>2019-11-10T08:29:26.000Z</time>
      </trkpt>
      <trkpt lat="47.23721" lon="-2.29915">
        <ele>28.200000762939</ele>
        <time>2019-11-10T08:29:32.000Z</time>
      </trkpt>
      <trkpt lat="47.23723" lon="-2.29917">
        <ele>28.200000762939</ele>
        <time>2019-11-10T08:29:35.000Z</time>
      </trkpt>
      <trkpt lat="47.23726" lon="-2.29916">
        <ele>28.200000762939</ele>
        <time>2019-11-10T08:29:37.000Z</time>
      </trkpt>
      <trkpt lat="47.23729" lon="-2.29918">
        <ele>28.200000762939</ele>
        <time>2019-11-10T08:29:41.000Z</time>
      </trkpt>
      <trkpt lat="47.2373" lon="-2.29916">
        <ele>28.200000762939</ele>
        <time>2019-11-10T08:29:42.000Z</time>
      </trkpt>
      <trkpt lat="47.23731" lon="-2.29916">
        <ele>28.200000762939</ele>
        <time>2019-11-10T08:29:43.000Z</time>
      </trkpt>
      <trkpt lat="47.23735" lon="-2.29917">
        <ele>28.200000762939</ele>
        <time>2019-11-10T08:29:48.000Z</time>
      </trkpt>
      <trkpt lat="47.23737" lon="-2.29917">
        <ele>28.200000762939</ele>
        <time>2019-11-10T08:29:50.000Z</time>
      </trkpt>
      <trkpt lat="47.2374" lon="-2.29912">
        <ele>28.200000762939</ele>
        <time>2019-11-10T08:29:54.000Z</time>
      </trkpt>
      <trkpt lat="47.23741" lon="-2.29913">
        <ele>28.200000762939</ele>
        <time>2019-11-10T08:29:56.000Z</time>
      </trkpt>
      <trkpt lat="47.23727" lon="-2.29919">
        <ele>28.200000762939</ele>
        <time>2019-11-10T08:30:25.000Z</time>
      </trkpt>
      <trkpt lat="47.23727" lon="-2.29917">
        <ele>28.200000762939</ele>
        <time>2019-11-10T08:30:26.000Z</time>
      </trkpt>
      <trkpt lat="47.23725" lon="-2.29917">
        <ele>28.200000762939</ele>
        <time>2019-11-10T08:30:28.000Z</time>
      </trkpt>
      <trkpt lat="47.23722" lon="-2.29917">
        <ele>28.200000762939</ele>
        <time>2019-11-10T08:30:31.000Z</time>
      </trkpt>
      <trkpt lat="47.23722" lon="-2.29918">
        <ele>28.200000762939</ele>
        <time>2019-11-10T08:30:32.000Z</time>
      </trkpt>
      <trkpt lat="47.23721" lon="-2.29918">
        <ele>28.200000762939</ele>
        <time>2019-11-10T08:30:33.000Z</time>
      </trkpt>
      <trkpt lat="47.23721" lon="-2.29924">
        <ele>28.200000762939</ele>
        <time>2019-11-10T08:30:43.000Z</time>
      </trkpt>
      <trkpt lat="47.23722" lon="-2.2993">
        <ele>28.200000762939</ele>
        <time>2019-11-10T08:30:45.000Z</time>
      </trkpt>
      <trkpt lat="47.23721" lon="-2.29937">
        <ele>28.200000762939</ele>
        <time>2019-11-10T08:30:49.000Z</time>
      </trkpt>
      <trkpt lat="47.2372" lon="-2.29938">
        <ele>28.200000762939</ele>
        <time>2019-11-10T08:30:50.000Z</time>
      </trkpt>
      <trkpt lat="47.23719" lon="-2.29953">
        <ele>28.200000762939</ele>
        <time>2019-11-10T08:30:56.000Z</time>
      </trkpt>
      <trkpt lat="47.23723" lon="-2.29973">
        <ele>28.200000762939</ele>
        <time>2019-11-10T08:31:00.000Z</time>
      </trkpt>
      <trkpt lat="47.23738" lon="-2.30001">
        <ele>28.200000762939</ele>
        <time>2019-11-10T08:31:07.000Z</time>
      </trkpt>
      <trkpt lat="47.23748" lon="-2.30019">
        <ele>28.200000762939</ele>
        <time>2019-11-10T08:31:13.000Z</time>
      </trkpt>
      <trkpt lat="47.23755" lon="-2.30028">
        <ele>27.799999237061</ele>
        <time>2019-11-10T08:31:17.000Z</time>
      </trkpt>
      <trkpt lat="47.23757" lon="-2.30029">
        <ele>27.200000762939</ele>
        <time>2019-11-10T08:31:18.000Z</time>
      </trkpt>
      <trkpt lat="47.2376" lon="-2.30031">
        <ele>26.799999237061</ele>
        <time>2019-11-10T08:31:19.000Z</time>
      </trkpt>
      <trkpt lat="47.23761" lon="-2.30033">
        <ele>26.39999961853</ele>
        <time>2019-11-10T08:31:20.000Z</time>
      </trkpt>
      <trkpt lat="47.23763" lon="-2.30035">
        <ele>26</ele>
        <time>2019-11-10T08:31:21.000Z</time>
      </trkpt>
      <trkpt lat="47.23766" lon="-2.30039">
        <ele>26</ele>
        <time>2019-11-10T08:31:23.000Z</time>
      </trkpt>
      <trkpt lat="47.23781" lon="-2.30065">
        <ele>26</ele>
        <time>2019-11-10T08:31:30.000Z</time>
      </trkpt>
      <trkpt lat="47.238" lon="-2.30079">
        <ele>26</ele>
        <time>2019-11-10T08:31:36.000Z</time>
      </trkpt>
      <trkpt lat="47.23817" lon="-2.30069">
        <ele>26</ele>
        <time>2019-11-10T08:31:41.000Z</time>
      </trkpt>
      <trkpt lat="47.23838" lon="-2.30055">
        <ele>26</ele>
        <time>2019-11-10T08:31:49.000Z</time>
      </trkpt>
      <trkpt lat="47.23841" lon="-2.30056">
        <ele>26</ele>
        <time>2019-11-10T08:31:50.000Z</time>
      </trkpt>
      <trkpt lat="47.23845" lon="-2.30063">
        <ele>26</ele>
        <time>2019-11-10T08:31:52.000Z</time>
      </trkpt>
      <trkpt lat="47.23851" lon="-2.30092">
        <ele>26</ele>
        <time>2019-11-10T08:31:56.000Z</time>
      </trkpt>
      <trkpt lat="47.23857" lon="-2.30119">
        <ele>26</ele>
        <time>2019-11-10T08:31:59.000Z</time>
      </trkpt>
      <trkpt lat="47.2386" lon="-2.30128">
        <ele>26</ele>
        <time>2019-11-10T08:32:00.000Z</time>
      </trkpt>
      <trkpt lat="47.23871" lon="-2.3015">
        <ele>26</ele>
        <time>2019-11-10T08:32:03.000Z</time>
      </trkpt>
      <trkpt lat="47.23874" lon="-2.30156">
        <ele>26</ele>
        <time>2019-11-10T08:32:04.000Z</time>
      </trkpt>
      <trkpt lat="47.23884" lon="-2.30174">
        <ele>25.60000038147</ele>
        <time>2019-11-10T08:32:07.000Z</time>
      </trkpt>
      <trkpt lat="47.23888" lon="-2.30178">
        <ele>25.200000762939</ele>
        <time>2019-11-10T08:32:08.000Z</time>
      </trkpt>
      <trkpt lat="47.23893" lon="-2.30181">
        <ele>24.799999237061</ele>
        <time>2019-11-10T08:32:09.000Z</time>
      </trkpt>
      <trkpt lat="47.23897" lon="-2.30184">
        <ele>24.39999961853</ele>
        <time>2019-11-10T08:32:10.000Z</time>
      </trkpt>
      <trkpt lat="47.23901" lon="-2.30187">
        <ele>24</ele>
        <time>2019-11-10T08:32:11.000Z</time>
      </trkpt>
      <trkpt lat="47.23913" lon="-2.30197">
        <ele>24</ele>
        <time>2019-11-10T08:32:14.000Z</time>
      </trkpt>
      <trkpt lat="47.23925" lon="-2.30206">
        <ele>24</ele>
        <time>2019-11-10T08:32:18.000Z</time>
      </trkpt>
      <trkpt lat="47.23937" lon="-2.30218">
        <ele>24</ele>
        <time>2019-11-10T08:32:24.000Z</time>
      </trkpt>
      <trkpt lat="47.23943" lon="-2.30231">
        <ele>24.39999961853</ele>
        <time>2019-11-10T08:32:28.000Z</time>
      </trkpt>
      <trkpt lat="47.23944" lon="-2.30233">
        <ele>24.799999237061</ele>
        <time>2019-11-10T08:32:29.000Z</time>
      </trkpt>
      <trkpt lat="47.23945" lon="-2.30236">
        <ele>25.200000762939</ele>
        <time>2019-11-10T08:32:30.000Z</time>
      </trkpt>
      <trkpt lat="47.23946" lon="-2.3024">
        <ele>25.60000038147</ele>
        <time>2019-11-10T08:32:31.000Z</time>
      </trkpt>
      <trkpt lat="47.23946" lon="-2.30244">
        <ele>26</ele>
        <time>2019-11-10T08:32:32.000Z</time>
      </trkpt>
      <trkpt lat="47.23946" lon="-2.30257">
        <ele>26</ele>
        <time>2019-11-10T08:32:35.000Z</time>
      </trkpt>
      <trkpt lat="47.2394" lon="-2.30284">
        <ele>26</ele>
        <time>2019-11-10T08:32:41.000Z</time>
      </trkpt>
      <trkpt lat="47.23939" lon="-2.30307">
        <ele>26</ele>
        <time>2019-11-10T08:32:45.000Z</time>
      </trkpt>
      <trkpt lat="47.2394" lon="-2.30314">
        <ele>26</ele>
        <time>2019-11-10T08:32:46.000Z</time>
      </trkpt>
      <trkpt lat="47.23946" lon="-2.30332">
        <ele>26</ele>
        <time>2019-11-10T08:32:49.000Z</time>
      </trkpt>
      <trkpt lat="47.23952" lon="-2.30344">
        <ele>26</ele>
        <time>2019-11-10T08:32:51.000Z</time>
      </trkpt>
      <trkpt lat="47.23965" lon="-2.30365">
        <ele>26</ele>
        <time>2019-11-10T08:32:55.000Z</time>
      </trkpt>
      <trkpt lat="47.23974" lon="-2.30368">
        <ele>26</ele>
        <time>2019-11-10T08:32:57.000Z</time>
      </trkpt>
      <trkpt lat="47.23985" lon="-2.30359">
        <ele>26</ele>
        <time>2019-11-10T08:33:00.000Z</time>
      </trkpt>
      <trkpt lat="47.23988" lon="-2.30355">
        <ele>26</ele>
        <time>2019-11-10T08:33:01.000Z</time>
      </trkpt>
      <trkpt lat="47.24007" lon="-2.30326">
        <ele>26</ele>
        <time>2019-11-10T08:33:07.000Z</time>
      </trkpt>
      <trkpt lat="47.2401" lon="-2.30322">
        <ele>26</ele>
        <time>2019-11-10T08:33:08.000Z</time>
      </trkpt>
      <trkpt lat="47.24021" lon="-2.30309">
        <ele>26</ele>
        <time>2019-11-10T08:33:12.000Z</time>
      </trkpt>
      <trkpt lat="47.24045" lon="-2.30299">
        <ele>26</ele>
        <time>2019-11-10T08:33:18.000Z</time>
      </trkpt>
      <trkpt lat="47.24072" lon="-2.3029">
        <ele>26</ele>
        <time>2019-11-10T08:33:25.000Z</time>
      </trkpt>
      <trkpt lat="47.24094" lon="-2.30279">
        <ele>26</ele>
        <time>2019-11-10T08:33:31.000Z</time>
      </trkpt>
      <trkpt lat="47.24124" lon="-2.30265">
        <ele>26</ele>
        <time>2019-11-10T08:33:39.000Z</time>
      </trkpt>
      <trkpt lat="47.24149" lon="-2.30254">
        <ele>25.39999961853</ele>
        <time>2019-11-10T08:33:46.000Z</time>
      </trkpt>
      <trkpt lat="47.24151" lon="-2.30253">
        <ele>25</ele>
        <time>2019-11-10T08:33:47.000Z</time>
      </trkpt>
      <trkpt lat="47.24153" lon="-2.30252">
        <ele>24.39999961853</ele>
        <time>2019-11-10T08:33:48.000Z</time>
      </trkpt>
      <trkpt lat="47.24155" lon="-2.30251">
        <ele>24</ele>
        <time>2019-11-10T08:33:49.000Z</time>
      </trkpt>
      <trkpt lat="47.24157" lon="-2.30251">
        <ele>23.39999961853</ele>
        <time>2019-11-10T08:33:50.000Z</time>
      </trkpt>
      <trkpt lat="47.2416" lon="-2.30249">
        <ele>23</ele>
        <time>2019-11-10T08:33:51.000Z</time>
      </trkpt>
      <trkpt lat="47.24164" lon="-2.30246">
        <ele>22.60000038147</ele>
        <time>2019-11-10T08:33:52.000Z</time>
      </trkpt>
      <trkpt lat="47.24168" lon="-2.30243">
        <ele>22</ele>
        <time>2019-11-10T08:33:53.000Z</time>
      </trkpt>
      <trkpt lat="47.24172" lon="-2.30241">
        <ele>21.60000038147</ele>
        <time>2019-11-10T08:33:54.000Z</time>
      </trkpt>
      <trkpt lat="47.24177" lon="-2.30239">
        <ele>21.200000762939</ele>
        <time>2019-11-10T08:33:55.000Z</time>
      </trkpt>
      <trkpt lat="47.24181" lon="-2.30237">
        <ele>21.200000762939</ele>
        <time>2019-11-10T08:33:56.000Z</time>
      </trkpt>
      <trkpt lat="47.24189" lon="-2.30231">
        <ele>21.200000762939</ele>
        <time>2019-11-10T08:33:58.000Z</time>
      </trkpt>
      <trkpt lat="47.24201" lon="-2.30225">
        <ele>21.200000762939</ele>
        <time>2019-11-10T08:34:01.000Z</time>
      </trkpt>
      <trkpt lat="47.24209" lon="-2.30221">
        <ele>21.200000762939</ele>
        <time>2019-11-10T08:34:03.000Z</time>
      </trkpt>
      <trkpt lat="47.24221" lon="-2.30215">
        <ele>21.200000762939</ele>
        <time>2019-11-10T08:34:06.000Z</time>
      </trkpt>
      <trkpt lat="47.24232" lon="-2.30202">
        <ele>21.60000038147</ele>
        <time>2019-11-10T08:34:10.000Z</time>
      </trkpt>
      <trkpt lat="47.24235" lon="-2.30198">
        <ele>22</ele>
        <time>2019-11-10T08:34:11.000Z</time>
      </trkpt>
      <trkpt lat="47.24236" lon="-2.30193">
        <ele>22.39999961853</ele>
        <time>2019-11-10T08:34:12.000Z</time>
      </trkpt>
      <trkpt lat="47.24238" lon="-2.30189">
        <ele>23</ele>
        <time>2019-11-10T08:34:13.000Z</time>
      </trkpt>
      <trkpt lat="47.2424" lon="-2.30184">
        <ele>23.39999961853</ele>
        <time>2019-11-10T08:34:14.000Z</time>
      </trkpt>
      <trkpt lat="47.24246" lon="-2.30171">
        <ele>23.39999961853</ele>
        <time>2019-11-10T08:34:18.000Z</time>
      </trkpt>
      <trkpt lat="47.24251" lon="-2.30162">
        <ele>23.799999237061</ele>
        <time>2019-11-10T08:34:21.000Z</time>
      </trkpt>
      <trkpt lat="47.24253" lon="-2.30159">
        <ele>24.200000762939</ele>
        <time>2019-11-10T08:34:22.000Z</time>
      </trkpt>
      <trkpt lat="47.24255" lon="-2.30156">
        <ele>25</ele>
        <time>2019-11-10T08:34:23.000Z</time>
      </trkpt>
      <trkpt lat="47.24257" lon="-2.30153">
        <ele>25.39999961853</ele>
        <time>2019-11-10T08:34:24.000Z</time>
      </trkpt>
      <trkpt lat="47.2427" lon="-2.30136">
        <ele>25.39999961853</ele>
        <time>2019-11-10T08:34:30.000Z</time>
      </trkpt>
      <trkpt lat="47.24278" lon="-2.30127">
        <ele>25.799999237061</ele>
        <time>2019-11-10T08:34:33.000Z</time>
      </trkpt>
      <trkpt lat="47.24281" lon="-2.30124">
        <ele>26.200000762939</ele>
        <time>2019-11-10T08:34:34.000Z</time>
      </trkpt>
      <trkpt lat="47.24284" lon="-2.30121">
        <ele>26.60000038147</ele>
        <time>2019-11-10T08:34:35.000Z</time>
      </trkpt>
      <trkpt lat="47.24287" lon="-2.30119">
        <ele>27.200000762939</ele>
        <time>2019-11-10T08:34:36.000Z</time>
      </trkpt>
      <trkpt lat="47.24291" lon="-2.30117">
        <ele>27.60000038147</ele>
        <time>2019-11-10T08:34:37.000Z</time>
      </trkpt>
      <trkpt lat="47.2431" lon="-2.30121">
        <ele>27.60000038147</ele>
        <time>2019-11-10T08:34:42.000Z</time>
      </trkpt>
      <trkpt lat="47.24329" lon="-2.30128">
        <ele>27.60000038147</ele>
        <time>2019-11-10T08:34:48.000Z</time>
      </trkpt>
      <trkpt lat="47.24348" lon="-2.30111">
        <ele>27.60000038147</ele>
        <time>2019-11-10T08:34:54.000Z</time>
      </trkpt>
      <trkpt lat="47.24361" lon="-2.30099">
        <ele>28</ele>
        <time>2019-11-10T08:34:58.000Z</time>
      </trkpt>
      <trkpt lat="47.24365" lon="-2.30097">
        <ele>28.39999961853</ele>
        <time>2019-11-10T08:34:59.000Z</time>
      </trkpt>
      <trkpt lat="47.24369" lon="-2.30094">
        <ele>28.799999237061</ele>
        <time>2019-11-10T08:35:00.000Z</time>
      </trkpt>
      <trkpt lat="47.24372" lon="-2.30091">
        <ele>29.200000762939</ele>
        <time>2019-11-10T08:35:01.000Z</time>
      </trkpt>
      <trkpt lat="47.24376" lon="-2.30089">
        <ele>29.60000038147</ele>
        <time>2019-11-10T08:35:02.000Z</time>
      </trkpt>
      <trkpt lat="47.24384" lon="-2.30091">
        <ele>29.60000038147</ele>
        <time>2019-11-10T08:35:04.000Z</time>
      </trkpt>
      <trkpt lat="47.24393" lon="-2.30104">
        <ele>29.60000038147</ele>
        <time>2019-11-10T08:35:07.000Z</time>
      </trkpt>
      <trkpt lat="47.24396" lon="-2.30109">
        <ele>29.60000038147</ele>
        <time>2019-11-10T08:35:08.000Z</time>
      </trkpt>
      <trkpt lat="47.24405" lon="-2.30131">
        <ele>30.39999961853</ele>
        <time>2019-11-10T08:35:12.000Z</time>
      </trkpt>
      <trkpt lat="47.24408" lon="-2.30136">
        <ele>30.799999237061</ele>
        <time>2019-11-10T08:35:13.000Z</time>
      </trkpt>
      <trkpt lat="47.24411" lon="-2.30141">
        <ele>31.200000762939</ele>
        <time>2019-11-10T08:35:14.000Z</time>
      </trkpt>
      <trkpt lat="47.24415" lon="-2.30145">
        <ele>31.60000038147</ele>
        <time>2019-11-10T08:35:15.000Z</time>
      </trkpt>
      <trkpt lat="47.24423" lon="-2.3015">
        <ele>31.60000038147</ele>
        <time>2019-11-10T08:35:17.000Z</time>
      </trkpt>
      <trkpt lat="47.24431" lon="-2.30155">
        <ele>31.60000038147</ele>
        <time>2019-11-10T08:35:19.000Z</time>
      </trkpt>
      <trkpt lat="47.24446" lon="-2.30176">
        <ele>31.60000038147</ele>
        <time>2019-11-10T08:35:24.000Z</time>
      </trkpt>
      <trkpt lat="47.24448" lon="-2.30181">
        <ele>31.60000038147</ele>
        <time>2019-11-10T08:35:25.000Z</time>
      </trkpt>
      <trkpt lat="47.24451" lon="-2.30186">
        <ele>31.60000038147</ele>
        <time>2019-11-10T08:35:26.000Z</time>
      </trkpt>
      <trkpt lat="47.24462" lon="-2.30196">
        <ele>31.60000038147</ele>
        <time>2019-11-10T08:35:29.000Z</time>
      </trkpt>
      <trkpt lat="47.24477" lon="-2.30215">
        <ele>31.60000038147</ele>
        <time>2019-11-10T08:35:33.000Z</time>
      </trkpt>
      <trkpt lat="47.2448" lon="-2.30221">
        <ele>31.60000038147</ele>
        <time>2019-11-10T08:35:34.000Z</time>
      </trkpt>
      <trkpt lat="47.24489" lon="-2.30242">
        <ele>31.60000038147</ele>
        <time>2019-11-10T08:35:37.000Z</time>
      </trkpt>
      <trkpt lat="47.24494" lon="-2.30246">
        <ele>31.60000038147</ele>
        <time>2019-11-10T08:35:38.000Z</time>
      </trkpt>
      <trkpt lat="47.24498" lon="-2.30248">
        <ele>31.200000762939</ele>
        <time>2019-11-10T08:35:39.000Z</time>
      </trkpt>
      <trkpt lat="47.24503" lon="-2.30247">
        <ele>30.60000038147</ele>
        <time>2019-11-10T08:35:40.000Z</time>
      </trkpt>
      <trkpt lat="47.24508" lon="-2.30244">
        <ele>30.200000762939</ele>
        <time>2019-11-10T08:35:41.000Z</time>
      </trkpt>
      <trkpt lat="47.24513" lon="-2.30241">
        <ele>29.799999237061</ele>
        <time>2019-11-10T08:35:42.000Z</time>
      </trkpt>
      <trkpt lat="47.24517" lon="-2.30237">
        <ele>29.39999961853</ele>
        <time>2019-11-10T08:35:43.000Z</time>
      </trkpt>
      <trkpt lat="47.24529" lon="-2.30225">
        <ele>29.39999961853</ele>
        <time>2019-11-10T08:35:46.000Z</time>
      </trkpt>
      <trkpt lat="47.24556" lon="-2.30193">
        <ele>29.39999961853</ele>
        <time>2019-11-10T08:35:53.000Z</time>
      </trkpt>
      <trkpt lat="47.24589" lon="-2.30145">
        <ele>29.39999961853</ele>
        <time>2019-11-10T08:36:02.000Z</time>
      </trkpt>
      <trkpt lat="47.24595" lon="-2.30135">
        <ele>29.799999237061</ele>
        <time>2019-11-10T08:36:04.000Z</time>
      </trkpt>
      <trkpt lat="47.24599" lon="-2.3013">
        <ele>30.200000762939</ele>
        <time>2019-11-10T08:36:05.000Z</time>
      </trkpt>
      <trkpt lat="47.24603" lon="-2.30125">
        <ele>30.60000038147</ele>
        <time>2019-11-10T08:36:06.000Z</time>
      </trkpt>
      <trkpt lat="47.24606" lon="-2.30121">
        <ele>31</ele>
        <time>2019-11-10T08:36:07.000Z</time>
      </trkpt>
      <trkpt lat="47.2461" lon="-2.30116">
        <ele>31.39999961853</ele>
        <time>2019-11-10T08:36:08.000Z</time>
      </trkpt>
      <trkpt lat="47.24614" lon="-2.30113">
        <ele>31.39999961853</ele>
        <time>2019-11-10T08:36:09.000Z</time>
      </trkpt>
      <trkpt lat="47.24632" lon="-2.30097">
        <ele>31.39999961853</ele>
        <time>2019-11-10T08:36:14.000Z</time>
      </trkpt>
      <trkpt lat="47.24645" lon="-2.30082">
        <ele>31.39999961853</ele>
        <time>2019-11-10T08:36:20.000Z</time>
      </trkpt>
      <trkpt lat="47.24657" lon="-2.30071">
        <ele>31.39999961853</ele>
        <time>2019-11-10T08:36:24.000Z</time>
      </trkpt>
      <trkpt lat="47.24686" lon="-2.30046">
        <ele>31.39999961853</ele>
        <time>2019-11-10T08:36:31.000Z</time>
      </trkpt>
      <trkpt lat="47.24694" lon="-2.3004">
        <ele>31.39999961853</ele>
        <time>2019-11-10T08:36:33.000Z</time>
      </trkpt>
      <trkpt lat="47.24711" lon="-2.30026">
        <ele>31.39999961853</ele>
        <time>2019-11-10T08:36:37.000Z</time>
      </trkpt>
      <trkpt lat="47.24732" lon="-2.30002">
        <ele>31.799999237061</ele>
        <time>2019-11-10T08:36:43.000Z</time>
      </trkpt>
      <trkpt lat="47.24734" lon="-2.29997">
        <ele>32.200000762939</ele>
        <time>2019-11-10T08:36:44.000Z</time>
      </trkpt>
      <trkpt lat="47.24737" lon="-2.29992">
        <ele>32.599998474121</ele>
        <time>2019-11-10T08:36:45.000Z</time>
      </trkpt>
      <trkpt lat="47.24739" lon="-2.29987">
        <ele>33</ele>
        <time>2019-11-10T08:36:46.000Z</time>
      </trkpt>
      <trkpt lat="47.24741" lon="-2.29981">
        <ele>33.400001525879</ele>
        <time>2019-11-10T08:36:47.000Z</time>
      </trkpt>
      <trkpt lat="47.24743" lon="-2.29975">
        <ele>33.400001525879</ele>
        <time>2019-11-10T08:36:48.000Z</time>
      </trkpt>
      <trkpt lat="47.24745" lon="-2.29969">
        <ele>33.400001525879</ele>
        <time>2019-11-10T08:36:49.000Z</time>
      </trkpt>
      <trkpt lat="47.24747" lon="-2.29943">
        <ele>33.400001525879</ele>
        <time>2019-11-10T08:36:53.000Z</time>
      </trkpt>
      <trkpt lat="47.24747" lon="-2.29936">
        <ele>33.400001525879</ele>
        <time>2019-11-10T08:36:54.000Z</time>
      </trkpt>
      <trkpt lat="47.24748" lon="-2.29903">
        <ele>33.400001525879</ele>
        <time>2019-11-10T08:37:00.000Z</time>
      </trkpt>
      <trkpt lat="47.24751" lon="-2.29893">
        <ele>33.400001525879</ele>
        <time>2019-11-10T08:37:02.000Z</time>
      </trkpt>
      <trkpt lat="47.24757" lon="-2.29885">
        <ele>33.400001525879</ele>
        <time>2019-11-10T08:37:04.000Z</time>
      </trkpt>
      <trkpt lat="47.24769" lon="-2.29875">
        <ele>33.799999237061</ele>
        <time>2019-11-10T08:37:07.000Z</time>
      </trkpt>
      <trkpt lat="47.24774" lon="-2.29872">
        <ele>34.400001525879</ele>
        <time>2019-11-10T08:37:08.000Z</time>
      </trkpt>
      <trkpt lat="47.24778" lon="-2.29869">
        <ele>34.799999237061</ele>
        <time>2019-11-10T08:37:09.000Z</time>
      </trkpt>
      <trkpt lat="47.24783" lon="-2.29865">
        <ele>35.200000762939</ele>
        <time>2019-11-10T08:37:10.000Z</time>
      </trkpt>
      <trkpt lat="47.24788" lon="-2.29862">
        <ele>35.599998474121</ele>
        <time>2019-11-10T08:37:11.000Z</time>
      </trkpt>
      <trkpt lat="47.24816" lon="-2.29848">
        <ele>35.599998474121</ele>
        <time>2019-11-10T08:37:17.000Z</time>
      </trkpt>
      <trkpt lat="47.24842" lon="-2.29839">
        <ele>35.599998474121</ele>
        <time>2019-11-10T08:37:23.000Z</time>
      </trkpt>
      <trkpt lat="47.24847" lon="-2.29837">
        <ele>35.599998474121</ele>
        <time>2019-11-10T08:37:24.000Z</time>
      </trkpt>
      <trkpt lat="47.24861" lon="-2.29824">
        <ele>35.599998474121</ele>
        <time>2019-11-10T08:37:28.000Z</time>
      </trkpt>
      <trkpt lat="47.24865" lon="-2.29818">
        <ele>35.599998474121</ele>
        <time>2019-11-10T08:37:30.000Z</time>
      </trkpt>
      <trkpt lat="47.24868" lon="-2.29802">
        <ele>35.599998474121</ele>
        <time>2019-11-10T08:37:33.000Z</time>
      </trkpt>
      <trkpt lat="47.24869" lon="-2.29796">
        <ele>35.599998474121</ele>
        <time>2019-11-10T08:37:34.000Z</time>
      </trkpt>
      <trkpt lat="47.24877" lon="-2.29778">
        <ele>35.599998474121</ele>
        <time>2019-11-10T08:37:37.000Z</time>
      </trkpt>
      <trkpt lat="47.24885" lon="-2.29769">
        <ele>36</ele>
        <time>2019-11-10T08:37:39.000Z</time>
      </trkpt>
      <trkpt lat="47.24889" lon="-2.29765">
        <ele>36.400001525879</ele>
        <time>2019-11-10T08:37:40.000Z</time>
      </trkpt>
      <trkpt lat="47.24894" lon="-2.29762">
        <ele>36.799999237061</ele>
        <time>2019-11-10T08:37:41.000Z</time>
      </trkpt>
      <trkpt lat="47.24899" lon="-2.2976">
        <ele>37.200000762939</ele>
        <time>2019-11-10T08:37:42.000Z</time>
      </trkpt>
      <trkpt lat="47.24904" lon="-2.29757">
        <ele>37.599998474121</ele>
        <time>2019-11-10T08:37:43.000Z</time>
      </trkpt>
      <trkpt lat="47.24939" lon="-2.29743">
        <ele>37.599998474121</ele>
        <time>2019-11-10T08:37:50.000Z</time>
      </trkpt>
      <trkpt lat="47.24971" lon="-2.29731">
        <ele>37.599998474121</ele>
        <time>2019-11-10T08:37:56.000Z</time>
      </trkpt>
      <trkpt lat="47.25024" lon="-2.29719">
        <ele>37.599998474121</ele>
        <time>2019-11-10T08:38:05.000Z</time>
      </trkpt>
      <trkpt lat="47.25036" lon="-2.29716">
        <ele>37.200000762939</ele>
        <time>2019-11-10T08:38:07.000Z</time>
      </trkpt>
      <trkpt lat="47.25041" lon="-2.29715">
        <ele>36.799999237061</ele>
        <time>2019-11-10T08:38:08.000Z</time>
      </trkpt>
      <trkpt lat="47.25047" lon="-2.29714">
        <ele>36.400001525879</ele>
        <time>2019-11-10T08:38:09.000Z</time>
      </trkpt>
      <trkpt lat="47.25052" lon="-2.29713">
        <ele>36</ele>
        <time>2019-11-10T08:38:10.000Z</time>
      </trkpt>
      <trkpt lat="47.25057" lon="-2.29712">
        <ele>35.599998474121</ele>
        <time>2019-11-10T08:38:11.000Z</time>
      </trkpt>
      <trkpt lat="47.25088" lon="-2.29712">
        <ele>35.599998474121</ele>
        <time>2019-11-10T08:38:17.000Z</time>
      </trkpt>
      <trkpt lat="47.2512" lon="-2.2972">
        <ele>35.599998474121</ele>
        <time>2019-11-10T08:38:23.000Z</time>
      </trkpt>
      <trkpt lat="47.25152" lon="-2.29734">
        <ele>35.599998474121</ele>
        <time>2019-11-10T08:38:29.000Z</time>
      </trkpt>
      <trkpt lat="47.25158" lon="-2.29737">
        <ele>35.200000762939</ele>
        <time>2019-11-10T08:38:30.000Z</time>
      </trkpt>
      <trkpt lat="47.25163" lon="-2.2974">
        <ele>34.799999237061</ele>
        <time>2019-11-10T08:38:31.000Z</time>
      </trkpt>
      <trkpt lat="47.25168" lon="-2.29742">
        <ele>34.400001525879</ele>
        <time>2019-11-10T08:38:32.000Z</time>
      </trkpt>
      <trkpt lat="47.25172" lon="-2.29745">
        <ele>33.799999237061</ele>
        <time>2019-11-10T08:38:33.000Z</time>
      </trkpt>
      <trkpt lat="47.25177" lon="-2.29747">
        <ele>33.400001525879</ele>
        <time>2019-11-10T08:38:34.000Z</time>
      </trkpt>
      <trkpt lat="47.25188" lon="-2.29749">
        <ele>33.400001525879</ele>
        <time>2019-11-10T08:38:38.000Z</time>
      </trkpt>
      <trkpt lat="47.25192" lon="-2.29741">
        <ele>33.400001525879</ele>
        <time>2019-11-10T08:38:41.000Z</time>
      </trkpt>
      <trkpt lat="47.25192" lon="-2.29738">
        <ele>33.400001525879</ele>
        <time>2019-11-10T08:38:42.000Z</time>
      </trkpt>
      <trkpt lat="47.25192" lon="-2.29722">
        <ele>33.400001525879</ele>
        <time>2019-11-10T08:38:46.000Z</time>
      </trkpt>
      <trkpt lat="47.25192" lon="-2.29697">
        <ele>33.400001525879</ele>
        <time>2019-11-10T08:38:50.000Z</time>
      </trkpt>
      <trkpt lat="47.25191" lon="-2.29683">
        <ele>33.400001525879</ele>
        <time>2019-11-10T08:38:52.000Z</time>
      </trkpt>
      <trkpt lat="47.25188" lon="-2.29655">
        <ele>33.400001525879</ele>
        <time>2019-11-10T08:38:57.000Z</time>
      </trkpt>
      <trkpt lat="47.2519" lon="-2.29631">
        <ele>33.400001525879</ele>
        <time>2019-11-10T08:39:02.000Z</time>
      </trkpt>
      <trkpt lat="47.25203" lon="-2.29609">
        <ele>33.400001525879</ele>
        <time>2019-11-10T08:39:07.000Z</time>
      </trkpt>
      <trkpt lat="47.25204" lon="-2.29603">
        <ele>33.400001525879</ele>
        <time>2019-11-10T08:39:08.000Z</time>
      </trkpt>
      <trkpt lat="47.25207" lon="-2.29591">
        <ele>33.400001525879</ele>
        <time>2019-11-10T08:39:10.000Z</time>
      </trkpt>
      <trkpt lat="47.25213" lon="-2.29583">
        <ele>33.400001525879</ele>
        <time>2019-11-10T08:39:12.000Z</time>
      </trkpt>
      <trkpt lat="47.2522" lon="-2.29578">
        <ele>33.799999237061</ele>
        <time>2019-11-10T08:39:14.000Z</time>
      </trkpt>
      <trkpt lat="47.25224" lon="-2.29576">
        <ele>34.400001525879</ele>
        <time>2019-11-10T08:39:15.000Z</time>
      </trkpt>
      <trkpt lat="47.25228" lon="-2.29575">
        <ele>34.799999237061</ele>
        <time>2019-11-10T08:39:16.000Z</time>
      </trkpt>
      <trkpt lat="47.25231" lon="-2.29574">
        <ele>35.200000762939</ele>
        <time>2019-11-10T08:39:17.000Z</time>
      </trkpt>
      <trkpt lat="47.25235" lon="-2.29572">
        <ele>35.599998474121</ele>
        <time>2019-11-10T08:39:18.000Z</time>
      </trkpt>
      <trkpt lat="47.25245" lon="-2.29563">
        <ele>35.599998474121</ele>
        <time>2019-11-10T08:39:21.000Z</time>
      </trkpt>
      <trkpt lat="47.25277" lon="-2.29539">
        <ele>35.599998474121</ele>
        <time>2019-11-10T08:39:29.000Z</time>
      </trkpt>
      <trkpt lat="47.25294" lon="-2.29533">
        <ele>35.599998474121</ele>
        <time>2019-11-10T08:39:33.000Z</time>
      </trkpt>
      <trkpt lat="47.25303" lon="-2.2953">
        <ele>35.599998474121</ele>
        <time>2019-11-10T08:39:35.000Z</time>
      </trkpt>
      <trkpt lat="47.25317" lon="-2.29524">
        <ele>35.599998474121</ele>
        <time>2019-11-10T08:39:38.000Z</time>
      </trkpt>
      <trkpt lat="47.25329" lon="-2.29512">
        <ele>35.599998474121</ele>
        <time>2019-11-10T08:39:41.000Z</time>
      </trkpt>
      <trkpt lat="47.25332" lon="-2.29508">
        <ele>35.599998474121</ele>
        <time>2019-11-10T08:39:42.000Z</time>
      </trkpt>
      <trkpt lat="47.25339" lon="-2.29492">
        <ele>35.599998474121</ele>
        <time>2019-11-10T08:39:45.000Z</time>
      </trkpt>
      <trkpt lat="47.25344" lon="-2.29468">
        <ele>35.599998474121</ele>
        <time>2019-11-10T08:39:50.000Z</time>
      </trkpt>
      <trkpt lat="47.25346" lon="-2.29449">
        <ele>35.599998474121</ele>
        <time>2019-11-10T08:39:56.000Z</time>
      </trkpt>
      <trkpt lat="47.25346" lon="-2.29432">
        <ele>35.599998474121</ele>
        <time>2019-11-10T08:40:02.000Z</time>
      </trkpt>
      <trkpt lat="47.25346" lon="-2.29407">
        <ele>35.599998474121</ele>
        <time>2019-11-10T08:40:08.000Z</time>
      </trkpt>
      <trkpt lat="47.25348" lon="-2.29379">
        <ele>35.599998474121</ele>
        <time>2019-11-10T08:40:13.000Z</time>
      </trkpt>
      <trkpt lat="47.2535" lon="-2.29373">
        <ele>35.599998474121</ele>
        <time>2019-11-10T08:40:14.000Z</time>
      </trkpt>
      <trkpt lat="47.25353" lon="-2.29355">
        <ele>35.599998474121</ele>
        <time>2019-11-10T08:40:17.000Z</time>
      </trkpt>
      <trkpt lat="47.25355" lon="-2.29342">
        <ele>35.599998474121</ele>
        <time>2019-11-10T08:40:19.000Z</time>
      </trkpt>
      <trkpt lat="47.25357" lon="-2.29329">
        <ele>35.599998474121</ele>
        <time>2019-11-10T08:40:21.000Z</time>
      </trkpt>
      <trkpt lat="47.2536" lon="-2.29311">
        <ele>35.599998474121</ele>
        <time>2019-11-10T08:40:24.000Z</time>
      </trkpt>
      <trkpt lat="47.25362" lon="-2.29295">
        <ele>35.599998474121</ele>
        <time>2019-11-10T08:40:27.000Z</time>
      </trkpt>
      <trkpt lat="47.25365" lon="-2.29278">
        <ele>35.599998474121</ele>
        <time>2019-11-10T08:40:30.000Z</time>
      </trkpt>
      <trkpt lat="47.25366" lon="-2.29272">
        <ele>35.599998474121</ele>
        <time>2019-11-10T08:40:31.000Z</time>
      </trkpt>
      <trkpt lat="47.25372" lon="-2.29247">
        <ele>35.599998474121</ele>
        <time>2019-11-10T08:40:35.000Z</time>
      </trkpt>
      <trkpt lat="47.25375" lon="-2.29241">
        <ele>35.599998474121</ele>
        <time>2019-11-10T08:40:36.000Z</time>
      </trkpt>
      <trkpt lat="47.25387" lon="-2.29218">
        <ele>35.599998474121</ele>
        <time>2019-11-10T08:40:40.000Z</time>
      </trkpt>
      <trkpt lat="47.25405" lon="-2.29195">
        <ele>35.599998474121</ele>
        <time>2019-11-10T08:40:45.000Z</time>
      </trkpt>
      <trkpt lat="47.25414" lon="-2.29189">
        <ele>35.599998474121</ele>
        <time>2019-11-10T08:40:47.000Z</time>
      </trkpt>
      <trkpt lat="47.2543" lon="-2.29175">
        <ele>35.599998474121</ele>
        <time>2019-11-10T08:40:51.000Z</time>
      </trkpt>
      <trkpt lat="47.25434" lon="-2.29171">
        <ele>35.599998474121</ele>
        <time>2019-11-10T08:40:52.000Z</time>
      </trkpt>
      <trkpt lat="47.25446" lon="-2.29154">
        <ele>35.599998474121</ele>
        <time>2019-11-10T08:40:55.000Z</time>
      </trkpt>
      <trkpt lat="47.25456" lon="-2.29143">
        <ele>35.599998474121</ele>
        <time>2019-11-10T08:40:57.000Z</time>
      </trkpt>
      <trkpt lat="47.25487" lon="-2.29123">
        <ele>35.599998474121</ele>
        <time>2019-11-10T08:41:02.000Z</time>
      </trkpt>
      <trkpt lat="47.25521" lon="-2.2911">
        <ele>35</ele>
        <time>2019-11-10T08:41:07.000Z</time>
      </trkpt>
      <trkpt lat="47.25527" lon="-2.29106">
        <ele>34.599998474121</ele>
        <time>2019-11-10T08:41:08.000Z</time>
      </trkpt>
      <trkpt lat="47.25533" lon="-2.29101">
        <ele>34.200000762939</ele>
        <time>2019-11-10T08:41:09.000Z</time>
      </trkpt>
      <trkpt lat="47.25539" lon="-2.29095">
        <ele>33.599998474121</ele>
        <time>2019-11-10T08:41:10.000Z</time>
      </trkpt>
      <trkpt lat="47.25542" lon="-2.29087">
        <ele>33.200000762939</ele>
        <time>2019-11-10T08:41:11.000Z</time>
      </trkpt>
      <trkpt lat="47.25543" lon="-2.29063">
        <ele>33.200000762939</ele>
        <time>2019-11-10T08:41:14.000Z</time>
      </trkpt>
      <trkpt lat="47.25541" lon="-2.29047">
        <ele>33.200000762939</ele>
        <time>2019-11-10T08:41:16.000Z</time>
      </trkpt>
      <trkpt lat="47.25539" lon="-2.2903">
        <ele>33.200000762939</ele>
        <time>2019-11-10T08:41:18.000Z</time>
      </trkpt>
      <trkpt lat="47.2554" lon="-2.29022">
        <ele>33.200000762939</ele>
        <time>2019-11-10T08:41:19.000Z</time>
      </trkpt>
      <trkpt lat="47.25549" lon="-2.29003">
        <ele>33.200000762939</ele>
        <time>2019-11-10T08:41:22.000Z</time>
      </trkpt>
      <trkpt lat="47.25569" lon="-2.28988">
        <ele>32.799999237061</ele>
        <time>2019-11-10T08:41:26.000Z</time>
      </trkpt>
      <trkpt lat="47.25575" lon="-2.28985">
        <ele>32.200000762939</ele>
        <time>2019-11-10T08:41:27.000Z</time>
      </trkpt>
      <trkpt lat="47.2558" lon="-2.28981">
        <ele>31.799999237061</ele>
        <time>2019-11-10T08:41:28.000Z</time>
      </trkpt>
      <trkpt lat="47.25585" lon="-2.28977">
        <ele>31.39999961853</ele>
        <time>2019-11-10T08:41:29.000Z</time>
      </trkpt>
      <trkpt lat="47.2559" lon="-2.28974">
        <ele>30.799999237061</ele>
        <time>2019-11-10T08:41:30.000Z</time>
      </trkpt>
      <trkpt lat="47.25594" lon="-2.28971">
        <ele>30.799999237061</ele>
        <time>2019-11-10T08:41:31.000Z</time>
      </trkpt>
      <trkpt lat="47.25614" lon="-2.28971">
        <ele>30.799999237061</ele>
        <time>2019-11-10T08:41:35.000Z</time>
      </trkpt>
      <trkpt lat="47.2564" lon="-2.28985">
        <ele>30.799999237061</ele>
        <time>2019-11-10T08:41:40.000Z</time>
      </trkpt>
      <trkpt lat="47.25656" lon="-2.2899">
        <ele>30.799999237061</ele>
        <time>2019-11-10T08:41:43.000Z</time>
      </trkpt>
      <trkpt lat="47.25666" lon="-2.28991">
        <ele>30.799999237061</ele>
        <time>2019-11-10T08:41:45.000Z</time>
      </trkpt>
      <trkpt lat="47.25678" lon="-2.2899">
        <ele>31.200000762939</ele>
        <time>2019-11-10T08:41:48.000Z</time>
      </trkpt>
      <trkpt lat="47.25683" lon="-2.28989">
        <ele>31.799999237061</ele>
        <time>2019-11-10T08:41:49.000Z</time>
      </trkpt>
      <trkpt lat="47.25687" lon="-2.28987">
        <ele>32.200000762939</ele>
        <time>2019-11-10T08:41:50.000Z</time>
      </trkpt>
      <trkpt lat="47.25691" lon="-2.28984">
        <ele>32.599998474121</ele>
        <time>2019-11-10T08:41:51.000Z</time>
      </trkpt>
      <trkpt lat="47.25694" lon="-2.28981">
        <ele>33</ele>
        <time>2019-11-10T08:41:52.000Z</time>
      </trkpt>
      <trkpt lat="47.25701" lon="-2.28975">
        <ele>33</ele>
        <time>2019-11-10T08:41:54.000Z</time>
      </trkpt>
      <trkpt lat="47.25709" lon="-2.28955">
        <ele>33</ele>
        <time>2019-11-10T08:41:58.000Z</time>
      </trkpt>
      <trkpt lat="47.25711" lon="-2.28936">
        <ele>33.400001525879</ele>
        <time>2019-11-10T08:42:01.000Z</time>
      </trkpt>
      <trkpt lat="47.25712" lon="-2.2893">
        <ele>33.799999237061</ele>
        <time>2019-11-10T08:42:02.000Z</time>
      </trkpt>
      <trkpt lat="47.25713" lon="-2.28925">
        <ele>34.200000762939</ele>
        <time>2019-11-10T08:42:03.000Z</time>
      </trkpt>
      <trkpt lat="47.25715" lon="-2.28919">
        <ele>34.599998474121</ele>
        <time>2019-11-10T08:42:04.000Z</time>
      </trkpt>
      <trkpt lat="47.25717" lon="-2.28914">
        <ele>35</ele>
        <time>2019-11-10T08:42:05.000Z</time>
      </trkpt>
      <trkpt lat="47.25725" lon="-2.28906">
        <ele>35</ele>
        <time>2019-11-10T08:42:07.000Z</time>
      </trkpt>
      <trkpt lat="47.25729" lon="-2.28903">
        <ele>35</ele>
        <time>2019-11-10T08:42:08.000Z</time>
      </trkpt>
      <trkpt lat="47.25741" lon="-2.28896">
        <ele>35</ele>
        <time>2019-11-10T08:42:11.000Z</time>
      </trkpt>
      <trkpt lat="47.25746" lon="-2.28895">
        <ele>35</ele>
        <time>2019-11-10T08:42:12.000Z</time>
      </trkpt>
      <trkpt lat="47.25769" lon="-2.28884">
        <ele>35</ele>
        <time>2019-11-10T08:42:18.000Z</time>
      </trkpt>
      <trkpt lat="47.2579" lon="-2.28874">
        <ele>35.400001525879</ele>
        <time>2019-11-10T08:42:23.000Z</time>
      </trkpt>
      <trkpt lat="47.25795" lon="-2.28873">
        <ele>35.799999237061</ele>
        <time>2019-11-10T08:42:24.000Z</time>
      </trkpt>
      <trkpt lat="47.25801" lon="-2.28872">
        <ele>36.200000762939</ele>
        <time>2019-11-10T08:42:25.000Z</time>
      </trkpt>
      <trkpt lat="47.25807" lon="-2.28871">
        <ele>36.799999237061</ele>
        <time>2019-11-10T08:42:26.000Z</time>
      </trkpt>
      <trkpt lat="47.25812" lon="-2.2887">
        <ele>37.200000762939</ele>
        <time>2019-11-10T08:42:27.000Z</time>
      </trkpt>
      <trkpt lat="47.25822" lon="-2.28867">
        <ele>37.200000762939</ele>
        <time>2019-11-10T08:42:29.000Z</time>
      </trkpt>
      <trkpt lat="47.25858" lon="-2.28862">
        <ele>37.200000762939</ele>
        <time>2019-11-10T08:42:36.000Z</time>
      </trkpt>
      <trkpt lat="47.25886" lon="-2.28853">
        <ele>37.200000762939</ele>
        <time>2019-11-10T08:42:42.000Z</time>
      </trkpt>
      <trkpt lat="47.25899" lon="-2.28845">
        <ele>37.200000762939</ele>
        <time>2019-11-10T08:42:45.000Z</time>
      </trkpt>
      <trkpt lat="47.2591" lon="-2.28835">
        <ele>37.200000762939</ele>
        <time>2019-11-10T08:42:48.000Z</time>
      </trkpt>
      <trkpt lat="47.25923" lon="-2.2882">
        <ele>37.200000762939</ele>
        <time>2019-11-10T08:42:53.000Z</time>
      </trkpt>
      <trkpt lat="47.25925" lon="-2.28817">
        <ele>37.599998474121</ele>
        <time>2019-11-10T08:42:55.000Z</time>
      </trkpt>
      <trkpt lat="47.25926" lon="-2.28814">
        <ele>38</ele>
        <time>2019-11-10T08:42:56.000Z</time>
      </trkpt>
      <trkpt lat="47.25927" lon="-2.28811">
        <ele>38.400001525879</ele>
        <time>2019-11-10T08:42:57.000Z</time>
      </trkpt>
      <trkpt lat="47.25928" lon="-2.28807">
        <ele>38.799999237061</ele>
        <time>2019-11-10T08:42:58.000Z</time>
      </trkpt>
      <trkpt lat="47.25928" lon="-2.28802">
        <ele>39.200000762939</ele>
        <time>2019-11-10T08:42:59.000Z</time>
      </trkpt>
      <trkpt lat="47.25928" lon="-2.28778">
        <ele>39.200000762939</ele>
        <time>2019-11-10T08:43:03.000Z</time>
      </trkpt>
      <trkpt lat="47.2593" lon="-2.28722">
        <ele>39.200000762939</ele>
        <time>2019-11-10T08:43:11.000Z</time>
      </trkpt>
      <trkpt lat="47.25932" lon="-2.28655">
        <ele>39.200000762939</ele>
        <time>2019-11-10T08:43:20.000Z</time>
      </trkpt>
      <trkpt lat="47.25934" lon="-2.28579">
        <ele>39.200000762939</ele>
        <time>2019-11-10T08:43:30.000Z</time>
      </trkpt>
      <trkpt lat="47.25936" lon="-2.28507">
        <ele>39.200000762939</ele>
        <time>2019-11-10T08:43:39.000Z</time>
      </trkpt>
      <trkpt lat="47.25937" lon="-2.28435">
        <ele>39.200000762939</ele>
        <time>2019-11-10T08:43:48.000Z</time>
      </trkpt>
      <trkpt lat="47.25938" lon="-2.28397">
        <ele>39.599998474121</ele>
        <time>2019-11-10T08:43:53.000Z</time>
      </trkpt>
      <trkpt lat="47.25938" lon="-2.28389">
        <ele>40</ele>
        <time>2019-11-10T08:43:54.000Z</time>
      </trkpt>
      <trkpt lat="47.25937" lon="-2.28382">
        <ele>40.400001525879</ele>
        <time>2019-11-10T08:43:55.000Z</time>
      </trkpt>
      <trkpt lat="47.25937" lon="-2.28374">
        <ele>40.799999237061</ele>
        <time>2019-11-10T08:43:56.000Z</time>
      </trkpt>
      <trkpt lat="47.25937" lon="-2.28367">
        <ele>41.200000762939</ele>
        <time>2019-11-10T08:43:57.000Z</time>
      </trkpt>
      <trkpt lat="47.25936" lon="-2.28352">
        <ele>41.200000762939</ele>
        <time>2019-11-10T08:43:59.000Z</time>
      </trkpt>
      <trkpt lat="47.25936" lon="-2.28303">
        <ele>41.200000762939</ele>
        <time>2019-11-10T08:44:06.000Z</time>
      </trkpt>
      <trkpt lat="47.25934" lon="-2.28283">
        <ele>41.200000762939</ele>
        <time>2019-11-10T08:44:09.000Z</time>
      </trkpt>
      <trkpt lat="47.25931" lon="-2.28271">
        <ele>41.200000762939</ele>
        <time>2019-11-10T08:44:11.000Z</time>
      </trkpt>
      <trkpt lat="47.2593" lon="-2.28267">
        <ele>41.200000762939</ele>
        <time>2019-11-10T08:44:12.000Z</time>
      </trkpt>
      <trkpt lat="47.25919" lon="-2.28257">
        <ele>41.200000762939</ele>
        <time>2019-11-10T08:44:15.000Z</time>
      </trkpt>
      <trkpt lat="47.25916" lon="-2.28253">
        <ele>41.200000762939</ele>
        <time>2019-11-10T08:44:16.000Z</time>
      </trkpt>
      <trkpt lat="47.25913" lon="-2.28248">
        <ele>41.200000762939</ele>
        <time>2019-11-10T08:44:17.000Z</time>
      </trkpt>
      <trkpt lat="47.25908" lon="-2.2823">
        <ele>41.200000762939</ele>
        <time>2019-11-10T08:44:20.000Z</time>
      </trkpt>
      <trkpt lat="47.25908" lon="-2.28223">
        <ele>41.200000762939</ele>
        <time>2019-11-10T08:44:21.000Z</time>
      </trkpt>
      <trkpt lat="47.25909" lon="-2.28196">
        <ele>41.200000762939</ele>
        <time>2019-11-10T08:44:25.000Z</time>
      </trkpt>
      <trkpt lat="47.25912" lon="-2.2819">
        <ele>41.200000762939</ele>
        <time>2019-11-10T08:44:26.000Z</time>
      </trkpt>
      <trkpt lat="47.25926" lon="-2.28182">
        <ele>41.200000762939</ele>
        <time>2019-11-10T08:44:29.000Z</time>
      </trkpt>
      <trkpt lat="47.25941" lon="-2.28176">
        <ele>41.200000762939</ele>
        <time>2019-11-10T08:44:32.000Z</time>
      </trkpt>
      <trkpt lat="47.25951" lon="-2.28177">
        <ele>41.200000762939</ele>
        <time>2019-11-10T08:44:34.000Z</time>
      </trkpt>
      <trkpt lat="47.25961" lon="-2.28181">
        <ele>41.200000762939</ele>
        <time>2019-11-10T08:44:36.000Z</time>
      </trkpt>
      <trkpt lat="47.25967" lon="-2.28183">
        <ele>41.599998474121</ele>
        <time>2019-11-10T08:44:37.000Z</time>
      </trkpt>
      <trkpt lat="47.25972" lon="-2.28183">
        <ele>42</ele>
        <time>2019-11-10T08:44:38.000Z</time>
      </trkpt>
      <trkpt lat="47.25977" lon="-2.28181">
        <ele>42.799999237061</ele>
        <time>2019-11-10T08:44:39.000Z</time>
      </trkpt>
      <trkpt lat="47.25983" lon="-2.28178">
        <ele>43.200000762939</ele>
        <time>2019-11-10T08:44:40.000Z</time>
      </trkpt>
      <trkpt lat="47.25988" lon="-2.28175">
        <ele>43.200000762939</ele>
        <time>2019-11-10T08:44:41.000Z</time>
      </trkpt>
      <trkpt lat="47.26004" lon="-2.28163">
        <ele>43.200000762939</ele>
        <time>2019-11-10T08:44:44.000Z</time>
      </trkpt>
      <trkpt lat="47.2604" lon="-2.28136">
        <ele>43.200000762939</ele>
        <time>2019-11-10T08:44:50.000Z</time>
      </trkpt>
      <trkpt lat="47.26077" lon="-2.28116">
        <ele>43.200000762939</ele>
        <time>2019-11-10T08:44:56.000Z</time>
      </trkpt>
      <trkpt lat="47.26095" lon="-2.28109">
        <ele>42.799999237061</ele>
        <time>2019-11-10T08:44:59.000Z</time>
      </trkpt>
      <trkpt lat="47.26101" lon="-2.28106">
        <ele>42.400001525879</ele>
        <time>2019-11-10T08:45:00.000Z</time>
      </trkpt>
      <trkpt lat="47.26107" lon="-2.28103">
        <ele>42</ele>
        <time>2019-11-10T08:45:01.000Z</time>
      </trkpt>
      <trkpt lat="47.26113" lon="-2.28101">
        <ele>41.400001525879</ele>
        <time>2019-11-10T08:45:02.000Z</time>
      </trkpt>
      <trkpt lat="47.26119" lon="-2.28098">
        <ele>41</ele>
        <time>2019-11-10T08:45:03.000Z</time>
      </trkpt>
      <trkpt lat="47.26163" lon="-2.28073">
        <ele>41</ele>
        <time>2019-11-10T08:45:11.000Z</time>
      </trkpt>
      <trkpt lat="47.26187" lon="-2.28053">
        <ele>40.599998474121</ele>
        <time>2019-11-10T08:45:16.000Z</time>
      </trkpt>
      <trkpt lat="47.26192" lon="-2.28049">
        <ele>40.200000762939</ele>
        <time>2019-11-10T08:45:17.000Z</time>
      </trkpt>
      <trkpt lat="47.26198" lon="-2.28044">
        <ele>39.799999237061</ele>
        <time>2019-11-10T08:45:18.000Z</time>
      </trkpt>
      <trkpt lat="47.26203" lon="-2.2804">
        <ele>39.400001525879</ele>
        <time>2019-11-10T08:45:19.000Z</time>
      </trkpt>
      <trkpt lat="47.26209" lon="-2.28035">
        <ele>39</ele>
        <time>2019-11-10T08:45:20.000Z</time>
      </trkpt>
      <trkpt lat="47.26225" lon="-2.28019">
        <ele>39</ele>
        <time>2019-11-10T08:45:23.000Z</time>
      </trkpt>
      <trkpt lat="47.26246" lon="-2.27999">
        <ele>38.599998474121</ele>
        <time>2019-11-10T08:45:27.000Z</time>
      </trkpt>
      <trkpt lat="47.26252" lon="-2.27996">
        <ele>38.200000762939</ele>
        <time>2019-11-10T08:45:28.000Z</time>
      </trkpt>
      <trkpt lat="47.26258" lon="-2.27992">
        <ele>37.400001525879</ele>
        <time>2019-11-10T08:45:29.000Z</time>
      </trkpt>
      <trkpt lat="47.26264" lon="-2.27987">
        <ele>37</ele>
        <time>2019-11-10T08:45:30.000Z</time>
      </trkpt>
      <trkpt lat="47.26268" lon="-2.27985">
        <ele>37</ele>
        <time>2019-11-10T08:45:31.000Z</time>
      </trkpt>
      <trkpt lat="47.26276" lon="-2.27978">
        <ele>37</ele>
        <time>2019-11-10T08:45:33.000Z</time>
      </trkpt>
      <trkpt lat="47.2628" lon="-2.2796">
        <ele>37</ele>
        <time>2019-11-10T08:45:36.000Z</time>
      </trkpt>
      <trkpt lat="47.26268" lon="-2.27934">
        <ele>37</ele>
        <time>2019-11-10T08:45:40.000Z</time>
      </trkpt>
      <trkpt lat="47.26235" lon="-2.27872">
        <ele>37</ele>
        <time>2019-11-10T08:45:50.000Z</time>
      </trkpt>
      <trkpt lat="47.26214" lon="-2.27831">
        <ele>37</ele>
        <time>2019-11-10T08:45:57.000Z</time>
      </trkpt>
      <trkpt lat="47.2619" lon="-2.2778">
        <ele>37</ele>
        <time>2019-11-10T08:46:05.000Z</time>
      </trkpt>
      <trkpt lat="47.26174" lon="-2.27737">
        <ele>37</ele>
        <time>2019-11-10T08:46:11.000Z</time>
      </trkpt>
      <trkpt lat="47.26159" lon="-2.27685">
        <ele>37</ele>
        <time>2019-11-10T08:46:18.000Z</time>
      </trkpt>
      <trkpt lat="47.26146" lon="-2.27626">
        <ele>37</ele>
        <time>2019-11-10T08:46:26.000Z</time>
      </trkpt>
      <trkpt lat="47.26142" lon="-2.27599">
        <ele>37</ele>
        <time>2019-11-10T08:46:30.000Z</time>
      </trkpt>
      <trkpt lat="47.26139" lon="-2.27594">
        <ele>37</ele>
        <time>2019-11-10T08:46:31.000Z</time>
      </trkpt>
      <trkpt lat="47.26122" lon="-2.27588">
        <ele>37</ele>
        <time>2019-11-10T08:46:34.000Z</time>
      </trkpt>
      <trkpt lat="47.26106" lon="-2.27595">
        <ele>37</ele>
        <time>2019-11-10T08:46:37.000Z</time>
      </trkpt>
      <trkpt lat="47.26101" lon="-2.27598">
        <ele>37</ele>
        <time>2019-11-10T08:46:38.000Z</time>
      </trkpt>
      <trkpt lat="47.26072" lon="-2.27614">
        <ele>37</ele>
        <time>2019-11-10T08:46:44.000Z</time>
      </trkpt>
      <trkpt lat="47.26067" lon="-2.27616">
        <ele>37</ele>
        <time>2019-11-10T08:46:45.000Z</time>
      </trkpt>
      <trkpt lat="47.26048" lon="-2.27618">
        <ele>37</ele>
        <time>2019-11-10T08:46:49.000Z</time>
      </trkpt>
      <trkpt lat="47.26036" lon="-2.27601">
        <ele>37</ele>
        <time>2019-11-10T08:46:53.000Z</time>
      </trkpt>
      <trkpt lat="47.26033" lon="-2.27589">
        <ele>37</ele>
        <time>2019-11-10T08:46:55.000Z</time>
      </trkpt>
      <trkpt lat="47.26027" lon="-2.27565">
        <ele>37</ele>
        <time>2019-11-10T08:46:59.000Z</time>
      </trkpt>
      <trkpt lat="47.26026" lon="-2.27559">
        <ele>37</ele>
        <time>2019-11-10T08:47:00.000Z</time>
      </trkpt>
      <trkpt lat="47.2602" lon="-2.27538">
        <ele>37</ele>
        <time>2019-11-10T08:47:04.000Z</time>
      </trkpt>
      <trkpt lat="47.2602" lon="-2.27521">
        <ele>37</ele>
        <time>2019-11-10T08:47:08.000Z</time>
      </trkpt>
      <trkpt lat="47.26029" lon="-2.27497">
        <ele>37</ele>
        <time>2019-11-10T08:47:13.000Z</time>
      </trkpt>
      <trkpt lat="47.2604" lon="-2.27469">
        <ele>37</ele>
        <time>2019-11-10T08:47:17.000Z</time>
      </trkpt>
      <trkpt lat="47.26044" lon="-2.27461">
        <ele>37</ele>
        <time>2019-11-10T08:47:18.000Z</time>
      </trkpt>
      <trkpt lat="47.26047" lon="-2.27456">
        <ele>37</ele>
        <time>2019-11-10T08:47:19.000Z</time>
      </trkpt>
      <trkpt lat="47.26053" lon="-2.27445">
        <ele>37</ele>
        <time>2019-11-10T08:47:21.000Z</time>
      </trkpt>
      <trkpt lat="47.26071" lon="-2.27409">
        <ele>37</ele>
        <time>2019-11-10T08:47:26.000Z</time>
      </trkpt>
      <trkpt lat="47.26093" lon="-2.27376">
        <ele>37</ele>
        <time>2019-11-10T08:47:31.000Z</time>
      </trkpt>
      <trkpt lat="47.26098" lon="-2.27369">
        <ele>37</ele>
        <time>2019-11-10T08:47:32.000Z</time>
      </trkpt>
      <trkpt lat="47.26114" lon="-2.27348">
        <ele>37</ele>
        <time>2019-11-10T08:47:35.000Z</time>
      </trkpt>
      <trkpt lat="47.26129" lon="-2.27332">
        <ele>37</ele>
        <time>2019-11-10T08:47:38.000Z</time>
      </trkpt>
      <trkpt lat="47.2614" lon="-2.27322">
        <ele>37</ele>
        <time>2019-11-10T08:47:40.000Z</time>
      </trkpt>
      <trkpt lat="47.26156" lon="-2.27321">
        <ele>37</ele>
        <time>2019-11-10T08:47:43.000Z</time>
      </trkpt>
      <trkpt lat="47.2617" lon="-2.27321">
        <ele>37</ele>
        <time>2019-11-10T08:47:45.000Z</time>
      </trkpt>
      <trkpt lat="47.2619" lon="-2.27317">
        <ele>37</ele>
        <time>2019-11-10T08:47:48.000Z</time>
      </trkpt>
      <trkpt lat="47.26201" lon="-2.27316">
        <ele>37</ele>
        <time>2019-11-10T08:47:50.000Z</time>
      </trkpt>
      <trkpt lat="47.26213" lon="-2.27317">
        <ele>37</ele>
        <time>2019-11-10T08:47:52.000Z</time>
      </trkpt>
      <trkpt lat="47.2623" lon="-2.2732">
        <ele>37</ele>
        <time>2019-11-10T08:47:55.000Z</time>
      </trkpt>
      <trkpt lat="47.26239" lon="-2.27321">
        <ele>37</ele>
        <time>2019-11-10T08:47:57.000Z</time>
      </trkpt>
      <trkpt lat="47.26268" lon="-2.27322">
        <ele>37</ele>
        <time>2019-11-10T08:48:02.000Z</time>
      </trkpt>
      <trkpt lat="47.26299" lon="-2.27325">
        <ele>37</ele>
        <time>2019-11-10T08:48:07.000Z</time>
      </trkpt>
      <trkpt lat="47.2634" lon="-2.27329">
        <ele>37</ele>
        <time>2019-11-10T08:48:14.000Z</time>
      </trkpt>
      <trkpt lat="47.26345" lon="-2.27329">
        <ele>36.599998474121</ele>
        <time>2019-11-10T08:48:15.000Z</time>
      </trkpt>
      <trkpt lat="47.26351" lon="-2.2733">
        <ele>36.200000762939</ele>
        <time>2019-11-10T08:48:16.000Z</time>
      </trkpt>
      <trkpt lat="47.26357" lon="-2.2733">
        <ele>35.799999237061</ele>
        <time>2019-11-10T08:48:17.000Z</time>
      </trkpt>
      <trkpt lat="47.26362" lon="-2.2733">
        <ele>35.400001525879</ele>
        <time>2019-11-10T08:48:18.000Z</time>
      </trkpt>
      <trkpt lat="47.26368" lon="-2.2733">
        <ele>35</ele>
        <time>2019-11-10T08:48:19.000Z</time>
      </trkpt>
      <trkpt lat="47.26383" lon="-2.27331">
        <ele>35</ele>
        <time>2019-11-10T08:48:22.000Z</time>
      </trkpt>
      <trkpt lat="47.26405" lon="-2.27331">
        <ele>35</ele>
        <time>2019-11-10T08:48:26.000Z</time>
      </trkpt>
      <trkpt lat="47.26415" lon="-2.27335">
        <ele>35</ele>
        <time>2019-11-10T08:48:28.000Z</time>
      </trkpt>
      <trkpt lat="47.2642" lon="-2.27336">
        <ele>34.599998474121</ele>
        <time>2019-11-10T08:48:29.000Z</time>
      </trkpt>
      <trkpt lat="47.26424" lon="-2.27338">
        <ele>34.200000762939</ele>
        <time>2019-11-10T08:48:30.000Z</time>
      </trkpt>
      <trkpt lat="47.26427" lon="-2.27342">
        <ele>33.799999237061</ele>
        <time>2019-11-10T08:48:31.000Z</time>
      </trkpt>
      <trkpt lat="47.26429" lon="-2.27347">
        <ele>33.400001525879</ele>
        <time>2019-11-10T08:48:32.000Z</time>
      </trkpt>
      <trkpt lat="47.26432" lon="-2.27352">
        <ele>33</ele>
        <time>2019-11-10T08:48:33.000Z</time>
      </trkpt>
      <trkpt lat="47.26434" lon="-2.27356">
        <ele>33</ele>
        <time>2019-11-10T08:48:34.000Z</time>
      </trkpt>
      <trkpt lat="47.26439" lon="-2.27367">
        <ele>33</ele>
        <time>2019-11-10T08:48:36.000Z</time>
      </trkpt>
      <trkpt lat="47.26442" lon="-2.2738">
        <ele>33</ele>
        <time>2019-11-10T08:48:38.000Z</time>
      </trkpt>
      <trkpt lat="47.26447" lon="-2.27398">
        <ele>33</ele>
        <time>2019-11-10T08:48:41.000Z</time>
      </trkpt>
      <trkpt lat="47.26452" lon="-2.27411">
        <ele>33</ele>
        <time>2019-11-10T08:48:43.000Z</time>
      </trkpt>
      <trkpt lat="47.26461" lon="-2.27435">
        <ele>32.599998474121</ele>
        <time>2019-11-10T08:48:47.000Z</time>
      </trkpt>
      <trkpt lat="47.26462" lon="-2.27441">
        <ele>32.200000762939</ele>
        <time>2019-11-10T08:48:48.000Z</time>
      </trkpt>
      <trkpt lat="47.26464" lon="-2.27448">
        <ele>31.60000038147</ele>
        <time>2019-11-10T08:48:49.000Z</time>
      </trkpt>
      <trkpt lat="47.26466" lon="-2.27453">
        <ele>31.200000762939</ele>
        <time>2019-11-10T08:48:50.000Z</time>
      </trkpt>
      <trkpt lat="47.26468" lon="-2.27459">
        <ele>30.799999237061</ele>
        <time>2019-11-10T08:48:51.000Z</time>
      </trkpt>
      <trkpt lat="47.26473" lon="-2.27477">
        <ele>30.799999237061</ele>
        <time>2019-11-10T08:48:54.000Z</time>
      </trkpt>
      <trkpt lat="47.26484" lon="-2.27512">
        <ele>30.799999237061</ele>
        <time>2019-11-10T08:48:59.000Z</time>
      </trkpt>
      <trkpt lat="47.26486" lon="-2.2752">
        <ele>30.799999237061</ele>
        <time>2019-11-10T08:49:00.000Z</time>
      </trkpt>
      <trkpt lat="47.26489" lon="-2.27536">
        <ele>30.799999237061</ele>
        <time>2019-11-10T08:49:02.000Z</time>
      </trkpt>
      <trkpt lat="47.26492" lon="-2.27554">
        <ele>30.799999237061</ele>
        <time>2019-11-10T08:49:04.000Z</time>
      </trkpt>
      <trkpt lat="47.26494" lon="-2.27562">
        <ele>30.39999961853</ele>
        <time>2019-11-10T08:49:05.000Z</time>
      </trkpt>
      <trkpt lat="47.26495" lon="-2.27568">
        <ele>30</ele>
        <time>2019-11-10T08:49:06.000Z</time>
      </trkpt>
      <trkpt lat="47.26498" lon="-2.27573">
        <ele>29.60000038147</ele>
        <time>2019-11-10T08:49:07.000Z</time>
      </trkpt>
      <trkpt lat="47.26501" lon="-2.27577">
        <ele>29.200000762939</ele>
        <time>2019-11-10T08:49:08.000Z</time>
      </trkpt>
      <trkpt lat="47.26504" lon="-2.27577">
        <ele>28.799999237061</ele>
        <time>2019-11-10T08:49:09.000Z</time>
      </trkpt>
      <trkpt lat="47.26514" lon="-2.27576">
        <ele>28.799999237061</ele>
        <time>2019-11-10T08:49:11.000Z</time>
      </trkpt>
      <trkpt lat="47.2653" lon="-2.27569">
        <ele>28.799999237061</ele>
        <time>2019-11-10T08:49:14.000Z</time>
      </trkpt>
      <trkpt lat="47.26541" lon="-2.27561">
        <ele>28.799999237061</ele>
        <time>2019-11-10T08:49:16.000Z</time>
      </trkpt>
      <trkpt lat="47.26559" lon="-2.27539">
        <ele>28.799999237061</ele>
        <time>2019-11-10T08:49:20.000Z</time>
      </trkpt>
      <trkpt lat="47.26563" lon="-2.27532">
        <ele>28.799999237061</ele>
        <time>2019-11-10T08:49:21.000Z</time>
      </trkpt>
      <trkpt lat="47.26577" lon="-2.27496">
        <ele>28.799999237061</ele>
        <time>2019-11-10T08:49:26.000Z</time>
      </trkpt>
      <trkpt lat="47.26584" lon="-2.27481">
        <ele>28.799999237061</ele>
        <time>2019-11-10T08:49:28.000Z</time>
      </trkpt>
      <trkpt lat="47.26597" lon="-2.27461">
        <ele>28.799999237061</ele>
        <time>2019-11-10T08:49:31.000Z</time>
      </trkpt>
      <trkpt lat="47.26623" lon="-2.27432">
        <ele>28.799999237061</ele>
        <time>2019-11-10T08:49:37.000Z</time>
      </trkpt>
      <trkpt lat="47.26647" lon="-2.2741">
        <ele>29.200000762939</ele>
        <time>2019-11-10T08:49:42.000Z</time>
      </trkpt>
      <trkpt lat="47.26651" lon="-2.27405">
        <ele>29.60000038147</ele>
        <time>2019-11-10T08:49:43.000Z</time>
      </trkpt>
      <trkpt lat="47.26656" lon="-2.27401">
        <ele>30</ele>
        <time>2019-11-10T08:49:44.000Z</time>
      </trkpt>
      <trkpt lat="47.2666" lon="-2.27396">
        <ele>30.39999961853</ele>
        <time>2019-11-10T08:49:45.000Z</time>
      </trkpt>
      <trkpt lat="47.26665" lon="-2.27393">
        <ele>30.799999237061</ele>
        <time>2019-11-10T08:49:46.000Z</time>
      </trkpt>
      <trkpt lat="47.2668" lon="-2.27382">
        <ele>30.799999237061</ele>
        <time>2019-11-10T08:49:49.000Z</time>
      </trkpt>
      <trkpt lat="47.26716" lon="-2.2736">
        <ele>30.799999237061</ele>
        <time>2019-11-10T08:49:56.000Z</time>
      </trkpt>
      <trkpt lat="47.26734" lon="-2.27349">
        <ele>30.799999237061</ele>
        <time>2019-11-10T08:50:00.000Z</time>
      </trkpt>
      <trkpt lat="47.26737" lon="-2.27344">
        <ele>30.799999237061</ele>
        <time>2019-11-10T08:50:01.000Z</time>
      </trkpt>
      <trkpt lat="47.26737" lon="-2.27323">
        <ele>30.799999237061</ele>
        <time>2019-11-10T08:50:04.000Z</time>
      </trkpt>
      <trkpt lat="47.26736" lon="-2.27316">
        <ele>30.799999237061</ele>
        <time>2019-11-10T08:50:05.000Z</time>
      </trkpt>
      <trkpt lat="47.26727" lon="-2.27259">
        <ele>30.799999237061</ele>
        <time>2019-11-10T08:50:13.000Z</time>
      </trkpt>
      <trkpt lat="47.26724" lon="-2.27233">
        <ele>30.799999237061</ele>
        <time>2019-11-10T08:50:17.000Z</time>
      </trkpt>
      <trkpt lat="47.26723" lon="-2.2722">
        <ele>30.799999237061</ele>
        <time>2019-11-10T08:50:19.000Z</time>
      </trkpt>
      <trkpt lat="47.26721" lon="-2.27201">
        <ele>30.799999237061</ele>
        <time>2019-11-10T08:50:23.000Z</time>
      </trkpt>
      <trkpt lat="47.26726" lon="-2.27192">
        <ele>30.799999237061</ele>
        <time>2019-11-10T08:50:25.000Z</time>
      </trkpt>
      <trkpt lat="47.2673" lon="-2.27187">
        <ele>30.799999237061</ele>
        <time>2019-11-10T08:50:26.000Z</time>
      </trkpt>
      <trkpt lat="47.26759" lon="-2.27156">
        <ele>30.799999237061</ele>
        <time>2019-11-10T08:50:32.000Z</time>
      </trkpt>
      <trkpt lat="47.26768" lon="-2.27146">
        <ele>30.39999961853</ele>
        <time>2019-11-10T08:50:34.000Z</time>
      </trkpt>
      <trkpt lat="47.26772" lon="-2.27142">
        <ele>30</ele>
        <time>2019-11-10T08:50:35.000Z</time>
      </trkpt>
      <trkpt lat="47.26777" lon="-2.2714">
        <ele>29.60000038147</ele>
        <time>2019-11-10T08:50:36.000Z</time>
      </trkpt>
      <trkpt lat="47.26782" lon="-2.27137">
        <ele>29</ele>
        <time>2019-11-10T08:50:37.000Z</time>
      </trkpt>
      <trkpt lat="47.26786" lon="-2.27135">
        <ele>28.60000038147</ele>
        <time>2019-11-10T08:50:38.000Z</time>
      </trkpt>
      <trkpt lat="47.26809" lon="-2.27129">
        <ele>28.60000038147</ele>
        <time>2019-11-10T08:50:42.000Z</time>
      </trkpt>
      <trkpt lat="47.26841" lon="-2.27122">
        <ele>28.60000038147</ele>
        <time>2019-11-10T08:50:47.000Z</time>
      </trkpt>
      <trkpt lat="47.26848" lon="-2.27119">
        <ele>28.60000038147</ele>
        <time>2019-11-10T08:50:48.000Z</time>
      </trkpt>
      <trkpt lat="47.2686" lon="-2.27112">
        <ele>28.60000038147</ele>
        <time>2019-11-10T08:50:50.000Z</time>
      </trkpt>
      <trkpt lat="47.26877" lon="-2.27095">
        <ele>28.60000038147</ele>
        <time>2019-11-10T08:50:53.000Z</time>
      </trkpt>
      <trkpt lat="47.26883" lon="-2.27089">
        <ele>28.200000762939</ele>
        <time>2019-11-10T08:50:54.000Z</time>
      </trkpt>
      <trkpt lat="47.26888" lon="-2.27083">
        <ele>27.799999237061</ele>
        <time>2019-11-10T08:50:55.000Z</time>
      </trkpt>
      <trkpt lat="47.26893" lon="-2.27078">
        <ele>27.39999961853</ele>
        <time>2019-11-10T08:50:56.000Z</time>
      </trkpt>
      <trkpt lat="47.26898" lon="-2.2707">
        <ele>27</ele>
        <time>2019-11-10T08:50:57.000Z</time>
      </trkpt>
      <trkpt lat="47.26903" lon="-2.27063">
        <ele>26.39999961853</ele>
        <time>2019-11-10T08:50:58.000Z</time>
      </trkpt>
      <trkpt lat="47.26908" lon="-2.27057">
        <ele>25.799999237061</ele>
        <time>2019-11-10T08:50:59.000Z</time>
      </trkpt>
      <trkpt lat="47.26913" lon="-2.27051">
        <ele>25.200000762939</ele>
        <time>2019-11-10T08:51:00.000Z</time>
      </trkpt>
      <trkpt lat="47.26918" lon="-2.27044">
        <ele>24.799999237061</ele>
        <time>2019-11-10T08:51:01.000Z</time>
      </trkpt>
      <trkpt lat="47.26922" lon="-2.27036">
        <ele>24.200000762939</ele>
        <time>2019-11-10T08:51:02.000Z</time>
      </trkpt>
      <trkpt lat="47.26927" lon="-2.2703">
        <ele>23.60000038147</ele>
        <time>2019-11-10T08:51:03.000Z</time>
      </trkpt>
      <trkpt lat="47.26932" lon="-2.27022">
        <ele>23</ele>
        <time>2019-11-10T08:51:04.000Z</time>
      </trkpt>
      <trkpt lat="47.26936" lon="-2.27015">
        <ele>22.60000038147</ele>
        <time>2019-11-10T08:51:05.000Z</time>
      </trkpt>
      <trkpt lat="47.26939" lon="-2.27009">
        <ele>22</ele>
        <time>2019-11-10T08:51:06.000Z</time>
      </trkpt>
      <trkpt lat="47.26947" lon="-2.26998">
        <ele>21.60000038147</ele>
        <time>2019-11-10T08:51:09.000Z</time>
      </trkpt>
      <trkpt lat="47.26949" lon="-2.26997">
        <ele>21</ele>
        <time>2019-11-10T08:51:10.000Z</time>
      </trkpt>
      <trkpt lat="47.26951" lon="-2.26996">
        <ele>20.60000038147</ele>
        <time>2019-11-10T08:51:11.000Z</time>
      </trkpt>
      <trkpt lat="47.26953" lon="-2.26997">
        <ele>20.200000762939</ele>
        <time>2019-11-10T08:51:12.000Z</time>
      </trkpt>
      <trkpt lat="47.26955" lon="-2.26998">
        <ele>19.799999237061</ele>
        <time>2019-11-10T08:51:13.000Z</time>
      </trkpt>
      <trkpt lat="47.26958" lon="-2.27001">
        <ele>19.799999237061</ele>
        <time>2019-11-10T08:51:14.000Z</time>
      </trkpt>
      <trkpt lat="47.26968" lon="-2.27014">
        <ele>19.799999237061</ele>
        <time>2019-11-10T08:51:17.000Z</time>
      </trkpt>
      <trkpt lat="47.26984" lon="-2.27035">
        <ele>19.799999237061</ele>
        <time>2019-11-10T08:51:22.000Z</time>
      </trkpt>
      <trkpt lat="47.27001" lon="-2.27061">
        <ele>20.200000762939</ele>
        <time>2019-11-10T08:51:26.000Z</time>
      </trkpt>
      <trkpt lat="47.27004" lon="-2.27068">
        <ele>20.60000038147</ele>
        <time>2019-11-10T08:51:27.000Z</time>
      </trkpt>
      <trkpt lat="47.27007" lon="-2.27074">
        <ele>21</ele>
        <time>2019-11-10T08:51:28.000Z</time>
      </trkpt>
      <trkpt lat="47.27009" lon="-2.27079">
        <ele>21.39999961853</ele>
        <time>2019-11-10T08:51:29.000Z</time>
      </trkpt>
      <trkpt lat="47.2701" lon="-2.27085">
        <ele>21.799999237061</ele>
        <time>2019-11-10T08:51:30.000Z</time>
      </trkpt>
      <trkpt lat="47.27011" lon="-2.27091">
        <ele>21.799999237061</ele>
        <time>2019-11-10T08:51:31.000Z</time>
      </trkpt>
      <trkpt lat="47.27016" lon="-2.27105">
        <ele>21.799999237061</ele>
        <time>2019-11-10T08:51:35.000Z</time>
      </trkpt>
      <trkpt lat="47.27024" lon="-2.27118">
        <ele>21.799999237061</ele>
        <time>2019-11-10T08:51:41.000Z</time>
      </trkpt>
      <trkpt lat="47.27026" lon="-2.27124">
        <ele>21.39999961853</ele>
        <time>2019-11-10T08:51:43.000Z</time>
      </trkpt>
      <trkpt lat="47.27027" lon="-2.27127">
        <ele>21</ele>
        <time>2019-11-10T08:51:44.000Z</time>
      </trkpt>
      <trkpt lat="47.27029" lon="-2.27128">
        <ele>20.60000038147</ele>
        <time>2019-11-10T08:51:45.000Z</time>
      </trkpt>
      <trkpt lat="47.2703" lon="-2.2713">
        <ele>20.200000762939</ele>
        <time>2019-11-10T08:51:46.000Z</time>
      </trkpt>
      <trkpt lat="47.2703" lon="-2.27132">
        <ele>19.799999237061</ele>
        <time>2019-11-10T08:51:47.000Z</time>
      </trkpt>
      <trkpt lat="47.2703" lon="-2.27142">
        <ele>19.799999237061</ele>
        <time>2019-11-10T08:51:51.000Z</time>
      </trkpt>
      <trkpt lat="47.27029" lon="-2.27144">
        <ele>19.39999961853</ele>
        <time>2019-11-10T08:51:52.000Z</time>
      </trkpt>
      <trkpt lat="47.27029" lon="-2.27147">
        <ele>19</ele>
        <time>2019-11-10T08:51:53.000Z</time>
      </trkpt>
      <trkpt lat="47.27028" lon="-2.27149">
        <ele>18.60000038147</ele>
        <time>2019-11-10T08:51:54.000Z</time>
      </trkpt>
      <trkpt lat="47.27027" lon="-2.27149">
        <ele>18.200000762939</ele>
        <time>2019-11-10T08:51:55.000Z</time>
      </trkpt>
      <trkpt lat="47.27025" lon="-2.27149">
        <ele>17.60000038147</ele>
        <time>2019-11-10T08:51:56.000Z</time>
      </trkpt>
      <trkpt lat="47.27024" lon="-2.27152">
        <ele>17.60000038147</ele>
        <time>2019-11-10T08:51:57.000Z</time>
      </trkpt>
      <trkpt lat="47.27021" lon="-2.27159">
        <ele>17.60000038147</ele>
        <time>2019-11-10T08:52:02.000Z</time>
      </trkpt>
      <trkpt lat="47.2702" lon="-2.27162">
        <ele>18.60000038147</ele>
        <time>2019-11-10T08:52:04.000Z</time>
      </trkpt>
      <trkpt lat="47.2702" lon="-2.27164">
        <ele>19</ele>
        <time>2019-11-10T08:52:05.000Z</time>
      </trkpt>
      <trkpt lat="47.2702" lon="-2.27165">
        <ele>19.39999961853</ele>
        <time>2019-11-10T08:52:06.000Z</time>
      </trkpt>
      <trkpt lat="47.2702" lon="-2.27166">
        <ele>19.799999237061</ele>
        <time>2019-11-10T08:52:07.000Z</time>
      </trkpt>
      <trkpt lat="47.27012" lon="-2.27167">
        <ele>19.799999237061</ele>
        <time>2019-11-10T08:52:20.000Z</time>
      </trkpt>
      <trkpt lat="47.27009" lon="-2.27169">
        <ele>20.200000762939</ele>
        <time>2019-11-10T08:52:22.000Z</time>
      </trkpt>
      <trkpt lat="47.27008" lon="-2.2717">
        <ele>20.60000038147</ele>
        <time>2019-11-10T08:52:23.000Z</time>
      </trkpt>
      <trkpt lat="47.27007" lon="-2.2717">
        <ele>21</ele>
        <time>2019-11-10T08:52:24.000Z</time>
      </trkpt>
      <trkpt lat="47.27006" lon="-2.27171">
        <ele>21.39999961853</ele>
        <time>2019-11-10T08:52:25.000Z</time>
      </trkpt>
      <trkpt lat="47.27004" lon="-2.27171">
        <ele>21.799999237061</ele>
        <time>2019-11-10T08:52:26.000Z</time>
      </trkpt>
      <trkpt lat="47.26996" lon="-2.27174">
        <ele>21.799999237061</ele>
        <time>2019-11-10T08:52:31.000Z</time>
      </trkpt>
      <trkpt lat="47.26994" lon="-2.27173">
        <ele>21.799999237061</ele>
        <time>2019-11-10T08:52:32.000Z</time>
      </trkpt>
      <trkpt lat="47.26985" lon="-2.27174">
        <ele>21.799999237061</ele>
        <time>2019-11-10T08:52:37.000Z</time>
      </trkpt>
      <trkpt lat="47.26984" lon="-2.27178">
        <ele>21.799999237061</ele>
        <time>2019-11-10T08:52:40.000Z</time>
      </trkpt>
      <trkpt lat="47.26983" lon="-2.27181">
        <ele>21.799999237061</ele>
        <time>2019-11-10T08:52:41.000Z</time>
      </trkpt>
      <trkpt lat="47.2698" lon="-2.27188">
        <ele>21.799999237061</ele>
        <time>2019-11-10T08:52:45.000Z</time>
      </trkpt>
      <trkpt lat="47.26978" lon="-2.27189">
        <ele>21.799999237061</ele>
        <time>2019-11-10T08:52:46.000Z</time>
      </trkpt>
      <trkpt lat="47.26974" lon="-2.27199">
        <ele>21.799999237061</ele>
        <time>2019-11-10T08:52:50.000Z</time>
      </trkpt>
      <trkpt lat="47.26978" lon="-2.27215">
        <ele>21.799999237061</ele>
        <time>2019-11-10T08:52:54.000Z</time>
      </trkpt>
      <trkpt lat="47.26975" lon="-2.27231">
        <ele>21.799999237061</ele>
        <time>2019-11-10T08:52:58.000Z</time>
      </trkpt>
      <trkpt lat="47.26967" lon="-2.27243">
        <ele>21.799999237061</ele>
        <time>2019-11-10T08:53:01.000Z</time>
      </trkpt>
      <trkpt lat="47.26963" lon="-2.27249">
        <ele>21.799999237061</ele>
        <time>2019-11-10T08:53:03.000Z</time>
      </trkpt>
      <trkpt lat="47.26958" lon="-2.2725">
        <ele>21.799999237061</ele>
        <time>2019-11-10T08:53:05.000Z</time>
      </trkpt>
      <trkpt lat="47.26953" lon="-2.27252">
        <ele>21.799999237061</ele>
        <time>2019-11-10T08:53:07.000Z</time>
      </trkpt>
      <trkpt lat="47.26942" lon="-2.27259">
        <ele>21.799999237061</ele>
        <time>2019-11-10T08:53:13.000Z</time>
      </trkpt>
      <trkpt lat="47.26941" lon="-2.27262">
        <ele>21.799999237061</ele>
        <time>2019-11-10T08:53:15.000Z</time>
      </trkpt>
      <trkpt lat="47.26937" lon="-2.2727">
        <ele>22.60000038147</ele>
        <time>2019-11-10T08:53:18.000Z</time>
      </trkpt>
      <trkpt lat="47.26936" lon="-2.27272">
        <ele>23</ele>
        <time>2019-11-10T08:53:19.000Z</time>
      </trkpt>
      <trkpt lat="47.26936" lon="-2.27274">
        <ele>23.39999961853</ele>
        <time>2019-11-10T08:53:20.000Z</time>
      </trkpt>
      <trkpt lat="47.26937" lon="-2.27276">
        <ele>23.799999237061</ele>
        <time>2019-11-10T08:53:21.000Z</time>
      </trkpt>
      <trkpt lat="47.26938" lon="-2.27281">
        <ele>23.799999237061</ele>
        <time>2019-11-10T08:53:23.000Z</time>
      </trkpt>
      <trkpt lat="47.26937" lon="-2.273">
        <ele>23.799999237061</ele>
        <time>2019-11-10T08:53:29.000Z</time>
      </trkpt>
      <trkpt lat="47.26937" lon="-2.27302">
        <ele>23.39999961853</ele>
        <time>2019-11-10T08:53:30.000Z</time>
      </trkpt>
      <trkpt lat="47.26936" lon="-2.27306">
        <ele>23</ele>
        <time>2019-11-10T08:53:31.000Z</time>
      </trkpt>
      <trkpt lat="47.26935" lon="-2.2731">
        <ele>22.60000038147</ele>
        <time>2019-11-10T08:53:32.000Z</time>
      </trkpt>
      <trkpt lat="47.26935" lon="-2.27313">
        <ele>22.200000762939</ele>
        <time>2019-11-10T08:53:33.000Z</time>
      </trkpt>
      <trkpt lat="47.26933" lon="-2.27316">
        <ele>21.799999237061</ele>
        <time>2019-11-10T08:53:34.000Z</time>
      </trkpt>
      <trkpt lat="47.26932" lon="-2.27319">
        <ele>21.799999237061</ele>
        <time>2019-11-10T08:53:35.000Z</time>
      </trkpt>
      <trkpt lat="47.26927" lon="-2.27343">
        <ele>21.799999237061</ele>
        <time>2019-11-10T08:53:41.000Z</time>
      </trkpt>
      <trkpt lat="47.26917" lon="-2.27365">
        <ele>21.799999237061</ele>
        <time>2019-11-10T08:53:47.000Z</time>
      </trkpt>
      <trkpt lat="47.26911" lon="-2.27369">
        <ele>21.799999237061</ele>
        <time>2019-11-10T08:53:49.000Z</time>
      </trkpt>
      <trkpt lat="47.26904" lon="-2.27373">
        <ele>21.799999237061</ele>
        <time>2019-11-10T08:53:51.000Z</time>
      </trkpt>
      <trkpt lat="47.26889" lon="-2.27383">
        <ele>21.799999237061</ele>
        <time>2019-11-10T08:53:55.000Z</time>
      </trkpt>
      <trkpt lat="47.26886" lon="-2.27385">
        <ele>22.200000762939</ele>
        <time>2019-11-10T08:53:56.000Z</time>
      </trkpt>
      <trkpt lat="47.26882" lon="-2.27385">
        <ele>22.60000038147</ele>
        <time>2019-11-10T08:53:57.000Z</time>
      </trkpt>
      <trkpt lat="47.26879" lon="-2.27387">
        <ele>23</ele>
        <time>2019-11-10T08:53:58.000Z</time>
      </trkpt>
      <trkpt lat="47.26876" lon="-2.2739">
        <ele>23.39999961853</ele>
        <time>2019-11-10T08:53:59.000Z</time>
      </trkpt>
      <trkpt lat="47.26872" lon="-2.27392">
        <ele>24</ele>
        <time>2019-11-10T08:54:00.000Z</time>
      </trkpt>
      <trkpt lat="47.26856" lon="-2.27405">
        <ele>24</ele>
        <time>2019-11-10T08:54:05.000Z</time>
      </trkpt>
      <trkpt lat="47.26852" lon="-2.27407">
        <ele>24.39999961853</ele>
        <time>2019-11-10T08:54:06.000Z</time>
      </trkpt>
      <trkpt lat="47.26847" lon="-2.27409">
        <ele>24.799999237061</ele>
        <time>2019-11-10T08:54:07.000Z</time>
      </trkpt>
      <trkpt lat="47.26842" lon="-2.2741">
        <ele>25.60000038147</ele>
        <time>2019-11-10T08:54:08.000Z</time>
      </trkpt>
      <trkpt lat="47.26837" lon="-2.2741">
        <ele>26</ele>
        <time>2019-11-10T08:54:09.000Z</time>
      </trkpt>
      <trkpt lat="47.26832" lon="-2.2741">
        <ele>26</ele>
        <time>2019-11-10T08:54:10.000Z</time>
      </trkpt>
      <trkpt lat="47.26807" lon="-2.27413">
        <ele>26.39999961853</ele>
        <time>2019-11-10T08:54:15.000Z</time>
      </trkpt>
      <trkpt lat="47.26802" lon="-2.27413">
        <ele>26.799999237061</ele>
        <time>2019-11-10T08:54:16.000Z</time>
      </trkpt>
      <trkpt lat="47.26797" lon="-2.27412">
        <ele>27.200000762939</ele>
        <time>2019-11-10T08:54:17.000Z</time>
      </trkpt>
      <trkpt lat="47.26792" lon="-2.27412">
        <ele>27.60000038147</ele>
        <time>2019-11-10T08:54:18.000Z</time>
      </trkpt>
      <trkpt lat="47.26787" lon="-2.27413">
        <ele>28</ele>
        <time>2019-11-10T08:54:19.000Z</time>
      </trkpt>
      <trkpt lat="47.26774" lon="-2.27414">
        <ele>28</ele>
        <time>2019-11-10T08:54:22.000Z</time>
      </trkpt>
      <trkpt lat="47.26758" lon="-2.27415">
        <ele>28</ele>
        <time>2019-11-10T08:54:26.000Z</time>
      </trkpt>
      <trkpt lat="47.26756" lon="-2.27418">
        <ele>28</ele>
        <time>2019-11-10T08:54:27.000Z</time>
      </trkpt>
      <trkpt lat="47.26758" lon="-2.27433">
        <ele>28</ele>
        <time>2019-11-10T08:54:30.000Z</time>
      </trkpt>
      <trkpt lat="47.26759" lon="-2.27441">
        <ele>28</ele>
        <time>2019-11-10T08:54:31.000Z</time>
      </trkpt>
      <trkpt lat="47.26759" lon="-2.27448">
        <ele>28</ele>
        <time>2019-11-10T08:54:32.000Z</time>
      </trkpt>
      <trkpt lat="47.2676" lon="-2.2747">
        <ele>28</ele>
        <time>2019-11-10T08:54:35.000Z</time>
      </trkpt>
      <trkpt lat="47.26758" lon="-2.27505">
        <ele>28</ele>
        <time>2019-11-10T08:54:41.000Z</time>
      </trkpt>
      <trkpt lat="47.26757" lon="-2.27548">
        <ele>28</ele>
        <time>2019-11-10T08:54:48.000Z</time>
      </trkpt>
      <trkpt lat="47.26761" lon="-2.27596">
        <ele>28</ele>
        <time>2019-11-10T08:54:54.000Z</time>
      </trkpt>
      <trkpt lat="47.26769" lon="-2.27653">
        <ele>28</ele>
        <time>2019-11-10T08:55:01.000Z</time>
      </trkpt>
      <trkpt lat="47.26774" lon="-2.27686">
        <ele>28</ele>
        <time>2019-11-10T08:55:06.000Z</time>
      </trkpt>
      <trkpt lat="47.26783" lon="-2.27736">
        <ele>28</ele>
        <time>2019-11-10T08:55:14.000Z</time>
      </trkpt>
      <trkpt lat="47.26787" lon="-2.27753">
        <ele>28</ele>
        <time>2019-11-10T08:55:17.000Z</time>
      </trkpt>
      <trkpt lat="47.2679" lon="-2.27775">
        <ele>28</ele>
        <time>2019-11-10T08:55:21.000Z</time>
      </trkpt>
      <trkpt lat="47.26799" lon="-2.27804">
        <ele>28</ele>
        <time>2019-11-10T08:55:27.000Z</time>
      </trkpt>
      <trkpt lat="47.26815" lon="-2.27806">
        <ele>28</ele>
        <time>2019-11-10T08:55:31.000Z</time>
      </trkpt>
      <trkpt lat="47.26837" lon="-2.27793">
        <ele>28</ele>
        <time>2019-11-10T08:55:36.000Z</time>
      </trkpt>
      <trkpt lat="47.26868" lon="-2.27772">
        <ele>28</ele>
        <time>2019-11-10T08:55:43.000Z</time>
      </trkpt>
      <trkpt lat="47.26909" lon="-2.27753">
        <ele>28</ele>
        <time>2019-11-10T08:55:51.000Z</time>
      </trkpt>
      <trkpt lat="47.26953" lon="-2.27738">
        <ele>28</ele>
        <time>2019-11-10T08:55:59.000Z</time>
      </trkpt>
      <trkpt lat="47.2699" lon="-2.27725">
        <ele>28</ele>
        <time>2019-11-10T08:56:06.000Z</time>
      </trkpt>
      <trkpt lat="47.26995" lon="-2.27724">
        <ele>28</ele>
        <time>2019-11-10T08:56:07.000Z</time>
      </trkpt>
      <trkpt lat="47.27007" lon="-2.27723">
        <ele>28.60000038147</ele>
        <time>2019-11-10T08:56:09.000Z</time>
      </trkpt>
      <trkpt lat="47.27013" lon="-2.27723">
        <ele>29</ele>
        <time>2019-11-10T08:56:10.000Z</time>
      </trkpt>
      <trkpt lat="47.27019" lon="-2.27724">
        <ele>29.39999961853</ele>
        <time>2019-11-10T08:56:11.000Z</time>
      </trkpt>
      <trkpt lat="47.27025" lon="-2.27724">
        <ele>30.200000762939</ele>
        <time>2019-11-10T08:56:12.000Z</time>
      </trkpt>
      <trkpt lat="47.27052" lon="-2.27734">
        <ele>30.200000762939</ele>
        <time>2019-11-10T08:56:17.000Z</time>
      </trkpt>
      <trkpt lat="47.27087" lon="-2.2775">
        <ele>30.200000762939</ele>
        <time>2019-11-10T08:56:24.000Z</time>
      </trkpt>
      <trkpt lat="47.27091" lon="-2.27753">
        <ele>30.200000762939</ele>
        <time>2019-11-10T08:56:25.000Z</time>
      </trkpt>
      <trkpt lat="47.27104" lon="-2.27772">
        <ele>30.200000762939</ele>
        <time>2019-11-10T08:56:29.000Z</time>
      </trkpt>
      <trkpt lat="47.27106" lon="-2.27785">
        <ele>30.200000762939</ele>
        <time>2019-11-10T08:56:31.000Z</time>
      </trkpt>
      <trkpt lat="47.27108" lon="-2.27791">
        <ele>30.200000762939</ele>
        <time>2019-11-10T08:56:32.000Z</time>
      </trkpt>
      <trkpt lat="47.27111" lon="-2.27797">
        <ele>30.200000762939</ele>
        <time>2019-11-10T08:56:33.000Z</time>
      </trkpt>
      <trkpt lat="47.27114" lon="-2.2781">
        <ele>30.200000762939</ele>
        <time>2019-11-10T08:56:35.000Z</time>
      </trkpt>
      <trkpt lat="47.27113" lon="-2.27823">
        <ele>30.60000038147</ele>
        <time>2019-11-10T08:56:37.000Z</time>
      </trkpt>
      <trkpt lat="47.2711" lon="-2.27829">
        <ele>31</ele>
        <time>2019-11-10T08:56:38.000Z</time>
      </trkpt>
      <trkpt lat="47.27108" lon="-2.27835">
        <ele>31.39999961853</ele>
        <time>2019-11-10T08:56:39.000Z</time>
      </trkpt>
      <trkpt lat="47.27106" lon="-2.27842">
        <ele>32</ele>
        <time>2019-11-10T08:56:40.000Z</time>
      </trkpt>
      <trkpt lat="47.27105" lon="-2.27849">
        <ele>32.400001525879</ele>
        <time>2019-11-10T08:56:41.000Z</time>
      </trkpt>
      <trkpt lat="47.27103" lon="-2.27855">
        <ele>32.400001525879</ele>
        <time>2019-11-10T08:56:42.000Z</time>
      </trkpt>
      <trkpt lat="47.27093" lon="-2.27886">
        <ele>32.400001525879</ele>
        <time>2019-11-10T08:56:47.000Z</time>
      </trkpt>
      <trkpt lat="47.27083" lon="-2.27898">
        <ele>32.400001525879</ele>
        <time>2019-11-10T08:56:50.000Z</time>
      </trkpt>
      <trkpt lat="47.27076" lon="-2.27908">
        <ele>32.799999237061</ele>
        <time>2019-11-10T08:56:52.000Z</time>
      </trkpt>
      <trkpt lat="47.27073" lon="-2.27914">
        <ele>33.200000762939</ele>
        <time>2019-11-10T08:56:53.000Z</time>
      </trkpt>
      <trkpt lat="47.27071" lon="-2.2792">
        <ele>33.599998474121</ele>
        <time>2019-11-10T08:56:54.000Z</time>
      </trkpt>
      <trkpt lat="47.2707" lon="-2.27926">
        <ele>34.200000762939</ele>
        <time>2019-11-10T08:56:55.000Z</time>
      </trkpt>
      <trkpt lat="47.27069" lon="-2.27932">
        <ele>34.599998474121</ele>
        <time>2019-11-10T08:56:56.000Z</time>
      </trkpt>
      <trkpt lat="47.27069" lon="-2.27952">
        <ele>34.599998474121</ele>
        <time>2019-11-10T08:56:59.000Z</time>
      </trkpt>
      <trkpt lat="47.27073" lon="-2.27965">
        <ele>35.400001525879</ele>
        <time>2019-11-10T08:57:01.000Z</time>
      </trkpt>
      <trkpt lat="47.27076" lon="-2.27971">
        <ele>35.799999237061</ele>
        <time>2019-11-10T08:57:02.000Z</time>
      </trkpt>
      <trkpt lat="47.2708" lon="-2.27976">
        <ele>36.200000762939</ele>
        <time>2019-11-10T08:57:03.000Z</time>
      </trkpt>
      <trkpt lat="47.27084" lon="-2.2798">
        <ele>36.599998474121</ele>
        <time>2019-11-10T08:57:04.000Z</time>
      </trkpt>
      <trkpt lat="47.27097" lon="-2.27989">
        <ele>36.599998474121</ele>
        <time>2019-11-10T08:57:07.000Z</time>
      </trkpt>
      <trkpt lat="47.27112" lon="-2.27996">
        <ele>36.599998474121</ele>
        <time>2019-11-10T08:57:10.000Z</time>
      </trkpt>
      <trkpt lat="47.27119" lon="-2.28019">
        <ele>36.599998474121</ele>
        <time>2019-11-10T08:57:13.000Z</time>
      </trkpt>
      <trkpt lat="47.27121" lon="-2.28034">
        <ele>36.599998474121</ele>
        <time>2019-11-10T08:57:15.000Z</time>
      </trkpt>
      <trkpt lat="47.27124" lon="-2.28066">
        <ele>36.599998474121</ele>
        <time>2019-11-10T08:57:19.000Z</time>
      </trkpt>
      <trkpt lat="47.27125" lon="-2.28117">
        <ele>36.200000762939</ele>
        <time>2019-11-10T08:57:25.000Z</time>
      </trkpt>
      <trkpt lat="47.27126" lon="-2.28126">
        <ele>35.799999237061</ele>
        <time>2019-11-10T08:57:26.000Z</time>
      </trkpt>
      <trkpt lat="47.27127" lon="-2.28134">
        <ele>35.200000762939</ele>
        <time>2019-11-10T08:57:27.000Z</time>
      </trkpt>
      <trkpt lat="47.27128" lon="-2.28143">
        <ele>34.799999237061</ele>
        <time>2019-11-10T08:57:28.000Z</time>
      </trkpt>
      <trkpt lat="47.27128" lon="-2.28151">
        <ele>34.400001525879</ele>
        <time>2019-11-10T08:57:29.000Z</time>
      </trkpt>
      <trkpt lat="47.27127" lon="-2.28167">
        <ele>34.400001525879</ele>
        <time>2019-11-10T08:57:31.000Z</time>
      </trkpt>
      <trkpt lat="47.27124" lon="-2.28192">
        <ele>34.400001525879</ele>
        <time>2019-11-10T08:57:34.000Z</time>
      </trkpt>
      <trkpt lat="47.27121" lon="-2.28219">
        <ele>34.400001525879</ele>
        <time>2019-11-10T08:57:37.000Z</time>
      </trkpt>
      <trkpt lat="47.2712" lon="-2.28227">
        <ele>34</ele>
        <time>2019-11-10T08:57:38.000Z</time>
      </trkpt>
      <trkpt lat="47.27119" lon="-2.28236">
        <ele>33.599998474121</ele>
        <time>2019-11-10T08:57:39.000Z</time>
      </trkpt>
      <trkpt lat="47.27119" lon="-2.28244">
        <ele>33.200000762939</ele>
        <time>2019-11-10T08:57:40.000Z</time>
      </trkpt>
      <trkpt lat="47.2712" lon="-2.28251">
        <ele>32.799999237061</ele>
        <time>2019-11-10T08:57:41.000Z</time>
      </trkpt>
      <trkpt lat="47.27122" lon="-2.28258">
        <ele>32.400001525879</ele>
        <time>2019-11-10T08:57:42.000Z</time>
      </trkpt>
      <trkpt lat="47.27128" lon="-2.28274">
        <ele>32.400001525879</ele>
        <time>2019-11-10T08:57:44.000Z</time>
      </trkpt>
      <trkpt lat="47.27135" lon="-2.28295">
        <ele>32.400001525879</ele>
        <time>2019-11-10T08:57:47.000Z</time>
      </trkpt>
      <trkpt lat="47.27145" lon="-2.28337">
        <ele>32.400001525879</ele>
        <time>2019-11-10T08:57:52.000Z</time>
      </trkpt>
      <trkpt lat="47.27146" lon="-2.28354">
        <ele>32.400001525879</ele>
        <time>2019-11-10T08:57:54.000Z</time>
      </trkpt>
      <trkpt lat="47.27152" lon="-2.2841">
        <ele>32.400001525879</ele>
        <time>2019-11-10T08:58:00.000Z</time>
      </trkpt>
      <trkpt lat="47.27152" lon="-2.2842">
        <ele>32.400001525879</ele>
        <time>2019-11-10T08:58:01.000Z</time>
      </trkpt>
      <trkpt lat="47.27155" lon="-2.28448">
        <ele>32.400001525879</ele>
        <time>2019-11-10T08:58:04.000Z</time>
      </trkpt>
      <trkpt lat="47.27162" lon="-2.28495">
        <ele>32.400001525879</ele>
        <time>2019-11-10T08:58:09.000Z</time>
      </trkpt>
      <trkpt lat="47.27172" lon="-2.28555">
        <ele>32</ele>
        <time>2019-11-10T08:58:15.000Z</time>
      </trkpt>
      <trkpt lat="47.27174" lon="-2.28564">
        <ele>31.60000038147</ele>
        <time>2019-11-10T08:58:16.000Z</time>
      </trkpt>
      <trkpt lat="47.27175" lon="-2.28571">
        <ele>31.200000762939</ele>
        <time>2019-11-10T08:58:17.000Z</time>
      </trkpt>
      <trkpt lat="47.27177" lon="-2.28578">
        <ele>30.799999237061</ele>
        <time>2019-11-10T08:58:18.000Z</time>
      </trkpt>
      <trkpt lat="47.27181" lon="-2.28583">
        <ele>30.39999961853</ele>
        <time>2019-11-10T08:58:19.000Z</time>
      </trkpt>
      <trkpt lat="47.27193" lon="-2.2859">
        <ele>30.39999961853</ele>
        <time>2019-11-10T08:58:22.000Z</time>
      </trkpt>
      <trkpt lat="47.27212" lon="-2.28589">
        <ele>30.39999961853</ele>
        <time>2019-11-10T08:58:26.000Z</time>
      </trkpt>
      <trkpt lat="47.27218" lon="-2.28588">
        <ele>30.39999961853</ele>
        <time>2019-11-10T08:58:27.000Z</time>
      </trkpt>
      <trkpt lat="47.27238" lon="-2.28585">
        <ele>30</ele>
        <time>2019-11-10T08:58:30.000Z</time>
      </trkpt>
      <trkpt lat="47.27245" lon="-2.28584">
        <ele>29.39999961853</ele>
        <time>2019-11-10T08:58:31.000Z</time>
      </trkpt>
      <trkpt lat="47.27253" lon="-2.28583">
        <ele>29</ele>
        <time>2019-11-10T08:58:32.000Z</time>
      </trkpt>
      <trkpt lat="47.2726" lon="-2.28583">
        <ele>28.60000038147</ele>
        <time>2019-11-10T08:58:33.000Z</time>
      </trkpt>
      <trkpt lat="47.27266" lon="-2.28583">
        <ele>28.200000762939</ele>
        <time>2019-11-10T08:58:34.000Z</time>
      </trkpt>
      <trkpt lat="47.27272" lon="-2.28585">
        <ele>28.200000762939</ele>
        <time>2019-11-10T08:58:35.000Z</time>
      </trkpt>
      <trkpt lat="47.27277" lon="-2.28586">
        <ele>28.200000762939</ele>
        <time>2019-11-10T08:58:36.000Z</time>
      </trkpt>
      <trkpt lat="47.27306" lon="-2.28594">
        <ele>28.200000762939</ele>
        <time>2019-11-10T08:58:41.000Z</time>
      </trkpt>
      <trkpt lat="47.27338" lon="-2.28605">
        <ele>28.200000762939</ele>
        <time>2019-11-10T08:58:46.000Z</time>
      </trkpt>
      <trkpt lat="47.27367" lon="-2.2862">
        <ele>28.200000762939</ele>
        <time>2019-11-10T08:58:51.000Z</time>
      </trkpt>
      <trkpt lat="47.27379" lon="-2.28628">
        <ele>27.799999237061</ele>
        <time>2019-11-10T08:58:53.000Z</time>
      </trkpt>
      <trkpt lat="47.27385" lon="-2.28631">
        <ele>27.39999961853</ele>
        <time>2019-11-10T08:58:54.000Z</time>
      </trkpt>
      <trkpt lat="47.27392" lon="-2.28633">
        <ele>27</ele>
        <time>2019-11-10T08:58:55.000Z</time>
      </trkpt>
      <trkpt lat="47.27398" lon="-2.28635">
        <ele>26.60000038147</ele>
        <time>2019-11-10T08:58:56.000Z</time>
      </trkpt>
      <trkpt lat="47.27405" lon="-2.28638">
        <ele>26.200000762939</ele>
        <time>2019-11-10T08:58:57.000Z</time>
      </trkpt>
      <trkpt lat="47.27433" lon="-2.28646">
        <ele>26.200000762939</ele>
        <time>2019-11-10T08:59:02.000Z</time>
      </trkpt>
      <trkpt lat="47.27439" lon="-2.28645">
        <ele>26.200000762939</ele>
        <time>2019-11-10T08:59:03.000Z</time>
      </trkpt>
      <trkpt lat="47.27454" lon="-2.2863">
        <ele>26.200000762939</ele>
        <time>2019-11-10T08:59:06.000Z</time>
      </trkpt>
      <trkpt lat="47.27462" lon="-2.28615">
        <ele>26.200000762939</ele>
        <time>2019-11-10T08:59:08.000Z</time>
      </trkpt>
      <trkpt lat="47.27465" lon="-2.2861">
        <ele>26.200000762939</ele>
        <time>2019-11-10T08:59:09.000Z</time>
      </trkpt>
      <trkpt lat="47.2747" lon="-2.28608">
        <ele>26.200000762939</ele>
        <time>2019-11-10T08:59:10.000Z</time>
      </trkpt>
      <trkpt lat="47.27479" lon="-2.2862">
        <ele>26.200000762939</ele>
        <time>2019-11-10T08:59:12.000Z</time>
      </trkpt>
      <trkpt lat="47.27485" lon="-2.28635">
        <ele>26.200000762939</ele>
        <time>2019-11-10T08:59:14.000Z</time>
      </trkpt>
      <trkpt lat="47.27492" lon="-2.28651">
        <ele>26.200000762939</ele>
        <time>2019-11-10T08:59:16.000Z</time>
      </trkpt>
      <trkpt lat="47.275" lon="-2.28665">
        <ele>26.200000762939</ele>
        <time>2019-11-10T08:59:18.000Z</time>
      </trkpt>
      <trkpt lat="47.27512" lon="-2.28685">
        <ele>26.200000762939</ele>
        <time>2019-11-10T08:59:21.000Z</time>
      </trkpt>
      <trkpt lat="47.27516" lon="-2.28691">
        <ele>26.200000762939</ele>
        <time>2019-11-10T08:59:22.000Z</time>
      </trkpt>
      <trkpt lat="47.27529" lon="-2.28704">
        <ele>26.200000762939</ele>
        <time>2019-11-10T08:59:25.000Z</time>
      </trkpt>
      <trkpt lat="47.27543" lon="-2.28714">
        <ele>25.39999961853</ele>
        <time>2019-11-10T08:59:28.000Z</time>
      </trkpt>
      <trkpt lat="47.27548" lon="-2.28717">
        <ele>25</ele>
        <time>2019-11-10T08:59:29.000Z</time>
      </trkpt>
      <trkpt lat="47.27554" lon="-2.28721">
        <ele>24.60000038147</ele>
        <time>2019-11-10T08:59:30.000Z</time>
      </trkpt>
      <trkpt lat="47.27559" lon="-2.28725">
        <ele>24.200000762939</ele>
        <time>2019-11-10T08:59:31.000Z</time>
      </trkpt>
      <trkpt lat="47.2757" lon="-2.28733">
        <ele>24.200000762939</ele>
        <time>2019-11-10T08:59:33.000Z</time>
      </trkpt>
      <trkpt lat="47.27582" lon="-2.2874">
        <ele>24.200000762939</ele>
        <time>2019-11-10T08:59:35.000Z</time>
      </trkpt>
      <trkpt lat="47.27617" lon="-2.28751">
        <ele>24.200000762939</ele>
        <time>2019-11-10T08:59:40.000Z</time>
      </trkpt>
      <trkpt lat="47.27623" lon="-2.28754">
        <ele>24.200000762939</ele>
        <time>2019-11-10T08:59:41.000Z</time>
      </trkpt>
      <trkpt lat="47.27645" lon="-2.28762">
        <ele>24.200000762939</ele>
        <time>2019-11-10T08:59:45.000Z</time>
      </trkpt>
      <trkpt lat="47.27652" lon="-2.28766">
        <ele>24.200000762939</ele>
        <time>2019-11-10T08:59:47.000Z</time>
      </trkpt>
      <trkpt lat="47.27661" lon="-2.28772">
        <ele>24.200000762939</ele>
        <time>2019-11-10T08:59:49.000Z</time>
      </trkpt>
      <trkpt lat="47.27665" lon="-2.28775">
        <ele>24.200000762939</ele>
        <time>2019-11-10T08:59:50.000Z</time>
      </trkpt>
      <trkpt lat="47.27678" lon="-2.28789">
        <ele>24.200000762939</ele>
        <time>2019-11-10T08:59:53.000Z</time>
      </trkpt>
      <trkpt lat="47.27681" lon="-2.28796">
        <ele>24.200000762939</ele>
        <time>2019-11-10T08:59:54.000Z</time>
      </trkpt>
      <trkpt lat="47.2769" lon="-2.28809">
        <ele>24.200000762939</ele>
        <time>2019-11-10T08:59:56.000Z</time>
      </trkpt>
      <trkpt lat="47.27708" lon="-2.28813">
        <ele>24.200000762939</ele>
        <time>2019-11-10T08:59:59.000Z</time>
      </trkpt>
      <trkpt lat="47.27721" lon="-2.2881">
        <ele>24.200000762939</ele>
        <time>2019-11-10T09:00:01.000Z</time>
      </trkpt>
      <trkpt lat="47.27727" lon="-2.28807">
        <ele>24.200000762939</ele>
        <time>2019-11-10T09:00:02.000Z</time>
      </trkpt>
      <trkpt lat="47.2774" lon="-2.28804">
        <ele>24.200000762939</ele>
        <time>2019-11-10T09:00:04.000Z</time>
      </trkpt>
      <trkpt lat="47.27779" lon="-2.28795">
        <ele>24.200000762939</ele>
        <time>2019-11-10T09:00:10.000Z</time>
      </trkpt>
      <trkpt lat="47.27824" lon="-2.28796">
        <ele>24.200000762939</ele>
        <time>2019-11-10T09:00:17.000Z</time>
      </trkpt>
      <trkpt lat="47.27841" lon="-2.28804">
        <ele>24.200000762939</ele>
        <time>2019-11-10T09:00:20.000Z</time>
      </trkpt>
      <trkpt lat="47.27846" lon="-2.28808">
        <ele>24.200000762939</ele>
        <time>2019-11-10T09:00:21.000Z</time>
      </trkpt>
      <trkpt lat="47.27859" lon="-2.28819">
        <ele>24.200000762939</ele>
        <time>2019-11-10T09:00:24.000Z</time>
      </trkpt>
      <trkpt lat="47.27862" lon="-2.28819">
        <ele>24.200000762939</ele>
        <time>2019-11-10T09:00:25.000Z</time>
      </trkpt>
      <trkpt lat="47.27867" lon="-2.28809">
        <ele>24.200000762939</ele>
        <time>2019-11-10T09:00:28.000Z</time>
      </trkpt>
      <trkpt lat="47.27869" lon="-2.28801">
        <ele>24.200000762939</ele>
        <time>2019-11-10T09:00:30.000Z</time>
      </trkpt>
      <trkpt lat="47.27873" lon="-2.28782">
        <ele>24.200000762939</ele>
        <time>2019-11-10T09:00:34.000Z</time>
      </trkpt>
      <trkpt lat="47.27881" lon="-2.28771">
        <ele>24.200000762939</ele>
        <time>2019-11-10T09:00:37.000Z</time>
      </trkpt>
      <trkpt lat="47.27886" lon="-2.28768">
        <ele>24.200000762939</ele>
        <time>2019-11-10T09:00:38.000Z</time>
      </trkpt>
      <trkpt lat="47.27908" lon="-2.28763">
        <ele>24.200000762939</ele>
        <time>2019-11-10T09:00:43.000Z</time>
      </trkpt>
      <trkpt lat="47.27927" lon="-2.28756">
        <ele>23.799999237061</ele>
        <time>2019-11-10T09:00:48.000Z</time>
      </trkpt>
      <trkpt lat="47.27931" lon="-2.28754">
        <ele>23.39999961853</ele>
        <time>2019-11-10T09:00:49.000Z</time>
      </trkpt>
      <trkpt lat="47.27935" lon="-2.28752">
        <ele>23</ele>
        <time>2019-11-10T09:00:50.000Z</time>
      </trkpt>
      <trkpt lat="47.27941" lon="-2.28751">
        <ele>22.60000038147</ele>
        <time>2019-11-10T09:00:51.000Z</time>
      </trkpt>
      <trkpt lat="47.27946" lon="-2.2875">
        <ele>22.200000762939</ele>
        <time>2019-11-10T09:00:52.000Z</time>
      </trkpt>
      <trkpt lat="47.27956" lon="-2.28747">
        <ele>22.200000762939</ele>
        <time>2019-11-10T09:00:54.000Z</time>
      </trkpt>
      <trkpt lat="47.27962" lon="-2.28746">
        <ele>22.200000762939</ele>
        <time>2019-11-10T09:00:55.000Z</time>
      </trkpt>
      <trkpt lat="47.2799" lon="-2.28749">
        <ele>22.200000762939</ele>
        <time>2019-11-10T09:01:01.000Z</time>
      </trkpt>
      <trkpt lat="47.28021" lon="-2.28756">
        <ele>22.200000762939</ele>
        <time>2019-11-10T09:01:08.000Z</time>
      </trkpt>
      <trkpt lat="47.28044" lon="-2.28761">
        <ele>22.200000762939</ele>
        <time>2019-11-10T09:01:13.000Z</time>
      </trkpt>
      <trkpt lat="47.28053" lon="-2.28765">
        <ele>22.200000762939</ele>
        <time>2019-11-10T09:01:15.000Z</time>
      </trkpt>
      <trkpt lat="47.28063" lon="-2.28769">
        <ele>22.200000762939</ele>
        <time>2019-11-10T09:01:17.000Z</time>
      </trkpt>
      <trkpt lat="47.28078" lon="-2.28776">
        <ele>22.200000762939</ele>
        <time>2019-11-10T09:01:20.000Z</time>
      </trkpt>
      <trkpt lat="47.28096" lon="-2.28786">
        <ele>22.200000762939</ele>
        <time>2019-11-10T09:01:24.000Z</time>
      </trkpt>
      <trkpt lat="47.28104" lon="-2.2879">
        <ele>22.200000762939</ele>
        <time>2019-11-10T09:01:26.000Z</time>
      </trkpt>
      <trkpt lat="47.28124" lon="-2.28802">
        <ele>22.60000038147</ele>
        <time>2019-11-10T09:01:31.000Z</time>
      </trkpt>
      <trkpt lat="47.28128" lon="-2.28806">
        <ele>23.39999961853</ele>
        <time>2019-11-10T09:01:32.000Z</time>
      </trkpt>
      <trkpt lat="47.28131" lon="-2.2881">
        <ele>23.799999237061</ele>
        <time>2019-11-10T09:01:33.000Z</time>
      </trkpt>
      <trkpt lat="47.28135" lon="-2.28812">
        <ele>24.200000762939</ele>
        <time>2019-11-10T09:01:34.000Z</time>
      </trkpt>
      <trkpt lat="47.28146" lon="-2.28822">
        <ele>24.200000762939</ele>
        <time>2019-11-10T09:01:37.000Z</time>
      </trkpt>
      <trkpt lat="47.28157" lon="-2.2883">
        <ele>24.200000762939</ele>
        <time>2019-11-10T09:01:40.000Z</time>
      </trkpt>
      <trkpt lat="47.28168" lon="-2.28838">
        <ele>24.799999237061</ele>
        <time>2019-11-10T09:01:43.000Z</time>
      </trkpt>
      <trkpt lat="47.28171" lon="-2.28841">
        <ele>25.200000762939</ele>
        <time>2019-11-10T09:01:44.000Z</time>
      </trkpt>
      <trkpt lat="47.28175" lon="-2.28845">
        <ele>25.60000038147</ele>
        <time>2019-11-10T09:01:45.000Z</time>
      </trkpt>
      <trkpt lat="47.28178" lon="-2.28848">
        <ele>26</ele>
        <time>2019-11-10T09:01:46.000Z</time>
      </trkpt>
      <trkpt lat="47.28182" lon="-2.28851">
        <ele>26.39999961853</ele>
        <time>2019-11-10T09:01:47.000Z</time>
      </trkpt>
      <trkpt lat="47.28199" lon="-2.28868">
        <ele>26.39999961853</ele>
        <time>2019-11-10T09:01:52.000Z</time>
      </trkpt>
      <trkpt lat="47.28207" lon="-2.28873">
        <ele>26.39999961853</ele>
        <time>2019-11-10T09:01:54.000Z</time>
      </trkpt>
      <trkpt lat="47.28219" lon="-2.28876">
        <ele>26.39999961853</ele>
        <time>2019-11-10T09:01:57.000Z</time>
      </trkpt>
      <trkpt lat="47.28229" lon="-2.28863">
        <ele>26.799999237061</ele>
        <time>2019-11-10T09:02:00.000Z</time>
      </trkpt>
      <trkpt lat="47.2823" lon="-2.28856">
        <ele>27.39999961853</ele>
        <time>2019-11-10T09:02:01.000Z</time>
      </trkpt>
      <trkpt lat="47.28232" lon="-2.2885">
        <ele>27.799999237061</ele>
        <time>2019-11-10T09:02:02.000Z</time>
      </trkpt>
      <trkpt lat="47.28233" lon="-2.28843">
        <ele>28.200000762939</ele>
        <time>2019-11-10T09:02:03.000Z</time>
      </trkpt>
      <trkpt lat="47.28234" lon="-2.28837">
        <ele>28.60000038147</ele>
        <time>2019-11-10T09:02:04.000Z</time>
      </trkpt>
      <trkpt lat="47.28235" lon="-2.2883">
        <ele>28.60000038147</ele>
        <time>2019-11-10T09:02:05.000Z</time>
      </trkpt>
      <trkpt lat="47.28237" lon="-2.28818">
        <ele>28.60000038147</ele>
        <time>2019-11-10T09:02:07.000Z</time>
      </trkpt>
      <trkpt lat="47.28242" lon="-2.28786">
        <ele>28.60000038147</ele>
        <time>2019-11-10T09:02:12.000Z</time>
      </trkpt>
      <trkpt lat="47.28248" lon="-2.28746">
        <ele>28.60000038147</ele>
        <time>2019-11-10T09:02:18.000Z</time>
      </trkpt>
      <trkpt lat="47.28258" lon="-2.28697">
        <ele>28.60000038147</ele>
        <time>2019-11-10T09:02:25.000Z</time>
      </trkpt>
      <trkpt lat="47.28269" lon="-2.28641">
        <ele>28.60000038147</ele>
        <time>2019-11-10T09:02:33.000Z</time>
      </trkpt>
      <trkpt lat="47.28279" lon="-2.28591">
        <ele>28.60000038147</ele>
        <time>2019-11-10T09:02:40.000Z</time>
      </trkpt>
      <trkpt lat="47.2829" lon="-2.2853">
        <ele>28.60000038147</ele>
        <time>2019-11-10T09:02:48.000Z</time>
      </trkpt>
      <trkpt lat="47.28299" lon="-2.28472">
        <ele>28.60000038147</ele>
        <time>2019-11-10T09:02:56.000Z</time>
      </trkpt>
      <trkpt lat="47.2831" lon="-2.28422">
        <ele>28.60000038147</ele>
        <time>2019-11-10T09:03:03.000Z</time>
      </trkpt>
      <trkpt lat="47.2832" lon="-2.28389">
        <ele>28.60000038147</ele>
        <time>2019-11-10T09:03:08.000Z</time>
      </trkpt>
      <trkpt lat="47.28322" lon="-2.28375">
        <ele>28.60000038147</ele>
        <time>2019-11-10T09:03:10.000Z</time>
      </trkpt>
      <trkpt lat="47.28325" lon="-2.28318">
        <ele>28.60000038147</ele>
        <time>2019-11-10T09:03:18.000Z</time>
      </trkpt>
      <trkpt lat="47.28324" lon="-2.28297">
        <ele>28.60000038147</ele>
        <time>2019-11-10T09:03:21.000Z</time>
      </trkpt>
      <trkpt lat="47.28325" lon="-2.28273">
        <ele>28.60000038147</ele>
        <time>2019-11-10T09:03:24.000Z</time>
      </trkpt>
      <trkpt lat="47.28325" lon="-2.28218">
        <ele>28.60000038147</ele>
        <time>2019-11-10T09:03:30.000Z</time>
      </trkpt>
      <trkpt lat="47.28325" lon="-2.28199">
        <ele>28</ele>
        <time>2019-11-10T09:03:32.000Z</time>
      </trkpt>
      <trkpt lat="47.28325" lon="-2.28188">
        <ele>27.60000038147</ele>
        <time>2019-11-10T09:03:33.000Z</time>
      </trkpt>
      <trkpt lat="47.28325" lon="-2.28179">
        <ele>27.200000762939</ele>
        <time>2019-11-10T09:03:34.000Z</time>
      </trkpt>
      <trkpt lat="47.28325" lon="-2.28169">
        <ele>26.799999237061</ele>
        <time>2019-11-10T09:03:35.000Z</time>
      </trkpt>
      <trkpt lat="47.28325" lon="-2.28159">
        <ele>25.799999237061</ele>
        <time>2019-11-10T09:03:36.000Z</time>
      </trkpt>
      <trkpt lat="47.28325" lon="-2.2815">
        <ele>25.39999961853</ele>
        <time>2019-11-10T09:03:37.000Z</time>
      </trkpt>
      <trkpt lat="47.28325" lon="-2.2814">
        <ele>25</ele>
        <time>2019-11-10T09:03:38.000Z</time>
      </trkpt>
      <trkpt lat="47.28325" lon="-2.28131">
        <ele>24.39999961853</ele>
        <time>2019-11-10T09:03:39.000Z</time>
      </trkpt>
      <trkpt lat="47.28325" lon="-2.28123">
        <ele>24</ele>
        <time>2019-11-10T09:03:40.000Z</time>
      </trkpt>
      <trkpt lat="47.28325" lon="-2.28116">
        <ele>23.39999961853</ele>
        <time>2019-11-10T09:03:41.000Z</time>
      </trkpt>
      <trkpt lat="47.28325" lon="-2.28109">
        <ele>22.799999237061</ele>
        <time>2019-11-10T09:03:42.000Z</time>
      </trkpt>
      <trkpt lat="47.28325" lon="-2.28103">
        <ele>22.200000762939</ele>
        <time>2019-11-10T09:03:43.000Z</time>
      </trkpt>
      <trkpt lat="47.28325" lon="-2.28099">
        <ele>21.799999237061</ele>
        <time>2019-11-10T09:03:44.000Z</time>
      </trkpt>
      <trkpt lat="47.28328" lon="-2.28094">
        <ele>21.799999237061</ele>
        <time>2019-11-10T09:03:46.000Z</time>
      </trkpt>
      <trkpt lat="47.28332" lon="-2.28091">
        <ele>21.39999961853</ele>
        <time>2019-11-10T09:03:48.000Z</time>
      </trkpt>
      <trkpt lat="47.28334" lon="-2.28089">
        <ele>20.799999237061</ele>
        <time>2019-11-10T09:03:49.000Z</time>
      </trkpt>
      <trkpt lat="47.28336" lon="-2.28088">
        <ele>20.39999961853</ele>
        <time>2019-11-10T09:03:50.000Z</time>
      </trkpt>
      <trkpt lat="47.28339" lon="-2.28087">
        <ele>20</ele>
        <time>2019-11-10T09:03:51.000Z</time>
      </trkpt>
      <trkpt lat="47.28341" lon="-2.28086">
        <ele>19.60000038147</ele>
        <time>2019-11-10T09:03:52.000Z</time>
      </trkpt>
      <trkpt lat="47.28355" lon="-2.28083">
        <ele>19.60000038147</ele>
        <time>2019-11-10T09:03:58.000Z</time>
      </trkpt>
      <trkpt lat="47.28359" lon="-2.28082">
        <ele>19.60000038147</ele>
        <time>2019-11-10T09:04:00.000Z</time>
      </trkpt>
      <trkpt lat="47.28361" lon="-2.2808">
        <ele>19.60000038147</ele>
        <time>2019-11-10T09:04:02.000Z</time>
      </trkpt>
      <trkpt lat="47.28364" lon="-2.28071">
        <ele>19.60000038147</ele>
        <time>2019-11-10T09:04:07.000Z</time>
      </trkpt>
      <trkpt lat="47.28365" lon="-2.28068">
        <ele>19.60000038147</ele>
        <time>2019-11-10T09:04:09.000Z</time>
      </trkpt>
      <trkpt lat="47.28367" lon="-2.28063">
        <ele>19.60000038147</ele>
        <time>2019-11-10T09:04:12.000Z</time>
      </trkpt>
      <trkpt lat="47.28368" lon="-2.28062">
        <ele>20</ele>
        <time>2019-11-10T09:04:13.000Z</time>
      </trkpt>
      <trkpt lat="47.28368" lon="-2.2806">
        <ele>20.39999961853</ele>
        <time>2019-11-10T09:04:14.000Z</time>
      </trkpt>
      <trkpt lat="47.28368" lon="-2.28058">
        <ele>20.799999237061</ele>
        <time>2019-11-10T09:04:15.000Z</time>
      </trkpt>
      <trkpt lat="47.28369" lon="-2.28056">
        <ele>21.200000762939</ele>
        <time>2019-11-10T09:04:16.000Z</time>
      </trkpt>
      <trkpt lat="47.2837" lon="-2.28056">
        <ele>21.799999237061</ele>
        <time>2019-11-10T09:04:17.000Z</time>
      </trkpt>
      <trkpt lat="47.28371" lon="-2.28055">
        <ele>21.799999237061</ele>
        <time>2019-11-10T09:04:18.000Z</time>
      </trkpt>
      <trkpt lat="47.28374" lon="-2.28056">
        <ele>21.799999237061</ele>
        <time>2019-11-10T09:04:22.000Z</time>
      </trkpt>
      <trkpt lat="47.28374" lon="-2.28059">
        <ele>21.799999237061</ele>
        <time>2019-11-10T09:04:23.000Z</time>
      </trkpt>
      <trkpt lat="47.28374" lon="-2.28067">
        <ele>21.799999237061</ele>
        <time>2019-11-10T09:04:26.000Z</time>
      </trkpt>
      <trkpt lat="47.28374" lon="-2.28068">
        <ele>21.799999237061</ele>
        <time>2019-11-10T09:04:27.000Z</time>
      </trkpt>
      <trkpt lat="47.28376" lon="-2.28072">
        <ele>21.799999237061</ele>
        <time>2019-11-10T09:04:30.000Z</time>
      </trkpt>
      <trkpt lat="47.28377" lon="-2.28072">
        <ele>21.799999237061</ele>
        <time>2019-11-10T09:04:31.000Z</time>
      </trkpt>
      <trkpt lat="47.28383" lon="-2.28075">
        <ele>21.799999237061</ele>
        <time>2019-11-10T09:04:35.000Z</time>
      </trkpt>
      <trkpt lat="47.28392" lon="-2.28074">
        <ele>21.799999237061</ele>
        <time>2019-11-10T09:04:39.000Z</time>
      </trkpt>
      <trkpt lat="47.28397" lon="-2.28078">
        <ele>21.799999237061</ele>
        <time>2019-11-10T09:04:41.000Z</time>
      </trkpt>
      <trkpt lat="47.28402" lon="-2.2808">
        <ele>21.799999237061</ele>
        <time>2019-11-10T09:04:43.000Z</time>
      </trkpt>
      <trkpt lat="47.28414" lon="-2.28085">
        <ele>21.799999237061</ele>
        <time>2019-11-10T09:04:47.000Z</time>
      </trkpt>
      <trkpt lat="47.28418" lon="-2.28083">
        <ele>21.799999237061</ele>
        <time>2019-11-10T09:04:48.000Z</time>
      </trkpt>
      <trkpt lat="47.28423" lon="-2.28083">
        <ele>21.799999237061</ele>
        <time>2019-11-10T09:04:51.000Z</time>
      </trkpt>
      <trkpt lat="47.28425" lon="-2.28084">
        <ele>21.799999237061</ele>
        <time>2019-11-10T09:04:52.000Z</time>
      </trkpt>
      <trkpt lat="47.28429" lon="-2.28082">
        <ele>21.799999237061</ele>
        <time>2019-11-10T09:04:54.000Z</time>
      </trkpt>
      <trkpt lat="47.28433" lon="-2.28081">
        <ele>21.799999237061</ele>
        <time>2019-11-10T09:04:56.000Z</time>
      </trkpt>
      <trkpt lat="47.28444" lon="-2.28086">
        <ele>21.799999237061</ele>
        <time>2019-11-10T09:05:00.000Z</time>
      </trkpt>
      <trkpt lat="47.28446" lon="-2.28087">
        <ele>21.799999237061</ele>
        <time>2019-11-10T09:05:01.000Z</time>
      </trkpt>
      <trkpt lat="47.28459" lon="-2.28094">
        <ele>21.799999237061</ele>
        <time>2019-11-10T09:05:05.000Z</time>
      </trkpt>
      <trkpt lat="47.28463" lon="-2.28094">
        <ele>21.799999237061</ele>
        <time>2019-11-10T09:05:07.000Z</time>
      </trkpt>
      <trkpt lat="47.28469" lon="-2.28092">
        <ele>21.799999237061</ele>
        <time>2019-11-10T09:05:09.000Z</time>
      </trkpt>
      <trkpt lat="47.28484" lon="-2.28085">
        <ele>21.799999237061</ele>
        <time>2019-11-10T09:05:14.000Z</time>
      </trkpt>
      <trkpt lat="47.28486" lon="-2.28075">
        <ele>21.799999237061</ele>
        <time>2019-11-10T09:05:17.000Z</time>
      </trkpt>
      <trkpt lat="47.28486" lon="-2.28072">
        <ele>21.799999237061</ele>
        <time>2019-11-10T09:05:19.000Z</time>
      </trkpt>
      <trkpt lat="47.28487" lon="-2.2807">
        <ele>21.799999237061</ele>
        <time>2019-11-10T09:05:22.000Z</time>
      </trkpt>
      <trkpt lat="47.28482" lon="-2.28061">
        <ele>23</ele>
        <time>2019-11-10T09:05:40.000Z</time>
      </trkpt>
      <trkpt lat="47.28483" lon="-2.28057">
        <ele>23.39999961853</ele>
        <time>2019-11-10T09:05:41.000Z</time>
      </trkpt>
      <trkpt lat="47.28483" lon="-2.28054">
        <ele>23.799999237061</ele>
        <time>2019-11-10T09:05:42.000Z</time>
      </trkpt>
      <trkpt lat="47.28483" lon="-2.28051">
        <ele>23.799999237061</ele>
        <time>2019-11-10T09:05:43.000Z</time>
      </trkpt>
      <trkpt lat="47.28483" lon="-2.28049">
        <ele>23.799999237061</ele>
        <time>2019-11-10T09:05:44.000Z</time>
      </trkpt>
      <trkpt lat="47.28486" lon="-2.28045">
        <ele>23.799999237061</ele>
        <time>2019-11-10T09:05:46.000Z</time>
      </trkpt>
      <trkpt lat="47.2849" lon="-2.2804">
        <ele>23.799999237061</ele>
        <time>2019-11-10T09:05:48.000Z</time>
      </trkpt>
      <trkpt lat="47.28498" lon="-2.28036">
        <ele>23.799999237061</ele>
        <time>2019-11-10T09:05:52.000Z</time>
      </trkpt>
      <trkpt lat="47.28503" lon="-2.28038">
        <ele>23.799999237061</ele>
        <time>2019-11-10T09:05:54.000Z</time>
      </trkpt>
      <trkpt lat="47.28513" lon="-2.28046">
        <ele>23.799999237061</ele>
        <time>2019-11-10T09:05:58.000Z</time>
      </trkpt>
      <trkpt lat="47.28515" lon="-2.28046">
        <ele>23.799999237061</ele>
        <time>2019-11-10T09:05:59.000Z</time>
      </trkpt>
      <trkpt lat="47.28528" lon="-2.28047">
        <ele>23.200000762939</ele>
        <time>2019-11-10T09:06:03.000Z</time>
      </trkpt>
      <trkpt lat="47.28531" lon="-2.28049">
        <ele>22.799999237061</ele>
        <time>2019-11-10T09:06:04.000Z</time>
      </trkpt>
      <trkpt lat="47.28534" lon="-2.28049">
        <ele>22.39999961853</ele>
        <time>2019-11-10T09:06:05.000Z</time>
      </trkpt>
      <trkpt lat="47.28538" lon="-2.28048">
        <ele>21.799999237061</ele>
        <time>2019-11-10T09:06:06.000Z</time>
      </trkpt>
      <trkpt lat="47.28542" lon="-2.28047">
        <ele>21.39999961853</ele>
        <time>2019-11-10T09:06:07.000Z</time>
      </trkpt>
      <trkpt lat="47.28544" lon="-2.28051">
        <ele>20.799999237061</ele>
        <time>2019-11-10T09:06:08.000Z</time>
      </trkpt>
      <trkpt lat="47.28546" lon="-2.28052">
        <ele>20.200000762939</ele>
        <time>2019-11-10T09:06:09.000Z</time>
      </trkpt>
      <trkpt lat="47.2855" lon="-2.28052">
        <ele>19.60000038147</ele>
        <time>2019-11-10T09:06:10.000Z</time>
      </trkpt>
      <trkpt lat="47.28553" lon="-2.28052">
        <ele>19.200000762939</ele>
        <time>2019-11-10T09:06:11.000Z</time>
      </trkpt>
      <trkpt lat="47.28556" lon="-2.28052">
        <ele>19.200000762939</ele>
        <time>2019-11-10T09:06:12.000Z</time>
      </trkpt>
      <trkpt lat="47.28559" lon="-2.28048">
        <ele>19.200000762939</ele>
        <time>2019-11-10T09:06:13.000Z</time>
      </trkpt>
      <trkpt lat="47.28564" lon="-2.28047">
        <ele>19.200000762939</ele>
        <time>2019-11-10T09:06:15.000Z</time>
      </trkpt>
      <trkpt lat="47.28568" lon="-2.28044">
        <ele>19.200000762939</ele>
        <time>2019-11-10T09:06:17.000Z</time>
      </trkpt>
      <trkpt lat="47.28574" lon="-2.28037">
        <ele>19.200000762939</ele>
        <time>2019-11-10T09:06:19.000Z</time>
      </trkpt>
      <trkpt lat="47.28577" lon="-2.28034">
        <ele>18.799999237061</ele>
        <time>2019-11-10T09:06:20.000Z</time>
      </trkpt>
      <trkpt lat="47.2858" lon="-2.28031">
        <ele>18.39999961853</ele>
        <time>2019-11-10T09:06:21.000Z</time>
      </trkpt>
      <trkpt lat="47.28582" lon="-2.28027">
        <ele>18</ele>
        <time>2019-11-10T09:06:22.000Z</time>
      </trkpt>
      <trkpt lat="47.28584" lon="-2.28024">
        <ele>17.60000038147</ele>
        <time>2019-11-10T09:06:23.000Z</time>
      </trkpt>
      <trkpt lat="47.28587" lon="-2.2802">
        <ele>17.200000762939</ele>
        <time>2019-11-10T09:06:24.000Z</time>
      </trkpt>
      <trkpt lat="47.28593" lon="-2.2801">
        <ele>17.200000762939</ele>
        <time>2019-11-10T09:06:26.000Z</time>
      </trkpt>
      <trkpt lat="47.28599" lon="-2.27992">
        <ele>17.200000762939</ele>
        <time>2019-11-10T09:06:29.000Z</time>
      </trkpt>
      <trkpt lat="47.28611" lon="-2.27959">
        <ele>17.200000762939</ele>
        <time>2019-11-10T09:06:34.000Z</time>
      </trkpt>
      <trkpt lat="47.28614" lon="-2.27953">
        <ele>17.200000762939</ele>
        <time>2019-11-10T09:06:35.000Z</time>
      </trkpt>
      <trkpt lat="47.28624" lon="-2.27936">
        <ele>17.200000762939</ele>
        <time>2019-11-10T09:06:38.000Z</time>
      </trkpt>
      <trkpt lat="47.28627" lon="-2.27923">
        <ele>17.200000762939</ele>
        <time>2019-11-10T09:06:40.000Z</time>
      </trkpt>
      <trkpt lat="47.28631" lon="-2.27882">
        <ele>17.200000762939</ele>
        <time>2019-11-10T09:06:45.000Z</time>
      </trkpt>
      <trkpt lat="47.28641" lon="-2.27828">
        <ele>17.200000762939</ele>
        <time>2019-11-10T09:06:51.000Z</time>
      </trkpt>
      <trkpt lat="47.28651" lon="-2.27787">
        <ele>17.200000762939</ele>
        <time>2019-11-10T09:06:56.000Z</time>
      </trkpt>
      <trkpt lat="47.28654" lon="-2.27778">
        <ele>17.200000762939</ele>
        <time>2019-11-10T09:06:57.000Z</time>
      </trkpt>
      <trkpt lat="47.28674" lon="-2.27732">
        <ele>17.200000762939</ele>
        <time>2019-11-10T09:07:03.000Z</time>
      </trkpt>
      <trkpt lat="47.28678" lon="-2.27725">
        <ele>17.200000762939</ele>
        <time>2019-11-10T09:07:04.000Z</time>
      </trkpt>
      <trkpt lat="47.28695" lon="-2.27696">
        <ele>17.200000762939</ele>
        <time>2019-11-10T09:07:08.000Z</time>
      </trkpt>
      <trkpt lat="47.28725" lon="-2.27649">
        <ele>16.60000038147</ele>
        <time>2019-11-10T09:07:15.000Z</time>
      </trkpt>
      <trkpt lat="47.2873" lon="-2.27642">
        <ele>15.800000190735</ele>
        <time>2019-11-10T09:07:16.000Z</time>
      </trkpt>
      <trkpt lat="47.28734" lon="-2.27636">
        <ele>15.39999961853</ele>
        <time>2019-11-10T09:07:17.000Z</time>
      </trkpt>
      <trkpt lat="47.28739" lon="-2.27629">
        <ele>15</ele>
        <time>2019-11-10T09:07:18.000Z</time>
      </trkpt>
      <trkpt lat="47.28747" lon="-2.27616">
        <ele>15</ele>
        <time>2019-11-10T09:07:20.000Z</time>
      </trkpt>
      <trkpt lat="47.28756" lon="-2.27604">
        <ele>15</ele>
        <time>2019-11-10T09:07:22.000Z</time>
      </trkpt>
      <trkpt lat="47.28782" lon="-2.27573">
        <ele>15</ele>
        <time>2019-11-10T09:07:28.000Z</time>
      </trkpt>
      <trkpt lat="47.28794" lon="-2.27557">
        <ele>15</ele>
        <time>2019-11-10T09:07:32.000Z</time>
      </trkpt>
      <trkpt lat="47.28799" lon="-2.27547">
        <ele>15</ele>
        <time>2019-11-10T09:07:34.000Z</time>
      </trkpt>
      <trkpt lat="47.28806" lon="-2.27541">
        <ele>15</ele>
        <time>2019-11-10T09:07:36.000Z</time>
      </trkpt>
      <trkpt lat="47.28815" lon="-2.27539">
        <ele>15</ele>
        <time>2019-11-10T09:07:38.000Z</time>
      </trkpt>
      <trkpt lat="47.28825" lon="-2.27538">
        <ele>15</ele>
        <time>2019-11-10T09:07:40.000Z</time>
      </trkpt>
      <trkpt lat="47.28856" lon="-2.27534">
        <ele>15</ele>
        <time>2019-11-10T09:07:46.000Z</time>
      </trkpt>
      <trkpt lat="47.28865" lon="-2.27532">
        <ele>15</ele>
        <time>2019-11-10T09:07:48.000Z</time>
      </trkpt>
      <trkpt lat="47.28876" lon="-2.2753">
        <ele>15</ele>
        <time>2019-11-10T09:07:50.000Z</time>
      </trkpt>
      <trkpt lat="47.28912" lon="-2.27523">
        <ele>15</ele>
        <time>2019-11-10T09:07:56.000Z</time>
      </trkpt>
      <trkpt lat="47.28954" lon="-2.27524">
        <ele>15</ele>
        <time>2019-11-10T09:08:03.000Z</time>
      </trkpt>
      <trkpt lat="47.28981" lon="-2.27523">
        <ele>15</ele>
        <time>2019-11-10T09:08:08.000Z</time>
      </trkpt>
      <trkpt lat="47.29014" lon="-2.27522">
        <ele>15</ele>
        <time>2019-11-10T09:08:14.000Z</time>
      </trkpt>
      <trkpt lat="47.29053" lon="-2.27523">
        <ele>15</ele>
        <time>2019-11-10T09:08:21.000Z</time>
      </trkpt>
      <trkpt lat="47.29064" lon="-2.27523">
        <ele>15</ele>
        <time>2019-11-10T09:08:23.000Z</time>
      </trkpt>
      <trkpt lat="47.2908" lon="-2.27526">
        <ele>15</ele>
        <time>2019-11-10T09:08:26.000Z</time>
      </trkpt>
      <trkpt lat="47.29106" lon="-2.27528">
        <ele>15</ele>
        <time>2019-11-10T09:08:31.000Z</time>
      </trkpt>
      <trkpt lat="47.29135" lon="-2.27529">
        <ele>15</ele>
        <time>2019-11-10T09:08:36.000Z</time>
      </trkpt>
      <trkpt lat="47.29146" lon="-2.27527">
        <ele>15</ele>
        <time>2019-11-10T09:08:38.000Z</time>
      </trkpt>
      <trkpt lat="47.29183" lon="-2.27527">
        <ele>15</ele>
        <time>2019-11-10T09:08:45.000Z</time>
      </trkpt>
      <trkpt lat="47.29226" lon="-2.27527">
        <ele>15</ele>
        <time>2019-11-10T09:08:53.000Z</time>
      </trkpt>
      <trkpt lat="47.29251" lon="-2.27525">
        <ele>15</ele>
        <time>2019-11-10T09:08:58.000Z</time>
      </trkpt>
      <trkpt lat="47.29255" lon="-2.27524">
        <ele>15</ele>
        <time>2019-11-10T09:08:59.000Z</time>
      </trkpt>
      <trkpt lat="47.29268" lon="-2.27519">
        <ele>15</ele>
        <time>2019-11-10T09:09:02.000Z</time>
      </trkpt>
      <trkpt lat="47.29277" lon="-2.27519">
        <ele>15</ele>
        <time>2019-11-10T09:09:04.000Z</time>
      </trkpt>
      <trkpt lat="47.29296" lon="-2.27529">
        <ele>15</ele>
        <time>2019-11-10T09:09:08.000Z</time>
      </trkpt>
      <trkpt lat="47.29312" lon="-2.27533">
        <ele>15</ele>
        <time>2019-11-10T09:09:11.000Z</time>
      </trkpt>
      <trkpt lat="47.29323" lon="-2.27534">
        <ele>15</ele>
        <time>2019-11-10T09:09:13.000Z</time>
      </trkpt>
      <trkpt lat="47.29359" lon="-2.27528">
        <ele>15</ele>
        <time>2019-11-10T09:09:19.000Z</time>
      </trkpt>
      <trkpt lat="47.29399" lon="-2.27517">
        <ele>15</ele>
        <time>2019-11-10T09:09:26.000Z</time>
      </trkpt>
      <trkpt lat="47.29442" lon="-2.27514">
        <ele>15</ele>
        <time>2019-11-10T09:09:33.000Z</time>
      </trkpt>
      <trkpt lat="47.29486" lon="-2.27524">
        <ele>15</ele>
        <time>2019-11-10T09:09:40.000Z</time>
      </trkpt>
      <trkpt lat="47.29528" lon="-2.27537">
        <ele>15</ele>
        <time>2019-11-10T09:09:47.000Z</time>
      </trkpt>
      <trkpt lat="47.29568" lon="-2.27552">
        <ele>15</ele>
        <time>2019-11-10T09:09:53.000Z</time>
      </trkpt>
      <trkpt lat="47.29608" lon="-2.27576">
        <ele>15</ele>
        <time>2019-11-10T09:09:59.000Z</time>
      </trkpt>
      <trkpt lat="47.29622" lon="-2.27585">
        <ele>14.60000038147</ele>
        <time>2019-11-10T09:10:01.000Z</time>
      </trkpt>
      <trkpt lat="47.2963" lon="-2.27589">
        <ele>14</ele>
        <time>2019-11-10T09:10:02.000Z</time>
      </trkpt>
      <trkpt lat="47.29637" lon="-2.27594">
        <ele>13.60000038147</ele>
        <time>2019-11-10T09:10:03.000Z</time>
      </trkpt>
      <trkpt lat="47.29644" lon="-2.27598">
        <ele>13.199999809265</ele>
        <time>2019-11-10T09:10:04.000Z</time>
      </trkpt>
      <trkpt lat="47.29651" lon="-2.27603">
        <ele>12.800000190735</ele>
        <time>2019-11-10T09:10:05.000Z</time>
      </trkpt>
      <trkpt lat="47.29691" lon="-2.27617">
        <ele>12.800000190735</ele>
        <time>2019-11-10T09:10:10.000Z</time>
      </trkpt>
      <trkpt lat="47.29699" lon="-2.27617">
        <ele>12.39999961853</ele>
        <time>2019-11-10T09:10:11.000Z</time>
      </trkpt>
      <trkpt lat="47.29707" lon="-2.27616">
        <ele>12</ele>
        <time>2019-11-10T09:10:12.000Z</time>
      </trkpt>
      <trkpt lat="47.29715" lon="-2.27615">
        <ele>11.60000038147</ele>
        <time>2019-11-10T09:10:13.000Z</time>
      </trkpt>
      <trkpt lat="47.29723" lon="-2.27613">
        <ele>11.199999809265</ele>
        <time>2019-11-10T09:10:14.000Z</time>
      </trkpt>
      <trkpt lat="47.2973" lon="-2.27611">
        <ele>10.800000190735</ele>
        <time>2019-11-10T09:10:15.000Z</time>
      </trkpt>
      <trkpt lat="47.29766" lon="-2.27596">
        <ele>10.800000190735</ele>
        <time>2019-11-10T09:10:20.000Z</time>
      </trkpt>
      <trkpt lat="47.29774" lon="-2.27594">
        <ele>10.800000190735</ele>
        <time>2019-11-10T09:10:21.000Z</time>
      </trkpt>
      <trkpt lat="47.29798" lon="-2.27595">
        <ele>10.800000190735</ele>
        <time>2019-11-10T09:10:24.000Z</time>
      </trkpt>
      <trkpt lat="47.29826" lon="-2.27609">
        <ele>10.800000190735</ele>
        <time>2019-11-10T09:10:28.000Z</time>
      </trkpt>
      <trkpt lat="47.29849" lon="-2.27622">
        <ele>10.800000190735</ele>
        <time>2019-11-10T09:10:32.000Z</time>
      </trkpt>
      <trkpt lat="47.29855" lon="-2.27623">
        <ele>10.800000190735</ele>
        <time>2019-11-10T09:10:33.000Z</time>
      </trkpt>
      <trkpt lat="47.29881" lon="-2.27616">
        <ele>10.800000190735</ele>
        <time>2019-11-10T09:10:37.000Z</time>
      </trkpt>
      <trkpt lat="47.2992" lon="-2.27598">
        <ele>10.800000190735</ele>
        <time>2019-11-10T09:10:43.000Z</time>
      </trkpt>
      <trkpt lat="47.29926" lon="-2.27597">
        <ele>10.199999809265</ele>
        <time>2019-11-10T09:10:44.000Z</time>
      </trkpt>
      <trkpt lat="47.29933" lon="-2.27597">
        <ele>9.8000001907349</ele>
        <time>2019-11-10T09:10:45.000Z</time>
      </trkpt>
      <trkpt lat="47.29939" lon="-2.27598">
        <ele>9.3999996185303</ele>
        <time>2019-11-10T09:10:46.000Z</time>
      </trkpt>
      <trkpt lat="47.29945" lon="-2.276">
        <ele>9</ele>
        <time>2019-11-10T09:10:47.000Z</time>
      </trkpt>
      <trkpt lat="47.2995" lon="-2.27604">
        <ele>8.3999996185303</ele>
        <time>2019-11-10T09:10:48.000Z</time>
      </trkpt>
      <trkpt lat="47.2996" lon="-2.27622">
        <ele>8.3999996185303</ele>
        <time>2019-11-10T09:10:51.000Z</time>
      </trkpt>
      <trkpt lat="47.29961" lon="-2.27647">
        <ele>8.3999996185303</ele>
        <time>2019-11-10T09:10:54.000Z</time>
      </trkpt>
      <trkpt lat="47.29961" lon="-2.27656">
        <ele>8.3999996185303</ele>
        <time>2019-11-10T09:10:55.000Z</time>
      </trkpt>
      <trkpt lat="47.29956" lon="-2.27703">
        <ele>8.3999996185303</ele>
        <time>2019-11-10T09:11:00.000Z</time>
      </trkpt>
      <trkpt lat="47.29951" lon="-2.27762">
        <ele>8.3999996185303</ele>
        <time>2019-11-10T09:11:06.000Z</time>
      </trkpt>
      <trkpt lat="47.2995" lon="-2.27781">
        <ele>8.3999996185303</ele>
        <time>2019-11-10T09:11:08.000Z</time>
      </trkpt>
      <trkpt lat="47.29947" lon="-2.27808">
        <ele>8.3999996185303</ele>
        <time>2019-11-10T09:11:11.000Z</time>
      </trkpt>
      <trkpt lat="47.29946" lon="-2.27817">
        <ele>8.3999996185303</ele>
        <time>2019-11-10T09:11:12.000Z</time>
      </trkpt>
      <trkpt lat="47.29941" lon="-2.27869">
        <ele>8.8000001907349</ele>
        <time>2019-11-10T09:11:18.000Z</time>
      </trkpt>
      <trkpt lat="47.29941" lon="-2.27878">
        <ele>9.3999996185303</ele>
        <time>2019-11-10T09:11:19.000Z</time>
      </trkpt>
      <trkpt lat="47.2994" lon="-2.27887">
        <ele>9.8000001907349</ele>
        <time>2019-11-10T09:11:20.000Z</time>
      </trkpt>
      <trkpt lat="47.29939" lon="-2.27896">
        <ele>10.199999809265</ele>
        <time>2019-11-10T09:11:21.000Z</time>
      </trkpt>
      <trkpt lat="47.29938" lon="-2.27905">
        <ele>10.60000038147</ele>
        <time>2019-11-10T09:11:22.000Z</time>
      </trkpt>
      <trkpt lat="47.29936" lon="-2.27932">
        <ele>10.60000038147</ele>
        <time>2019-11-10T09:11:25.000Z</time>
      </trkpt>
      <trkpt lat="47.29934" lon="-2.27983">
        <ele>10.60000038147</ele>
        <time>2019-11-10T09:11:31.000Z</time>
      </trkpt>
      <trkpt lat="47.2994" lon="-2.28023">
        <ele>10.60000038147</ele>
        <time>2019-11-10T09:11:36.000Z</time>
      </trkpt>
      <trkpt lat="47.29942" lon="-2.2803">
        <ele>10.60000038147</ele>
        <time>2019-11-10T09:11:37.000Z</time>
      </trkpt>
      <trkpt lat="47.29947" lon="-2.28042">
        <ele>10.60000038147</ele>
        <time>2019-11-10T09:11:39.000Z</time>
      </trkpt>
      <trkpt lat="47.29951" lon="-2.28046">
        <ele>10.60000038147</ele>
        <time>2019-11-10T09:11:40.000Z</time>
      </trkpt>
      <trkpt lat="47.29966" lon="-2.28045">
        <ele>10.60000038147</ele>
        <time>2019-11-10T09:11:43.000Z</time>
      </trkpt>
      <trkpt lat="47.29981" lon="-2.28037">
        <ele>10.60000038147</ele>
        <time>2019-11-10T09:11:46.000Z</time>
      </trkpt>
      <trkpt lat="47.29985" lon="-2.28034">
        <ele>10.60000038147</ele>
        <time>2019-11-10T09:11:47.000Z</time>
      </trkpt>
      <trkpt lat="47.29989" lon="-2.28033">
        <ele>10.60000038147</ele>
        <time>2019-11-10T09:11:48.000Z</time>
      </trkpt>
      <trkpt lat="47.29994" lon="-2.28041">
        <ele>10.60000038147</ele>
        <time>2019-11-10T09:11:52.000Z</time>
      </trkpt>
      <trkpt lat="47.29989" lon="-2.28058">
        <ele>10.60000038147</ele>
        <time>2019-11-10T09:11:56.000Z</time>
      </trkpt>
      <trkpt lat="47.29976" lon="-2.28104">
        <ele>10.60000038147</ele>
        <time>2019-11-10T09:12:03.000Z</time>
      </trkpt>
      <trkpt lat="47.29967" lon="-2.28139">
        <ele>10.60000038147</ele>
        <time>2019-11-10T09:12:09.000Z</time>
      </trkpt>
      <trkpt lat="47.29962" lon="-2.28154">
        <ele>10.60000038147</ele>
        <time>2019-11-10T09:12:12.000Z</time>
      </trkpt>
      <trkpt lat="47.2996" lon="-2.2816">
        <ele>10.60000038147</ele>
        <time>2019-11-10T09:12:13.000Z</time>
      </trkpt>
      <trkpt lat="47.29953" lon="-2.28177">
        <ele>10.60000038147</ele>
        <time>2019-11-10T09:12:16.000Z</time>
      </trkpt>
      <trkpt lat="47.29951" lon="-2.28181">
        <ele>10.60000038147</ele>
        <time>2019-11-10T09:12:17.000Z</time>
      </trkpt>
      <trkpt lat="47.29948" lon="-2.28195">
        <ele>10.60000038147</ele>
        <time>2019-11-10T09:12:20.000Z</time>
      </trkpt>
      <trkpt lat="47.29949" lon="-2.28201">
        <ele>10.60000038147</ele>
        <time>2019-11-10T09:12:21.000Z</time>
      </trkpt>
      <trkpt lat="47.29952" lon="-2.28235">
        <ele>10.60000038147</ele>
        <time>2019-11-10T09:12:26.000Z</time>
      </trkpt>
      <trkpt lat="47.29953" lon="-2.28249">
        <ele>10.60000038147</ele>
        <time>2019-11-10T09:12:28.000Z</time>
      </trkpt>
      <trkpt lat="47.29955" lon="-2.28275">
        <ele>10.60000038147</ele>
        <time>2019-11-10T09:12:31.000Z</time>
      </trkpt>
      <trkpt lat="47.29955" lon="-2.28283">
        <ele>10.60000038147</ele>
        <time>2019-11-10T09:12:32.000Z</time>
      </trkpt>
      <trkpt lat="47.29954" lon="-2.28318">
        <ele>10.60000038147</ele>
        <time>2019-11-10T09:12:36.000Z</time>
      </trkpt>
      <trkpt lat="47.29952" lon="-2.28335">
        <ele>10.60000038147</ele>
        <time>2019-11-10T09:12:38.000Z</time>
      </trkpt>
      <trkpt lat="47.29951" lon="-2.28352">
        <ele>10.60000038147</ele>
        <time>2019-11-10T09:12:40.000Z</time>
      </trkpt>
      <trkpt lat="47.2995" lon="-2.28377">
        <ele>10.60000038147</ele>
        <time>2019-11-10T09:12:43.000Z</time>
      </trkpt>
      <trkpt lat="47.29951" lon="-2.28385">
        <ele>10.60000038147</ele>
        <time>2019-11-10T09:12:44.000Z</time>
      </trkpt>
      <trkpt lat="47.29952" lon="-2.28402">
        <ele>10.60000038147</ele>
        <time>2019-11-10T09:12:46.000Z</time>
      </trkpt>
      <trkpt lat="47.29949" lon="-2.28416">
        <ele>10.60000038147</ele>
        <time>2019-11-10T09:12:48.000Z</time>
      </trkpt>
      <trkpt lat="47.29939" lon="-2.28441">
        <ele>10.60000038147</ele>
        <time>2019-11-10T09:12:52.000Z</time>
      </trkpt>
      <trkpt lat="47.29939" lon="-2.28449">
        <ele>10.60000038147</ele>
        <time>2019-11-10T09:12:53.000Z</time>
      </trkpt>
      <trkpt lat="47.29939" lon="-2.28457">
        <ele>10.60000038147</ele>
        <time>2019-11-10T09:12:54.000Z</time>
      </trkpt>
      <trkpt lat="47.29941" lon="-2.28476">
        <ele>10.60000038147</ele>
        <time>2019-11-10T09:12:57.000Z</time>
      </trkpt>
      <trkpt lat="47.2994" lon="-2.28497">
        <ele>10.60000038147</ele>
        <time>2019-11-10T09:13:00.000Z</time>
      </trkpt>
      <trkpt lat="47.29939" lon="-2.28504">
        <ele>10.199999809265</ele>
        <time>2019-11-10T09:13:01.000Z</time>
      </trkpt>
      <trkpt lat="47.29936" lon="-2.28512">
        <ele>9.8000001907349</ele>
        <time>2019-11-10T09:13:02.000Z</time>
      </trkpt>
      <trkpt lat="47.29933" lon="-2.28519">
        <ele>9</ele>
        <time>2019-11-10T09:13:03.000Z</time>
      </trkpt>
      <trkpt lat="47.29931" lon="-2.28527">
        <ele>8.6000003814697</ele>
        <time>2019-11-10T09:13:04.000Z</time>
      </trkpt>
      <trkpt lat="47.2993" lon="-2.28535">
        <ele>8.6000003814697</ele>
        <time>2019-11-10T09:13:05.000Z</time>
      </trkpt>
      <trkpt lat="47.29935" lon="-2.28557">
        <ele>8.6000003814697</ele>
        <time>2019-11-10T09:13:08.000Z</time>
      </trkpt>
      <trkpt lat="47.29939" lon="-2.28562">
        <ele>8.6000003814697</ele>
        <time>2019-11-10T09:13:09.000Z</time>
      </trkpt>
      <trkpt lat="47.29941" lon="-2.28567">
        <ele>8.6000003814697</ele>
        <time>2019-11-10T09:13:10.000Z</time>
      </trkpt>
      <trkpt lat="47.29943" lon="-2.28573">
        <ele>8.6000003814697</ele>
        <time>2019-11-10T09:13:11.000Z</time>
      </trkpt>
      <trkpt lat="47.2994" lon="-2.28597">
        <ele>8.6000003814697</ele>
        <time>2019-11-10T09:13:15.000Z</time>
      </trkpt>
      <trkpt lat="47.29939" lon="-2.28612">
        <ele>8.6000003814697</ele>
        <time>2019-11-10T09:13:17.000Z</time>
      </trkpt>
      <trkpt lat="47.29937" lon="-2.28627">
        <ele>8.6000003814697</ele>
        <time>2019-11-10T09:13:19.000Z</time>
      </trkpt>
      <trkpt lat="47.29936" lon="-2.28634">
        <ele>8.6000003814697</ele>
        <time>2019-11-10T09:13:20.000Z</time>
      </trkpt>
      <trkpt lat="47.2993" lon="-2.28653">
        <ele>8.6000003814697</ele>
        <time>2019-11-10T09:13:23.000Z</time>
      </trkpt>
      <trkpt lat="47.29925" lon="-2.28677">
        <ele>8.6000003814697</ele>
        <time>2019-11-10T09:13:27.000Z</time>
      </trkpt>
      <trkpt lat="47.29922" lon="-2.2869">
        <ele>8.1999998092651</ele>
        <time>2019-11-10T09:13:29.000Z</time>
      </trkpt>
      <trkpt lat="47.2992" lon="-2.28697">
        <ele>7.8000001907349</ele>
        <time>2019-11-10T09:13:30.000Z</time>
      </trkpt>
      <trkpt lat="47.29919" lon="-2.28704">
        <ele>7.4000000953674</ele>
        <time>2019-11-10T09:13:31.000Z</time>
      </trkpt>
      <trkpt lat="47.29918" lon="-2.2871">
        <ele>6.8000001907349</ele>
        <time>2019-11-10T09:13:32.000Z</time>
      </trkpt>
      <trkpt lat="47.29916" lon="-2.28717">
        <ele>6.4000000953674</ele>
        <time>2019-11-10T09:13:33.000Z</time>
      </trkpt>
      <trkpt lat="47.29915" lon="-2.28723">
        <ele>6.4000000953674</ele>
        <time>2019-11-10T09:13:34.000Z</time>
      </trkpt>
      <trkpt lat="47.2991" lon="-2.28745">
        <ele>6.4000000953674</ele>
        <time>2019-11-10T09:13:37.000Z</time>
      </trkpt>
      <trkpt lat="47.29905" lon="-2.28774">
        <ele>6.4000000953674</ele>
        <time>2019-11-10T09:13:41.000Z</time>
      </trkpt>
      <trkpt lat="47.29901" lon="-2.28794">
        <ele>6.4000000953674</ele>
        <time>2019-11-10T09:13:44.000Z</time>
      </trkpt>
      <trkpt lat="47.299" lon="-2.28802">
        <ele>6.4000000953674</ele>
        <time>2019-11-10T09:13:45.000Z</time>
      </trkpt>
      <trkpt lat="47.29899" lon="-2.28808">
        <ele>6.4000000953674</ele>
        <time>2019-11-10T09:13:46.000Z</time>
      </trkpt>
      <trkpt lat="47.29893" lon="-2.28849">
        <ele>6.4000000953674</ele>
        <time>2019-11-10T09:13:52.000Z</time>
      </trkpt>
      <trkpt lat="47.29882" lon="-2.28888">
        <ele>6.4000000953674</ele>
        <time>2019-11-10T09:13:58.000Z</time>
      </trkpt>
      <trkpt lat="47.29878" lon="-2.28909">
        <ele>6.4000000953674</ele>
        <time>2019-11-10T09:14:01.000Z</time>
      </trkpt>
      <trkpt lat="47.29878" lon="-2.28924">
        <ele>6.4000000953674</ele>
        <time>2019-11-10T09:14:03.000Z</time>
      </trkpt>
      <trkpt lat="47.29882" lon="-2.28936">
        <ele>6.4000000953674</ele>
        <time>2019-11-10T09:14:05.000Z</time>
      </trkpt>
      <trkpt lat="47.29894" lon="-2.28942">
        <ele>6.4000000953674</ele>
        <time>2019-11-10T09:14:08.000Z</time>
      </trkpt>
      <trkpt lat="47.29907" lon="-2.28945">
        <ele>6.4000000953674</ele>
        <time>2019-11-10T09:14:11.000Z</time>
      </trkpt>
      <trkpt lat="47.2992" lon="-2.28949">
        <ele>6.4000000953674</ele>
        <time>2019-11-10T09:14:14.000Z</time>
      </trkpt>
      <trkpt lat="47.29925" lon="-2.28954">
        <ele>6</ele>
        <time>2019-11-10T09:14:16.000Z</time>
      </trkpt>
      <trkpt lat="47.29927" lon="-2.28958">
        <ele>5.5999999046326</ele>
        <time>2019-11-10T09:14:17.000Z</time>
      </trkpt>
      <trkpt lat="47.2993" lon="-2.28963">
        <ele>4.8000001907349</ele>
        <time>2019-11-10T09:14:18.000Z</time>
      </trkpt>
      <trkpt lat="47.29933" lon="-2.28967">
        <ele>4.4000000953674</ele>
        <time>2019-11-10T09:14:19.000Z</time>
      </trkpt>
      <trkpt lat="47.29936" lon="-2.28971">
        <ele>4.4000000953674</ele>
        <time>2019-11-10T09:14:20.000Z</time>
      </trkpt>
      <trkpt lat="47.29948" lon="-2.28991">
        <ele>4.4000000953674</ele>
        <time>2019-11-10T09:14:24.000Z</time>
      </trkpt>
      <trkpt lat="47.29957" lon="-2.29007">
        <ele>4.4000000953674</ele>
        <time>2019-11-10T09:14:27.000Z</time>
      </trkpt>
      <trkpt lat="47.29967" lon="-2.29026">
        <ele>4.4000000953674</ele>
        <time>2019-11-10T09:14:30.000Z</time>
      </trkpt>
      <trkpt lat="47.29975" lon="-2.29038">
        <ele>4.4000000953674</ele>
        <time>2019-11-10T09:14:32.000Z</time>
      </trkpt>
      <trkpt lat="47.29985" lon="-2.29055">
        <ele>4.4000000953674</ele>
        <time>2019-11-10T09:14:35.000Z</time>
      </trkpt>
      <trkpt lat="47.29988" lon="-2.29061">
        <ele>4.4000000953674</ele>
        <time>2019-11-10T09:14:36.000Z</time>
      </trkpt>
      <trkpt lat="47.29994" lon="-2.29072">
        <ele>4.4000000953674</ele>
        <time>2019-11-10T09:14:38.000Z</time>
      </trkpt>
      <trkpt lat="47.30004" lon="-2.29082">
        <ele>4.4000000953674</ele>
        <time>2019-11-10T09:14:40.000Z</time>
      </trkpt>
      <trkpt lat="47.3003" lon="-2.29112">
        <ele>4.4000000953674</ele>
        <time>2019-11-10T09:14:46.000Z</time>
      </trkpt>
      <trkpt lat="47.30049" lon="-2.29126">
        <ele>4.4000000953674</ele>
        <time>2019-11-10T09:14:50.000Z</time>
      </trkpt>
      <trkpt lat="47.30058" lon="-2.29136">
        <ele>4.4000000953674</ele>
        <time>2019-11-10T09:14:52.000Z</time>
      </trkpt>
      <trkpt lat="47.30081" lon="-2.29171">
        <ele>4.4000000953674</ele>
        <time>2019-11-10T09:14:57.000Z</time>
      </trkpt>
      <trkpt lat="47.30111" lon="-2.29216">
        <ele>4.4000000953674</ele>
        <time>2019-11-10T09:15:03.000Z</time>
      </trkpt>
      <trkpt lat="47.30125" lon="-2.29237">
        <ele>4</ele>
        <time>2019-11-10T09:15:06.000Z</time>
      </trkpt>
      <trkpt lat="47.3013" lon="-2.29244">
        <ele>3.2000000476837</ele>
        <time>2019-11-10T09:15:07.000Z</time>
      </trkpt>
      <trkpt lat="47.30134" lon="-2.29252">
        <ele>2.7999999523163</ele>
        <time>2019-11-10T09:15:08.000Z</time>
      </trkpt>
      <trkpt lat="47.30139" lon="-2.29259">
        <ele>2.4000000953674</ele>
        <time>2019-11-10T09:15:09.000Z</time>
      </trkpt>
      <trkpt lat="47.30144" lon="-2.29267">
        <ele>2.4000000953674</ele>
        <time>2019-11-10T09:15:10.000Z</time>
      </trkpt>
      <trkpt lat="47.30177" lon="-2.29321">
        <ele>2.4000000953674</ele>
        <time>2019-11-10T09:15:17.000Z</time>
      </trkpt>
      <trkpt lat="47.30205" lon="-2.29359">
        <ele>2.4000000953674</ele>
        <time>2019-11-10T09:15:23.000Z</time>
      </trkpt>
      <trkpt lat="47.30222" lon="-2.29367">
        <ele>2.4000000953674</ele>
        <time>2019-11-10T09:15:26.000Z</time>
      </trkpt>
      <trkpt lat="47.30229" lon="-2.29368">
        <ele>2.4000000953674</ele>
        <time>2019-11-10T09:15:27.000Z</time>
      </trkpt>
      <trkpt lat="47.30247" lon="-2.29366">
        <ele>2.4000000953674</ele>
        <time>2019-11-10T09:15:30.000Z</time>
      </trkpt>
      <trkpt lat="47.30253" lon="-2.29362">
        <ele>2.4000000953674</ele>
        <time>2019-11-10T09:15:31.000Z</time>
      </trkpt>
      <trkpt lat="47.30274" lon="-2.29343">
        <ele>2.4000000953674</ele>
        <time>2019-11-10T09:15:35.000Z</time>
      </trkpt>
      <trkpt lat="47.30278" lon="-2.29338">
        <ele>2.4000000953674</ele>
        <time>2019-11-10T09:15:36.000Z</time>
      </trkpt>
      <trkpt lat="47.30291" lon="-2.29322">
        <ele>2.4000000953674</ele>
        <time>2019-11-10T09:15:39.000Z</time>
      </trkpt>
      <trkpt lat="47.30305" lon="-2.29309">
        <ele>2.4000000953674</ele>
        <time>2019-11-10T09:15:42.000Z</time>
      </trkpt>
      <trkpt lat="47.3032" lon="-2.29298">
        <ele>2.4000000953674</ele>
        <time>2019-11-10T09:15:45.000Z</time>
      </trkpt>
      <trkpt lat="47.30333" lon="-2.29295">
        <ele>2.4000000953674</ele>
        <time>2019-11-10T09:15:47.000Z</time>
      </trkpt>
      <trkpt lat="47.30357" lon="-2.29291">
        <ele>2.4000000953674</ele>
        <time>2019-11-10T09:15:51.000Z</time>
      </trkpt>
      <trkpt lat="47.30375" lon="-2.29286">
        <ele>2</ele>
        <time>2019-11-10T09:15:54.000Z</time>
      </trkpt>
      <trkpt lat="47.30381" lon="-2.29284">
        <ele>1.6000000238419</ele>
        <time>2019-11-10T09:15:55.000Z</time>
      </trkpt>
      <trkpt lat="47.30387" lon="-2.29281">
        <ele>1.2000000476837</ele>
        <time>2019-11-10T09:15:56.000Z</time>
      </trkpt>
      <trkpt lat="47.30393" lon="-2.29277">
        <ele>0.40000000596046</ele>
        <time>2019-11-10T09:15:57.000Z</time>
      </trkpt>
      <trkpt lat="47.30407" lon="-2.29262">
        <ele>0.40000000596046</ele>
        <time>2019-11-10T09:16:00.000Z</time>
      </trkpt>
      <trkpt lat="47.30412" lon="-2.29257">
        <ele>0.40000000596046</ele>
        <time>2019-11-10T09:16:01.000Z</time>
      </trkpt>
      <trkpt lat="47.30437" lon="-2.2922">
        <ele>0.40000000596046</ele>
        <time>2019-11-10T09:16:07.000Z</time>
      </trkpt>
      <trkpt lat="47.30465" lon="-2.29183">
        <ele>0.40000000596046</ele>
        <time>2019-11-10T09:16:13.000Z</time>
      </trkpt>
      <trkpt lat="47.30482" lon="-2.29156">
        <ele>0.40000000596046</ele>
        <time>2019-11-10T09:16:17.000Z</time>
      </trkpt>
      <trkpt lat="47.30485" lon="-2.29149">
        <ele>0.40000000596046</ele>
        <time>2019-11-10T09:16:18.000Z</time>
      </trkpt>
      <trkpt lat="47.30492" lon="-2.29135">
        <ele>0.40000000596046</ele>
        <time>2019-11-10T09:16:20.000Z</time>
      </trkpt>
      <trkpt lat="47.30502" lon="-2.29103">
        <ele>0.40000000596046</ele>
        <time>2019-11-10T09:16:24.000Z</time>
      </trkpt>
      <trkpt lat="47.30503" lon="-2.29094">
        <ele>0.40000000596046</ele>
        <time>2019-11-10T09:16:25.000Z</time>
      </trkpt>
      <trkpt lat="47.30503" lon="-2.29067">
        <ele>0.40000000596046</ele>
        <time>2019-11-10T09:16:28.000Z</time>
      </trkpt>
      <trkpt lat="47.30501" lon="-2.2905">
        <ele>0.40000000596046</ele>
        <time>2019-11-10T09:16:30.000Z</time>
      </trkpt>
      <trkpt lat="47.30497" lon="-2.29029">
        <ele>0.40000000596046</ele>
        <time>2019-11-10T09:16:33.000Z</time>
      </trkpt>
      <trkpt lat="47.30495" lon="-2.29023">
        <ele>0.40000000596046</ele>
        <time>2019-11-10T09:16:34.000Z</time>
      </trkpt>
      <trkpt lat="47.30493" lon="-2.29009">
        <ele>0.40000000596046</ele>
        <time>2019-11-10T09:16:36.000Z</time>
      </trkpt>
      <trkpt lat="47.30493" lon="-2.29002">
        <ele>0.40000000596046</ele>
        <time>2019-11-10T09:16:37.000Z</time>
      </trkpt>
      <trkpt lat="47.30503" lon="-2.28984">
        <ele>0.40000000596046</ele>
        <time>2019-11-10T09:16:40.000Z</time>
      </trkpt>
      <trkpt lat="47.30523" lon="-2.28967">
        <ele>0.40000000596046</ele>
        <time>2019-11-10T09:16:44.000Z</time>
      </trkpt>
      <trkpt lat="47.30542" lon="-2.28957">
        <ele>0.40000000596046</ele>
        <time>2019-11-10T09:16:47.000Z</time>
      </trkpt>
      <trkpt lat="47.30552" lon="-2.2895">
        <ele>0.40000000596046</ele>
        <time>2019-11-10T09:16:49.000Z</time>
      </trkpt>
      <trkpt lat="47.3057" lon="-2.28933">
        <ele>0.40000000596046</ele>
        <time>2019-11-10T09:16:53.000Z</time>
      </trkpt>
      <trkpt lat="47.30579" lon="-2.28925">
        <ele>0.80000001192093</ele>
        <time>2019-11-10T09:16:55.000Z</time>
      </trkpt>
      <trkpt lat="47.30584" lon="-2.28922">
        <ele>1.2000000476837</ele>
        <time>2019-11-10T09:16:56.000Z</time>
      </trkpt>
      <trkpt lat="47.30589" lon="-2.28918">
        <ele>1.6000000238419</ele>
        <time>2019-11-10T09:16:57.000Z</time>
      </trkpt>
      <trkpt lat="47.30595" lon="-2.28915">
        <ele>2.2000000476837</ele>
        <time>2019-11-10T09:16:58.000Z</time>
      </trkpt>
      <trkpt lat="47.306" lon="-2.28912">
        <ele>2.5999999046326</ele>
        <time>2019-11-10T09:16:59.000Z</time>
      </trkpt>
      <trkpt lat="47.30614" lon="-2.28901">
        <ele>2.5999999046326</ele>
        <time>2019-11-10T09:17:02.000Z</time>
      </trkpt>
      <trkpt lat="47.30634" lon="-2.28888">
        <ele>2.5999999046326</ele>
        <time>2019-11-10T09:17:06.000Z</time>
      </trkpt>
      <trkpt lat="47.30639" lon="-2.28886">
        <ele>2.5999999046326</ele>
        <time>2019-11-10T09:17:07.000Z</time>
      </trkpt>
      <trkpt lat="47.30643" lon="-2.28883">
        <ele>3</ele>
        <time>2019-11-10T09:17:08.000Z</time>
      </trkpt>
      <trkpt lat="47.30648" lon="-2.2888">
        <ele>3.4000000953674</ele>
        <time>2019-11-10T09:17:09.000Z</time>
      </trkpt>
      <trkpt lat="47.30653" lon="-2.28877">
        <ele>3.7999999523163</ele>
        <time>2019-11-10T09:17:10.000Z</time>
      </trkpt>
      <trkpt lat="47.30658" lon="-2.28874">
        <ele>4.5999999046326</ele>
        <time>2019-11-10T09:17:11.000Z</time>
      </trkpt>
      <trkpt lat="47.30663" lon="-2.28871">
        <ele>4.5999999046326</ele>
        <time>2019-11-10T09:17:12.000Z</time>
      </trkpt>
      <trkpt lat="47.30672" lon="-2.28863">
        <ele>4.5999999046326</ele>
        <time>2019-11-10T09:17:14.000Z</time>
      </trkpt>
      <trkpt lat="47.30698" lon="-2.28842">
        <ele>4.5999999046326</ele>
        <time>2019-11-10T09:17:20.000Z</time>
      </trkpt>
      <trkpt lat="47.30707" lon="-2.28836">
        <ele>4.5999999046326</ele>
        <time>2019-11-10T09:17:22.000Z</time>
      </trkpt>
      <trkpt lat="47.30722" lon="-2.2883">
        <ele>4.5999999046326</ele>
        <time>2019-11-10T09:17:25.000Z</time>
      </trkpt>
      <trkpt lat="47.30756" lon="-2.28824">
        <ele>4.5999999046326</ele>
        <time>2019-11-10T09:17:31.000Z</time>
      </trkpt>
      <trkpt lat="47.30795" lon="-2.28817">
        <ele>4.5999999046326</ele>
        <time>2019-11-10T09:17:37.000Z</time>
      </trkpt>
      <trkpt lat="47.3084" lon="-2.2882">
        <ele>4.5999999046326</ele>
        <time>2019-11-10T09:17:43.000Z</time>
      </trkpt>
      <trkpt lat="47.30854" lon="-2.28821">
        <ele>4.1999998092651</ele>
        <time>2019-11-10T09:17:45.000Z</time>
      </trkpt>
      <trkpt lat="47.30863" lon="-2.28822">
        <ele>3.5999999046326</ele>
        <time>2019-11-10T09:17:46.000Z</time>
      </trkpt>
      <trkpt lat="47.30871" lon="-2.28822">
        <ele>3.2000000476837</ele>
        <time>2019-11-10T09:17:47.000Z</time>
      </trkpt>
      <trkpt lat="47.30879" lon="-2.28821">
        <ele>2.5999999046326</ele>
        <time>2019-11-10T09:17:48.000Z</time>
      </trkpt>
      <trkpt lat="47.30886" lon="-2.28821">
        <ele>2.2000000476837</ele>
        <time>2019-11-10T09:17:49.000Z</time>
      </trkpt>
      <trkpt lat="47.30916" lon="-2.28821">
        <ele>2.2000000476837</ele>
        <time>2019-11-10T09:17:53.000Z</time>
      </trkpt>
      <trkpt lat="47.30946" lon="-2.28822">
        <ele>2.2000000476837</ele>
        <time>2019-11-10T09:17:58.000Z</time>
      </trkpt>
      <trkpt lat="47.30969" lon="-2.2882">
        <ele>2.2000000476837</ele>
        <time>2019-11-10T09:18:03.000Z</time>
      </trkpt>
      <trkpt lat="47.30974" lon="-2.28818">
        <ele>2.2000000476837</ele>
        <time>2019-11-10T09:18:04.000Z</time>
      </trkpt>
      <trkpt lat="47.30978" lon="-2.28815">
        <ele>2.5999999046326</ele>
        <time>2019-11-10T09:18:05.000Z</time>
      </trkpt>
      <trkpt lat="47.30983" lon="-2.28813">
        <ele>3</ele>
        <time>2019-11-10T09:18:06.000Z</time>
      </trkpt>
      <trkpt lat="47.30988" lon="-2.2881">
        <ele>3.4000000953674</ele>
        <time>2019-11-10T09:18:07.000Z</time>
      </trkpt>
      <trkpt lat="47.30994" lon="-2.28809">
        <ele>4</ele>
        <time>2019-11-10T09:18:08.000Z</time>
      </trkpt>
      <trkpt lat="47.30999" lon="-2.28808">
        <ele>4.4000000953674</ele>
        <time>2019-11-10T09:18:09.000Z</time>
      </trkpt>
      <trkpt lat="47.31004" lon="-2.28808">
        <ele>4.8000001907349</ele>
        <time>2019-11-10T09:18:10.000Z</time>
      </trkpt>
      <trkpt lat="47.31009" lon="-2.2881">
        <ele>5.1999998092651</ele>
        <time>2019-11-10T09:18:11.000Z</time>
      </trkpt>
      <trkpt lat="47.31014" lon="-2.28813">
        <ele>5.5999999046326</ele>
        <time>2019-11-10T09:18:12.000Z</time>
      </trkpt>
      <trkpt lat="47.31018" lon="-2.28817">
        <ele>6</ele>
        <time>2019-11-10T09:18:13.000Z</time>
      </trkpt>
      <trkpt lat="47.31022" lon="-2.28822">
        <ele>6.4000000953674</ele>
        <time>2019-11-10T09:18:14.000Z</time>
      </trkpt>
      <trkpt lat="47.31031" lon="-2.28832">
        <ele>6.4000000953674</ele>
        <time>2019-11-10T09:18:16.000Z</time>
      </trkpt>
      <trkpt lat="47.31041" lon="-2.28841">
        <ele>6.4000000953674</ele>
        <time>2019-11-10T09:18:18.000Z</time>
      </trkpt>
      <trkpt lat="47.31053" lon="-2.2885">
        <ele>6.4000000953674</ele>
        <time>2019-11-10T09:18:20.000Z</time>
      </trkpt>
      <trkpt lat="47.31087" lon="-2.28874">
        <ele>6.4000000953674</ele>
        <time>2019-11-10T09:18:26.000Z</time>
      </trkpt>
      <trkpt lat="47.31105" lon="-2.28888">
        <ele>6.4000000953674</ele>
        <time>2019-11-10T09:18:29.000Z</time>
      </trkpt>
      <trkpt lat="47.31118" lon="-2.28898">
        <ele>6</ele>
        <time>2019-11-10T09:18:31.000Z</time>
      </trkpt>
      <trkpt lat="47.31124" lon="-2.28903">
        <ele>5.4000000953674</ele>
        <time>2019-11-10T09:18:32.000Z</time>
      </trkpt>
      <trkpt lat="47.3113" lon="-2.28906">
        <ele>5</ele>
        <time>2019-11-10T09:18:33.000Z</time>
      </trkpt>
      <trkpt lat="47.31137" lon="-2.28906">
        <ele>4.5999999046326</ele>
        <time>2019-11-10T09:18:34.000Z</time>
      </trkpt>
      <trkpt lat="47.31143" lon="-2.28905">
        <ele>4</ele>
        <time>2019-11-10T09:18:35.000Z</time>
      </trkpt>
      <trkpt lat="47.31155" lon="-2.28899">
        <ele>4</ele>
        <time>2019-11-10T09:18:37.000Z</time>
      </trkpt>
      <trkpt lat="47.3116" lon="-2.28897">
        <ele>4</ele>
        <time>2019-11-10T09:18:38.000Z</time>
      </trkpt>
      <trkpt lat="47.31166" lon="-2.28896">
        <ele>4</ele>
        <time>2019-11-10T09:18:39.000Z</time>
      </trkpt>
      <trkpt lat="47.31171" lon="-2.28898">
        <ele>3.5999999046326</ele>
        <time>2019-11-10T09:18:40.000Z</time>
      </trkpt>
      <trkpt lat="47.31176" lon="-2.28902">
        <ele>3.2000000476837</ele>
        <time>2019-11-10T09:18:41.000Z</time>
      </trkpt>
      <trkpt lat="47.31179" lon="-2.28909">
        <ele>2.7999999523163</ele>
        <time>2019-11-10T09:18:42.000Z</time>
      </trkpt>
      <trkpt lat="47.31182" lon="-2.28916">
        <ele>2.4000000953674</ele>
        <time>2019-11-10T09:18:43.000Z</time>
      </trkpt>
      <trkpt lat="47.31184" lon="-2.28924">
        <ele>1.7999999523163</ele>
        <time>2019-11-10T09:18:44.000Z</time>
      </trkpt>
      <trkpt lat="47.31186" lon="-2.28932">
        <ele>1.7999999523163</ele>
        <time>2019-11-10T09:18:45.000Z</time>
      </trkpt>
      <trkpt lat="47.31188" lon="-2.2894">
        <ele>1.7999999523163</ele>
        <time>2019-11-10T09:18:46.000Z</time>
      </trkpt>
      <trkpt lat="47.31197" lon="-2.28989">
        <ele>1.7999999523163</ele>
        <time>2019-11-10T09:18:52.000Z</time>
      </trkpt>
      <trkpt lat="47.31203" lon="-2.29049">
        <ele>1.7999999523163</ele>
        <time>2019-11-10T09:18:59.000Z</time>
      </trkpt>
      <trkpt lat="47.31204" lon="-2.29058">
        <ele>2.4000000953674</ele>
        <time>2019-11-10T09:19:00.000Z</time>
      </trkpt>
      <trkpt lat="47.31205" lon="-2.29066">
        <ele>2.7999999523163</ele>
        <time>2019-11-10T09:19:01.000Z</time>
      </trkpt>
      <trkpt lat="47.31206" lon="-2.29074">
        <ele>3.2000000476837</ele>
        <time>2019-11-10T09:19:02.000Z</time>
      </trkpt>
      <trkpt lat="47.31207" lon="-2.29082">
        <ele>3.5999999046326</ele>
        <time>2019-11-10T09:19:03.000Z</time>
      </trkpt>
      <trkpt lat="47.31208" lon="-2.2909">
        <ele>4</ele>
        <time>2019-11-10T09:19:04.000Z</time>
      </trkpt>
      <trkpt lat="47.3121" lon="-2.29106">
        <ele>4</ele>
        <time>2019-11-10T09:19:06.000Z</time>
      </trkpt>
      <trkpt lat="47.31222" lon="-2.29174">
        <ele>4</ele>
        <time>2019-11-10T09:19:14.000Z</time>
      </trkpt>
      <trkpt lat="47.31242" lon="-2.29253">
        <ele>4</ele>
        <time>2019-11-10T09:19:23.000Z</time>
      </trkpt>
      <trkpt lat="47.31253" lon="-2.29303">
        <ele>4</ele>
        <time>2019-11-10T09:19:29.000Z</time>
      </trkpt>
      <trkpt lat="47.31261" lon="-2.29335">
        <ele>4</ele>
        <time>2019-11-10T09:19:34.000Z</time>
      </trkpt>
      <trkpt lat="47.31264" lon="-2.29342">
        <ele>4</ele>
        <time>2019-11-10T09:19:36.000Z</time>
      </trkpt>
      <trkpt lat="47.31268" lon="-2.29344">
        <ele>4</ele>
        <time>2019-11-10T09:19:38.000Z</time>
      </trkpt>
      <trkpt lat="47.31278" lon="-2.29332">
        <ele>4</ele>
        <time>2019-11-10T09:19:43.000Z</time>
      </trkpt>
      <trkpt lat="47.3128" lon="-2.29328">
        <ele>4</ele>
        <time>2019-11-10T09:19:44.000Z</time>
      </trkpt>
      <trkpt lat="47.31289" lon="-2.29314">
        <ele>4</ele>
        <time>2019-11-10T09:19:48.000Z</time>
      </trkpt>
      <trkpt lat="47.313" lon="-2.293">
        <ele>4</ele>
        <time>2019-11-10T09:19:52.000Z</time>
      </trkpt>
      <trkpt lat="47.31304" lon="-2.29299">
        <ele>4</ele>
        <time>2019-11-10T09:19:53.000Z</time>
      </trkpt>
      <trkpt lat="47.31323" lon="-2.29299">
        <ele>4</ele>
        <time>2019-11-10T09:19:57.000Z</time>
      </trkpt>
      <trkpt lat="47.31328" lon="-2.293">
        <ele>4</ele>
        <time>2019-11-10T09:19:58.000Z</time>
      </trkpt>
      <trkpt lat="47.31346" lon="-2.29306">
        <ele>4</ele>
        <time>2019-11-10T09:20:02.000Z</time>
      </trkpt>
      <trkpt lat="47.31354" lon="-2.29311">
        <ele>4.8000001907349</ele>
        <time>2019-11-10T09:20:04.000Z</time>
      </trkpt>
      <trkpt lat="47.31358" lon="-2.29313">
        <ele>5.1999998092651</ele>
        <time>2019-11-10T09:20:05.000Z</time>
      </trkpt>
      <trkpt lat="47.31362" lon="-2.29315">
        <ele>5.5999999046326</ele>
        <time>2019-11-10T09:20:06.000Z</time>
      </trkpt>
      <trkpt lat="47.31366" lon="-2.29318">
        <ele>6</ele>
        <time>2019-11-10T09:20:07.000Z</time>
      </trkpt>
      <trkpt lat="47.31378" lon="-2.29322">
        <ele>6</ele>
        <time>2019-11-10T09:20:10.000Z</time>
      </trkpt>
      <trkpt lat="47.31396" lon="-2.29328">
        <ele>6</ele>
        <time>2019-11-10T09:20:14.000Z</time>
      </trkpt>
      <trkpt lat="47.31404" lon="-2.29334">
        <ele>6</ele>
        <time>2019-11-10T09:20:16.000Z</time>
      </trkpt>
      <trkpt lat="47.31423" lon="-2.29355">
        <ele>6</ele>
        <time>2019-11-10T09:20:22.000Z</time>
      </trkpt>
      <trkpt lat="47.31437" lon="-2.29374">
        <ele>6</ele>
        <time>2019-11-10T09:20:27.000Z</time>
      </trkpt>
      <trkpt lat="47.31439" lon="-2.29377">
        <ele>6.8000001907349</ele>
        <time>2019-11-10T09:20:28.000Z</time>
      </trkpt>
      <trkpt lat="47.31442" lon="-2.29381">
        <ele>7.1999998092651</ele>
        <time>2019-11-10T09:20:29.000Z</time>
      </trkpt>
      <trkpt lat="47.31444" lon="-2.29386">
        <ele>7.5999999046326</ele>
        <time>2019-11-10T09:20:30.000Z</time>
      </trkpt>
      <trkpt lat="47.31447" lon="-2.2939">
        <ele>8</ele>
        <time>2019-11-10T09:20:31.000Z</time>
      </trkpt>
      <trkpt lat="47.3145" lon="-2.29393">
        <ele>8</ele>
        <time>2019-11-10T09:20:32.000Z</time>
      </trkpt>
      <trkpt lat="47.31462" lon="-2.29399">
        <ele>8</ele>
        <time>2019-11-10T09:20:35.000Z</time>
      </trkpt>
      <trkpt lat="47.31472" lon="-2.29395">
        <ele>8</ele>
        <time>2019-11-10T09:20:38.000Z</time>
      </trkpt>
      <trkpt lat="47.31477" lon="-2.29394">
        <ele>8</ele>
        <time>2019-11-10T09:20:39.000Z</time>
      </trkpt>
      <trkpt lat="47.31495" lon="-2.29393">
        <ele>8</ele>
        <time>2019-11-10T09:20:43.000Z</time>
      </trkpt>
      <trkpt lat="47.31499" lon="-2.29395">
        <ele>8</ele>
        <time>2019-11-10T09:20:44.000Z</time>
      </trkpt>
      <trkpt lat="47.31514" lon="-2.29412">
        <ele>8</ele>
        <time>2019-11-10T09:20:48.000Z</time>
      </trkpt>
      <trkpt lat="47.31516" lon="-2.29417">
        <ele>8</ele>
        <time>2019-11-10T09:20:49.000Z</time>
      </trkpt>
      <trkpt lat="47.31518" lon="-2.29423">
        <ele>8.3999996185303</ele>
        <time>2019-11-10T09:20:50.000Z</time>
      </trkpt>
      <trkpt lat="47.31521" lon="-2.29429">
        <ele>8.8000001907349</ele>
        <time>2019-11-10T09:20:51.000Z</time>
      </trkpt>
      <trkpt lat="47.31523" lon="-2.29435">
        <ele>9.1999998092651</ele>
        <time>2019-11-10T09:20:52.000Z</time>
      </trkpt>
      <trkpt lat="47.31526" lon="-2.29441">
        <ele>10.199999809265</ele>
        <time>2019-11-10T09:20:53.000Z</time>
      </trkpt>
      <trkpt lat="47.31528" lon="-2.29447">
        <ele>10.199999809265</ele>
        <time>2019-11-10T09:20:54.000Z</time>
      </trkpt>
      <trkpt lat="47.31531" lon="-2.29453">
        <ele>10.199999809265</ele>
        <time>2019-11-10T09:20:55.000Z</time>
      </trkpt>
      <trkpt lat="47.31536" lon="-2.29469">
        <ele>10.199999809265</ele>
        <time>2019-11-10T09:20:58.000Z</time>
      </trkpt>
      <trkpt lat="47.31541" lon="-2.29495">
        <ele>10.199999809265</ele>
        <time>2019-11-10T09:21:03.000Z</time>
      </trkpt>
      <trkpt lat="47.31542" lon="-2.295">
        <ele>10.60000038147</ele>
        <time>2019-11-10T09:21:04.000Z</time>
      </trkpt>
      <trkpt lat="47.31543" lon="-2.29506">
        <ele>11</ele>
        <time>2019-11-10T09:21:05.000Z</time>
      </trkpt>
      <trkpt lat="47.31544" lon="-2.29512">
        <ele>11.39999961853</ele>
        <time>2019-11-10T09:21:06.000Z</time>
      </trkpt>
      <trkpt lat="47.31546" lon="-2.29518">
        <ele>11.800000190735</ele>
        <time>2019-11-10T09:21:07.000Z</time>
      </trkpt>
      <trkpt lat="47.31548" lon="-2.29524">
        <ele>12.39999961853</ele>
        <time>2019-11-10T09:21:08.000Z</time>
      </trkpt>
      <trkpt lat="47.31559" lon="-2.29546">
        <ele>12.39999961853</ele>
        <time>2019-11-10T09:21:12.000Z</time>
      </trkpt>
      <trkpt lat="47.31565" lon="-2.29555">
        <ele>12.39999961853</ele>
        <time>2019-11-10T09:21:14.000Z</time>
      </trkpt>
      <trkpt lat="47.31588" lon="-2.29589">
        <ele>12.39999961853</ele>
        <time>2019-11-10T09:21:21.000Z</time>
      </trkpt>
      <trkpt lat="47.31608" lon="-2.29605">
        <ele>12.39999961853</ele>
        <time>2019-11-10T09:21:26.000Z</time>
      </trkpt>
      <trkpt lat="47.31615" lon="-2.29613">
        <ele>12.39999961853</ele>
        <time>2019-11-10T09:21:28.000Z</time>
      </trkpt>
      <trkpt lat="47.3162" lon="-2.29624">
        <ele>12.39999961853</ele>
        <time>2019-11-10T09:21:30.000Z</time>
      </trkpt>
      <trkpt lat="47.31636" lon="-2.29655">
        <ele>12.39999961853</ele>
        <time>2019-11-10T09:21:36.000Z</time>
      </trkpt>
      <trkpt lat="47.31651" lon="-2.29699">
        <ele>12.39999961853</ele>
        <time>2019-11-10T09:21:44.000Z</time>
      </trkpt>
      <trkpt lat="47.31664" lon="-2.2973">
        <ele>12.39999961853</ele>
        <time>2019-11-10T09:21:50.000Z</time>
      </trkpt>
      <trkpt lat="47.31668" lon="-2.29735">
        <ele>12.39999961853</ele>
        <time>2019-11-10T09:21:51.000Z</time>
      </trkpt>
      <trkpt lat="47.31676" lon="-2.29737">
        <ele>12.800000190735</ele>
        <time>2019-11-10T09:21:53.000Z</time>
      </trkpt>
      <trkpt lat="47.3168" lon="-2.29737">
        <ele>13.199999809265</ele>
        <time>2019-11-10T09:21:54.000Z</time>
      </trkpt>
      <trkpt lat="47.31684" lon="-2.29737">
        <ele>13.60000038147</ele>
        <time>2019-11-10T09:21:55.000Z</time>
      </trkpt>
      <trkpt lat="47.31688" lon="-2.29736">
        <ele>14</ele>
        <time>2019-11-10T09:21:56.000Z</time>
      </trkpt>
      <trkpt lat="47.31692" lon="-2.29735">
        <ele>14.39999961853</ele>
        <time>2019-11-10T09:21:57.000Z</time>
      </trkpt>
      <trkpt lat="47.31696" lon="-2.29734">
        <ele>14.39999961853</ele>
        <time>2019-11-10T09:21:58.000Z</time>
      </trkpt>
      <trkpt lat="47.31701" lon="-2.29732">
        <ele>14.39999961853</ele>
        <time>2019-11-10T09:21:59.000Z</time>
      </trkpt>
      <trkpt lat="47.31714" lon="-2.29722">
        <ele>14.39999961853</ele>
        <time>2019-11-10T09:22:02.000Z</time>
      </trkpt>
      <trkpt lat="47.31748" lon="-2.29696">
        <ele>14.39999961853</ele>
        <time>2019-11-10T09:22:09.000Z</time>
      </trkpt>
      <trkpt lat="47.31787" lon="-2.29664">
        <ele>14.39999961853</ele>
        <time>2019-11-10T09:22:17.000Z</time>
      </trkpt>
      <trkpt lat="47.31821" lon="-2.29642">
        <ele>14.39999961853</ele>
        <time>2019-11-10T09:22:24.000Z</time>
      </trkpt>
      <trkpt lat="47.31855" lon="-2.29624">
        <ele>14</ele>
        <time>2019-11-10T09:22:31.000Z</time>
      </trkpt>
      <trkpt lat="47.31858" lon="-2.2962">
        <ele>13.199999809265</ele>
        <time>2019-11-10T09:22:32.000Z</time>
      </trkpt>
      <trkpt lat="47.31862" lon="-2.29615">
        <ele>12.800000190735</ele>
        <time>2019-11-10T09:22:33.000Z</time>
      </trkpt>
      <trkpt lat="47.31865" lon="-2.2961">
        <ele>12.39999961853</ele>
        <time>2019-11-10T09:22:34.000Z</time>
      </trkpt>
      <trkpt lat="47.31869" lon="-2.29606">
        <ele>12.39999961853</ele>
        <time>2019-11-10T09:22:35.000Z</time>
      </trkpt>
      <trkpt lat="47.31879" lon="-2.29592">
        <ele>12.39999961853</ele>
        <time>2019-11-10T09:22:38.000Z</time>
      </trkpt>
      <trkpt lat="47.31886" lon="-2.29585">
        <ele>12.39999961853</ele>
        <time>2019-11-10T09:22:40.000Z</time>
      </trkpt>
      <trkpt lat="47.31902" lon="-2.29571">
        <ele>12.39999961853</ele>
        <time>2019-11-10T09:22:44.000Z</time>
      </trkpt>
      <trkpt lat="47.31907" lon="-2.29567">
        <ele>12.39999961853</ele>
        <time>2019-11-10T09:22:45.000Z</time>
      </trkpt>
      <trkpt lat="47.31937" lon="-2.2954">
        <ele>12.39999961853</ele>
        <time>2019-11-10T09:22:52.000Z</time>
      </trkpt>
      <trkpt lat="47.31967" lon="-2.29512">
        <ele>12.39999961853</ele>
        <time>2019-11-10T09:22:59.000Z</time>
      </trkpt>
      <trkpt lat="47.31971" lon="-2.29509">
        <ele>12</ele>
        <time>2019-11-10T09:23:00.000Z</time>
      </trkpt>
      <trkpt lat="47.31976" lon="-2.29504">
        <ele>11.60000038147</ele>
        <time>2019-11-10T09:23:01.000Z</time>
      </trkpt>
      <trkpt lat="47.3198" lon="-2.295">
        <ele>11</ele>
        <time>2019-11-10T09:23:02.000Z</time>
      </trkpt>
      <trkpt lat="47.31984" lon="-2.29496">
        <ele>10.60000038147</ele>
        <time>2019-11-10T09:23:03.000Z</time>
      </trkpt>
      <trkpt lat="47.31988" lon="-2.29492">
        <ele>10.199999809265</ele>
        <time>2019-11-10T09:23:04.000Z</time>
      </trkpt>
      <trkpt lat="47.32012" lon="-2.29464">
        <ele>10.199999809265</ele>
        <time>2019-11-10T09:23:10.000Z</time>
      </trkpt>
      <trkpt lat="47.3204" lon="-2.29434">
        <ele>10.199999809265</ele>
        <time>2019-11-10T09:23:17.000Z</time>
      </trkpt>
      <trkpt lat="47.32055" lon="-2.29416">
        <ele>10.199999809265</ele>
        <time>2019-11-10T09:23:21.000Z</time>
      </trkpt>
      <trkpt lat="47.32059" lon="-2.29411">
        <ele>9.6000003814697</ele>
        <time>2019-11-10T09:23:22.000Z</time>
      </trkpt>
      <trkpt lat="47.32063" lon="-2.29407">
        <ele>9.1999998092651</ele>
        <time>2019-11-10T09:23:23.000Z</time>
      </trkpt>
      <trkpt lat="47.32067" lon="-2.29402">
        <ele>8.8000001907349</ele>
        <time>2019-11-10T09:23:24.000Z</time>
      </trkpt>
      <trkpt lat="47.32071" lon="-2.29398">
        <ele>8.1999998092651</ele>
        <time>2019-11-10T09:23:25.000Z</time>
      </trkpt>
      <trkpt lat="47.32075" lon="-2.29393">
        <ele>7.8000001907349</ele>
        <time>2019-11-10T09:23:26.000Z</time>
      </trkpt>
      <trkpt lat="47.32091" lon="-2.29376">
        <ele>7.8000001907349</ele>
        <time>2019-11-10T09:23:30.000Z</time>
      </trkpt>
      <trkpt lat="47.3212" lon="-2.29344">
        <ele>7.8000001907349</ele>
        <time>2019-11-10T09:23:37.000Z</time>
      </trkpt>
      <trkpt lat="47.32142" lon="-2.29317">
        <ele>7.8000001907349</ele>
        <time>2019-11-10T09:23:43.000Z</time>
      </trkpt>
      <trkpt lat="47.3215" lon="-2.29308">
        <ele>7.4000000953674</ele>
        <time>2019-11-10T09:23:45.000Z</time>
      </trkpt>
      <trkpt lat="47.32155" lon="-2.29303">
        <ele>6.8000001907349</ele>
        <time>2019-11-10T09:23:46.000Z</time>
      </trkpt>
      <trkpt lat="47.32159" lon="-2.29299">
        <ele>6</ele>
        <time>2019-11-10T09:23:47.000Z</time>
      </trkpt>
      <trkpt lat="47.32163" lon="-2.29295">
        <ele>5.5999999046326</ele>
        <time>2019-11-10T09:23:48.000Z</time>
      </trkpt>
      <trkpt lat="47.32175" lon="-2.29281">
        <ele>5.5999999046326</ele>
        <time>2019-11-10T09:23:51.000Z</time>
      </trkpt>
      <trkpt lat="47.32186" lon="-2.29266">
        <ele>5.5999999046326</ele>
        <time>2019-11-10T09:23:54.000Z</time>
      </trkpt>
      <trkpt lat="47.32205" lon="-2.29247">
        <ele>5.5999999046326</ele>
        <time>2019-11-10T09:23:58.000Z</time>
      </trkpt>
      <trkpt lat="47.32221" lon="-2.29237">
        <ele>5.5999999046326</ele>
        <time>2019-11-10T09:24:01.000Z</time>
      </trkpt>
      <trkpt lat="47.32231" lon="-2.29232">
        <ele>5.5999999046326</ele>
        <time>2019-11-10T09:24:03.000Z</time>
      </trkpt>
      <trkpt lat="47.32249" lon="-2.29225">
        <ele>5.5999999046326</ele>
        <time>2019-11-10T09:24:06.000Z</time>
      </trkpt>
      <trkpt lat="47.32266" lon="-2.29221">
        <ele>5.1999998092651</ele>
        <time>2019-11-10T09:24:09.000Z</time>
      </trkpt>
      <trkpt lat="47.32272" lon="-2.2922">
        <ele>4.5999999046326</ele>
        <time>2019-11-10T09:24:10.000Z</time>
      </trkpt>
      <trkpt lat="47.32277" lon="-2.29219">
        <ele>3.7999999523163</ele>
        <time>2019-11-10T09:24:11.000Z</time>
      </trkpt>
      <trkpt lat="47.32283" lon="-2.29217">
        <ele>3.4000000953674</ele>
        <time>2019-11-10T09:24:12.000Z</time>
      </trkpt>
      <trkpt lat="47.32305" lon="-2.29217">
        <ele>3.4000000953674</ele>
        <time>2019-11-10T09:24:16.000Z</time>
      </trkpt>
      <trkpt lat="47.32311" lon="-2.29219">
        <ele>3.4000000953674</ele>
        <time>2019-11-10T09:24:17.000Z</time>
      </trkpt>
      <trkpt lat="47.32333" lon="-2.29228">
        <ele>3.4000000953674</ele>
        <time>2019-11-10T09:24:21.000Z</time>
      </trkpt>
      <trkpt lat="47.32365" lon="-2.29245">
        <ele>3.4000000953674</ele>
        <time>2019-11-10T09:24:27.000Z</time>
      </trkpt>
      <trkpt lat="47.32375" lon="-2.2925">
        <ele>3.4000000953674</ele>
        <time>2019-11-10T09:24:29.000Z</time>
      </trkpt>
      <trkpt lat="47.324" lon="-2.29265">
        <ele>3.4000000953674</ele>
        <time>2019-11-10T09:24:34.000Z</time>
      </trkpt>
      <trkpt lat="47.32408" lon="-2.29276">
        <ele>3.4000000953674</ele>
        <time>2019-11-10T09:24:36.000Z</time>
      </trkpt>
      <trkpt lat="47.32415" lon="-2.29297">
        <ele>3.4000000953674</ele>
        <time>2019-11-10T09:24:39.000Z</time>
      </trkpt>
      <trkpt lat="47.32417" lon="-2.29305">
        <ele>3.4000000953674</ele>
        <time>2019-11-10T09:24:40.000Z</time>
      </trkpt>
      <trkpt lat="47.32422" lon="-2.29343">
        <ele>3.4000000953674</ele>
        <time>2019-11-10T09:24:45.000Z</time>
      </trkpt>
      <trkpt lat="47.32429" lon="-2.29391">
        <ele>3.4000000953674</ele>
        <time>2019-11-10T09:24:51.000Z</time>
      </trkpt>
      <trkpt lat="47.32436" lon="-2.29436">
        <ele>3.4000000953674</ele>
        <time>2019-11-10T09:24:57.000Z</time>
      </trkpt>
      <trkpt lat="47.32437" lon="-2.29443">
        <ele>3.4000000953674</ele>
        <time>2019-11-10T09:24:58.000Z</time>
      </trkpt>
      <trkpt lat="47.32438" lon="-2.29457">
        <ele>3.4000000953674</ele>
        <time>2019-11-10T09:25:00.000Z</time>
      </trkpt>
      <trkpt lat="47.32439" lon="-2.29463">
        <ele>3.7999999523163</ele>
        <time>2019-11-10T09:25:01.000Z</time>
      </trkpt>
      <trkpt lat="47.32441" lon="-2.2947">
        <ele>4.1999998092651</ele>
        <time>2019-11-10T09:25:02.000Z</time>
      </trkpt>
      <trkpt lat="47.32443" lon="-2.29477">
        <ele>4.5999999046326</ele>
        <time>2019-11-10T09:25:03.000Z</time>
      </trkpt>
      <trkpt lat="47.32445" lon="-2.29483">
        <ele>5</ele>
        <time>2019-11-10T09:25:04.000Z</time>
      </trkpt>
      <trkpt lat="47.32447" lon="-2.2949">
        <ele>5.5999999046326</ele>
        <time>2019-11-10T09:25:05.000Z</time>
      </trkpt>
      <trkpt lat="47.32453" lon="-2.29508">
        <ele>6</ele>
        <time>2019-11-10T09:25:08.000Z</time>
      </trkpt>
      <trkpt lat="47.32455" lon="-2.29515">
        <ele>6.4000000953674</ele>
        <time>2019-11-10T09:25:09.000Z</time>
      </trkpt>
      <trkpt lat="47.32457" lon="-2.29521">
        <ele>6.8000001907349</ele>
        <time>2019-11-10T09:25:10.000Z</time>
      </trkpt>
      <trkpt lat="47.32459" lon="-2.29526">
        <ele>7.1999998092651</ele>
        <time>2019-11-10T09:25:11.000Z</time>
      </trkpt>
      <trkpt lat="47.32461" lon="-2.29533">
        <ele>7.5999999046326</ele>
        <time>2019-11-10T09:25:12.000Z</time>
      </trkpt>
      <trkpt lat="47.32462" lon="-2.29539">
        <ele>7.5999999046326</ele>
        <time>2019-11-10T09:25:13.000Z</time>
      </trkpt>
      <trkpt lat="47.32473" lon="-2.29572">
        <ele>7.5999999046326</ele>
        <time>2019-11-10T09:25:19.000Z</time>
      </trkpt>
      <trkpt lat="47.32476" lon="-2.29583">
        <ele>8</ele>
        <time>2019-11-10T09:25:21.000Z</time>
      </trkpt>
      <trkpt lat="47.32478" lon="-2.29588">
        <ele>8.3999996185303</ele>
        <time>2019-11-10T09:25:22.000Z</time>
      </trkpt>
      <trkpt lat="47.3248" lon="-2.29594">
        <ele>8.8000001907349</ele>
        <time>2019-11-10T09:25:23.000Z</time>
      </trkpt>
      <trkpt lat="47.32481" lon="-2.29599">
        <ele>9.1999998092651</ele>
        <time>2019-11-10T09:25:24.000Z</time>
      </trkpt>
      <trkpt lat="47.32483" lon="-2.29605">
        <ele>9.6000003814697</ele>
        <time>2019-11-10T09:25:25.000Z</time>
      </trkpt>
      <trkpt lat="47.32489" lon="-2.29628">
        <ele>10.199999809265</ele>
        <time>2019-11-10T09:25:29.000Z</time>
      </trkpt>
      <trkpt lat="47.3249" lon="-2.29634">
        <ele>10.60000038147</ele>
        <time>2019-11-10T09:25:30.000Z</time>
      </trkpt>
      <trkpt lat="47.32492" lon="-2.2964">
        <ele>11</ele>
        <time>2019-11-10T09:25:31.000Z</time>
      </trkpt>
      <trkpt lat="47.32493" lon="-2.29646">
        <ele>11.39999961853</ele>
        <time>2019-11-10T09:25:32.000Z</time>
      </trkpt>
      <trkpt lat="47.32495" lon="-2.29651">
        <ele>11.800000190735</ele>
        <time>2019-11-10T09:25:33.000Z</time>
      </trkpt>
      <trkpt lat="47.325" lon="-2.29668">
        <ele>11.800000190735</ele>
        <time>2019-11-10T09:25:36.000Z</time>
      </trkpt>
      <trkpt lat="47.32501" lon="-2.29673">
        <ele>12.199999809265</ele>
        <time>2019-11-10T09:25:37.000Z</time>
      </trkpt>
      <trkpt lat="47.32502" lon="-2.29679">
        <ele>12.60000038147</ele>
        <time>2019-11-10T09:25:38.000Z</time>
      </trkpt>
      <trkpt lat="47.32504" lon="-2.29684">
        <ele>13</ele>
        <time>2019-11-10T09:25:39.000Z</time>
      </trkpt>
      <trkpt lat="47.32505" lon="-2.2969">
        <ele>13.39999961853</ele>
        <time>2019-11-10T09:25:40.000Z</time>
      </trkpt>
      <trkpt lat="47.32507" lon="-2.29695">
        <ele>13.800000190735</ele>
        <time>2019-11-10T09:25:41.000Z</time>
      </trkpt>
      <trkpt lat="47.32509" lon="-2.29701">
        <ele>13.800000190735</ele>
        <time>2019-11-10T09:25:42.000Z</time>
      </trkpt>
      <trkpt lat="47.32516" lon="-2.29736">
        <ele>14.39999961853</ele>
        <time>2019-11-10T09:25:48.000Z</time>
      </trkpt>
      <trkpt lat="47.32518" lon="-2.29742">
        <ele>14.800000190735</ele>
        <time>2019-11-10T09:25:49.000Z</time>
      </trkpt>
      <trkpt lat="47.32519" lon="-2.29747">
        <ele>15.60000038147</ele>
        <time>2019-11-10T09:25:50.000Z</time>
      </trkpt>
      <trkpt lat="47.32521" lon="-2.29753">
        <ele>16</ele>
        <time>2019-11-10T09:25:51.000Z</time>
      </trkpt>
      <trkpt lat="47.32528" lon="-2.29778">
        <ele>16</ele>
        <time>2019-11-10T09:25:56.000Z</time>
      </trkpt>
      <trkpt lat="47.32526" lon="-2.29788">
        <ele>16</ele>
        <time>2019-11-10T09:25:58.000Z</time>
      </trkpt>
      <trkpt lat="47.32524" lon="-2.29791">
        <ele>16</ele>
        <time>2019-11-10T09:25:59.000Z</time>
      </trkpt>
      <trkpt lat="47.32515" lon="-2.29802">
        <ele>16</ele>
        <time>2019-11-10T09:26:02.000Z</time>
      </trkpt>
      <trkpt lat="47.32511" lon="-2.29806">
        <ele>16</ele>
        <time>2019-11-10T09:26:03.000Z</time>
      </trkpt>
      <trkpt lat="47.32491" lon="-2.29825">
        <ele>16</ele>
        <time>2019-11-10T09:26:08.000Z</time>
      </trkpt>
      <trkpt lat="47.32468" lon="-2.29845">
        <ele>16</ele>
        <time>2019-11-10T09:26:14.000Z</time>
      </trkpt>
      <trkpt lat="47.32455" lon="-2.29856">
        <ele>16</ele>
        <time>2019-11-10T09:26:17.000Z</time>
      </trkpt>
      <trkpt lat="47.32447" lon="-2.29865">
        <ele>16</ele>
        <time>2019-11-10T09:26:19.000Z</time>
      </trkpt>
      <trkpt lat="47.32444" lon="-2.29871">
        <ele>16</ele>
        <time>2019-11-10T09:26:20.000Z</time>
      </trkpt>
      <trkpt lat="47.32444" lon="-2.29883">
        <ele>16</ele>
        <time>2019-11-10T09:26:22.000Z</time>
      </trkpt>
      <trkpt lat="47.32449" lon="-2.29927">
        <ele>16</ele>
        <time>2019-11-10T09:26:30.000Z</time>
      </trkpt>
      <trkpt lat="47.32444" lon="-2.29949">
        <ele>16</ele>
        <time>2019-11-10T09:26:35.000Z</time>
      </trkpt>
      <trkpt lat="47.3245" lon="-2.2996">
        <ele>16</ele>
        <time>2019-11-10T09:26:38.000Z</time>
      </trkpt>
      <trkpt lat="47.32456" lon="-2.29969">
        <ele>16</ele>
        <time>2019-11-10T09:26:42.000Z</time>
      </trkpt>
      <trkpt lat="47.32458" lon="-2.29972">
        <ele>16</ele>
        <time>2019-11-10T09:26:43.000Z</time>
      </trkpt>
      <trkpt lat="47.32472" lon="-2.29997">
        <ele>16</ele>
        <time>2019-11-10T09:26:50.000Z</time>
      </trkpt>
      <trkpt lat="47.32482" lon="-2.30026">
        <ele>16</ele>
        <time>2019-11-10T09:26:57.000Z</time>
      </trkpt>
      <trkpt lat="47.32488" lon="-2.30048">
        <ele>16</ele>
        <time>2019-11-10T09:27:02.000Z</time>
      </trkpt>
      <trkpt lat="47.32493" lon="-2.30072">
        <ele>16</ele>
        <time>2019-11-10T09:27:08.000Z</time>
      </trkpt>
      <trkpt lat="47.32494" lon="-2.30093">
        <ele>16</ele>
        <time>2019-11-10T09:27:15.000Z</time>
      </trkpt>
      <trkpt lat="47.32495" lon="-2.30098">
        <ele>16</ele>
        <time>2019-11-10T09:27:19.000Z</time>
      </trkpt>
      <trkpt lat="47.32495" lon="-2.301">
        <ele>16</ele>
        <time>2019-11-10T09:27:20.000Z</time>
      </trkpt>
      <trkpt lat="47.32499" lon="-2.30117">
        <ele>16</ele>
        <time>2019-11-10T09:27:24.000Z</time>
      </trkpt>
      <trkpt lat="47.32503" lon="-2.30146">
        <ele>16</ele>
        <time>2019-11-10T09:27:29.000Z</time>
      </trkpt>
      <trkpt lat="47.32505" lon="-2.30159">
        <ele>16</ele>
        <time>2019-11-10T09:27:31.000Z</time>
      </trkpt>
      <trkpt lat="47.32507" lon="-2.30171">
        <ele>16</ele>
        <time>2019-11-10T09:27:33.000Z</time>
      </trkpt>
      <trkpt lat="47.3251" lon="-2.30188">
        <ele>16</ele>
        <time>2019-11-10T09:27:36.000Z</time>
      </trkpt>
      <trkpt lat="47.3251" lon="-2.30195">
        <ele>16</ele>
        <time>2019-11-10T09:27:37.000Z</time>
      </trkpt>
      <trkpt lat="47.32517" lon="-2.30244">
        <ele>16</ele>
        <time>2019-11-10T09:27:44.000Z</time>
      </trkpt>
      <trkpt lat="47.3252" lon="-2.30264">
        <ele>16</ele>
        <time>2019-11-10T09:27:47.000Z</time>
      </trkpt>
      <trkpt lat="47.32523" lon="-2.30285">
        <ele>16</ele>
        <time>2019-11-10T09:27:50.000Z</time>
      </trkpt>
      <trkpt lat="47.32525" lon="-2.30292">
        <ele>16</ele>
        <time>2019-11-10T09:27:51.000Z</time>
      </trkpt>
      <trkpt lat="47.32533" lon="-2.30332">
        <ele>15.60000038147</ele>
        <time>2019-11-10T09:27:57.000Z</time>
      </trkpt>
      <trkpt lat="47.32534" lon="-2.30338">
        <ele>15.199999809265</ele>
        <time>2019-11-10T09:27:58.000Z</time>
      </trkpt>
      <trkpt lat="47.32535" lon="-2.30344">
        <ele>14.800000190735</ele>
        <time>2019-11-10T09:27:59.000Z</time>
      </trkpt>
      <trkpt lat="47.32536" lon="-2.3035">
        <ele>14.39999961853</ele>
        <time>2019-11-10T09:28:00.000Z</time>
      </trkpt>
      <trkpt lat="47.32538" lon="-2.30355">
        <ele>14</ele>
        <time>2019-11-10T09:28:01.000Z</time>
      </trkpt>
      <trkpt lat="47.3254" lon="-2.30366">
        <ele>14</ele>
        <time>2019-11-10T09:28:03.000Z</time>
      </trkpt>
      <trkpt lat="47.32543" lon="-2.3039">
        <ele>14</ele>
        <time>2019-11-10T09:28:07.000Z</time>
      </trkpt>
      <trkpt lat="47.32543" lon="-2.30395">
        <ele>14</ele>
        <time>2019-11-10T09:28:08.000Z</time>
      </trkpt>
      <trkpt lat="47.32536" lon="-2.30402">
        <ele>14</ele>
        <time>2019-11-10T09:28:11.000Z</time>
      </trkpt>
      <trkpt lat="47.32519" lon="-2.30408">
        <ele>14</ele>
        <time>2019-11-10T09:28:16.000Z</time>
      </trkpt>
      <trkpt lat="47.32511" lon="-2.30412">
        <ele>14</ele>
        <time>2019-11-10T09:28:18.000Z</time>
      </trkpt>
      <trkpt lat="47.32499" lon="-2.30424">
        <ele>14</ele>
        <time>2019-11-10T09:28:22.000Z</time>
      </trkpt>
      <trkpt lat="47.32502" lon="-2.30441">
        <ele>14</ele>
        <time>2019-11-10T09:28:25.000Z</time>
      </trkpt>
      <trkpt lat="47.32504" lon="-2.30447">
        <ele>14</ele>
        <time>2019-11-10T09:28:26.000Z</time>
      </trkpt>
      <trkpt lat="47.32506" lon="-2.30453">
        <ele>14</ele>
        <time>2019-11-10T09:28:27.000Z</time>
      </trkpt>
      <trkpt lat="47.32511" lon="-2.30479">
        <ele>14</ele>
        <time>2019-11-10T09:28:31.000Z</time>
      </trkpt>
      <trkpt lat="47.3252" lon="-2.30524">
        <ele>14</ele>
        <time>2019-11-10T09:28:38.000Z</time>
      </trkpt>
      <trkpt lat="47.32526" lon="-2.30562">
        <ele>14</ele>
        <time>2019-11-10T09:28:44.000Z</time>
      </trkpt>
      <trkpt lat="47.3253" lon="-2.30589">
        <ele>13.60000038147</ele>
        <time>2019-11-10T09:28:48.000Z</time>
      </trkpt>
      <trkpt lat="47.32531" lon="-2.30596">
        <ele>13</ele>
        <time>2019-11-10T09:28:49.000Z</time>
      </trkpt>
      <trkpt lat="47.32533" lon="-2.30603">
        <ele>12.60000038147</ele>
        <time>2019-11-10T09:28:50.000Z</time>
      </trkpt>
      <trkpt lat="47.32534" lon="-2.3061">
        <ele>12.199999809265</ele>
        <time>2019-11-10T09:28:51.000Z</time>
      </trkpt>
      <trkpt lat="47.32535" lon="-2.30618">
        <ele>11.800000190735</ele>
        <time>2019-11-10T09:28:52.000Z</time>
      </trkpt>
      <trkpt lat="47.3254" lon="-2.3064">
        <ele>11.800000190735</ele>
        <time>2019-11-10T09:28:56.000Z</time>
      </trkpt>
      <trkpt lat="47.32543" lon="-2.30657">
        <ele>11.800000190735</ele>
        <time>2019-11-10T09:28:59.000Z</time>
      </trkpt>
      <trkpt lat="47.32543" lon="-2.30669">
        <ele>11.800000190735</ele>
        <time>2019-11-10T09:29:01.000Z</time>
      </trkpt>
      <trkpt lat="47.32546" lon="-2.30708">
        <ele>11.800000190735</ele>
        <time>2019-11-10T09:29:07.000Z</time>
      </trkpt>
      <trkpt lat="47.32549" lon="-2.30727">
        <ele>11.800000190735</ele>
        <time>2019-11-10T09:29:10.000Z</time>
      </trkpt>
      <trkpt lat="47.32552" lon="-2.30747">
        <ele>11.800000190735</ele>
        <time>2019-11-10T09:29:13.000Z</time>
      </trkpt>
      <trkpt lat="47.32558" lon="-2.30775">
        <ele>11.800000190735</ele>
        <time>2019-11-10T09:29:18.000Z</time>
      </trkpt>
      <trkpt lat="47.32565" lon="-2.30814">
        <ele>11.800000190735</ele>
        <time>2019-11-10T09:29:24.000Z</time>
      </trkpt>
      <trkpt lat="47.32566" lon="-2.30829">
        <ele>11.800000190735</ele>
        <time>2019-11-10T09:29:26.000Z</time>
      </trkpt>
      <trkpt lat="47.32567" lon="-2.30858">
        <ele>11.800000190735</ele>
        <time>2019-11-10T09:29:30.000Z</time>
      </trkpt>
      <trkpt lat="47.32567" lon="-2.309">
        <ele>11.800000190735</ele>
        <time>2019-11-10T09:29:37.000Z</time>
      </trkpt>
      <trkpt lat="47.32566" lon="-2.30923">
        <ele>11.800000190735</ele>
        <time>2019-11-10T09:29:42.000Z</time>
      </trkpt>
      <trkpt lat="47.32567" lon="-2.30943">
        <ele>11.800000190735</ele>
        <time>2019-11-10T09:29:47.000Z</time>
      </trkpt>
      <trkpt lat="47.32566" lon="-2.30971">
        <ele>11.800000190735</ele>
        <time>2019-11-10T09:29:52.000Z</time>
      </trkpt>
      <trkpt lat="47.32566" lon="-2.30996">
        <ele>11.800000190735</ele>
        <time>2019-11-10T09:29:57.000Z</time>
      </trkpt>
      <trkpt lat="47.32572" lon="-2.31034">
        <ele>11.800000190735</ele>
        <time>2019-11-10T09:30:03.000Z</time>
      </trkpt>
      <trkpt lat="47.32575" lon="-2.31054">
        <ele>11.800000190735</ele>
        <time>2019-11-10T09:30:06.000Z</time>
      </trkpt>
      <trkpt lat="47.32575" lon="-2.31068">
        <ele>11.800000190735</ele>
        <time>2019-11-10T09:30:08.000Z</time>
      </trkpt>
      <trkpt lat="47.32573" lon="-2.31092">
        <ele>11.39999961853</ele>
        <time>2019-11-10T09:30:12.000Z</time>
      </trkpt>
      <trkpt lat="47.32572" lon="-2.31098">
        <ele>11</ele>
        <time>2019-11-10T09:30:13.000Z</time>
      </trkpt>
      <trkpt lat="47.32571" lon="-2.31104">
        <ele>10.60000038147</ele>
        <time>2019-11-10T09:30:14.000Z</time>
      </trkpt>
      <trkpt lat="47.32571" lon="-2.3111">
        <ele>10.199999809265</ele>
        <time>2019-11-10T09:30:15.000Z</time>
      </trkpt>
      <trkpt lat="47.3257" lon="-2.31116">
        <ele>9.8000001907349</ele>
        <time>2019-11-10T09:30:16.000Z</time>
      </trkpt>
      <trkpt lat="47.32569" lon="-2.31134">
        <ele>9.8000001907349</ele>
        <time>2019-11-10T09:30:19.000Z</time>
      </trkpt>
      <trkpt lat="47.32564" lon="-2.31172">
        <ele>9.8000001907349</ele>
        <time>2019-11-10T09:30:25.000Z</time>
      </trkpt>
      <trkpt lat="47.32569" lon="-2.31202">
        <ele>9.8000001907349</ele>
        <time>2019-11-10T09:30:30.000Z</time>
      </trkpt>
      <trkpt lat="47.32572" lon="-2.31208">
        <ele>9.8000001907349</ele>
        <time>2019-11-10T09:30:31.000Z</time>
      </trkpt>
      <trkpt lat="47.32574" lon="-2.31223">
        <ele>9.8000001907349</ele>
        <time>2019-11-10T09:30:33.000Z</time>
      </trkpt>
      <trkpt lat="47.32573" lon="-2.31247">
        <ele>9.8000001907349</ele>
        <time>2019-11-10T09:30:36.000Z</time>
      </trkpt>
      <trkpt lat="47.32572" lon="-2.31263">
        <ele>9.8000001907349</ele>
        <time>2019-11-10T09:30:38.000Z</time>
      </trkpt>
      <trkpt lat="47.3257" lon="-2.31304">
        <ele>9.8000001907349</ele>
        <time>2019-11-10T09:30:44.000Z</time>
      </trkpt>
      <trkpt lat="47.32563" lon="-2.31325">
        <ele>9.8000001907349</ele>
        <time>2019-11-10T09:30:48.000Z</time>
      </trkpt>
      <trkpt lat="47.32557" lon="-2.31345">
        <ele>9.8000001907349</ele>
        <time>2019-11-10T09:30:52.000Z</time>
      </trkpt>
      <trkpt lat="47.32557" lon="-2.31351">
        <ele>9.8000001907349</ele>
        <time>2019-11-10T09:30:53.000Z</time>
      </trkpt>
      <trkpt lat="47.32555" lon="-2.31381">
        <ele>9.8000001907349</ele>
        <time>2019-11-10T09:30:59.000Z</time>
      </trkpt>
      <trkpt lat="47.32554" lon="-2.31391">
        <ele>9.8000001907349</ele>
        <time>2019-11-10T09:31:03.000Z</time>
      </trkpt>
      <trkpt lat="47.32553" lon="-2.31393">
        <ele>9.8000001907349</ele>
        <time>2019-11-10T09:31:04.000Z</time>
      </trkpt>
      <trkpt lat="47.32553" lon="-2.31394">
        <ele>9.8000001907349</ele>
        <time>2019-11-10T09:31:06.000Z</time>
      </trkpt>
      <trkpt lat="47.32552" lon="-2.31398">
        <ele>9.8000001907349</ele>
        <time>2019-11-10T09:31:16.000Z</time>
      </trkpt>
      <trkpt lat="47.32551" lon="-2.31401">
        <ele>9.8000001907349</ele>
        <time>2019-11-10T09:31:17.000Z</time>
      </trkpt>
      <trkpt lat="47.32554" lon="-2.3142">
        <ele>9.8000001907349</ele>
        <time>2019-11-10T09:31:22.000Z</time>
      </trkpt>
      <trkpt lat="47.32558" lon="-2.31452">
        <ele>9.8000001907349</ele>
        <time>2019-11-10T09:31:28.000Z</time>
      </trkpt>
      <trkpt lat="47.3256" lon="-2.31458">
        <ele>9.8000001907349</ele>
        <time>2019-11-10T09:31:29.000Z</time>
      </trkpt>
      <trkpt lat="47.32562" lon="-2.31484">
        <ele>9.8000001907349</ele>
        <time>2019-11-10T09:31:33.000Z</time>
      </trkpt>
      <trkpt lat="47.32561" lon="-2.31497">
        <ele>9.8000001907349</ele>
        <time>2019-11-10T09:31:35.000Z</time>
      </trkpt>
      <trkpt lat="47.3256" lon="-2.31525">
        <ele>9.8000001907349</ele>
        <time>2019-11-10T09:31:39.000Z</time>
      </trkpt>
      <trkpt lat="47.3256" lon="-2.31552">
        <ele>9.8000001907349</ele>
        <time>2019-11-10T09:31:44.000Z</time>
      </trkpt>
      <trkpt lat="47.3256" lon="-2.31564">
        <ele>9.8000001907349</ele>
        <time>2019-11-10T09:31:46.000Z</time>
      </trkpt>
      <trkpt lat="47.32558" lon="-2.31582">
        <ele>9.8000001907349</ele>
        <time>2019-11-10T09:31:49.000Z</time>
      </trkpt>
      <trkpt lat="47.32549" lon="-2.31596">
        <ele>9.8000001907349</ele>
        <time>2019-11-10T09:31:52.000Z</time>
      </trkpt>
      <trkpt lat="47.32544" lon="-2.31604">
        <ele>9.8000001907349</ele>
        <time>2019-11-10T09:31:53.000Z</time>
      </trkpt>
      <trkpt lat="47.32532" lon="-2.31623">
        <ele>9.8000001907349</ele>
        <time>2019-11-10T09:31:56.000Z</time>
      </trkpt>
      <trkpt lat="47.32528" lon="-2.31629">
        <ele>9.8000001907349</ele>
        <time>2019-11-10T09:31:57.000Z</time>
      </trkpt>
      <trkpt lat="47.32515" lon="-2.31646">
        <ele>9.8000001907349</ele>
        <time>2019-11-10T09:32:00.000Z</time>
      </trkpt>
      <trkpt lat="47.32512" lon="-2.31661">
        <ele>9.8000001907349</ele>
        <time>2019-11-10T09:32:02.000Z</time>
      </trkpt>
      <trkpt lat="47.32511" lon="-2.31676">
        <ele>9.8000001907349</ele>
        <time>2019-11-10T09:32:04.000Z</time>
      </trkpt>
      <trkpt lat="47.32511" lon="-2.31707">
        <ele>9.8000001907349</ele>
        <time>2019-11-10T09:32:08.000Z</time>
      </trkpt>
      <trkpt lat="47.32514" lon="-2.31741">
        <ele>9.8000001907349</ele>
        <time>2019-11-10T09:32:12.000Z</time>
      </trkpt>
      <trkpt lat="47.32514" lon="-2.3175">
        <ele>9.8000001907349</ele>
        <time>2019-11-10T09:32:13.000Z</time>
      </trkpt>
      <trkpt lat="47.32515" lon="-2.31782">
        <ele>9.8000001907349</ele>
        <time>2019-11-10T09:32:17.000Z</time>
      </trkpt>
      <trkpt lat="47.32517" lon="-2.31805">
        <ele>9.8000001907349</ele>
        <time>2019-11-10T09:32:20.000Z</time>
      </trkpt>
      <trkpt lat="47.3252" lon="-2.31849">
        <ele>9.8000001907349</ele>
        <time>2019-11-10T09:32:26.000Z</time>
      </trkpt>
      <trkpt lat="47.3252" lon="-2.31857">
        <ele>9.8000001907349</ele>
        <time>2019-11-10T09:32:27.000Z</time>
      </trkpt>
      <trkpt lat="47.32516" lon="-2.31891">
        <ele>9.8000001907349</ele>
        <time>2019-11-10T09:32:31.000Z</time>
      </trkpt>
      <trkpt lat="47.32509" lon="-2.31956">
        <ele>9.8000001907349</ele>
        <time>2019-11-10T09:32:39.000Z</time>
      </trkpt>
      <trkpt lat="47.32506" lon="-2.32012">
        <ele>9.8000001907349</ele>
        <time>2019-11-10T09:32:46.000Z</time>
      </trkpt>
      <trkpt lat="47.32505" lon="-2.32027">
        <ele>9.8000001907349</ele>
        <time>2019-11-10T09:32:48.000Z</time>
      </trkpt>
      <trkpt lat="47.32502" lon="-2.32066">
        <ele>9.8000001907349</ele>
        <time>2019-11-10T09:32:53.000Z</time>
      </trkpt>
      <trkpt lat="47.32501" lon="-2.32079">
        <ele>9.8000001907349</ele>
        <time>2019-11-10T09:32:55.000Z</time>
      </trkpt>
      <trkpt lat="47.32503" lon="-2.32091">
        <ele>9.8000001907349</ele>
        <time>2019-11-10T09:32:57.000Z</time>
      </trkpt>
      <trkpt lat="47.32511" lon="-2.32099">
        <ele>9.8000001907349</ele>
        <time>2019-11-10T09:32:59.000Z</time>
      </trkpt>
      <trkpt lat="47.32514" lon="-2.32098">
        <ele>9.8000001907349</ele>
        <time>2019-11-10T09:33:00.000Z</time>
      </trkpt>
      <trkpt lat="47.32518" lon="-2.32097">
        <ele>9.8000001907349</ele>
        <time>2019-11-10T09:33:01.000Z</time>
      </trkpt>
      <trkpt lat="47.32546" lon="-2.32094">
        <ele>9.8000001907349</ele>
        <time>2019-11-10T09:33:09.000Z</time>
      </trkpt>
      <trkpt lat="47.32566" lon="-2.32093">
        <ele>9.8000001907349</ele>
        <time>2019-11-10T09:33:15.000Z</time>
      </trkpt>
      <trkpt lat="47.3258" lon="-2.32095">
        <ele>9.8000001907349</ele>
        <time>2019-11-10T09:33:19.000Z</time>
      </trkpt>
      <trkpt lat="47.32586" lon="-2.32104">
        <ele>9.8000001907349</ele>
        <time>2019-11-10T09:33:21.000Z</time>
      </trkpt>
      <trkpt lat="47.32589" lon="-2.32119">
        <ele>9.3999996185303</ele>
        <time>2019-11-10T09:33:23.000Z</time>
      </trkpt>
      <trkpt lat="47.32588" lon="-2.32127">
        <ele>9</ele>
        <time>2019-11-10T09:33:24.000Z</time>
      </trkpt>
      <trkpt lat="47.32586" lon="-2.32136">
        <ele>8.6000003814697</ele>
        <time>2019-11-10T09:33:25.000Z</time>
      </trkpt>
      <trkpt lat="47.32583" lon="-2.32144">
        <ele>8</ele>
        <time>2019-11-10T09:33:26.000Z</time>
      </trkpt>
      <trkpt lat="47.3258" lon="-2.32152">
        <ele>7.5999999046326</ele>
        <time>2019-11-10T09:33:27.000Z</time>
      </trkpt>
      <trkpt lat="47.3257" lon="-2.32187">
        <ele>7.1999998092651</ele>
        <time>2019-11-10T09:33:31.000Z</time>
      </trkpt>
      <trkpt lat="47.32567" lon="-2.32196">
        <ele>6.8000001907349</ele>
        <time>2019-11-10T09:33:32.000Z</time>
      </trkpt>
      <trkpt lat="47.32564" lon="-2.32205">
        <ele>6</ele>
        <time>2019-11-10T09:33:33.000Z</time>
      </trkpt>
      <trkpt lat="47.32561" lon="-2.32214">
        <ele>5.4000000953674</ele>
        <time>2019-11-10T09:33:34.000Z</time>
      </trkpt>
      <trkpt lat="47.32545" lon="-2.32268">
        <ele>5.4000000953674</ele>
        <time>2019-11-10T09:33:41.000Z</time>
      </trkpt>
      <trkpt lat="47.32536" lon="-2.32301">
        <ele>5.4000000953674</ele>
        <time>2019-11-10T09:33:46.000Z</time>
      </trkpt>
      <trkpt lat="47.32535" lon="-2.32306">
        <ele>6</ele>
        <time>2019-11-10T09:33:47.000Z</time>
      </trkpt>
      <trkpt lat="47.32536" lon="-2.32312">
        <ele>6.4000000953674</ele>
        <time>2019-11-10T09:33:48.000Z</time>
      </trkpt>
      <trkpt lat="47.32539" lon="-2.32315">
        <ele>6.8000001907349</ele>
        <time>2019-11-10T09:33:49.000Z</time>
      </trkpt>
      <trkpt lat="47.32544" lon="-2.32314">
        <ele>7.1999998092651</ele>
        <time>2019-11-10T09:33:50.000Z</time>
      </trkpt>
      <trkpt lat="47.32548" lon="-2.32314">
        <ele>7.5999999046326</ele>
        <time>2019-11-10T09:33:51.000Z</time>
      </trkpt>
      <trkpt lat="47.32572" lon="-2.32312">
        <ele>7.5999999046326</ele>
        <time>2019-11-10T09:33:56.000Z</time>
      </trkpt>
      <trkpt lat="47.32606" lon="-2.3231">
        <ele>7.5999999046326</ele>
        <time>2019-11-10T09:34:02.000Z</time>
      </trkpt>
      <trkpt lat="47.32635" lon="-2.32312">
        <ele>7.5999999046326</ele>
        <time>2019-11-10T09:34:08.000Z</time>
      </trkpt>
      <trkpt lat="47.32672" lon="-2.32318">
        <ele>7.5999999046326</ele>
        <time>2019-11-10T09:34:15.000Z</time>
      </trkpt>
      <trkpt lat="47.32709" lon="-2.32331">
        <ele>7.5999999046326</ele>
        <time>2019-11-10T09:34:22.000Z</time>
      </trkpt>
      <trkpt lat="47.32746" lon="-2.32351">
        <ele>7.5999999046326</ele>
        <time>2019-11-10T09:34:29.000Z</time>
      </trkpt>
      <trkpt lat="47.32774" lon="-2.32368">
        <ele>7.1999998092651</ele>
        <time>2019-11-10T09:34:34.000Z</time>
      </trkpt>
      <trkpt lat="47.32779" lon="-2.32371">
        <ele>6.8000001907349</ele>
        <time>2019-11-10T09:34:35.000Z</time>
      </trkpt>
      <trkpt lat="47.32784" lon="-2.32374">
        <ele>6.4000000953674</ele>
        <time>2019-11-10T09:34:36.000Z</time>
      </trkpt>
      <trkpt lat="47.3279" lon="-2.32377">
        <ele>6</ele>
        <time>2019-11-10T09:34:37.000Z</time>
      </trkpt>
      <trkpt lat="47.32795" lon="-2.32381">
        <ele>5.4000000953674</ele>
        <time>2019-11-10T09:34:38.000Z</time>
      </trkpt>
      <trkpt lat="47.328" lon="-2.32385">
        <ele>5.4000000953674</ele>
        <time>2019-11-10T09:34:39.000Z</time>
      </trkpt>
      <trkpt lat="47.3281" lon="-2.32395">
        <ele>5.4000000953674</ele>
        <time>2019-11-10T09:34:41.000Z</time>
      </trkpt>
      <trkpt lat="47.32841" lon="-2.32422">
        <ele>5.4000000953674</ele>
        <time>2019-11-10T09:34:47.000Z</time>
      </trkpt>
      <trkpt lat="47.32876" lon="-2.32446">
        <ele>5.4000000953674</ele>
        <time>2019-11-10T09:34:54.000Z</time>
      </trkpt>
      <trkpt lat="47.3288" lon="-2.32449">
        <ele>5.4000000953674</ele>
        <time>2019-11-10T09:34:55.000Z</time>
      </trkpt>
      <trkpt lat="47.3289" lon="-2.32457">
        <ele>5.4000000953674</ele>
        <time>2019-11-10T09:34:57.000Z</time>
      </trkpt>
      <trkpt lat="47.32897" lon="-2.32469">
        <ele>5.4000000953674</ele>
        <time>2019-11-10T09:34:59.000Z</time>
      </trkpt>
      <trkpt lat="47.32904" lon="-2.32491">
        <ele>5.4000000953674</ele>
        <time>2019-11-10T09:35:02.000Z</time>
      </trkpt>
      <trkpt lat="47.32906" lon="-2.32499">
        <ele>5.4000000953674</ele>
        <time>2019-11-10T09:35:03.000Z</time>
      </trkpt>
      <trkpt lat="47.32916" lon="-2.32546">
        <ele>5.4000000953674</ele>
        <time>2019-11-10T09:35:09.000Z</time>
      </trkpt>
      <trkpt lat="47.32918" lon="-2.32589">
        <ele>5.4000000953674</ele>
        <time>2019-11-10T09:35:15.000Z</time>
      </trkpt>
      <trkpt lat="47.32918" lon="-2.32603">
        <ele>5.4000000953674</ele>
        <time>2019-11-10T09:35:17.000Z</time>
      </trkpt>
      <trkpt lat="47.32918" lon="-2.32625">
        <ele>5.4000000953674</ele>
        <time>2019-11-10T09:35:20.000Z</time>
      </trkpt>
      <trkpt lat="47.32925" lon="-2.32639">
        <ele>5.4000000953674</ele>
        <time>2019-11-10T09:35:23.000Z</time>
      </trkpt>
      <trkpt lat="47.32942" lon="-2.32644">
        <ele>5</ele>
        <time>2019-11-10T09:35:27.000Z</time>
      </trkpt>
      <trkpt lat="47.32947" lon="-2.32643">
        <ele>4.5999999046326</ele>
        <time>2019-11-10T09:35:28.000Z</time>
      </trkpt>
      <trkpt lat="47.32952" lon="-2.32643">
        <ele>4.1999998092651</ele>
        <time>2019-11-10T09:35:29.000Z</time>
      </trkpt>
      <trkpt lat="47.32958" lon="-2.32641">
        <ele>3.4000000953674</ele>
        <time>2019-11-10T09:35:30.000Z</time>
      </trkpt>
      <trkpt lat="47.32972" lon="-2.32636">
        <ele>3.4000000953674</ele>
        <time>2019-11-10T09:35:33.000Z</time>
      </trkpt>
      <trkpt lat="47.32977" lon="-2.32633">
        <ele>3.4000000953674</ele>
        <time>2019-11-10T09:35:34.000Z</time>
      </trkpt>
      <trkpt lat="47.32992" lon="-2.32625">
        <ele>3.4000000953674</ele>
        <time>2019-11-10T09:35:37.000Z</time>
      </trkpt>
      <trkpt lat="47.32997" lon="-2.32625">
        <ele>3.4000000953674</ele>
        <time>2019-11-10T09:35:38.000Z</time>
      </trkpt>
      <trkpt lat="47.33011" lon="-2.32633">
        <ele>3.4000000953674</ele>
        <time>2019-11-10T09:35:41.000Z</time>
      </trkpt>
      <trkpt lat="47.33016" lon="-2.32636">
        <ele>3.4000000953674</ele>
        <time>2019-11-10T09:35:42.000Z</time>
      </trkpt>
      <trkpt lat="47.33021" lon="-2.32637">
        <ele>3.4000000953674</ele>
        <time>2019-11-10T09:35:43.000Z</time>
      </trkpt>
      <trkpt lat="47.3303" lon="-2.32634">
        <ele>3.4000000953674</ele>
        <time>2019-11-10T09:35:45.000Z</time>
      </trkpt>
      <trkpt lat="47.33038" lon="-2.32627">
        <ele>3.4000000953674</ele>
        <time>2019-11-10T09:35:47.000Z</time>
      </trkpt>
      <trkpt lat="47.33047" lon="-2.3262">
        <ele>3.4000000953674</ele>
        <time>2019-11-10T09:35:49.000Z</time>
      </trkpt>
      <trkpt lat="47.33066" lon="-2.32606">
        <ele>3.4000000953674</ele>
        <time>2019-11-10T09:35:53.000Z</time>
      </trkpt>
      <trkpt lat="47.33075" lon="-2.326">
        <ele>3.4000000953674</ele>
        <time>2019-11-10T09:35:55.000Z</time>
      </trkpt>
      <trkpt lat="47.33098" lon="-2.3258">
        <ele>3.4000000953674</ele>
        <time>2019-11-10T09:36:00.000Z</time>
      </trkpt>
      <trkpt lat="47.33103" lon="-2.32575">
        <ele>3.4000000953674</ele>
        <time>2019-11-10T09:36:01.000Z</time>
      </trkpt>
      <trkpt lat="47.33122" lon="-2.3256">
        <ele>3.4000000953674</ele>
        <time>2019-11-10T09:36:05.000Z</time>
      </trkpt>
      <trkpt lat="47.33127" lon="-2.32556">
        <ele>3.4000000953674</ele>
        <time>2019-11-10T09:36:06.000Z</time>
      </trkpt>
      <trkpt lat="47.33156" lon="-2.32534">
        <ele>3.7999999523163</ele>
        <time>2019-11-10T09:36:12.000Z</time>
      </trkpt>
      <trkpt lat="47.33161" lon="-2.3253">
        <ele>4.4000000953674</ele>
        <time>2019-11-10T09:36:13.000Z</time>
      </trkpt>
      <trkpt lat="47.33166" lon="-2.32526">
        <ele>4.8000001907349</ele>
        <time>2019-11-10T09:36:14.000Z</time>
      </trkpt>
      <trkpt lat="47.33171" lon="-2.32523">
        <ele>5.1999998092651</ele>
        <time>2019-11-10T09:36:15.000Z</time>
      </trkpt>
      <trkpt lat="47.33176" lon="-2.32521">
        <ele>5.8000001907349</ele>
        <time>2019-11-10T09:36:16.000Z</time>
      </trkpt>
      <trkpt lat="47.33181" lon="-2.32518">
        <ele>5.8000001907349</ele>
        <time>2019-11-10T09:36:17.000Z</time>
      </trkpt>
      <trkpt lat="47.33198" lon="-2.3251">
        <ele>5.8000001907349</ele>
        <time>2019-11-10T09:36:20.000Z</time>
      </trkpt>
      <trkpt lat="47.33204" lon="-2.32507">
        <ele>5.8000001907349</ele>
        <time>2019-11-10T09:36:21.000Z</time>
      </trkpt>
      <trkpt lat="47.33233" lon="-2.32496">
        <ele>5.8000001907349</ele>
        <time>2019-11-10T09:36:26.000Z</time>
      </trkpt>
      <trkpt lat="47.33267" lon="-2.3248">
        <ele>5.8000001907349</ele>
        <time>2019-11-10T09:36:32.000Z</time>
      </trkpt>
      <trkpt lat="47.33305" lon="-2.32461">
        <ele>5.8000001907349</ele>
        <time>2019-11-10T09:36:39.000Z</time>
      </trkpt>
      <trkpt lat="47.33314" lon="-2.32457">
        <ele>5.8000001907349</ele>
        <time>2019-11-10T09:36:41.000Z</time>
      </trkpt>
      <trkpt lat="47.33331" lon="-2.32451">
        <ele>5.8000001907349</ele>
        <time>2019-11-10T09:36:45.000Z</time>
      </trkpt>
      <trkpt lat="47.33344" lon="-2.32432">
        <ele>5.8000001907349</ele>
        <time>2019-11-10T09:36:49.000Z</time>
      </trkpt>
      <trkpt lat="47.33351" lon="-2.32422">
        <ele>5.8000001907349</ele>
        <time>2019-11-10T09:36:51.000Z</time>
      </trkpt>
      <trkpt lat="47.33361" lon="-2.32411">
        <ele>5.8000001907349</ele>
        <time>2019-11-10T09:36:53.000Z</time>
      </trkpt>
      <trkpt lat="47.33367" lon="-2.32406">
        <ele>5.8000001907349</ele>
        <time>2019-11-10T09:36:54.000Z</time>
      </trkpt>
      <trkpt lat="47.33405" lon="-2.32374">
        <ele>5.8000001907349</ele>
        <time>2019-11-10T09:37:01.000Z</time>
      </trkpt>
      <trkpt lat="47.33443" lon="-2.32344">
        <ele>5.8000001907349</ele>
        <time>2019-11-10T09:37:08.000Z</time>
      </trkpt>
      <trkpt lat="47.33465" lon="-2.32332">
        <ele>5.1999998092651</ele>
        <time>2019-11-10T09:37:12.000Z</time>
      </trkpt>
      <trkpt lat="47.3347" lon="-2.32329">
        <ele>4.8000001907349</ele>
        <time>2019-11-10T09:37:13.000Z</time>
      </trkpt>
      <trkpt lat="47.33476" lon="-2.32326">
        <ele>4.4000000953674</ele>
        <time>2019-11-10T09:37:14.000Z</time>
      </trkpt>
      <trkpt lat="47.3348" lon="-2.32324">
        <ele>4</ele>
        <time>2019-11-10T09:37:15.000Z</time>
      </trkpt>
      <trkpt lat="47.33485" lon="-2.32321">
        <ele>3.5999999046326</ele>
        <time>2019-11-10T09:37:16.000Z</time>
      </trkpt>
      <trkpt lat="47.33501" lon="-2.32314">
        <ele>3.5999999046326</ele>
        <time>2019-11-10T09:37:19.000Z</time>
      </trkpt>
      <trkpt lat="47.33532" lon="-2.32303">
        <ele>3.5999999046326</ele>
        <time>2019-11-10T09:37:25.000Z</time>
      </trkpt>
      <trkpt lat="47.33556" lon="-2.32301">
        <ele>3.5999999046326</ele>
        <time>2019-11-10T09:37:30.000Z</time>
      </trkpt>
      <trkpt lat="47.3356" lon="-2.32299">
        <ele>3.5999999046326</ele>
        <time>2019-11-10T09:37:31.000Z</time>
      </trkpt>
      <trkpt lat="47.33565" lon="-2.32297">
        <ele>4</ele>
        <time>2019-11-10T09:37:32.000Z</time>
      </trkpt>
      <trkpt lat="47.3357" lon="-2.32295">
        <ele>4.4000000953674</ele>
        <time>2019-11-10T09:37:33.000Z</time>
      </trkpt>
      <trkpt lat="47.33575" lon="-2.32293">
        <ele>5.1999998092651</ele>
        <time>2019-11-10T09:37:34.000Z</time>
      </trkpt>
      <trkpt lat="47.3358" lon="-2.32291">
        <ele>5.5999999046326</ele>
        <time>2019-11-10T09:37:35.000Z</time>
      </trkpt>
      <trkpt lat="47.33591" lon="-2.32289">
        <ele>5.5999999046326</ele>
        <time>2019-11-10T09:37:37.000Z</time>
      </trkpt>
      <trkpt lat="47.33622" lon="-2.32284">
        <ele>5.5999999046326</ele>
        <time>2019-11-10T09:37:43.000Z</time>
      </trkpt>
      <trkpt lat="47.33661" lon="-2.32273">
        <ele>5.5999999046326</ele>
        <time>2019-11-10T09:37:50.000Z</time>
      </trkpt>
      <trkpt lat="47.33667" lon="-2.32269">
        <ele>5.5999999046326</ele>
        <time>2019-11-10T09:37:51.000Z</time>
      </trkpt>
      <trkpt lat="47.33684" lon="-2.32261">
        <ele>5.5999999046326</ele>
        <time>2019-11-10T09:37:54.000Z</time>
      </trkpt>
      <trkpt lat="47.337" lon="-2.32252">
        <ele>5.5999999046326</ele>
        <time>2019-11-10T09:37:57.000Z</time>
      </trkpt>
      <trkpt lat="47.33711" lon="-2.32245">
        <ele>5.5999999046326</ele>
        <time>2019-11-10T09:37:59.000Z</time>
      </trkpt>
      <trkpt lat="47.33742" lon="-2.32225">
        <ele>5.5999999046326</ele>
        <time>2019-11-10T09:38:05.000Z</time>
      </trkpt>
      <trkpt lat="47.3378" lon="-2.32209">
        <ele>5.5999999046326</ele>
        <time>2019-11-10T09:38:12.000Z</time>
      </trkpt>
      <trkpt lat="47.33791" lon="-2.32206">
        <ele>5.5999999046326</ele>
        <time>2019-11-10T09:38:14.000Z</time>
      </trkpt>
      <trkpt lat="47.33811" lon="-2.32203">
        <ele>5.5999999046326</ele>
        <time>2019-11-10T09:38:18.000Z</time>
      </trkpt>
      <trkpt lat="47.33846" lon="-2.32194">
        <ele>5.5999999046326</ele>
        <time>2019-11-10T09:38:25.000Z</time>
      </trkpt>
      <trkpt lat="47.33866" lon="-2.32193">
        <ele>5.5999999046326</ele>
        <time>2019-11-10T09:38:30.000Z</time>
      </trkpt>
      <trkpt lat="47.33883" lon="-2.32195">
        <ele>5.5999999046326</ele>
        <time>2019-11-10T09:38:34.000Z</time>
      </trkpt>
      <trkpt lat="47.33888" lon="-2.32196">
        <ele>5.5999999046326</ele>
        <time>2019-11-10T09:38:35.000Z</time>
      </trkpt>
      <trkpt lat="47.33902" lon="-2.32195">
        <ele>5.5999999046326</ele>
        <time>2019-11-10T09:38:38.000Z</time>
      </trkpt>
      <trkpt lat="47.33912" lon="-2.32194">
        <ele>5.5999999046326</ele>
        <time>2019-11-10T09:38:40.000Z</time>
      </trkpt>
      <trkpt lat="47.33924" lon="-2.32194">
        <ele>5.5999999046326</ele>
        <time>2019-11-10T09:38:42.000Z</time>
      </trkpt>
      <trkpt lat="47.33936" lon="-2.32198">
        <ele>5.5999999046326</ele>
        <time>2019-11-10T09:38:44.000Z</time>
      </trkpt>
      <trkpt lat="47.33947" lon="-2.32207">
        <ele>5.5999999046326</ele>
        <time>2019-11-10T09:38:46.000Z</time>
      </trkpt>
      <trkpt lat="47.33957" lon="-2.32215">
        <ele>5.5999999046326</ele>
        <time>2019-11-10T09:38:48.000Z</time>
      </trkpt>
      <trkpt lat="47.33981" lon="-2.32216">
        <ele>5.5999999046326</ele>
        <time>2019-11-10T09:38:52.000Z</time>
      </trkpt>
      <trkpt lat="47.34021" lon="-2.32216">
        <ele>5.1999998092651</ele>
        <time>2019-11-10T09:38:59.000Z</time>
      </trkpt>
      <trkpt lat="47.34026" lon="-2.32216">
        <ele>4.8000001907349</ele>
        <time>2019-11-10T09:39:00.000Z</time>
      </trkpt>
      <trkpt lat="47.34031" lon="-2.32217">
        <ele>4.1999998092651</ele>
        <time>2019-11-10T09:39:01.000Z</time>
      </trkpt>
      <trkpt lat="47.34036" lon="-2.32217">
        <ele>3.7999999523163</ele>
        <time>2019-11-10T09:39:02.000Z</time>
      </trkpt>
      <trkpt lat="47.34041" lon="-2.32217">
        <ele>3.4000000953674</ele>
        <time>2019-11-10T09:39:03.000Z</time>
      </trkpt>
      <trkpt lat="47.34055" lon="-2.32218">
        <ele>3.4000000953674</ele>
        <time>2019-11-10T09:39:06.000Z</time>
      </trkpt>
      <trkpt lat="47.34064" lon="-2.32222">
        <ele>3.4000000953674</ele>
        <time>2019-11-10T09:39:08.000Z</time>
      </trkpt>
      <trkpt lat="47.34075" lon="-2.32231">
        <ele>3.4000000953674</ele>
        <time>2019-11-10T09:39:11.000Z</time>
      </trkpt>
      <trkpt lat="47.34081" lon="-2.32241">
        <ele>3.4000000953674</ele>
        <time>2019-11-10T09:39:13.000Z</time>
      </trkpt>
      <trkpt lat="47.34083" lon="-2.32246">
        <ele>3.7999999523163</ele>
        <time>2019-11-10T09:39:14.000Z</time>
      </trkpt>
      <trkpt lat="47.34086" lon="-2.32252">
        <ele>4.4000000953674</ele>
        <time>2019-11-10T09:39:15.000Z</time>
      </trkpt>
      <trkpt lat="47.34089" lon="-2.32258">
        <ele>4.8000001907349</ele>
        <time>2019-11-10T09:39:16.000Z</time>
      </trkpt>
      <trkpt lat="47.3409" lon="-2.32264">
        <ele>5.1999998092651</ele>
        <time>2019-11-10T09:39:17.000Z</time>
      </trkpt>
      <trkpt lat="47.34092" lon="-2.3227">
        <ele>5.5999999046326</ele>
        <time>2019-11-10T09:39:18.000Z</time>
      </trkpt>
      <trkpt lat="47.34103" lon="-2.32308">
        <ele>5.5999999046326</ele>
        <time>2019-11-10T09:39:24.000Z</time>
      </trkpt>
      <trkpt lat="47.34105" lon="-2.32315">
        <ele>5.5999999046326</ele>
        <time>2019-11-10T09:39:25.000Z</time>
      </trkpt>
      <trkpt lat="47.34115" lon="-2.32348">
        <ele>6</ele>
        <time>2019-11-10T09:39:30.000Z</time>
      </trkpt>
      <trkpt lat="47.34117" lon="-2.32355">
        <ele>6.4000000953674</ele>
        <time>2019-11-10T09:39:31.000Z</time>
      </trkpt>
      <trkpt lat="47.34118" lon="-2.32362">
        <ele>6.8000001907349</ele>
        <time>2019-11-10T09:39:32.000Z</time>
      </trkpt>
      <trkpt lat="47.3412" lon="-2.32368">
        <ele>7.1999998092651</ele>
        <time>2019-11-10T09:39:33.000Z</time>
      </trkpt>
      <trkpt lat="47.34122" lon="-2.32374">
        <ele>7.5999999046326</ele>
        <time>2019-11-10T09:39:34.000Z</time>
      </trkpt>
      <trkpt lat="47.34126" lon="-2.32387">
        <ele>7.5999999046326</ele>
        <time>2019-11-10T09:39:36.000Z</time>
      </trkpt>
      <trkpt lat="47.34139" lon="-2.32438">
        <ele>7.5999999046326</ele>
        <time>2019-11-10T09:39:43.000Z</time>
      </trkpt>
      <trkpt lat="47.34143" lon="-2.32452">
        <ele>8</ele>
        <time>2019-11-10T09:39:45.000Z</time>
      </trkpt>
      <trkpt lat="47.34145" lon="-2.32459">
        <ele>8.3999996185303</ele>
        <time>2019-11-10T09:39:46.000Z</time>
      </trkpt>
      <trkpt lat="47.34147" lon="-2.32466">
        <ele>8.8000001907349</ele>
        <time>2019-11-10T09:39:47.000Z</time>
      </trkpt>
      <trkpt lat="47.34149" lon="-2.32472">
        <ele>9.1999998092651</ele>
        <time>2019-11-10T09:39:48.000Z</time>
      </trkpt>
      <trkpt lat="47.3415" lon="-2.32478">
        <ele>9.6000003814697</ele>
        <time>2019-11-10T09:39:49.000Z</time>
      </trkpt>
      <trkpt lat="47.34155" lon="-2.32507">
        <ele>9.6000003814697</ele>
        <time>2019-11-10T09:39:54.000Z</time>
      </trkpt>
      <trkpt lat="47.34159" lon="-2.32544">
        <ele>9.6000003814697</ele>
        <time>2019-11-10T09:40:00.000Z</time>
      </trkpt>
      <trkpt lat="47.34164" lon="-2.32573">
        <ele>9.6000003814697</ele>
        <time>2019-11-10T09:40:06.000Z</time>
      </trkpt>
      <trkpt lat="47.34167" lon="-2.32576">
        <ele>9.6000003814697</ele>
        <time>2019-11-10T09:40:07.000Z</time>
      </trkpt>
      <trkpt lat="47.34174" lon="-2.32576">
        <ele>9.6000003814697</ele>
        <time>2019-11-10T09:40:09.000Z</time>
      </trkpt>
      <trkpt lat="47.34182" lon="-2.32574">
        <ele>9.6000003814697</ele>
        <time>2019-11-10T09:40:11.000Z</time>
      </trkpt>
      <trkpt lat="47.34204" lon="-2.32571">
        <ele>9.6000003814697</ele>
        <time>2019-11-10T09:40:16.000Z</time>
      </trkpt>
      <trkpt lat="47.34209" lon="-2.3257">
        <ele>9.6000003814697</ele>
        <time>2019-11-10T09:40:17.000Z</time>
      </trkpt>
      <trkpt lat="47.34226" lon="-2.32566">
        <ele>9.6000003814697</ele>
        <time>2019-11-10T09:40:21.000Z</time>
      </trkpt>
      <trkpt lat="47.34238" lon="-2.32563">
        <ele>9.6000003814697</ele>
        <time>2019-11-10T09:40:24.000Z</time>
      </trkpt>
      <trkpt lat="47.34251" lon="-2.32561">
        <ele>9.6000003814697</ele>
        <time>2019-11-10T09:40:27.000Z</time>
      </trkpt>
      <trkpt lat="47.34276" lon="-2.32555">
        <ele>9.6000003814697</ele>
        <time>2019-11-10T09:40:32.000Z</time>
      </trkpt>
      <trkpt lat="47.34311" lon="-2.32546">
        <ele>9.6000003814697</ele>
        <time>2019-11-10T09:40:38.000Z</time>
      </trkpt>
      <trkpt lat="47.34327" lon="-2.32538">
        <ele>9.6000003814697</ele>
        <time>2019-11-10T09:40:41.000Z</time>
      </trkpt>
      <trkpt lat="47.34342" lon="-2.32523">
        <ele>9.6000003814697</ele>
        <time>2019-11-10T09:40:44.000Z</time>
      </trkpt>
      <trkpt lat="47.34347" lon="-2.32517">
        <ele>9.6000003814697</ele>
        <time>2019-11-10T09:40:45.000Z</time>
      </trkpt>
      <trkpt lat="47.34351" lon="-2.3251">
        <ele>9.6000003814697</ele>
        <time>2019-11-10T09:40:46.000Z</time>
      </trkpt>
      <trkpt lat="47.3436" lon="-2.32495">
        <ele>9.1999998092651</ele>
        <time>2019-11-10T09:40:48.000Z</time>
      </trkpt>
      <trkpt lat="47.34364" lon="-2.32488">
        <ele>8.8000001907349</ele>
        <time>2019-11-10T09:40:49.000Z</time>
      </trkpt>
      <trkpt lat="47.34367" lon="-2.3248">
        <ele>8.3999996185303</ele>
        <time>2019-11-10T09:40:50.000Z</time>
      </trkpt>
      <trkpt lat="47.34371" lon="-2.32473">
        <ele>8</ele>
        <time>2019-11-10T09:40:51.000Z</time>
      </trkpt>
      <trkpt lat="47.34375" lon="-2.32465">
        <ele>7.5999999046326</ele>
        <time>2019-11-10T09:40:52.000Z</time>
      </trkpt>
      <trkpt lat="47.34391" lon="-2.32434">
        <ele>7.5999999046326</ele>
        <time>2019-11-10T09:40:56.000Z</time>
      </trkpt>
      <trkpt lat="47.34416" lon="-2.32397">
        <ele>7.5999999046326</ele>
        <time>2019-11-10T09:41:02.000Z</time>
      </trkpt>
      <trkpt lat="47.34439" lon="-2.32371">
        <ele>7.5999999046326</ele>
        <time>2019-11-10T09:41:07.000Z</time>
      </trkpt>
      <trkpt lat="47.34444" lon="-2.32367">
        <ele>7.5999999046326</ele>
        <time>2019-11-10T09:41:08.000Z</time>
      </trkpt>
      <trkpt lat="47.34449" lon="-2.32362">
        <ele>7.5999999046326</ele>
        <time>2019-11-10T09:41:09.000Z</time>
      </trkpt>
      <trkpt lat="47.34466" lon="-2.32343">
        <ele>7.5999999046326</ele>
        <time>2019-11-10T09:41:13.000Z</time>
      </trkpt>
      <trkpt lat="47.34502" lon="-2.32305">
        <ele>7.5999999046326</ele>
        <time>2019-11-10T09:41:20.000Z</time>
      </trkpt>
      <trkpt lat="47.34543" lon="-2.32269">
        <ele>7.5999999046326</ele>
        <time>2019-11-10T09:41:27.000Z</time>
      </trkpt>
      <trkpt lat="47.34586" lon="-2.32233">
        <ele>7.5999999046326</ele>
        <time>2019-11-10T09:41:34.000Z</time>
      </trkpt>
      <trkpt lat="47.34613" lon="-2.3221">
        <ele>7.1999998092651</ele>
        <time>2019-11-10T09:41:39.000Z</time>
      </trkpt>
      <trkpt lat="47.34618" lon="-2.32206">
        <ele>6.8000001907349</ele>
        <time>2019-11-10T09:41:40.000Z</time>
      </trkpt>
      <trkpt lat="47.34624" lon="-2.322">
        <ele>5.8000001907349</ele>
        <time>2019-11-10T09:41:41.000Z</time>
      </trkpt>
      <trkpt lat="47.34629" lon="-2.32195">
        <ele>5.4000000953674</ele>
        <time>2019-11-10T09:41:42.000Z</time>
      </trkpt>
      <trkpt lat="47.34647" lon="-2.32179">
        <ele>5.4000000953674</ele>
        <time>2019-11-10T09:41:45.000Z</time>
      </trkpt>
      <trkpt lat="47.34665" lon="-2.32163">
        <ele>5</ele>
        <time>2019-11-10T09:41:48.000Z</time>
      </trkpt>
      <trkpt lat="47.34671" lon="-2.32159">
        <ele>4.4000000953674</ele>
        <time>2019-11-10T09:41:49.000Z</time>
      </trkpt>
      <trkpt lat="47.34676" lon="-2.32154">
        <ele>4</ele>
        <time>2019-11-10T09:41:50.000Z</time>
      </trkpt>
      <trkpt lat="47.34682" lon="-2.32149">
        <ele>3.5999999046326</ele>
        <time>2019-11-10T09:41:51.000Z</time>
      </trkpt>
      <trkpt lat="47.34687" lon="-2.32144">
        <ele>3</ele>
        <time>2019-11-10T09:41:52.000Z</time>
      </trkpt>
      <trkpt lat="47.34692" lon="-2.3214">
        <ele>3</ele>
        <time>2019-11-10T09:41:53.000Z</time>
      </trkpt>
      <trkpt lat="47.34725" lon="-2.32115">
        <ele>3</ele>
        <time>2019-11-10T09:41:59.000Z</time>
      </trkpt>
      <trkpt lat="47.3473" lon="-2.32113">
        <ele>3</ele>
        <time>2019-11-10T09:42:00.000Z</time>
      </trkpt>
      <trkpt lat="47.34741" lon="-2.32118">
        <ele>3</ele>
        <time>2019-11-10T09:42:02.000Z</time>
      </trkpt>
      <trkpt lat="47.34752" lon="-2.32136">
        <ele>3</ele>
        <time>2019-11-10T09:42:05.000Z</time>
      </trkpt>
      <trkpt lat="47.34756" lon="-2.32143">
        <ele>2.5999999046326</ele>
        <time>2019-11-10T09:42:06.000Z</time>
      </trkpt>
      <trkpt lat="47.34759" lon="-2.3215">
        <ele>2.2000000476837</ele>
        <time>2019-11-10T09:42:07.000Z</time>
      </trkpt>
      <trkpt lat="47.34762" lon="-2.32156">
        <ele>1.7999999523163</ele>
        <time>2019-11-10T09:42:08.000Z</time>
      </trkpt>
      <trkpt lat="47.34765" lon="-2.32163">
        <ele>1.3999999761581</ele>
        <time>2019-11-10T09:42:09.000Z</time>
      </trkpt>
      <trkpt lat="47.34768" lon="-2.3217">
        <ele>1</ele>
        <time>2019-11-10T09:42:10.000Z</time>
      </trkpt>
      <trkpt lat="47.34771" lon="-2.32176">
        <ele>1</ele>
        <time>2019-11-10T09:42:11.000Z</time>
      </trkpt>
      <trkpt lat="47.34778" lon="-2.32187">
        <ele>1</ele>
        <time>2019-11-10T09:42:13.000Z</time>
      </trkpt>
      <trkpt lat="47.34785" lon="-2.32197">
        <ele>1</ele>
        <time>2019-11-10T09:42:15.000Z</time>
      </trkpt>
      <trkpt lat="47.34794" lon="-2.32213">
        <ele>1</ele>
        <time>2019-11-10T09:42:18.000Z</time>
      </trkpt>
      <trkpt lat="47.34798" lon="-2.32218">
        <ele>1</ele>
        <time>2019-11-10T09:42:19.000Z</time>
      </trkpt>
      <trkpt lat="47.34801" lon="-2.32223">
        <ele>1</ele>
        <time>2019-11-10T09:42:20.000Z</time>
      </trkpt>
      <trkpt lat="47.34815" lon="-2.32241">
        <ele>1</ele>
        <time>2019-11-10T09:42:25.000Z</time>
      </trkpt>
      <trkpt lat="47.34816" lon="-2.32244">
        <ele>1</ele>
        <time>2019-11-10T09:42:26.000Z</time>
      </trkpt>
      <trkpt lat="47.34819" lon="-2.32251">
        <ele>1</ele>
        <time>2019-11-10T09:42:29.000Z</time>
      </trkpt>
      <trkpt lat="47.34825" lon="-2.3226">
        <ele>1</ele>
        <time>2019-11-10T09:42:34.000Z</time>
      </trkpt>
      <trkpt lat="47.34827" lon="-2.32262">
        <ele>1</ele>
        <time>2019-11-10T09:42:36.000Z</time>
      </trkpt>
      <trkpt lat="47.34831" lon="-2.32269">
        <ele>1</ele>
        <time>2019-11-10T09:42:39.000Z</time>
      </trkpt>
      <trkpt lat="47.34841" lon="-2.32279">
        <ele>1</ele>
        <time>2019-11-10T09:42:44.000Z</time>
      </trkpt>
      <trkpt lat="47.34853" lon="-2.32293">
        <ele>1</ele>
        <time>2019-11-10T09:42:48.000Z</time>
      </trkpt>
      <trkpt lat="47.34867" lon="-2.32318">
        <ele>1</ele>
        <time>2019-11-10T09:42:55.000Z</time>
      </trkpt>
      <trkpt lat="47.34861" lon="-2.32339">
        <ele>1</ele>
        <time>2019-11-10T09:42:59.000Z</time>
      </trkpt>
      <trkpt lat="47.34852" lon="-2.32357">
        <ele>1</ele>
        <time>2019-11-10T09:43:04.000Z</time>
      </trkpt>
      <trkpt lat="47.34841" lon="-2.32377">
        <ele>1</ele>
        <time>2019-11-10T09:43:09.000Z</time>
      </trkpt>
      <trkpt lat="47.3483" lon="-2.32396">
        <ele>1</ele>
        <time>2019-11-10T09:43:14.000Z</time>
      </trkpt>
      <trkpt lat="47.34819" lon="-2.32415">
        <ele>1</ele>
        <time>2019-11-10T09:43:19.000Z</time>
      </trkpt>
      <trkpt lat="47.3481" lon="-2.32432">
        <ele>1</ele>
        <time>2019-11-10T09:43:24.000Z</time>
      </trkpt>
      <trkpt lat="47.34809" lon="-2.32435">
        <ele>1</ele>
        <time>2019-11-10T09:43:25.000Z</time>
      </trkpt>
      <trkpt lat="47.34797" lon="-2.32452">
        <ele>1</ele>
        <time>2019-11-10T09:43:29.000Z</time>
      </trkpt>
      <trkpt lat="47.34793" lon="-2.32456">
        <ele>1</ele>
        <time>2019-11-10T09:43:30.000Z</time>
      </trkpt>
      <trkpt lat="47.34774" lon="-2.32472">
        <ele>1</ele>
        <time>2019-11-10T09:43:35.000Z</time>
      </trkpt>
      <trkpt lat="47.34758" lon="-2.32484">
        <ele>1</ele>
        <time>2019-11-10T09:43:40.000Z</time>
      </trkpt>
      <trkpt lat="47.34753" lon="-2.32486">
        <ele>1</ele>
        <time>2019-11-10T09:43:42.000Z</time>
      </trkpt>
      <trkpt lat="47.34748" lon="-2.32487">
        <ele>1</ele>
        <time>2019-11-10T09:43:44.000Z</time>
      </trkpt>
      <trkpt lat="47.34744" lon="-2.3249">
        <ele>1</ele>
        <time>2019-11-10T09:43:47.000Z</time>
      </trkpt>
      <trkpt lat="47.34741" lon="-2.32493">
        <ele>1</ele>
        <time>2019-11-10T09:43:49.000Z</time>
      </trkpt>
      <trkpt lat="47.34726" lon="-2.32498">
        <ele>1</ele>
        <time>2019-11-10T09:43:53.000Z</time>
      </trkpt>
      <trkpt lat="47.3471" lon="-2.3251">
        <ele>1</ele>
        <time>2019-11-10T09:43:57.000Z</time>
      </trkpt>
      <trkpt lat="47.34704" lon="-2.32513">
        <ele>1</ele>
        <time>2019-11-10T09:43:59.000Z</time>
      </trkpt>
      <trkpt lat="47.34699" lon="-2.32515">
        <ele>1</ele>
        <time>2019-11-10T09:44:01.000Z</time>
      </trkpt>
      <trkpt lat="47.34688" lon="-2.32514">
        <ele>1</ele>
        <time>2019-11-10T09:44:05.000Z</time>
      </trkpt>
      <trkpt lat="47.34685" lon="-2.32514">
        <ele>1</ele>
        <time>2019-11-10T09:44:06.000Z</time>
      </trkpt>
      <trkpt lat="47.34676" lon="-2.32525">
        <ele>1</ele>
        <time>2019-11-10T09:44:10.000Z</time>
      </trkpt>
      <trkpt lat="47.34674" lon="-2.32529">
        <ele>1</ele>
        <time>2019-11-10T09:44:11.000Z</time>
      </trkpt>
      <trkpt lat="47.3467" lon="-2.32535">
        <ele>1</ele>
        <time>2019-11-10T09:44:13.000Z</time>
      </trkpt>
      <trkpt lat="47.34667" lon="-2.32542">
        <ele>1</ele>
        <time>2019-11-10T09:44:15.000Z</time>
      </trkpt>
      <trkpt lat="47.34658" lon="-2.32562">
        <ele>1</ele>
        <time>2019-11-10T09:44:21.000Z</time>
      </trkpt>
      <trkpt lat="47.34645" lon="-2.32587">
        <ele>1</ele>
        <time>2019-11-10T09:44:27.000Z</time>
      </trkpt>
      <trkpt lat="47.34636" lon="-2.32597">
        <ele>1</ele>
        <time>2019-11-10T09:44:31.000Z</time>
      </trkpt>
      <trkpt lat="47.34624" lon="-2.32617">
        <ele>1</ele>
        <time>2019-11-10T09:44:37.000Z</time>
      </trkpt>
      <trkpt lat="47.34607" lon="-2.32638">
        <ele>1</ele>
        <time>2019-11-10T09:44:42.000Z</time>
      </trkpt>
      <trkpt lat="47.34603" lon="-2.32642">
        <ele>1.3999999761581</ele>
        <time>2019-11-10T09:44:43.000Z</time>
      </trkpt>
      <trkpt lat="47.346" lon="-2.32647">
        <ele>1.7999999523163</ele>
        <time>2019-11-10T09:44:44.000Z</time>
      </trkpt>
      <trkpt lat="47.34598" lon="-2.32651">
        <ele>2.2000000476837</ele>
        <time>2019-11-10T09:44:45.000Z</time>
      </trkpt>
      <trkpt lat="47.34595" lon="-2.32653">
        <ele>2.5999999046326</ele>
        <time>2019-11-10T09:44:46.000Z</time>
      </trkpt>
      <trkpt lat="47.34592" lon="-2.32656">
        <ele>3.2000000476837</ele>
        <time>2019-11-10T09:44:47.000Z</time>
      </trkpt>
      <trkpt lat="47.34572" lon="-2.32674">
        <ele>3.5999999046326</ele>
        <time>2019-11-10T09:44:53.000Z</time>
      </trkpt>
      <trkpt lat="47.34569" lon="-2.32677">
        <ele>4</ele>
        <time>2019-11-10T09:44:54.000Z</time>
      </trkpt>
      <trkpt lat="47.34565" lon="-2.3268">
        <ele>4.4000000953674</ele>
        <time>2019-11-10T09:44:55.000Z</time>
      </trkpt>
      <trkpt lat="47.34561" lon="-2.32683">
        <ele>4.8000001907349</ele>
        <time>2019-11-10T09:44:56.000Z</time>
      </trkpt>
      <trkpt lat="47.34557" lon="-2.32686">
        <ele>5.1999998092651</ele>
        <time>2019-11-10T09:44:57.000Z</time>
      </trkpt>
      <trkpt lat="47.34541" lon="-2.32698">
        <ele>5.5999999046326</ele>
        <time>2019-11-10T09:45:01.000Z</time>
      </trkpt>
      <trkpt lat="47.34537" lon="-2.32701">
        <ele>6</ele>
        <time>2019-11-10T09:45:02.000Z</time>
      </trkpt>
      <trkpt lat="47.34532" lon="-2.32704">
        <ele>6.4000000953674</ele>
        <time>2019-11-10T09:45:03.000Z</time>
      </trkpt>
      <trkpt lat="47.34528" lon="-2.32707">
        <ele>6.8000001907349</ele>
        <time>2019-11-10T09:45:04.000Z</time>
      </trkpt>
      <trkpt lat="47.34523" lon="-2.32711">
        <ele>7.1999998092651</ele>
        <time>2019-11-10T09:45:05.000Z</time>
      </trkpt>
      <trkpt lat="47.3452" lon="-2.32714">
        <ele>7.1999998092651</ele>
        <time>2019-11-10T09:45:06.000Z</time>
      </trkpt>
      <trkpt lat="47.34516" lon="-2.32716">
        <ele>7.1999998092651</ele>
        <time>2019-11-10T09:45:07.000Z</time>
      </trkpt>
      <trkpt lat="47.345" lon="-2.32727">
        <ele>7.1999998092651</ele>
        <time>2019-11-10T09:45:11.000Z</time>
      </trkpt>
      <trkpt lat="47.34496" lon="-2.3273">
        <ele>7.1999998092651</ele>
        <time>2019-11-10T09:45:12.000Z</time>
      </trkpt>
      <trkpt lat="47.34483" lon="-2.32737">
        <ele>7.1999998092651</ele>
        <time>2019-11-10T09:45:15.000Z</time>
      </trkpt>
      <trkpt lat="47.34479" lon="-2.32739">
        <ele>7.1999998092651</ele>
        <time>2019-11-10T09:45:16.000Z</time>
      </trkpt>
      <trkpt lat="47.34466" lon="-2.32746">
        <ele>7.1999998092651</ele>
        <time>2019-11-10T09:45:19.000Z</time>
      </trkpt>
      <trkpt lat="47.3446" lon="-2.32755">
        <ele>7.1999998092651</ele>
        <time>2019-11-10T09:45:21.000Z</time>
      </trkpt>
      <trkpt lat="47.34455" lon="-2.32768">
        <ele>7.1999998092651</ele>
        <time>2019-11-10T09:45:23.000Z</time>
      </trkpt>
      <trkpt lat="47.34455" lon="-2.32784">
        <ele>7.1999998092651</ele>
        <time>2019-11-10T09:45:25.000Z</time>
      </trkpt>
      <trkpt lat="47.3446" lon="-2.32817">
        <ele>6.8000001907349</ele>
        <time>2019-11-10T09:45:29.000Z</time>
      </trkpt>
      <trkpt lat="47.34459" lon="-2.32823">
        <ele>6.1999998092651</ele>
        <time>2019-11-10T09:45:30.000Z</time>
      </trkpt>
      <trkpt lat="47.34458" lon="-2.32829">
        <ele>5.8000001907349</ele>
        <time>2019-11-10T09:45:31.000Z</time>
      </trkpt>
      <trkpt lat="47.34456" lon="-2.32833">
        <ele>5.1999998092651</ele>
        <time>2019-11-10T09:45:32.000Z</time>
      </trkpt>
      <trkpt lat="47.34454" lon="-2.32837">
        <ele>4.8000001907349</ele>
        <time>2019-11-10T09:45:33.000Z</time>
      </trkpt>
      <trkpt lat="47.34451" lon="-2.32839">
        <ele>4.1999998092651</ele>
        <time>2019-11-10T09:45:34.000Z</time>
      </trkpt>
      <trkpt lat="47.34448" lon="-2.32842">
        <ele>3.5999999046326</ele>
        <time>2019-11-10T09:45:35.000Z</time>
      </trkpt>
      <trkpt lat="47.34444" lon="-2.32844">
        <ele>3.2000000476837</ele>
        <time>2019-11-10T09:45:36.000Z</time>
      </trkpt>
      <trkpt lat="47.34438" lon="-2.32847">
        <ele>2.5999999046326</ele>
        <time>2019-11-10T09:45:37.000Z</time>
      </trkpt>
      <trkpt lat="47.3443" lon="-2.3285">
        <ele>2.5999999046326</ele>
        <time>2019-11-10T09:45:38.000Z</time>
      </trkpt>
      <trkpt lat="47.34419" lon="-2.32856">
        <ele>2.5999999046326</ele>
        <time>2019-11-10T09:45:40.000Z</time>
      </trkpt>
      <trkpt lat="47.34389" lon="-2.32876">
        <ele>2.5999999046326</ele>
        <time>2019-11-10T09:45:45.000Z</time>
      </trkpt>
      <trkpt lat="47.34364" lon="-2.32896">
        <ele>2.5999999046326</ele>
        <time>2019-11-10T09:45:50.000Z</time>
      </trkpt>
      <trkpt lat="47.34359" lon="-2.32901">
        <ele>2.5999999046326</ele>
        <time>2019-11-10T09:45:51.000Z</time>
      </trkpt>
      <trkpt lat="47.34356" lon="-2.32906">
        <ele>2.5999999046326</ele>
        <time>2019-11-10T09:45:52.000Z</time>
      </trkpt>
      <trkpt lat="47.34354" lon="-2.32918">
        <ele>2.5999999046326</ele>
        <time>2019-11-10T09:45:54.000Z</time>
      </trkpt>
      <trkpt lat="47.34356" lon="-2.32939">
        <ele>2.5999999046326</ele>
        <time>2019-11-10T09:45:57.000Z</time>
      </trkpt>
      <trkpt lat="47.34358" lon="-2.32946">
        <ele>2.5999999046326</ele>
        <time>2019-11-10T09:45:58.000Z</time>
      </trkpt>
      <trkpt lat="47.34365" lon="-2.32974">
        <ele>2.5999999046326</ele>
        <time>2019-11-10T09:46:02.000Z</time>
      </trkpt>
      <trkpt lat="47.3437" lon="-2.32999">
        <ele>2.5999999046326</ele>
        <time>2019-11-10T09:46:05.000Z</time>
      </trkpt>
      <trkpt lat="47.34368" lon="-2.33016">
        <ele>2.5999999046326</ele>
        <time>2019-11-10T09:46:07.000Z</time>
      </trkpt>
      <trkpt lat="47.34357" lon="-2.33034">
        <ele>2.5999999046326</ele>
        <time>2019-11-10T09:46:10.000Z</time>
      </trkpt>
      <trkpt lat="47.34341" lon="-2.33039">
        <ele>2.5999999046326</ele>
        <time>2019-11-10T09:46:13.000Z</time>
      </trkpt>
      <trkpt lat="47.34331" lon="-2.33045">
        <ele>2.5999999046326</ele>
        <time>2019-11-10T09:46:15.000Z</time>
      </trkpt>
      <trkpt lat="47.34316" lon="-2.33051">
        <ele>2.5999999046326</ele>
        <time>2019-11-10T09:46:18.000Z</time>
      </trkpt>
      <trkpt lat="47.34281" lon="-2.33062">
        <ele>2.5999999046326</ele>
        <time>2019-11-10T09:46:24.000Z</time>
      </trkpt>
      <trkpt lat="47.34271" lon="-2.33068">
        <ele>2.5999999046326</ele>
        <time>2019-11-10T09:46:26.000Z</time>
      </trkpt>
      <trkpt lat="47.34264" lon="-2.33077">
        <ele>2.5999999046326</ele>
        <time>2019-11-10T09:46:28.000Z</time>
      </trkpt>
      <trkpt lat="47.34257" lon="-2.33098">
        <ele>2.5999999046326</ele>
        <time>2019-11-10T09:46:31.000Z</time>
      </trkpt>
      <trkpt lat="47.34254" lon="-2.33106">
        <ele>2.5999999046326</ele>
        <time>2019-11-10T09:46:32.000Z</time>
      </trkpt>
      <trkpt lat="47.34237" lon="-2.33161">
        <ele>2.5999999046326</ele>
        <time>2019-11-10T09:46:39.000Z</time>
      </trkpt>
      <trkpt lat="47.34218" lon="-2.33217">
        <ele>2.5999999046326</ele>
        <time>2019-11-10T09:46:47.000Z</time>
      </trkpt>
      <trkpt lat="47.34208" lon="-2.33247">
        <ele>2.5999999046326</ele>
        <time>2019-11-10T09:46:52.000Z</time>
      </trkpt>
      <trkpt lat="47.34196" lon="-2.33281">
        <ele>2.5999999046326</ele>
        <time>2019-11-10T09:46:58.000Z</time>
      </trkpt>
      <trkpt lat="47.34189" lon="-2.33305">
        <ele>3.4000000953674</ele>
        <time>2019-11-10T09:47:02.000Z</time>
      </trkpt>
      <trkpt lat="47.34188" lon="-2.3331">
        <ele>3.7999999523163</ele>
        <time>2019-11-10T09:47:03.000Z</time>
      </trkpt>
      <trkpt lat="47.34186" lon="-2.33315">
        <ele>4.1999998092651</ele>
        <time>2019-11-10T09:47:04.000Z</time>
      </trkpt>
      <trkpt lat="47.34185" lon="-2.3332">
        <ele>4.8000001907349</ele>
        <time>2019-11-10T09:47:05.000Z</time>
      </trkpt>
      <trkpt lat="47.34176" lon="-2.33347">
        <ele>4.8000001907349</ele>
        <time>2019-11-10T09:47:10.000Z</time>
      </trkpt>
      <trkpt lat="47.34164" lon="-2.33386">
        <ele>4.8000001907349</ele>
        <time>2019-11-10T09:47:17.000Z</time>
      </trkpt>
      <trkpt lat="47.34153" lon="-2.33411">
        <ele>5.1999998092651</ele>
        <time>2019-11-10T09:47:22.000Z</time>
      </trkpt>
      <trkpt lat="47.3415" lon="-2.33416">
        <ele>5.5999999046326</ele>
        <time>2019-11-10T09:47:23.000Z</time>
      </trkpt>
      <trkpt lat="47.34147" lon="-2.3342">
        <ele>6</ele>
        <time>2019-11-10T09:47:24.000Z</time>
      </trkpt>
      <trkpt lat="47.34145" lon="-2.33425">
        <ele>6.4000000953674</ele>
        <time>2019-11-10T09:47:25.000Z</time>
      </trkpt>
      <trkpt lat="47.34142" lon="-2.33429">
        <ele>6.8000001907349</ele>
        <time>2019-11-10T09:47:26.000Z</time>
      </trkpt>
      <trkpt lat="47.34134" lon="-2.3344">
        <ele>6.8000001907349</ele>
        <time>2019-11-10T09:47:29.000Z</time>
      </trkpt>
      <trkpt lat="47.34125" lon="-2.33453">
        <ele>6.8000001907349</ele>
        <time>2019-11-10T09:47:34.000Z</time>
      </trkpt>
      <trkpt lat="47.34121" lon="-2.3346">
        <ele>6.8000001907349</ele>
        <time>2019-11-10T09:47:38.000Z</time>
      </trkpt>
      <trkpt lat="47.3412" lon="-2.33463">
        <ele>6.8000001907349</ele>
        <time>2019-11-10T09:47:39.000Z</time>
      </trkpt>
      <trkpt lat="47.3411" lon="-2.33477">
        <ele>6.8000001907349</ele>
        <time>2019-11-10T09:47:44.000Z</time>
      </trkpt>
      <trkpt lat="47.341" lon="-2.3349">
        <ele>6.8000001907349</ele>
        <time>2019-11-10T09:47:48.000Z</time>
      </trkpt>
      <trkpt lat="47.34087" lon="-2.33511">
        <ele>6.8000001907349</ele>
        <time>2019-11-10T09:47:53.000Z</time>
      </trkpt>
      <trkpt lat="47.34074" lon="-2.33538">
        <ele>6.8000001907349</ele>
        <time>2019-11-10T09:47:59.000Z</time>
      </trkpt>
      <trkpt lat="47.34054" lon="-2.33574">
        <ele>6.8000001907349</ele>
        <time>2019-11-10T09:48:06.000Z</time>
      </trkpt>
      <trkpt lat="47.34039" lon="-2.33601">
        <ele>6.8000001907349</ele>
        <time>2019-11-10T09:48:11.000Z</time>
      </trkpt>
      <trkpt lat="47.34034" lon="-2.3361">
        <ele>6.8000001907349</ele>
        <time>2019-11-10T09:48:12.000Z</time>
      </trkpt>
      <trkpt lat="47.34027" lon="-2.33622">
        <ele>7.1999998092651</ele>
        <time>2019-11-10T09:48:14.000Z</time>
      </trkpt>
      <trkpt lat="47.34024" lon="-2.33628">
        <ele>7.5999999046326</ele>
        <time>2019-11-10T09:48:15.000Z</time>
      </trkpt>
      <trkpt lat="47.34021" lon="-2.33633">
        <ele>8.1999998092651</ele>
        <time>2019-11-10T09:48:16.000Z</time>
      </trkpt>
      <trkpt lat="47.34018" lon="-2.33639">
        <ele>8.6000003814697</ele>
        <time>2019-11-10T09:48:17.000Z</time>
      </trkpt>
      <trkpt lat="47.34014" lon="-2.33645">
        <ele>9</ele>
        <time>2019-11-10T09:48:18.000Z</time>
      </trkpt>
      <trkpt lat="47.34001" lon="-2.3367">
        <ele>9</ele>
        <time>2019-11-10T09:48:22.000Z</time>
      </trkpt>
      <trkpt lat="47.33998" lon="-2.33675">
        <ele>9</ele>
        <time>2019-11-10T09:48:23.000Z</time>
      </trkpt>
      <trkpt lat="47.33984" lon="-2.33699">
        <ele>9</ele>
        <time>2019-11-10T09:48:28.000Z</time>
      </trkpt>
      <trkpt lat="47.3397" lon="-2.33723">
        <ele>9</ele>
        <time>2019-11-10T09:48:33.000Z</time>
      </trkpt>
      <trkpt lat="47.33964" lon="-2.33735">
        <ele>9.3999996185303</ele>
        <time>2019-11-10T09:48:35.000Z</time>
      </trkpt>
      <trkpt lat="47.3396" lon="-2.33741">
        <ele>9.8000001907349</ele>
        <time>2019-11-10T09:48:36.000Z</time>
      </trkpt>
      <trkpt lat="47.33956" lon="-2.33749">
        <ele>10.199999809265</ele>
        <time>2019-11-10T09:48:37.000Z</time>
      </trkpt>
      <trkpt lat="47.33951" lon="-2.33756">
        <ele>10.60000038147</ele>
        <time>2019-11-10T09:48:38.000Z</time>
      </trkpt>
      <trkpt lat="47.33947" lon="-2.33763">
        <ele>11</ele>
        <time>2019-11-10T09:48:39.000Z</time>
      </trkpt>
      <trkpt lat="47.33934" lon="-2.33789">
        <ele>11</ele>
        <time>2019-11-10T09:48:43.000Z</time>
      </trkpt>
      <trkpt lat="47.3392" lon="-2.33812">
        <ele>11</ele>
        <time>2019-11-10T09:48:47.000Z</time>
      </trkpt>
      <trkpt lat="47.33902" lon="-2.33845">
        <ele>11</ele>
        <time>2019-11-10T09:48:54.000Z</time>
      </trkpt>
      <trkpt lat="47.33892" lon="-2.33859">
        <ele>11</ele>
        <time>2019-11-10T09:48:59.000Z</time>
      </trkpt>
      <trkpt lat="47.33881" lon="-2.33875">
        <ele>11</ele>
        <time>2019-11-10T09:49:05.000Z</time>
      </trkpt>
      <trkpt lat="47.33866" lon="-2.33894">
        <ele>11</ele>
        <time>2019-11-10T09:49:11.000Z</time>
      </trkpt>
      <trkpt lat="47.33852" lon="-2.33904">
        <ele>11.39999961853</ele>
        <time>2019-11-10T09:49:16.000Z</time>
      </trkpt>
      <trkpt lat="47.33849" lon="-2.33906">
        <ele>11.800000190735</ele>
        <time>2019-11-10T09:49:17.000Z</time>
      </trkpt>
      <trkpt lat="47.33845" lon="-2.33909">
        <ele>12.800000190735</ele>
        <time>2019-11-10T09:49:18.000Z</time>
      </trkpt>
      <trkpt lat="47.33842" lon="-2.33911">
        <ele>13.199999809265</ele>
        <time>2019-11-10T09:49:19.000Z</time>
      </trkpt>
      <trkpt lat="47.3383" lon="-2.33917">
        <ele>13.199999809265</ele>
        <time>2019-11-10T09:49:22.000Z</time>
      </trkpt>
      <trkpt lat="47.33813" lon="-2.3393">
        <ele>13.199999809265</ele>
        <time>2019-11-10T09:49:27.000Z</time>
      </trkpt>
      <trkpt lat="47.338" lon="-2.33938">
        <ele>13.199999809265</ele>
        <time>2019-11-10T09:49:31.000Z</time>
      </trkpt>
      <trkpt lat="47.33797" lon="-2.33941">
        <ele>13.199999809265</ele>
        <time>2019-11-10T09:49:32.000Z</time>
      </trkpt>
      <trkpt lat="47.33786" lon="-2.33953">
        <ele>13.199999809265</ele>
        <time>2019-11-10T09:49:37.000Z</time>
      </trkpt>
      <trkpt lat="47.33774" lon="-2.33962">
        <ele>13.199999809265</ele>
        <time>2019-11-10T09:49:42.000Z</time>
      </trkpt>
      <trkpt lat="47.33758" lon="-2.33976">
        <ele>13.199999809265</ele>
        <time>2019-11-10T09:49:48.000Z</time>
      </trkpt>
      <trkpt lat="47.33746" lon="-2.33987">
        <ele>13.199999809265</ele>
        <time>2019-11-10T09:49:53.000Z</time>
      </trkpt>
      <trkpt lat="47.33743" lon="-2.3399">
        <ele>13.199999809265</ele>
        <time>2019-11-10T09:49:54.000Z</time>
      </trkpt>
      <trkpt lat="47.33734" lon="-2.33998">
        <ele>13.199999809265</ele>
        <time>2019-11-10T09:49:57.000Z</time>
      </trkpt>
      <trkpt lat="47.33725" lon="-2.34004">
        <ele>13.199999809265</ele>
        <time>2019-11-10T09:50:00.000Z</time>
      </trkpt>
      <trkpt lat="47.33709" lon="-2.34016">
        <ele>13.199999809265</ele>
        <time>2019-11-10T09:50:05.000Z</time>
      </trkpt>
      <trkpt lat="47.33704" lon="-2.3402">
        <ele>13.60000038147</ele>
        <time>2019-11-10T09:50:07.000Z</time>
      </trkpt>
      <trkpt lat="47.33701" lon="-2.34022">
        <ele>14.39999961853</ele>
        <time>2019-11-10T09:50:08.000Z</time>
      </trkpt>
      <trkpt lat="47.33698" lon="-2.34024">
        <ele>14.800000190735</ele>
        <time>2019-11-10T09:50:09.000Z</time>
      </trkpt>
      <trkpt lat="47.33694" lon="-2.34027">
        <ele>15.199999809265</ele>
        <time>2019-11-10T09:50:10.000Z</time>
      </trkpt>
      <trkpt lat="47.33691" lon="-2.3403">
        <ele>15.199999809265</ele>
        <time>2019-11-10T09:50:11.000Z</time>
      </trkpt>
      <trkpt lat="47.33671" lon="-2.3405">
        <ele>15.199999809265</ele>
        <time>2019-11-10T09:50:17.000Z</time>
      </trkpt>
      <trkpt lat="47.33648" lon="-2.34067">
        <ele>15.199999809265</ele>
        <time>2019-11-10T09:50:23.000Z</time>
      </trkpt>
      <trkpt lat="47.33632" lon="-2.34081">
        <ele>15.199999809265</ele>
        <time>2019-11-10T09:50:28.000Z</time>
      </trkpt>
      <trkpt lat="47.33617" lon="-2.34091">
        <ele>16</ele>
        <time>2019-11-10T09:50:32.000Z</time>
      </trkpt>
      <trkpt lat="47.33614" lon="-2.34094">
        <ele>16.39999961853</ele>
        <time>2019-11-10T09:50:33.000Z</time>
      </trkpt>
      <trkpt lat="47.3361" lon="-2.34097">
        <ele>17</ele>
        <time>2019-11-10T09:50:34.000Z</time>
      </trkpt>
      <trkpt lat="47.33606" lon="-2.34101">
        <ele>17.39999961853</ele>
        <time>2019-11-10T09:50:35.000Z</time>
      </trkpt>
      <trkpt lat="47.33591" lon="-2.34113">
        <ele>17.39999961853</ele>
        <time>2019-11-10T09:50:39.000Z</time>
      </trkpt>
      <trkpt lat="47.33555" lon="-2.34141">
        <ele>17.39999961853</ele>
        <time>2019-11-10T09:50:47.000Z</time>
      </trkpt>
      <trkpt lat="47.33547" lon="-2.34147">
        <ele>17.39999961853</ele>
        <time>2019-11-10T09:50:49.000Z</time>
      </trkpt>
      <trkpt lat="47.33535" lon="-2.34156">
        <ele>17.39999961853</ele>
        <time>2019-11-10T09:50:52.000Z</time>
      </trkpt>
      <trkpt lat="47.33508" lon="-2.34175">
        <ele>17.39999961853</ele>
        <time>2019-11-10T09:50:58.000Z</time>
      </trkpt>
      <trkpt lat="47.33475" lon="-2.34201">
        <ele>17.39999961853</ele>
        <time>2019-11-10T09:51:06.000Z</time>
      </trkpt>
      <trkpt lat="47.33454" lon="-2.34226">
        <ele>17.39999961853</ele>
        <time>2019-11-10T09:51:12.000Z</time>
      </trkpt>
      <trkpt lat="47.33442" lon="-2.34245">
        <ele>17.39999961853</ele>
        <time>2019-11-10T09:51:16.000Z</time>
      </trkpt>
      <trkpt lat="47.33436" lon="-2.34256">
        <ele>17.39999961853</ele>
        <time>2019-11-10T09:51:18.000Z</time>
      </trkpt>
      <trkpt lat="47.3343" lon="-2.34273">
        <ele>17.39999961853</ele>
        <time>2019-11-10T09:51:21.000Z</time>
      </trkpt>
      <trkpt lat="47.33427" lon="-2.34279">
        <ele>18.200000762939</ele>
        <time>2019-11-10T09:51:22.000Z</time>
      </trkpt>
      <trkpt lat="47.33425" lon="-2.34286">
        <ele>18.60000038147</ele>
        <time>2019-11-10T09:51:23.000Z</time>
      </trkpt>
      <trkpt lat="47.33423" lon="-2.34292">
        <ele>19</ele>
        <time>2019-11-10T09:51:24.000Z</time>
      </trkpt>
      <trkpt lat="47.33421" lon="-2.34299">
        <ele>19.39999961853</ele>
        <time>2019-11-10T09:51:25.000Z</time>
      </trkpt>
      <trkpt lat="47.33411" lon="-2.34333">
        <ele>19.39999961853</ele>
        <time>2019-11-10T09:51:30.000Z</time>
      </trkpt>
      <trkpt lat="47.33399" lon="-2.34365">
        <ele>19.39999961853</ele>
        <time>2019-11-10T09:51:35.000Z</time>
      </trkpt>
      <trkpt lat="47.33395" lon="-2.34377">
        <ele>19.39999961853</ele>
        <time>2019-11-10T09:51:37.000Z</time>
      </trkpt>
      <trkpt lat="47.33389" lon="-2.34394">
        <ele>19.39999961853</ele>
        <time>2019-11-10T09:51:40.000Z</time>
      </trkpt>
      <trkpt lat="47.33385" lon="-2.34408">
        <ele>19.39999961853</ele>
        <time>2019-11-10T09:51:42.000Z</time>
      </trkpt>
      <trkpt lat="47.33373" lon="-2.34448">
        <ele>19.39999961853</ele>
        <time>2019-11-10T09:51:48.000Z</time>
      </trkpt>
      <trkpt lat="47.33368" lon="-2.3447">
        <ele>19.39999961853</ele>
        <time>2019-11-10T09:51:51.000Z</time>
      </trkpt>
      <trkpt lat="47.33368" lon="-2.34483">
        <ele>19.39999961853</ele>
        <time>2019-11-10T09:51:53.000Z</time>
      </trkpt>
      <trkpt lat="47.33372" lon="-2.34495">
        <ele>19.39999961853</ele>
        <time>2019-11-10T09:51:55.000Z</time>
      </trkpt>
      <trkpt lat="47.33378" lon="-2.34508">
        <ele>19.39999961853</ele>
        <time>2019-11-10T09:51:57.000Z</time>
      </trkpt>
      <trkpt lat="47.33394" lon="-2.34536">
        <ele>19.39999961853</ele>
        <time>2019-11-10T09:52:02.000Z</time>
      </trkpt>
      <trkpt lat="47.33396" lon="-2.34542">
        <ele>19.39999961853</ele>
        <time>2019-11-10T09:52:03.000Z</time>
      </trkpt>
      <trkpt lat="47.33404" lon="-2.34561">
        <ele>19.799999237061</ele>
        <time>2019-11-10T09:52:06.000Z</time>
      </trkpt>
      <trkpt lat="47.33407" lon="-2.34567">
        <ele>20.200000762939</ele>
        <time>2019-11-10T09:52:07.000Z</time>
      </trkpt>
      <trkpt lat="47.3341" lon="-2.34572">
        <ele>20.60000038147</ele>
        <time>2019-11-10T09:52:08.000Z</time>
      </trkpt>
      <trkpt lat="47.33413" lon="-2.34577">
        <ele>21</ele>
        <time>2019-11-10T09:52:09.000Z</time>
      </trkpt>
      <trkpt lat="47.33416" lon="-2.34582">
        <ele>21.60000038147</ele>
        <time>2019-11-10T09:52:10.000Z</time>
      </trkpt>
      <trkpt lat="47.33431" lon="-2.34611">
        <ele>21.60000038147</ele>
        <time>2019-11-10T09:52:15.000Z</time>
      </trkpt>
      <trkpt lat="47.33442" lon="-2.34632">
        <ele>22</ele>
        <time>2019-11-10T09:52:19.000Z</time>
      </trkpt>
      <trkpt lat="47.33445" lon="-2.34638">
        <ele>22.39999961853</ele>
        <time>2019-11-10T09:52:20.000Z</time>
      </trkpt>
      <trkpt lat="47.33448" lon="-2.34643">
        <ele>22.799999237061</ele>
        <time>2019-11-10T09:52:21.000Z</time>
      </trkpt>
      <trkpt lat="47.33452" lon="-2.34648">
        <ele>23.200000762939</ele>
        <time>2019-11-10T09:52:22.000Z</time>
      </trkpt>
      <trkpt lat="47.33455" lon="-2.34654">
        <ele>23.60000038147</ele>
        <time>2019-11-10T09:52:23.000Z</time>
      </trkpt>
      <trkpt lat="47.3347" lon="-2.34679">
        <ele>23.60000038147</ele>
        <time>2019-11-10T09:52:28.000Z</time>
      </trkpt>
      <trkpt lat="47.33494" lon="-2.34715">
        <ele>23.60000038147</ele>
        <time>2019-11-10T09:52:35.000Z</time>
      </trkpt>
      <trkpt lat="47.33497" lon="-2.34719">
        <ele>24.200000762939</ele>
        <time>2019-11-10T09:52:36.000Z</time>
      </trkpt>
      <trkpt lat="47.33501" lon="-2.34724">
        <ele>24.60000038147</ele>
        <time>2019-11-10T09:52:37.000Z</time>
      </trkpt>
      <trkpt lat="47.33505" lon="-2.34729">
        <ele>25</ele>
        <time>2019-11-10T09:52:38.000Z</time>
      </trkpt>
      <trkpt lat="47.33508" lon="-2.34734">
        <ele>25.39999961853</ele>
        <time>2019-11-10T09:52:39.000Z</time>
      </trkpt>
      <trkpt lat="47.33511" lon="-2.34739">
        <ele>25.799999237061</ele>
        <time>2019-11-10T09:52:40.000Z</time>
      </trkpt>
      <trkpt lat="47.33518" lon="-2.34749">
        <ele>25.799999237061</ele>
        <time>2019-11-10T09:52:42.000Z</time>
      </trkpt>
      <trkpt lat="47.33534" lon="-2.34771">
        <ele>25.799999237061</ele>
        <time>2019-11-10T09:52:47.000Z</time>
      </trkpt>
      <trkpt lat="47.3354" lon="-2.3478">
        <ele>25.799999237061</ele>
        <time>2019-11-10T09:52:49.000Z</time>
      </trkpt>
      <trkpt lat="47.33554" lon="-2.348">
        <ele>25.799999237061</ele>
        <time>2019-11-10T09:52:53.000Z</time>
      </trkpt>
      <trkpt lat="47.33561" lon="-2.34809">
        <ele>25.799999237061</ele>
        <time>2019-11-10T09:52:55.000Z</time>
      </trkpt>
      <trkpt lat="47.33576" lon="-2.34825">
        <ele>25.799999237061</ele>
        <time>2019-11-10T09:52:59.000Z</time>
      </trkpt>
      <trkpt lat="47.33597" lon="-2.34851">
        <ele>25.799999237061</ele>
        <time>2019-11-10T09:53:04.000Z</time>
      </trkpt>
      <trkpt lat="47.33601" lon="-2.34856">
        <ele>25.799999237061</ele>
        <time>2019-11-10T09:53:05.000Z</time>
      </trkpt>
      <trkpt lat="47.33628" lon="-2.3489">
        <ele>25.799999237061</ele>
        <time>2019-11-10T09:53:11.000Z</time>
      </trkpt>
      <trkpt lat="47.33657" lon="-2.34937">
        <ele>25.799999237061</ele>
        <time>2019-11-10T09:53:18.000Z</time>
      </trkpt>
      <trkpt lat="47.33666" lon="-2.34951">
        <ele>25.799999237061</ele>
        <time>2019-11-10T09:53:20.000Z</time>
      </trkpt>
      <trkpt lat="47.3368" lon="-2.34973">
        <ele>25.799999237061</ele>
        <time>2019-11-10T09:53:23.000Z</time>
      </trkpt>
      <trkpt lat="47.33699" lon="-2.35">
        <ele>25.799999237061</ele>
        <time>2019-11-10T09:53:28.000Z</time>
      </trkpt>
      <trkpt lat="47.33711" lon="-2.35">
        <ele>25.39999961853</ele>
        <time>2019-11-10T09:53:31.000Z</time>
      </trkpt>
      <trkpt lat="47.33716" lon="-2.34997">
        <ele>25</ele>
        <time>2019-11-10T09:53:32.000Z</time>
      </trkpt>
      <trkpt lat="47.3372" lon="-2.34993">
        <ele>24.60000038147</ele>
        <time>2019-11-10T09:53:33.000Z</time>
      </trkpt>
      <trkpt lat="47.33724" lon="-2.34989">
        <ele>24.200000762939</ele>
        <time>2019-11-10T09:53:34.000Z</time>
      </trkpt>
      <trkpt lat="47.33728" lon="-2.34985">
        <ele>23.799999237061</ele>
        <time>2019-11-10T09:53:35.000Z</time>
      </trkpt>
      <trkpt lat="47.33732" lon="-2.34981">
        <ele>23.799999237061</ele>
        <time>2019-11-10T09:53:36.000Z</time>
      </trkpt>
      <trkpt lat="47.33756" lon="-2.34963">
        <ele>23.799999237061</ele>
        <time>2019-11-10T09:53:41.000Z</time>
      </trkpt>
      <trkpt lat="47.33769" lon="-2.3495">
        <ele>23.799999237061</ele>
        <time>2019-11-10T09:53:44.000Z</time>
      </trkpt>
      <trkpt lat="47.33775" lon="-2.34942">
        <ele>23.799999237061</ele>
        <time>2019-11-10T09:53:46.000Z</time>
      </trkpt>
      <trkpt lat="47.33785" lon="-2.34926">
        <ele>23.39999961853</ele>
        <time>2019-11-10T09:53:50.000Z</time>
      </trkpt>
      <trkpt lat="47.33788" lon="-2.34921">
        <ele>23</ele>
        <time>2019-11-10T09:53:51.000Z</time>
      </trkpt>
      <trkpt lat="47.33792" lon="-2.34917">
        <ele>22.60000038147</ele>
        <time>2019-11-10T09:53:52.000Z</time>
      </trkpt>
      <trkpt lat="47.33794" lon="-2.34911">
        <ele>22.200000762939</ele>
        <time>2019-11-10T09:53:53.000Z</time>
      </trkpt>
      <trkpt lat="47.33797" lon="-2.34908">
        <ele>21.799999237061</ele>
        <time>2019-11-10T09:53:54.000Z</time>
      </trkpt>
      <trkpt lat="47.338" lon="-2.34902">
        <ele>21.799999237061</ele>
        <time>2019-11-10T09:53:56.000Z</time>
      </trkpt>
      <trkpt lat="47.33804" lon="-2.34894">
        <ele>21.799999237061</ele>
        <time>2019-11-10T09:53:59.000Z</time>
      </trkpt>
      <trkpt lat="47.33806" lon="-2.3489">
        <ele>21.799999237061</ele>
        <time>2019-11-10T09:54:01.000Z</time>
      </trkpt>
      <trkpt lat="47.33813" lon="-2.34879">
        <ele>21.799999237061</ele>
        <time>2019-11-10T09:54:06.000Z</time>
      </trkpt>
      <trkpt lat="47.33823" lon="-2.34868">
        <ele>21.799999237061</ele>
        <time>2019-11-10T09:54:12.000Z</time>
      </trkpt>
      <trkpt lat="47.33835" lon="-2.34855">
        <ele>21.799999237061</ele>
        <time>2019-11-10T09:54:16.000Z</time>
      </trkpt>
      <trkpt lat="47.33837" lon="-2.34853">
        <ele>21.799999237061</ele>
        <time>2019-11-10T09:54:17.000Z</time>
      </trkpt>
      <trkpt lat="47.33846" lon="-2.34841">
        <ele>21.799999237061</ele>
        <time>2019-11-10T09:54:22.000Z</time>
      </trkpt>
      <trkpt lat="47.33851" lon="-2.34827">
        <ele>21.799999237061</ele>
        <time>2019-11-10T09:54:27.000Z</time>
      </trkpt>
      <trkpt lat="47.33857" lon="-2.34806">
        <ele>21.799999237061</ele>
        <time>2019-11-10T09:54:32.000Z</time>
      </trkpt>
      <trkpt lat="47.33861" lon="-2.34787">
        <ele>21.799999237061</ele>
        <time>2019-11-10T09:54:37.000Z</time>
      </trkpt>
      <trkpt lat="47.33864" lon="-2.34765">
        <ele>21.799999237061</ele>
        <time>2019-11-10T09:54:41.000Z</time>
      </trkpt>
      <trkpt lat="47.33867" lon="-2.3475">
        <ele>21.799999237061</ele>
        <time>2019-11-10T09:54:45.000Z</time>
      </trkpt>
      <trkpt lat="47.33872" lon="-2.3472">
        <ele>21.799999237061</ele>
        <time>2019-11-10T09:54:51.000Z</time>
      </trkpt>
      <trkpt lat="47.33873" lon="-2.34689">
        <ele>21.799999237061</ele>
        <time>2019-11-10T09:54:58.000Z</time>
      </trkpt>
      <trkpt lat="47.33874" lon="-2.34679">
        <ele>22.200000762939</ele>
        <time>2019-11-10T09:55:00.000Z</time>
      </trkpt>
      <trkpt lat="47.33874" lon="-2.34674">
        <ele>22.60000038147</ele>
        <time>2019-11-10T09:55:01.000Z</time>
      </trkpt>
      <trkpt lat="47.33875" lon="-2.34669">
        <ele>23</ele>
        <time>2019-11-10T09:55:02.000Z</time>
      </trkpt>
      <trkpt lat="47.33875" lon="-2.34663">
        <ele>23.39999961853</ele>
        <time>2019-11-10T09:55:03.000Z</time>
      </trkpt>
      <trkpt lat="47.33876" lon="-2.34658">
        <ele>23.799999237061</ele>
        <time>2019-11-10T09:55:04.000Z</time>
      </trkpt>
      <trkpt lat="47.33877" lon="-2.34643">
        <ele>23.799999237061</ele>
        <time>2019-11-10T09:55:07.000Z</time>
      </trkpt>
      <trkpt lat="47.33885" lon="-2.34621">
        <ele>23.799999237061</ele>
        <time>2019-11-10T09:55:12.000Z</time>
      </trkpt>
      <trkpt lat="47.33893" lon="-2.34599">
        <ele>23.799999237061</ele>
        <time>2019-11-10T09:55:18.000Z</time>
      </trkpt>
      <trkpt lat="47.33901" lon="-2.34596">
        <ele>23.799999237061</ele>
        <time>2019-11-10T09:55:21.000Z</time>
      </trkpt>
      <trkpt lat="47.33907" lon="-2.34596">
        <ele>23.799999237061</ele>
        <time>2019-11-10T09:55:23.000Z</time>
      </trkpt>
      <trkpt lat="47.33923" lon="-2.34597">
        <ele>23.799999237061</ele>
        <time>2019-11-10T09:55:28.000Z</time>
      </trkpt>
      <trkpt lat="47.33928" lon="-2.34596">
        <ele>23.799999237061</ele>
        <time>2019-11-10T09:55:30.000Z</time>
      </trkpt>
      <trkpt lat="47.33941" lon="-2.34595">
        <ele>23.799999237061</ele>
        <time>2019-11-10T09:55:34.000Z</time>
      </trkpt>
      <trkpt lat="47.33962" lon="-2.34596">
        <ele>23.799999237061</ele>
        <time>2019-11-10T09:55:39.000Z</time>
      </trkpt>
      <trkpt lat="47.33965" lon="-2.34596">
        <ele>23.799999237061</ele>
        <time>2019-11-10T09:55:40.000Z</time>
      </trkpt>
      <trkpt lat="47.33969" lon="-2.34595">
        <ele>24.200000762939</ele>
        <time>2019-11-10T09:55:41.000Z</time>
      </trkpt>
      <trkpt lat="47.33974" lon="-2.34595">
        <ele>24.60000038147</ele>
        <time>2019-11-10T09:55:42.000Z</time>
      </trkpt>
      <trkpt lat="47.33977" lon="-2.34595">
        <ele>25</ele>
        <time>2019-11-10T09:55:43.000Z</time>
      </trkpt>
      <trkpt lat="47.33981" lon="-2.34595">
        <ele>25.39999961853</ele>
        <time>2019-11-10T09:55:44.000Z</time>
      </trkpt>
      <trkpt lat="47.33985" lon="-2.34596">
        <ele>25.799999237061</ele>
        <time>2019-11-10T09:55:45.000Z</time>
      </trkpt>
      <trkpt lat="47.33992" lon="-2.34599">
        <ele>25.799999237061</ele>
        <time>2019-11-10T09:55:47.000Z</time>
      </trkpt>
      <trkpt lat="47.34001" lon="-2.34601">
        <ele>25.799999237061</ele>
        <time>2019-11-10T09:55:49.000Z</time>
      </trkpt>
      <trkpt lat="47.3401" lon="-2.34602">
        <ele>25.799999237061</ele>
        <time>2019-11-10T09:55:51.000Z</time>
      </trkpt>
      <trkpt lat="47.34029" lon="-2.34596">
        <ele>25.799999237061</ele>
        <time>2019-11-10T09:55:56.000Z</time>
      </trkpt>
      <trkpt lat="47.34045" lon="-2.34587">
        <ele>25.39999961853</ele>
        <time>2019-11-10T09:56:00.000Z</time>
      </trkpt>
      <trkpt lat="47.34049" lon="-2.34584">
        <ele>25</ele>
        <time>2019-11-10T09:56:01.000Z</time>
      </trkpt>
      <trkpt lat="47.34054" lon="-2.34581">
        <ele>24.60000038147</ele>
        <time>2019-11-10T09:56:02.000Z</time>
      </trkpt>
      <trkpt lat="47.34058" lon="-2.34576">
        <ele>24.200000762939</ele>
        <time>2019-11-10T09:56:03.000Z</time>
      </trkpt>
      <trkpt lat="47.34062" lon="-2.34572">
        <ele>23.799999237061</ele>
        <time>2019-11-10T09:56:04.000Z</time>
      </trkpt>
      <trkpt lat="47.34065" lon="-2.34568">
        <ele>23.799999237061</ele>
        <time>2019-11-10T09:56:05.000Z</time>
      </trkpt>
      <trkpt lat="47.34073" lon="-2.34562">
        <ele>23.799999237061</ele>
        <time>2019-11-10T09:56:07.000Z</time>
      </trkpt>
      <trkpt lat="47.34082" lon="-2.34556">
        <ele>23.799999237061</ele>
        <time>2019-11-10T09:56:09.000Z</time>
      </trkpt>
      <trkpt lat="47.34113" lon="-2.34535">
        <ele>23.799999237061</ele>
        <time>2019-11-10T09:56:16.000Z</time>
      </trkpt>
      <trkpt lat="47.34132" lon="-2.34527">
        <ele>23.799999237061</ele>
        <time>2019-11-10T09:56:20.000Z</time>
      </trkpt>
      <trkpt lat="47.34141" lon="-2.34523">
        <ele>23.799999237061</ele>
        <time>2019-11-10T09:56:22.000Z</time>
      </trkpt>
      <trkpt lat="47.34173" lon="-2.34512">
        <ele>23.799999237061</ele>
        <time>2019-11-10T09:56:28.000Z</time>
      </trkpt>
      <trkpt lat="47.34184" lon="-2.34508">
        <ele>23.799999237061</ele>
        <time>2019-11-10T09:56:30.000Z</time>
      </trkpt>
      <trkpt lat="47.342" lon="-2.34502">
        <ele>23.799999237061</ele>
        <time>2019-11-10T09:56:33.000Z</time>
      </trkpt>
      <trkpt lat="47.34209" lon="-2.34496">
        <ele>23.799999237061</ele>
        <time>2019-11-10T09:56:35.000Z</time>
      </trkpt>
      <trkpt lat="47.34231" lon="-2.34483">
        <ele>23.799999237061</ele>
        <time>2019-11-10T09:56:40.000Z</time>
      </trkpt>
      <trkpt lat="47.3425" lon="-2.34475">
        <ele>23.799999237061</ele>
        <time>2019-11-10T09:56:44.000Z</time>
      </trkpt>
      <trkpt lat="47.34261" lon="-2.34472">
        <ele>23.799999237061</ele>
        <time>2019-11-10T09:56:46.000Z</time>
      </trkpt>
      <trkpt lat="47.34287" lon="-2.34468">
        <ele>23.799999237061</ele>
        <time>2019-11-10T09:56:51.000Z</time>
      </trkpt>
      <trkpt lat="47.34292" lon="-2.34469">
        <ele>23.799999237061</ele>
        <time>2019-11-10T09:56:52.000Z</time>
      </trkpt>
      <trkpt lat="47.34326" lon="-2.34464">
        <ele>23.799999237061</ele>
        <time>2019-11-10T09:56:59.000Z</time>
      </trkpt>
      <trkpt lat="47.34342" lon="-2.34457">
        <ele>23.799999237061</ele>
        <time>2019-11-10T09:57:02.000Z</time>
      </trkpt>
      <trkpt lat="47.34355" lon="-2.34448">
        <ele>23.799999237061</ele>
        <time>2019-11-10T09:57:05.000Z</time>
      </trkpt>
      <trkpt lat="47.34391" lon="-2.34428">
        <ele>23.799999237061</ele>
        <time>2019-11-10T09:57:12.000Z</time>
      </trkpt>
      <trkpt lat="47.34435" lon="-2.34408">
        <ele>23.799999237061</ele>
        <time>2019-11-10T09:57:20.000Z</time>
      </trkpt>
      <trkpt lat="47.34471" lon="-2.34396">
        <ele>23.799999237061</ele>
        <time>2019-11-10T09:57:26.000Z</time>
      </trkpt>
      <trkpt lat="47.34488" lon="-2.34386">
        <ele>23.799999237061</ele>
        <time>2019-11-10T09:57:29.000Z</time>
      </trkpt>
      <trkpt lat="47.34498" lon="-2.34376">
        <ele>23.799999237061</ele>
        <time>2019-11-10T09:57:31.000Z</time>
      </trkpt>
      <trkpt lat="47.34503" lon="-2.34371">
        <ele>23.799999237061</ele>
        <time>2019-11-10T09:57:32.000Z</time>
      </trkpt>
      <trkpt lat="47.34507" lon="-2.34364">
        <ele>23</ele>
        <time>2019-11-10T09:57:33.000Z</time>
      </trkpt>
      <trkpt lat="47.34511" lon="-2.34359">
        <ele>22.60000038147</ele>
        <time>2019-11-10T09:57:34.000Z</time>
      </trkpt>
      <trkpt lat="47.34515" lon="-2.34355">
        <ele>22.200000762939</ele>
        <time>2019-11-10T09:57:35.000Z</time>
      </trkpt>
      <trkpt lat="47.34519" lon="-2.34351">
        <ele>21.799999237061</ele>
        <time>2019-11-10T09:57:36.000Z</time>
      </trkpt>
      <trkpt lat="47.34532" lon="-2.34337">
        <ele>21.799999237061</ele>
        <time>2019-11-10T09:57:40.000Z</time>
      </trkpt>
      <trkpt lat="47.34553" lon="-2.34318">
        <ele>21.799999237061</ele>
        <time>2019-11-10T09:57:46.000Z</time>
      </trkpt>
      <trkpt lat="47.34572" lon="-2.34305">
        <ele>21.200000762939</ele>
        <time>2019-11-10T09:57:50.000Z</time>
      </trkpt>
      <trkpt lat="47.34578" lon="-2.34301">
        <ele>20.799999237061</ele>
        <time>2019-11-10T09:57:51.000Z</time>
      </trkpt>
      <trkpt lat="47.34583" lon="-2.34298">
        <ele>20.39999961853</ele>
        <time>2019-11-10T09:57:52.000Z</time>
      </trkpt>
      <trkpt lat="47.34588" lon="-2.34297">
        <ele>20</ele>
        <time>2019-11-10T09:57:53.000Z</time>
      </trkpt>
      <trkpt lat="47.34594" lon="-2.34296">
        <ele>19.60000038147</ele>
        <time>2019-11-10T09:57:54.000Z</time>
      </trkpt>
      <trkpt lat="47.34611" lon="-2.34297">
        <ele>19.60000038147</ele>
        <time>2019-11-10T09:57:57.000Z</time>
      </trkpt>
      <trkpt lat="47.34616" lon="-2.34297">
        <ele>19.200000762939</ele>
        <time>2019-11-10T09:57:58.000Z</time>
      </trkpt>
      <trkpt lat="47.34621" lon="-2.34296">
        <ele>18.799999237061</ele>
        <time>2019-11-10T09:57:59.000Z</time>
      </trkpt>
      <trkpt lat="47.34625" lon="-2.34294">
        <ele>18.200000762939</ele>
        <time>2019-11-10T09:58:00.000Z</time>
      </trkpt>
      <trkpt lat="47.3463" lon="-2.34291">
        <ele>17.799999237061</ele>
        <time>2019-11-10T09:58:01.000Z</time>
      </trkpt>
      <trkpt lat="47.34634" lon="-2.34286">
        <ele>17.39999961853</ele>
        <time>2019-11-10T09:58:02.000Z</time>
      </trkpt>
      <trkpt lat="47.34642" lon="-2.34276">
        <ele>17.39999961853</ele>
        <time>2019-11-10T09:58:04.000Z</time>
      </trkpt>
      <trkpt lat="47.34646" lon="-2.34271">
        <ele>17</ele>
        <time>2019-11-10T09:58:05.000Z</time>
      </trkpt>
      <trkpt lat="47.34651" lon="-2.34267">
        <ele>16.60000038147</ele>
        <time>2019-11-10T09:58:06.000Z</time>
      </trkpt>
      <trkpt lat="47.34656" lon="-2.34265">
        <ele>16.200000762939</ele>
        <time>2019-11-10T09:58:07.000Z</time>
      </trkpt>
      <trkpt lat="47.34662" lon="-2.34263">
        <ele>15.800000190735</ele>
        <time>2019-11-10T09:58:08.000Z</time>
      </trkpt>
      <trkpt lat="47.34669" lon="-2.34261">
        <ele>15.39999961853</ele>
        <time>2019-11-10T09:58:09.000Z</time>
      </trkpt>
      <trkpt lat="47.34691" lon="-2.34259">
        <ele>15.39999961853</ele>
        <time>2019-11-10T09:58:12.000Z</time>
      </trkpt>
      <trkpt lat="47.34727" lon="-2.34253">
        <ele>15.39999961853</ele>
        <time>2019-11-10T09:58:18.000Z</time>
      </trkpt>
      <trkpt lat="47.34763" lon="-2.34244">
        <ele>15.39999961853</ele>
        <time>2019-11-10T09:58:25.000Z</time>
      </trkpt>
      <trkpt lat="47.34775" lon="-2.3424">
        <ele>15.39999961853</ele>
        <time>2019-11-10T09:58:28.000Z</time>
      </trkpt>
      <trkpt lat="47.34782" lon="-2.34238">
        <ele>15.39999961853</ele>
        <time>2019-11-10T09:58:30.000Z</time>
      </trkpt>
      <trkpt lat="47.34806" lon="-2.34234">
        <ele>15.39999961853</ele>
        <time>2019-11-10T09:58:36.000Z</time>
      </trkpt>
      <trkpt lat="47.34813" lon="-2.34233">
        <ele>15.800000190735</ele>
        <time>2019-11-10T09:58:38.000Z</time>
      </trkpt>
      <trkpt lat="47.34816" lon="-2.34234">
        <ele>16.200000762939</ele>
        <time>2019-11-10T09:58:39.000Z</time>
      </trkpt>
      <trkpt lat="47.34819" lon="-2.34234">
        <ele>16.799999237061</ele>
        <time>2019-11-10T09:58:40.000Z</time>
      </trkpt>
      <trkpt lat="47.34822" lon="-2.34234">
        <ele>17.200000762939</ele>
        <time>2019-11-10T09:58:41.000Z</time>
      </trkpt>
      <trkpt lat="47.34825" lon="-2.34233">
        <ele>17.60000038147</ele>
        <time>2019-11-10T09:58:42.000Z</time>
      </trkpt>
      <trkpt lat="47.34839" lon="-2.34232">
        <ele>18</ele>
        <time>2019-11-10T09:58:47.000Z</time>
      </trkpt>
      <trkpt lat="47.34842" lon="-2.34233">
        <ele>18.39999961853</ele>
        <time>2019-11-10T09:58:48.000Z</time>
      </trkpt>
      <trkpt lat="47.34845" lon="-2.34234">
        <ele>18.799999237061</ele>
        <time>2019-11-10T09:58:49.000Z</time>
      </trkpt>
      <trkpt lat="47.34848" lon="-2.34234">
        <ele>19.200000762939</ele>
        <time>2019-11-10T09:58:50.000Z</time>
      </trkpt>
      <trkpt lat="47.34849" lon="-2.34235">
        <ele>19.60000038147</ele>
        <time>2019-11-10T09:58:51.000Z</time>
      </trkpt>
      <trkpt lat="47.3485" lon="-2.34236">
        <ele>19.60000038147</ele>
        <time>2019-11-10T09:58:52.000Z</time>
      </trkpt>
      <trkpt lat="47.34854" lon="-2.34235">
        <ele>20</ele>
        <time>2019-11-10T09:58:54.000Z</time>
      </trkpt>
      <trkpt lat="47.34856" lon="-2.34234">
        <ele>20.39999961853</ele>
        <time>2019-11-10T09:58:55.000Z</time>
      </trkpt>
      <trkpt lat="47.34858" lon="-2.34232">
        <ele>20.799999237061</ele>
        <time>2019-11-10T09:58:56.000Z</time>
      </trkpt>
      <trkpt lat="47.3486" lon="-2.34231">
        <ele>21.200000762939</ele>
        <time>2019-11-10T09:58:57.000Z</time>
      </trkpt>
      <trkpt lat="47.34862" lon="-2.34229">
        <ele>21.60000038147</ele>
        <time>2019-11-10T09:58:58.000Z</time>
      </trkpt>
      <trkpt lat="47.34866" lon="-2.34225">
        <ele>21.60000038147</ele>
        <time>2019-11-10T09:59:01.000Z</time>
      </trkpt>
      <trkpt lat="47.34871" lon="-2.34219">
        <ele>22</ele>
        <time>2019-11-10T09:59:04.000Z</time>
      </trkpt>
      <trkpt lat="47.34873" lon="-2.34217">
        <ele>22.39999961853</ele>
        <time>2019-11-10T09:59:05.000Z</time>
      </trkpt>
      <trkpt lat="47.34874" lon="-2.34215">
        <ele>22.799999237061</ele>
        <time>2019-11-10T09:59:06.000Z</time>
      </trkpt>
      <trkpt lat="47.34876" lon="-2.34214">
        <ele>23.39999961853</ele>
        <time>2019-11-10T09:59:07.000Z</time>
      </trkpt>
      <trkpt lat="47.34877" lon="-2.34212">
        <ele>23.799999237061</ele>
        <time>2019-11-10T09:59:08.000Z</time>
      </trkpt>
      <trkpt lat="47.34879" lon="-2.34211">
        <ele>23.799999237061</ele>
        <time>2019-11-10T09:59:09.000Z</time>
      </trkpt>
      <trkpt lat="47.34885" lon="-2.3421">
        <ele>24.200000762939</ele>
        <time>2019-11-10T09:59:13.000Z</time>
      </trkpt>
      <trkpt lat="47.34887" lon="-2.34209">
        <ele>24.60000038147</ele>
        <time>2019-11-10T09:59:14.000Z</time>
      </trkpt>
      <trkpt lat="47.34888" lon="-2.34208">
        <ele>25</ele>
        <time>2019-11-10T09:59:15.000Z</time>
      </trkpt>
      <trkpt lat="47.34889" lon="-2.34207">
        <ele>25.39999961853</ele>
        <time>2019-11-10T09:59:16.000Z</time>
      </trkpt>
      <trkpt lat="47.3489" lon="-2.34206">
        <ele>25.799999237061</ele>
        <time>2019-11-10T09:59:17.000Z</time>
      </trkpt>
      <trkpt lat="47.34891" lon="-2.34204">
        <ele>25.799999237061</ele>
        <time>2019-11-10T09:59:19.000Z</time>
      </trkpt>
      <trkpt lat="47.34893" lon="-2.34205">
        <ele>25.799999237061</ele>
        <time>2019-11-10T10:12:49.000Z</time>
      </trkpt>
      <trkpt lat="47.34907" lon="-2.34208">
        <ele>25.799999237061</ele>
        <time>2019-11-10T10:12:53.000Z</time>
      </trkpt>
      <trkpt lat="47.3491" lon="-2.34211">
        <ele>25.39999961853</ele>
        <time>2019-11-10T10:12:54.000Z</time>
      </trkpt>
      <trkpt lat="47.34912" lon="-2.34213">
        <ele>25</ele>
        <time>2019-11-10T10:12:55.000Z</time>
      </trkpt>
      <trkpt lat="47.34915" lon="-2.34216">
        <ele>24.60000038147</ele>
        <time>2019-11-10T10:12:56.000Z</time>
      </trkpt>
      <trkpt lat="47.34917" lon="-2.34221">
        <ele>24.200000762939</ele>
        <time>2019-11-10T10:12:57.000Z</time>
      </trkpt>
      <trkpt lat="47.3492" lon="-2.34226">
        <ele>23.799999237061</ele>
        <time>2019-11-10T10:12:58.000Z</time>
      </trkpt>
      <trkpt lat="47.34922" lon="-2.34231">
        <ele>23.799999237061</ele>
        <time>2019-11-10T10:12:59.000Z</time>
      </trkpt>
      <trkpt lat="47.34933" lon="-2.34256">
        <ele>23.799999237061</ele>
        <time>2019-11-10T10:13:03.000Z</time>
      </trkpt>
      <trkpt lat="47.34939" lon="-2.34271">
        <ele>23.39999961853</ele>
        <time>2019-11-10T10:13:05.000Z</time>
      </trkpt>
      <trkpt lat="47.34941" lon="-2.34279">
        <ele>23</ele>
        <time>2019-11-10T10:13:06.000Z</time>
      </trkpt>
      <trkpt lat="47.34944" lon="-2.34287">
        <ele>22.60000038147</ele>
        <time>2019-11-10T10:13:07.000Z</time>
      </trkpt>
      <trkpt lat="47.34946" lon="-2.34295">
        <ele>22.200000762939</ele>
        <time>2019-11-10T10:13:08.000Z</time>
      </trkpt>
      <trkpt lat="47.34949" lon="-2.34303">
        <ele>21.60000038147</ele>
        <time>2019-11-10T10:13:09.000Z</time>
      </trkpt>
      <trkpt lat="47.34951" lon="-2.3431">
        <ele>21.200000762939</ele>
        <time>2019-11-10T10:13:10.000Z</time>
      </trkpt>
      <trkpt lat="47.34953" lon="-2.34317">
        <ele>20.799999237061</ele>
        <time>2019-11-10T10:13:11.000Z</time>
      </trkpt>
      <trkpt lat="47.34954" lon="-2.34323">
        <ele>20.39999961853</ele>
        <time>2019-11-10T10:13:12.000Z</time>
      </trkpt>
      <trkpt lat="47.34957" lon="-2.34328">
        <ele>19.39999961853</ele>
        <time>2019-11-10T10:13:13.000Z</time>
      </trkpt>
      <trkpt lat="47.3496" lon="-2.34334">
        <ele>18.799999237061</ele>
        <time>2019-11-10T10:13:14.000Z</time>
      </trkpt>
      <trkpt lat="47.34963" lon="-2.34338">
        <ele>18.200000762939</ele>
        <time>2019-11-10T10:13:15.000Z</time>
      </trkpt>
      <trkpt lat="47.34965" lon="-2.34342">
        <ele>17.60000038147</ele>
        <time>2019-11-10T10:13:16.000Z</time>
      </trkpt>
      <trkpt lat="47.34967" lon="-2.34345">
        <ele>17</ele>
        <time>2019-11-10T10:13:17.000Z</time>
      </trkpt>
      <trkpt lat="47.34968" lon="-2.34348">
        <ele>16.39999961853</ele>
        <time>2019-11-10T10:13:18.000Z</time>
      </trkpt>
      <trkpt lat="47.34968" lon="-2.3435">
        <ele>15.60000038147</ele>
        <time>2019-11-10T10:13:19.000Z</time>
      </trkpt>
      <trkpt lat="47.34969" lon="-2.34351">
        <ele>15</ele>
        <time>2019-11-10T10:13:20.000Z</time>
      </trkpt>
      <trkpt lat="47.34969" lon="-2.34353">
        <ele>14.60000038147</ele>
        <time>2019-11-10T10:13:22.000Z</time>
      </trkpt>
      <trkpt lat="47.34969" lon="-2.34356">
        <ele>14.199999809265</ele>
        <time>2019-11-10T10:13:23.000Z</time>
      </trkpt>
      <trkpt lat="47.34969" lon="-2.34357">
        <ele>13.800000190735</ele>
        <time>2019-11-10T10:13:24.000Z</time>
      </trkpt>
      <trkpt lat="47.34968" lon="-2.34359">
        <ele>13.39999961853</ele>
        <time>2019-11-10T10:13:25.000Z</time>
      </trkpt>
      <trkpt lat="47.34967" lon="-2.34361">
        <ele>13</ele>
        <time>2019-11-10T10:13:26.000Z</time>
      </trkpt>
      <trkpt lat="47.34966" lon="-2.34363">
        <ele>13</ele>
        <time>2019-11-10T10:13:27.000Z</time>
      </trkpt>
      <trkpt lat="47.34958" lon="-2.34373">
        <ele>13</ele>
        <time>2019-11-10T10:13:32.000Z</time>
      </trkpt>
      <trkpt lat="47.34952" lon="-2.34373">
        <ele>13</ele>
        <time>2019-11-10T10:13:34.000Z</time>
      </trkpt>
      <trkpt lat="47.34944" lon="-2.34372">
        <ele>13</ele>
        <time>2019-11-10T10:13:37.000Z</time>
      </trkpt>
      <trkpt lat="47.34933" lon="-2.3437">
        <ele>13</ele>
        <time>2019-11-10T10:13:42.000Z</time>
      </trkpt>
      <trkpt lat="47.34921" lon="-2.34369">
        <ele>13</ele>
        <time>2019-11-10T10:13:47.000Z</time>
      </trkpt>
      <trkpt lat="47.34903" lon="-2.34375">
        <ele>13</ele>
        <time>2019-11-10T10:13:53.000Z</time>
      </trkpt>
      <trkpt lat="47.34889" lon="-2.34374">
        <ele>13</ele>
        <time>2019-11-10T10:13:59.000Z</time>
      </trkpt>
      <trkpt lat="47.34881" lon="-2.34374">
        <ele>13.800000190735</ele>
        <time>2019-11-10T10:14:02.000Z</time>
      </trkpt>
      <trkpt lat="47.34878" lon="-2.34376">
        <ele>14.199999809265</ele>
        <time>2019-11-10T10:14:03.000Z</time>
      </trkpt>
      <trkpt lat="47.34875" lon="-2.34376">
        <ele>14.60000038147</ele>
        <time>2019-11-10T10:14:04.000Z</time>
      </trkpt>
      <trkpt lat="47.34872" lon="-2.34375">
        <ele>15</ele>
        <time>2019-11-10T10:14:05.000Z</time>
      </trkpt>
      <trkpt lat="47.34861" lon="-2.34376">
        <ele>15</ele>
        <time>2019-11-10T10:14:09.000Z</time>
      </trkpt>
      <trkpt lat="47.34841" lon="-2.34377">
        <ele>15</ele>
        <time>2019-11-10T10:14:15.000Z</time>
      </trkpt>
      <trkpt lat="47.34824" lon="-2.34381">
        <ele>15</ele>
        <time>2019-11-10T10:14:20.000Z</time>
      </trkpt>
      <trkpt lat="47.34801" lon="-2.34384">
        <ele>15</ele>
        <time>2019-11-10T10:14:27.000Z</time>
      </trkpt>
      <trkpt lat="47.34784" lon="-2.34391">
        <ele>15</ele>
        <time>2019-11-10T10:14:33.000Z</time>
      </trkpt>
      <trkpt lat="47.34776" lon="-2.34406">
        <ele>15</ele>
        <time>2019-11-10T10:14:37.000Z</time>
      </trkpt>
      <trkpt lat="47.34762" lon="-2.34432">
        <ele>15</ele>
        <time>2019-11-10T10:14:44.000Z</time>
      </trkpt>
      <trkpt lat="47.34753" lon="-2.34455">
        <ele>14.60000038147</ele>
        <time>2019-11-10T10:14:49.000Z</time>
      </trkpt>
      <trkpt lat="47.34751" lon="-2.34459">
        <ele>14.199999809265</ele>
        <time>2019-11-10T10:14:50.000Z</time>
      </trkpt>
      <trkpt lat="47.34751" lon="-2.34462">
        <ele>13.800000190735</ele>
        <time>2019-11-10T10:14:51.000Z</time>
      </trkpt>
      <trkpt lat="47.3475" lon="-2.34466">
        <ele>13</ele>
        <time>2019-11-10T10:14:52.000Z</time>
      </trkpt>
      <trkpt lat="47.34748" lon="-2.34475">
        <ele>13</ele>
        <time>2019-11-10T10:14:54.000Z</time>
      </trkpt>
      <trkpt lat="47.34749" lon="-2.34479">
        <ele>13</ele>
        <time>2019-11-10T10:14:55.000Z</time>
      </trkpt>
      <trkpt lat="47.34748" lon="-2.34484">
        <ele>13</ele>
        <time>2019-11-10T10:14:57.000Z</time>
      </trkpt>
      <trkpt lat="47.34741" lon="-2.34486">
        <ele>13</ele>
        <time>2019-11-10T10:15:00.000Z</time>
      </trkpt>
      <trkpt lat="47.34739" lon="-2.34486">
        <ele>13</ele>
        <time>2019-11-10T10:15:01.000Z</time>
      </trkpt>
      <trkpt lat="47.34724" lon="-2.34491">
        <ele>13</ele>
        <time>2019-11-10T10:15:08.000Z</time>
      </trkpt>
      <trkpt lat="47.34712" lon="-2.34496">
        <ele>13</ele>
        <time>2019-11-10T10:15:16.000Z</time>
      </trkpt>
      <trkpt lat="47.34708" lon="-2.34499">
        <ele>13</ele>
        <time>2019-11-10T10:15:21.000Z</time>
      </trkpt>
      <trkpt lat="47.34697" lon="-2.34504">
        <ele>13</ele>
        <time>2019-11-10T10:15:38.000Z</time>
      </trkpt>
      <trkpt lat="47.34695" lon="-2.34504">
        <ele>13</ele>
        <time>2019-11-10T10:15:39.000Z</time>
      </trkpt>
      <trkpt lat="47.34692" lon="-2.34505">
        <ele>13</ele>
        <time>2019-11-10T10:15:40.000Z</time>
      </trkpt>
      <trkpt lat="47.34677" lon="-2.3451">
        <ele>13</ele>
        <time>2019-11-10T10:15:46.000Z</time>
      </trkpt>
      <trkpt lat="47.3466" lon="-2.34516">
        <ele>13</ele>
        <time>2019-11-10T10:15:52.000Z</time>
      </trkpt>
      <trkpt lat="47.34645" lon="-2.3452">
        <ele>13</ele>
        <time>2019-11-10T10:15:57.000Z</time>
      </trkpt>
      <trkpt lat="47.34642" lon="-2.3452">
        <ele>13.39999961853</ele>
        <time>2019-11-10T10:15:58.000Z</time>
      </trkpt>
      <trkpt lat="47.34639" lon="-2.34521">
        <ele>13.800000190735</ele>
        <time>2019-11-10T10:15:59.000Z</time>
      </trkpt>
      <trkpt lat="47.34636" lon="-2.34522">
        <ele>14.39999961853</ele>
        <time>2019-11-10T10:16:00.000Z</time>
      </trkpt>
      <trkpt lat="47.34633" lon="-2.34522">
        <ele>14.800000190735</ele>
        <time>2019-11-10T10:16:01.000Z</time>
      </trkpt>
      <trkpt lat="47.34629" lon="-2.34524">
        <ele>15.199999809265</ele>
        <time>2019-11-10T10:16:02.000Z</time>
      </trkpt>
      <trkpt lat="47.34624" lon="-2.34527">
        <ele>15.199999809265</ele>
        <time>2019-11-10T10:16:04.000Z</time>
      </trkpt>
      <trkpt lat="47.34609" lon="-2.34535">
        <ele>15.199999809265</ele>
        <time>2019-11-10T10:16:09.000Z</time>
      </trkpt>
      <trkpt lat="47.3461" lon="-2.34541">
        <ele>15.199999809265</ele>
        <time>2019-11-10T10:16:10.000Z</time>
      </trkpt>
      <trkpt lat="47.34611" lon="-2.34544">
        <ele>15.199999809265</ele>
        <time>2019-11-10T10:16:11.000Z</time>
      </trkpt>
      <trkpt lat="47.34617" lon="-2.34574">
        <ele>15.199999809265</ele>
        <time>2019-11-10T10:16:17.000Z</time>
      </trkpt>
      <trkpt lat="47.34619" lon="-2.34598">
        <ele>15.199999809265</ele>
        <time>2019-11-10T10:16:22.000Z</time>
      </trkpt>
      <trkpt lat="47.34626" lon="-2.34633">
        <ele>15.199999809265</ele>
        <time>2019-11-10T10:16:28.000Z</time>
      </trkpt>
      <trkpt lat="47.34628" lon="-2.34641">
        <ele>15.199999809265</ele>
        <time>2019-11-10T10:16:29.000Z</time>
      </trkpt>
      <trkpt lat="47.34635" lon="-2.34673">
        <ele>15.199999809265</ele>
        <time>2019-11-10T10:16:33.000Z</time>
      </trkpt>
      <trkpt lat="47.34637" lon="-2.34682">
        <ele>14.800000190735</ele>
        <time>2019-11-10T10:16:34.000Z</time>
      </trkpt>
      <trkpt lat="47.34638" lon="-2.34689">
        <ele>14.39999961853</ele>
        <time>2019-11-10T10:16:35.000Z</time>
      </trkpt>
      <trkpt lat="47.34639" lon="-2.34697">
        <ele>14</ele>
        <time>2019-11-10T10:16:36.000Z</time>
      </trkpt>
      <trkpt lat="47.3464" lon="-2.34705">
        <ele>13.60000038147</ele>
        <time>2019-11-10T10:16:37.000Z</time>
      </trkpt>
      <trkpt lat="47.3464" lon="-2.34714">
        <ele>13.199999809265</ele>
        <time>2019-11-10T10:16:38.000Z</time>
      </trkpt>
      <trkpt lat="47.3464" lon="-2.34722">
        <ele>12.800000190735</ele>
        <time>2019-11-10T10:16:39.000Z</time>
      </trkpt>
      <trkpt lat="47.3464" lon="-2.34729">
        <ele>12.39999961853</ele>
        <time>2019-11-10T10:16:40.000Z</time>
      </trkpt>
      <trkpt lat="47.34639" lon="-2.34736">
        <ele>12</ele>
        <time>2019-11-10T10:16:41.000Z</time>
      </trkpt>
      <trkpt lat="47.34638" lon="-2.34743">
        <ele>11.60000038147</ele>
        <time>2019-11-10T10:16:42.000Z</time>
      </trkpt>
      <trkpt lat="47.34637" lon="-2.3475">
        <ele>11.199999809265</ele>
        <time>2019-11-10T10:16:43.000Z</time>
      </trkpt>
      <trkpt lat="47.34635" lon="-2.34764">
        <ele>11.199999809265</ele>
        <time>2019-11-10T10:16:45.000Z</time>
      </trkpt>
      <trkpt lat="47.34634" lon="-2.3477">
        <ele>11.199999809265</ele>
        <time>2019-11-10T10:16:46.000Z</time>
      </trkpt>
      <trkpt lat="47.34618" lon="-2.34808">
        <ele>11.199999809265</ele>
        <time>2019-11-10T10:16:53.000Z</time>
      </trkpt>
      <trkpt lat="47.346" lon="-2.34849">
        <ele>11.199999809265</ele>
        <time>2019-11-10T10:17:01.000Z</time>
      </trkpt>
      <trkpt lat="47.34588" lon="-2.34872">
        <ele>11.199999809265</ele>
        <time>2019-11-10T10:17:07.000Z</time>
      </trkpt>
      <trkpt lat="47.34582" lon="-2.34889">
        <ele>11.199999809265</ele>
        <time>2019-11-10T10:17:13.000Z</time>
      </trkpt>
      <trkpt lat="47.34579" lon="-2.34901">
        <ele>11.199999809265</ele>
        <time>2019-11-10T10:17:17.000Z</time>
      </trkpt>
      <trkpt lat="47.3458" lon="-2.34904">
        <ele>11.199999809265</ele>
        <time>2019-11-10T10:17:18.000Z</time>
      </trkpt>
      <trkpt lat="47.3459" lon="-2.34923">
        <ele>11.199999809265</ele>
        <time>2019-11-10T10:17:23.000Z</time>
      </trkpt>
      <trkpt lat="47.34597" lon="-2.3494">
        <ele>11.199999809265</ele>
        <time>2019-11-10T10:17:27.000Z</time>
      </trkpt>
      <trkpt lat="47.34609" lon="-2.34963">
        <ele>11.199999809265</ele>
        <time>2019-11-10T10:17:32.000Z</time>
      </trkpt>
      <trkpt lat="47.34617" lon="-2.34977">
        <ele>11.199999809265</ele>
        <time>2019-11-10T10:17:35.000Z</time>
      </trkpt>
      <trkpt lat="47.34626" lon="-2.34993">
        <ele>11.199999809265</ele>
        <time>2019-11-10T10:17:38.000Z</time>
      </trkpt>
      <trkpt lat="47.34646" lon="-2.3503">
        <ele>11.199999809265</ele>
        <time>2019-11-10T10:17:45.000Z</time>
      </trkpt>
      <trkpt lat="47.34649" lon="-2.35032">
        <ele>11.199999809265</ele>
        <time>2019-11-10T10:17:46.000Z</time>
      </trkpt>
      <trkpt lat="47.34657" lon="-2.35034">
        <ele>11.199999809265</ele>
        <time>2019-11-10T10:17:49.000Z</time>
      </trkpt>
      <trkpt lat="47.34668" lon="-2.35034">
        <ele>11.199999809265</ele>
        <time>2019-11-10T10:17:53.000Z</time>
      </trkpt>
      <trkpt lat="47.34671" lon="-2.35034">
        <ele>11.199999809265</ele>
        <time>2019-11-10T10:17:54.000Z</time>
      </trkpt>
      <trkpt lat="47.3468" lon="-2.35039">
        <ele>11.199999809265</ele>
        <time>2019-11-10T10:17:58.000Z</time>
      </trkpt>
      <trkpt lat="47.3469" lon="-2.35055">
        <ele>11.199999809265</ele>
        <time>2019-11-10T10:18:03.000Z</time>
      </trkpt>
      <trkpt lat="47.34709" lon="-2.35073">
        <ele>11.199999809265</ele>
        <time>2019-11-10T10:18:09.000Z</time>
      </trkpt>
      <trkpt lat="47.34717" lon="-2.3509">
        <ele>11.199999809265</ele>
        <time>2019-11-10T10:18:13.000Z</time>
      </trkpt>
      <trkpt lat="47.3473" lon="-2.35114">
        <ele>11.199999809265</ele>
        <time>2019-11-10T10:18:19.000Z</time>
      </trkpt>
      <trkpt lat="47.34736" lon="-2.35124">
        <ele>11.199999809265</ele>
        <time>2019-11-10T10:18:21.000Z</time>
      </trkpt>
      <trkpt lat="47.3474" lon="-2.35133">
        <ele>11.199999809265</ele>
        <time>2019-11-10T10:18:23.000Z</time>
      </trkpt>
      <trkpt lat="47.34752" lon="-2.35162">
        <ele>11.199999809265</ele>
        <time>2019-11-10T10:18:28.000Z</time>
      </trkpt>
      <trkpt lat="47.34758" lon="-2.35183">
        <ele>10.800000190735</ele>
        <time>2019-11-10T10:18:31.000Z</time>
      </trkpt>
      <trkpt lat="47.34757" lon="-2.35188">
        <ele>10.39999961853</ele>
        <time>2019-11-10T10:18:32.000Z</time>
      </trkpt>
      <trkpt lat="47.34756" lon="-2.35191">
        <ele>10</ele>
        <time>2019-11-10T10:18:33.000Z</time>
      </trkpt>
      <trkpt lat="47.34755" lon="-2.35195">
        <ele>9.3999996185303</ele>
        <time>2019-11-10T10:18:34.000Z</time>
      </trkpt>
      <trkpt lat="47.34756" lon="-2.35201">
        <ele>9</ele>
        <time>2019-11-10T10:18:35.000Z</time>
      </trkpt>
      <trkpt lat="47.34757" lon="-2.35205">
        <ele>9</ele>
        <time>2019-11-10T10:18:36.000Z</time>
      </trkpt>
      <trkpt lat="47.34758" lon="-2.35227">
        <ele>9</ele>
        <time>2019-11-10T10:18:40.000Z</time>
      </trkpt>
      <trkpt lat="47.34752" lon="-2.35254">
        <ele>9</ele>
        <time>2019-11-10T10:18:45.000Z</time>
      </trkpt>
      <trkpt lat="47.34751" lon="-2.35259">
        <ele>9</ele>
        <time>2019-11-10T10:18:46.000Z</time>
      </trkpt>
      <trkpt lat="47.34748" lon="-2.35281">
        <ele>9</ele>
        <time>2019-11-10T10:18:51.000Z</time>
      </trkpt>
      <trkpt lat="47.34746" lon="-2.35285">
        <ele>9</ele>
        <time>2019-11-10T10:18:52.000Z</time>
      </trkpt>
      <trkpt lat="47.34736" lon="-2.35305">
        <ele>9.3999996185303</ele>
        <time>2019-11-10T10:18:57.000Z</time>
      </trkpt>
      <trkpt lat="47.34734" lon="-2.35308">
        <ele>9.8000001907349</ele>
        <time>2019-11-10T10:18:58.000Z</time>
      </trkpt>
      <trkpt lat="47.34732" lon="-2.35312">
        <ele>10.60000038147</ele>
        <time>2019-11-10T10:18:59.000Z</time>
      </trkpt>
      <trkpt lat="47.34731" lon="-2.35316">
        <ele>11.199999809265</ele>
        <time>2019-11-10T10:19:00.000Z</time>
      </trkpt>
      <trkpt lat="47.3473" lon="-2.35323">
        <ele>11.199999809265</ele>
        <time>2019-11-10T10:19:02.000Z</time>
      </trkpt>
      <trkpt lat="47.34729" lon="-2.35338">
        <ele>11.199999809265</ele>
        <time>2019-11-10T10:19:06.000Z</time>
      </trkpt>
      <trkpt lat="47.34729" lon="-2.35343">
        <ele>11.199999809265</ele>
        <time>2019-11-10T10:19:07.000Z</time>
      </trkpt>
      <trkpt lat="47.3473" lon="-2.35351">
        <ele>11.199999809265</ele>
        <time>2019-11-10T10:19:09.000Z</time>
      </trkpt>
      <trkpt lat="47.34727" lon="-2.35357">
        <ele>11.199999809265</ele>
        <time>2019-11-10T10:19:11.000Z</time>
      </trkpt>
      <trkpt lat="47.34724" lon="-2.35363">
        <ele>11.199999809265</ele>
        <time>2019-11-10T10:19:13.000Z</time>
      </trkpt>
      <trkpt lat="47.34717" lon="-2.35377">
        <ele>11.199999809265</ele>
        <time>2019-11-10T10:19:16.000Z</time>
      </trkpt>
      <trkpt lat="47.34714" lon="-2.3538">
        <ele>11.199999809265</ele>
        <time>2019-11-10T10:19:17.000Z</time>
      </trkpt>
      <trkpt lat="47.34705" lon="-2.35388">
        <ele>11.199999809265</ele>
        <time>2019-11-10T10:19:20.000Z</time>
      </trkpt>
      <trkpt lat="47.34696" lon="-2.35397">
        <ele>11.199999809265</ele>
        <time>2019-11-10T10:19:23.000Z</time>
      </trkpt>
      <trkpt lat="47.34692" lon="-2.35397">
        <ele>11.199999809265</ele>
        <time>2019-11-10T10:19:24.000Z</time>
      </trkpt>
      <trkpt lat="47.34671" lon="-2.35401">
        <ele>11.199999809265</ele>
        <time>2019-11-10T10:19:29.000Z</time>
      </trkpt>
      <trkpt lat="47.34665" lon="-2.35403">
        <ele>11.199999809265</ele>
        <time>2019-11-10T10:19:31.000Z</time>
      </trkpt>
      <trkpt lat="47.34657" lon="-2.35405">
        <ele>11.199999809265</ele>
        <time>2019-11-10T10:19:34.000Z</time>
      </trkpt>
      <trkpt lat="47.34657" lon="-2.35413">
        <ele>11.199999809265</ele>
        <time>2019-11-10T10:19:37.000Z</time>
      </trkpt>
      <trkpt lat="47.34664" lon="-2.35428">
        <ele>11.199999809265</ele>
        <time>2019-11-10T10:19:41.000Z</time>
      </trkpt>
      <trkpt lat="47.34666" lon="-2.35432">
        <ele>11.199999809265</ele>
        <time>2019-11-10T10:19:42.000Z</time>
      </trkpt>
      <trkpt lat="47.34675" lon="-2.3544">
        <ele>11.199999809265</ele>
        <time>2019-11-10T10:19:45.000Z</time>
      </trkpt>
      <trkpt lat="47.34678" lon="-2.35444">
        <ele>11.199999809265</ele>
        <time>2019-11-10T10:19:46.000Z</time>
      </trkpt>
      <trkpt lat="47.34701" lon="-2.35477">
        <ele>11.199999809265</ele>
        <time>2019-11-10T10:19:53.000Z</time>
      </trkpt>
      <trkpt lat="47.34724" lon="-2.35517">
        <ele>11.199999809265</ele>
        <time>2019-11-10T10:20:01.000Z</time>
      </trkpt>
      <trkpt lat="47.34745" lon="-2.35551">
        <ele>11.199999809265</ele>
        <time>2019-11-10T10:20:08.000Z</time>
      </trkpt>
      <trkpt lat="47.34765" lon="-2.35578">
        <ele>11.199999809265</ele>
        <time>2019-11-10T10:20:14.000Z</time>
      </trkpt>
      <trkpt lat="47.34768" lon="-2.35581">
        <ele>11.199999809265</ele>
        <time>2019-11-10T10:20:15.000Z</time>
      </trkpt>
      <trkpt lat="47.34789" lon="-2.35605">
        <ele>11.199999809265</ele>
        <time>2019-11-10T10:20:21.000Z</time>
      </trkpt>
      <trkpt lat="47.34792" lon="-2.35609">
        <ele>11.199999809265</ele>
        <time>2019-11-10T10:20:22.000Z</time>
      </trkpt>
      <trkpt lat="47.34803" lon="-2.35621">
        <ele>11.199999809265</ele>
        <time>2019-11-10T10:20:25.000Z</time>
      </trkpt>
      <trkpt lat="47.34815" lon="-2.35631">
        <ele>11.60000038147</ele>
        <time>2019-11-10T10:20:28.000Z</time>
      </trkpt>
      <trkpt lat="47.34819" lon="-2.35634">
        <ele>12</ele>
        <time>2019-11-10T10:20:29.000Z</time>
      </trkpt>
      <trkpt lat="47.34823" lon="-2.35637">
        <ele>12.39999961853</ele>
        <time>2019-11-10T10:20:30.000Z</time>
      </trkpt>
      <trkpt lat="47.34827" lon="-2.3564">
        <ele>12.800000190735</ele>
        <time>2019-11-10T10:20:31.000Z</time>
      </trkpt>
      <trkpt lat="47.3483" lon="-2.35642">
        <ele>13.199999809265</ele>
        <time>2019-11-10T10:20:32.000Z</time>
      </trkpt>
      <trkpt lat="47.34842" lon="-2.3565">
        <ele>13.199999809265</ele>
        <time>2019-11-10T10:20:35.000Z</time>
      </trkpt>
      <trkpt lat="47.34856" lon="-2.35663">
        <ele>13.199999809265</ele>
        <time>2019-11-10T10:20:40.000Z</time>
      </trkpt>
      <trkpt lat="47.34854" lon="-2.35677">
        <ele>13.199999809265</ele>
        <time>2019-11-10T10:20:43.000Z</time>
      </trkpt>
      <trkpt lat="47.3484" lon="-2.35714">
        <ele>13.199999809265</ele>
        <time>2019-11-10T10:20:50.000Z</time>
      </trkpt>
      <trkpt lat="47.34835" lon="-2.35719">
        <ele>13.199999809265</ele>
        <time>2019-11-10T10:20:54.000Z</time>
      </trkpt>
      <trkpt lat="47.34833" lon="-2.3572">
        <ele>13.199999809265</ele>
        <time>2019-11-10T10:20:56.000Z</time>
      </trkpt>
      <trkpt lat="47.34829" lon="-2.35721">
        <ele>13.199999809265</ele>
        <time>2019-11-10T10:21:00.000Z</time>
      </trkpt>
      <trkpt lat="47.34821" lon="-2.35724">
        <ele>13.199999809265</ele>
        <time>2019-11-10T10:21:05.000Z</time>
      </trkpt>
      <trkpt lat="47.34819" lon="-2.35725">
        <ele>13.199999809265</ele>
        <time>2019-11-10T10:21:06.000Z</time>
      </trkpt>
      <trkpt lat="47.34808" lon="-2.35729">
        <ele>13.199999809265</ele>
        <time>2019-11-10T10:21:11.000Z</time>
      </trkpt>
      <trkpt lat="47.34802" lon="-2.35731">
        <ele>12.800000190735</ele>
        <time>2019-11-10T10:21:14.000Z</time>
      </trkpt>
      <trkpt lat="47.348" lon="-2.35733">
        <ele>12.199999809265</ele>
        <time>2019-11-10T10:21:15.000Z</time>
      </trkpt>
      <trkpt lat="47.34797" lon="-2.35734">
        <ele>11.800000190735</ele>
        <time>2019-11-10T10:21:16.000Z</time>
      </trkpt>
      <trkpt lat="47.34795" lon="-2.35736">
        <ele>11.39999961853</ele>
        <time>2019-11-10T10:21:17.000Z</time>
      </trkpt>
      <trkpt lat="47.34792" lon="-2.35738">
        <ele>11</ele>
        <time>2019-11-10T10:21:18.000Z</time>
      </trkpt>
      <trkpt lat="47.34783" lon="-2.35742">
        <ele>11</ele>
        <time>2019-11-10T10:21:21.000Z</time>
      </trkpt>
      <trkpt lat="47.34769" lon="-2.35747">
        <ele>11</ele>
        <time>2019-11-10T10:21:26.000Z</time>
      </trkpt>
      <trkpt lat="47.34754" lon="-2.35756">
        <ele>11</ele>
        <time>2019-11-10T10:21:32.000Z</time>
      </trkpt>
      <trkpt lat="47.34736" lon="-2.35766">
        <ele>11</ele>
        <time>2019-11-10T10:21:37.000Z</time>
      </trkpt>
      <trkpt lat="47.34713" lon="-2.35786">
        <ele>11</ele>
        <time>2019-11-10T10:21:44.000Z</time>
      </trkpt>
      <trkpt lat="47.34688" lon="-2.35805">
        <ele>11</ele>
        <time>2019-11-10T10:21:50.000Z</time>
      </trkpt>
      <trkpt lat="47.34653" lon="-2.35834">
        <ele>11</ele>
        <time>2019-11-10T10:21:59.000Z</time>
      </trkpt>
      <trkpt lat="47.34632" lon="-2.35851">
        <ele>11</ele>
        <time>2019-11-10T10:22:05.000Z</time>
      </trkpt>
      <trkpt lat="47.3461" lon="-2.35868">
        <ele>11</ele>
        <time>2019-11-10T10:22:11.000Z</time>
      </trkpt>
      <trkpt lat="47.34578" lon="-2.3589">
        <ele>11</ele>
        <time>2019-11-10T10:22:19.000Z</time>
      </trkpt>
      <trkpt lat="47.34556" lon="-2.35905">
        <ele>11</ele>
        <time>2019-11-10T10:22:25.000Z</time>
      </trkpt>
      <trkpt lat="47.34531" lon="-2.35918">
        <ele>11</ele>
        <time>2019-11-10T10:22:32.000Z</time>
      </trkpt>
      <trkpt lat="47.34515" lon="-2.35924">
        <ele>11</ele>
        <time>2019-11-10T10:22:36.000Z</time>
      </trkpt>
      <trkpt lat="47.34503" lon="-2.35928">
        <ele>11</ele>
        <time>2019-11-10T10:22:39.000Z</time>
      </trkpt>
      <trkpt lat="47.34495" lon="-2.35932">
        <ele>11.39999961853</ele>
        <time>2019-11-10T10:22:41.000Z</time>
      </trkpt>
      <trkpt lat="47.34491" lon="-2.35934">
        <ele>11.800000190735</ele>
        <time>2019-11-10T10:22:42.000Z</time>
      </trkpt>
      <trkpt lat="47.34488" lon="-2.35936">
        <ele>12.39999961853</ele>
        <time>2019-11-10T10:22:43.000Z</time>
      </trkpt>
      <trkpt lat="47.34484" lon="-2.35938">
        <ele>12.800000190735</ele>
        <time>2019-11-10T10:22:44.000Z</time>
      </trkpt>
      <trkpt lat="47.3448" lon="-2.3594">
        <ele>13.199999809265</ele>
        <time>2019-11-10T10:22:45.000Z</time>
      </trkpt>
      <trkpt lat="47.34476" lon="-2.35942">
        <ele>13.199999809265</ele>
        <time>2019-11-10T10:22:46.000Z</time>
      </trkpt>
      <trkpt lat="47.34449" lon="-2.35962">
        <ele>13.60000038147</ele>
        <time>2019-11-10T10:22:54.000Z</time>
      </trkpt>
      <trkpt lat="47.34445" lon="-2.35965">
        <ele>14</ele>
        <time>2019-11-10T10:22:55.000Z</time>
      </trkpt>
      <trkpt lat="47.34442" lon="-2.35969">
        <ele>14.39999961853</ele>
        <time>2019-11-10T10:22:56.000Z</time>
      </trkpt>
      <trkpt lat="47.34439" lon="-2.35971">
        <ele>14.800000190735</ele>
        <time>2019-11-10T10:22:57.000Z</time>
      </trkpt>
      <trkpt lat="47.34435" lon="-2.35974">
        <ele>15.199999809265</ele>
        <time>2019-11-10T10:22:58.000Z</time>
      </trkpt>
      <trkpt lat="47.34429" lon="-2.3598">
        <ele>15.199999809265</ele>
        <time>2019-11-10T10:23:00.000Z</time>
      </trkpt>
      <trkpt lat="47.3441" lon="-2.35995">
        <ele>15.199999809265</ele>
        <time>2019-11-10T10:23:07.000Z</time>
      </trkpt>
      <trkpt lat="47.34409" lon="-2.35999">
        <ele>15.199999809265</ele>
        <time>2019-11-10T10:23:08.000Z</time>
      </trkpt>
      <trkpt lat="47.3441" lon="-2.36007">
        <ele>15.199999809265</ele>
        <time>2019-11-10T10:23:10.000Z</time>
      </trkpt>
      <trkpt lat="47.34417" lon="-2.36022">
        <ele>15.199999809265</ele>
        <time>2019-11-10T10:23:14.000Z</time>
      </trkpt>
      <trkpt lat="47.3442" lon="-2.36032">
        <ele>15.199999809265</ele>
        <time>2019-11-10T10:23:16.000Z</time>
      </trkpt>
      <trkpt lat="47.34424" lon="-2.36048">
        <ele>15.199999809265</ele>
        <time>2019-11-10T10:23:19.000Z</time>
      </trkpt>
      <trkpt lat="47.34426" lon="-2.36054">
        <ele>15.199999809265</ele>
        <time>2019-11-10T10:23:20.000Z</time>
      </trkpt>
      <trkpt lat="47.34435" lon="-2.36087">
        <ele>15.199999809265</ele>
        <time>2019-11-10T10:23:26.000Z</time>
      </trkpt>
      <trkpt lat="47.34446" lon="-2.36114">
        <ele>15.199999809265</ele>
        <time>2019-11-10T10:23:31.000Z</time>
      </trkpt>
      <trkpt lat="47.34449" lon="-2.36119">
        <ele>15.199999809265</ele>
        <time>2019-11-10T10:23:32.000Z</time>
      </trkpt>
      <trkpt lat="47.34464" lon="-2.36158">
        <ele>15.199999809265</ele>
        <time>2019-11-10T10:23:38.000Z</time>
      </trkpt>
      <trkpt lat="47.34486" lon="-2.36196">
        <ele>15.199999809265</ele>
        <time>2019-11-10T10:23:44.000Z</time>
      </trkpt>
      <trkpt lat="47.34504" lon="-2.36227">
        <ele>15.199999809265</ele>
        <time>2019-11-10T10:23:49.000Z</time>
      </trkpt>
      <trkpt lat="47.34507" lon="-2.36235">
        <ele>15.199999809265</ele>
        <time>2019-11-10T10:23:50.000Z</time>
      </trkpt>
      <trkpt lat="47.34518" lon="-2.3627">
        <ele>15.199999809265</ele>
        <time>2019-11-10T10:23:55.000Z</time>
      </trkpt>
      <trkpt lat="47.3453" lon="-2.36309">
        <ele>15.199999809265</ele>
        <time>2019-11-10T10:24:01.000Z</time>
      </trkpt>
      <trkpt lat="47.34534" lon="-2.36322">
        <ele>15.199999809265</ele>
        <time>2019-11-10T10:24:03.000Z</time>
      </trkpt>
      <trkpt lat="47.34541" lon="-2.3634">
        <ele>15.199999809265</ele>
        <time>2019-11-10T10:24:06.000Z</time>
      </trkpt>
      <trkpt lat="47.34543" lon="-2.36347">
        <ele>15.199999809265</ele>
        <time>2019-11-10T10:24:07.000Z</time>
      </trkpt>
      <trkpt lat="47.34558" lon="-2.3638">
        <ele>15.199999809265</ele>
        <time>2019-11-10T10:24:13.000Z</time>
      </trkpt>
      <trkpt lat="47.34567" lon="-2.36394">
        <ele>15.199999809265</ele>
        <time>2019-11-10T10:24:16.000Z</time>
      </trkpt>
      <trkpt lat="47.34579" lon="-2.36415">
        <ele>15.199999809265</ele>
        <time>2019-11-10T10:24:20.000Z</time>
      </trkpt>
      <trkpt lat="47.34594" lon="-2.36435">
        <ele>15.199999809265</ele>
        <time>2019-11-10T10:24:25.000Z</time>
      </trkpt>
      <trkpt lat="47.34604" lon="-2.36436">
        <ele>15.199999809265</ele>
        <time>2019-11-10T10:24:28.000Z</time>
      </trkpt>
      <trkpt lat="47.34614" lon="-2.36432">
        <ele>15.60000038147</ele>
        <time>2019-11-10T10:24:31.000Z</time>
      </trkpt>
      <trkpt lat="47.34617" lon="-2.3643">
        <ele>16</ele>
        <time>2019-11-10T10:24:32.000Z</time>
      </trkpt>
      <trkpt lat="47.34621" lon="-2.36428">
        <ele>16.39999961853</ele>
        <time>2019-11-10T10:24:33.000Z</time>
      </trkpt>
      <trkpt lat="47.34624" lon="-2.36426">
        <ele>16.799999237061</ele>
        <time>2019-11-10T10:24:34.000Z</time>
      </trkpt>
      <trkpt lat="47.34627" lon="-2.36425">
        <ele>17.200000762939</ele>
        <time>2019-11-10T10:24:35.000Z</time>
      </trkpt>
      <trkpt lat="47.3464" lon="-2.36419">
        <ele>17.200000762939</ele>
        <time>2019-11-10T10:24:39.000Z</time>
      </trkpt>
      <trkpt lat="47.34658" lon="-2.36411">
        <ele>17.200000762939</ele>
        <time>2019-11-10T10:24:45.000Z</time>
      </trkpt>
      <trkpt lat="47.34672" lon="-2.36404">
        <ele>17.799999237061</ele>
        <time>2019-11-10T10:24:50.000Z</time>
      </trkpt>
      <trkpt lat="47.34675" lon="-2.36403">
        <ele>18.200000762939</ele>
        <time>2019-11-10T10:24:51.000Z</time>
      </trkpt>
      <trkpt lat="47.34678" lon="-2.36402">
        <ele>18.60000038147</ele>
        <time>2019-11-10T10:24:52.000Z</time>
      </trkpt>
      <trkpt lat="47.34681" lon="-2.36401">
        <ele>19</ele>
        <time>2019-11-10T10:24:53.000Z</time>
      </trkpt>
      <trkpt lat="47.34685" lon="-2.364">
        <ele>19.39999961853</ele>
        <time>2019-11-10T10:24:54.000Z</time>
      </trkpt>
      <trkpt lat="47.34696" lon="-2.36396">
        <ele>19.39999961853</ele>
        <time>2019-11-10T10:24:57.000Z</time>
      </trkpt>
      <trkpt lat="47.34723" lon="-2.36385">
        <ele>19.39999961853</ele>
        <time>2019-11-10T10:25:04.000Z</time>
      </trkpt>
      <trkpt lat="47.34739" lon="-2.36377">
        <ele>20.200000762939</ele>
        <time>2019-11-10T10:25:08.000Z</time>
      </trkpt>
      <trkpt lat="47.34743" lon="-2.36374">
        <ele>20.60000038147</ele>
        <time>2019-11-10T10:25:09.000Z</time>
      </trkpt>
      <trkpt lat="47.34748" lon="-2.36371">
        <ele>21</ele>
        <time>2019-11-10T10:25:10.000Z</time>
      </trkpt>
      <trkpt lat="47.34751" lon="-2.36368">
        <ele>21.39999961853</ele>
        <time>2019-11-10T10:25:11.000Z</time>
      </trkpt>
      <trkpt lat="47.34755" lon="-2.36365">
        <ele>21.39999961853</ele>
        <time>2019-11-10T10:25:12.000Z</time>
      </trkpt>
      <trkpt lat="47.34772" lon="-2.36355">
        <ele>21.39999961853</ele>
        <time>2019-11-10T10:25:16.000Z</time>
      </trkpt>
      <trkpt lat="47.34806" lon="-2.36333">
        <ele>21.39999961853</ele>
        <time>2019-11-10T10:25:23.000Z</time>
      </trkpt>
      <trkpt lat="47.3483" lon="-2.36318">
        <ele>21.39999961853</ele>
        <time>2019-11-10T10:25:28.000Z</time>
      </trkpt>
      <trkpt lat="47.34834" lon="-2.36319">
        <ele>21.39999961853</ele>
        <time>2019-11-10T10:25:29.000Z</time>
      </trkpt>
      <trkpt lat="47.34854" lon="-2.36332">
        <ele>21.39999961853</ele>
        <time>2019-11-10T10:25:34.000Z</time>
      </trkpt>
      <trkpt lat="47.34892" lon="-2.36355">
        <ele>21.39999961853</ele>
        <time>2019-11-10T10:25:43.000Z</time>
      </trkpt>
      <trkpt lat="47.34895" lon="-2.36357">
        <ele>21.39999961853</ele>
        <time>2019-11-10T10:25:44.000Z</time>
      </trkpt>
      <trkpt lat="47.34915" lon="-2.36371">
        <ele>21.39999961853</ele>
        <time>2019-11-10T10:25:49.000Z</time>
      </trkpt>
      <trkpt lat="47.34945" lon="-2.3639">
        <ele>21.39999961853</ele>
        <time>2019-11-10T10:25:55.000Z</time>
      </trkpt>
      <trkpt lat="47.34962" lon="-2.36401">
        <ele>21</ele>
        <time>2019-11-10T10:25:58.000Z</time>
      </trkpt>
      <trkpt lat="47.34968" lon="-2.36405">
        <ele>20.60000038147</ele>
        <time>2019-11-10T10:25:59.000Z</time>
      </trkpt>
      <trkpt lat="47.34974" lon="-2.36408">
        <ele>20.200000762939</ele>
        <time>2019-11-10T10:26:00.000Z</time>
      </trkpt>
      <trkpt lat="47.3498" lon="-2.36412">
        <ele>19.799999237061</ele>
        <time>2019-11-10T10:26:01.000Z</time>
      </trkpt>
      <trkpt lat="47.34987" lon="-2.36416">
        <ele>19.200000762939</ele>
        <time>2019-11-10T10:26:02.000Z</time>
      </trkpt>
      <trkpt lat="47.34993" lon="-2.36421">
        <ele>18.799999237061</ele>
        <time>2019-11-10T10:26:03.000Z</time>
      </trkpt>
      <trkpt lat="47.34998" lon="-2.36428">
        <ele>18.39999961853</ele>
        <time>2019-11-10T10:26:04.000Z</time>
      </trkpt>
      <trkpt lat="47.35002" lon="-2.36435">
        <ele>18</ele>
        <time>2019-11-10T10:26:05.000Z</time>
      </trkpt>
      <trkpt lat="47.35006" lon="-2.36443">
        <ele>17.39999961853</ele>
        <time>2019-11-10T10:26:06.000Z</time>
      </trkpt>
      <trkpt lat="47.35009" lon="-2.36451">
        <ele>17</ele>
        <time>2019-11-10T10:26:07.000Z</time>
      </trkpt>
      <trkpt lat="47.35014" lon="-2.36468">
        <ele>17</ele>
        <time>2019-11-10T10:26:09.000Z</time>
      </trkpt>
      <trkpt lat="47.35017" lon="-2.36476">
        <ele>17</ele>
        <time>2019-11-10T10:26:10.000Z</time>
      </trkpt>
      <trkpt lat="47.35023" lon="-2.36491">
        <ele>17</ele>
        <time>2019-11-10T10:26:12.000Z</time>
      </trkpt>
      <trkpt lat="47.35027" lon="-2.36498">
        <ele>17</ele>
        <time>2019-11-10T10:26:13.000Z</time>
      </trkpt>
      <trkpt lat="47.35052" lon="-2.36541">
        <ele>17</ele>
        <time>2019-11-10T10:26:20.000Z</time>
      </trkpt>
      <trkpt lat="47.35068" lon="-2.3658">
        <ele>17</ele>
        <time>2019-11-10T10:26:26.000Z</time>
      </trkpt>
      <trkpt lat="47.35087" lon="-2.36635">
        <ele>17</ele>
        <time>2019-11-10T10:26:34.000Z</time>
      </trkpt>
      <trkpt lat="47.35098" lon="-2.36666">
        <ele>17.39999961853</ele>
        <time>2019-11-10T10:26:39.000Z</time>
      </trkpt>
      <trkpt lat="47.351" lon="-2.36672">
        <ele>18</ele>
        <time>2019-11-10T10:26:40.000Z</time>
      </trkpt>
      <trkpt lat="47.35102" lon="-2.36678">
        <ele>18.39999961853</ele>
        <time>2019-11-10T10:26:41.000Z</time>
      </trkpt>
      <trkpt lat="47.35104" lon="-2.36683">
        <ele>18.799999237061</ele>
        <time>2019-11-10T10:26:42.000Z</time>
      </trkpt>
      <trkpt lat="47.35105" lon="-2.36689">
        <ele>19.200000762939</ele>
        <time>2019-11-10T10:26:43.000Z</time>
      </trkpt>
      <trkpt lat="47.35114" lon="-2.36722">
        <ele>19.200000762939</ele>
        <time>2019-11-10T10:26:48.000Z</time>
      </trkpt>
      <trkpt lat="47.35124" lon="-2.3676">
        <ele>19.200000762939</ele>
        <time>2019-11-10T10:26:54.000Z</time>
      </trkpt>
      <trkpt lat="47.35135" lon="-2.36807">
        <ele>19.200000762939</ele>
        <time>2019-11-10T10:27:01.000Z</time>
      </trkpt>
      <trkpt lat="47.35143" lon="-2.36842">
        <ele>19.200000762939</ele>
        <time>2019-11-10T10:27:06.000Z</time>
      </trkpt>
      <trkpt lat="47.35146" lon="-2.36856">
        <ele>19.200000762939</ele>
        <time>2019-11-10T10:27:08.000Z</time>
      </trkpt>
      <trkpt lat="47.35147" lon="-2.36863">
        <ele>19.200000762939</ele>
        <time>2019-11-10T10:27:09.000Z</time>
      </trkpt>
      <trkpt lat="47.35154" lon="-2.36891">
        <ele>19.200000762939</ele>
        <time>2019-11-10T10:27:13.000Z</time>
      </trkpt>
      <trkpt lat="47.35166" lon="-2.36924">
        <ele>19.200000762939</ele>
        <time>2019-11-10T10:27:18.000Z</time>
      </trkpt>
      <trkpt lat="47.35185" lon="-2.36963">
        <ele>19.200000762939</ele>
        <time>2019-11-10T10:27:25.000Z</time>
      </trkpt>
      <trkpt lat="47.35201" lon="-2.36994">
        <ele>19.200000762939</ele>
        <time>2019-11-10T10:27:31.000Z</time>
      </trkpt>
      <trkpt lat="47.35203" lon="-2.37">
        <ele>19.200000762939</ele>
        <time>2019-11-10T10:27:32.000Z</time>
      </trkpt>
      <trkpt lat="47.3521" lon="-2.3702">
        <ele>19.200000762939</ele>
        <time>2019-11-10T10:27:35.000Z</time>
      </trkpt>
      <trkpt lat="47.35212" lon="-2.37026">
        <ele>19.200000762939</ele>
        <time>2019-11-10T10:27:36.000Z</time>
      </trkpt>
      <trkpt lat="47.35223" lon="-2.37075">
        <ele>19.200000762939</ele>
        <time>2019-11-10T10:27:43.000Z</time>
      </trkpt>
      <trkpt lat="47.35228" lon="-2.37103">
        <ele>19.200000762939</ele>
        <time>2019-11-10T10:27:47.000Z</time>
      </trkpt>
      <trkpt lat="47.35233" lon="-2.37124">
        <ele>19.200000762939</ele>
        <time>2019-11-10T10:27:50.000Z</time>
      </trkpt>
      <trkpt lat="47.35237" lon="-2.37144">
        <ele>19.200000762939</ele>
        <time>2019-11-10T10:27:53.000Z</time>
      </trkpt>
      <trkpt lat="47.35241" lon="-2.37155">
        <ele>19.200000762939</ele>
        <time>2019-11-10T10:27:55.000Z</time>
      </trkpt>
      <trkpt lat="47.35252" lon="-2.37176">
        <ele>19.200000762939</ele>
        <time>2019-11-10T10:27:59.000Z</time>
      </trkpt>
      <trkpt lat="47.35258" lon="-2.37186">
        <ele>19.200000762939</ele>
        <time>2019-11-10T10:28:01.000Z</time>
      </trkpt>
      <trkpt lat="47.35264" lon="-2.37196">
        <ele>19.200000762939</ele>
        <time>2019-11-10T10:28:03.000Z</time>
      </trkpt>
      <trkpt lat="47.3527" lon="-2.37205">
        <ele>19.200000762939</ele>
        <time>2019-11-10T10:28:05.000Z</time>
      </trkpt>
      <trkpt lat="47.35275" lon="-2.3721">
        <ele>19.200000762939</ele>
        <time>2019-11-10T10:28:07.000Z</time>
      </trkpt>
      <trkpt lat="47.3528" lon="-2.37215">
        <ele>19.200000762939</ele>
        <time>2019-11-10T10:28:11.000Z</time>
      </trkpt>
      <trkpt lat="47.35282" lon="-2.37218">
        <ele>19.200000762939</ele>
        <time>2019-11-10T10:28:12.000Z</time>
      </trkpt>
      <trkpt lat="47.35285" lon="-2.37232">
        <ele>19.200000762939</ele>
        <time>2019-11-10T10:28:15.000Z</time>
      </trkpt>
      <trkpt lat="47.35284" lon="-2.37253">
        <ele>19.200000762939</ele>
        <time>2019-11-10T10:28:19.000Z</time>
      </trkpt>
      <trkpt lat="47.35284" lon="-2.37259">
        <ele>19.200000762939</ele>
        <time>2019-11-10T10:28:20.000Z</time>
      </trkpt>
      <trkpt lat="47.35284" lon="-2.37296">
        <ele>19.200000762939</ele>
        <time>2019-11-10T10:28:27.000Z</time>
      </trkpt>
      <trkpt lat="47.35283" lon="-2.37311">
        <ele>19.200000762939</ele>
        <time>2019-11-10T10:28:30.000Z</time>
      </trkpt>
      <trkpt lat="47.35283" lon="-2.37324">
        <ele>19.200000762939</ele>
        <time>2019-11-10T10:28:32.000Z</time>
      </trkpt>
      <trkpt lat="47.35284" lon="-2.37369">
        <ele>19.200000762939</ele>
        <time>2019-11-10T10:28:39.000Z</time>
      </trkpt>
      <trkpt lat="47.35286" lon="-2.37423">
        <ele>19.200000762939</ele>
        <time>2019-11-10T10:28:47.000Z</time>
      </trkpt>
      <trkpt lat="47.3529" lon="-2.37467">
        <ele>19.200000762939</ele>
        <time>2019-11-10T10:28:53.000Z</time>
      </trkpt>
      <trkpt lat="47.35299" lon="-2.37522">
        <ele>19.200000762939</ele>
        <time>2019-11-10T10:28:59.000Z</time>
      </trkpt>
      <trkpt lat="47.35307" lon="-2.37558">
        <ele>18.799999237061</ele>
        <time>2019-11-10T10:29:03.000Z</time>
      </trkpt>
      <trkpt lat="47.35309" lon="-2.37567">
        <ele>18.39999961853</ele>
        <time>2019-11-10T10:29:04.000Z</time>
      </trkpt>
      <trkpt lat="47.35311" lon="-2.37576">
        <ele>18</ele>
        <time>2019-11-10T10:29:05.000Z</time>
      </trkpt>
      <trkpt lat="47.35313" lon="-2.37586">
        <ele>17.60000038147</ele>
        <time>2019-11-10T10:29:06.000Z</time>
      </trkpt>
      <trkpt lat="47.35316" lon="-2.37595">
        <ele>17</ele>
        <time>2019-11-10T10:29:07.000Z</time>
      </trkpt>
      <trkpt lat="47.35328" lon="-2.37647">
        <ele>17</ele>
        <time>2019-11-10T10:29:13.000Z</time>
      </trkpt>
      <trkpt lat="47.35338" lon="-2.37687">
        <ele>17</ele>
        <time>2019-11-10T10:29:18.000Z</time>
      </trkpt>
      <trkpt lat="47.3534" lon="-2.37695">
        <ele>17</ele>
        <time>2019-11-10T10:29:19.000Z</time>
      </trkpt>
      <trkpt lat="47.35352" lon="-2.37739">
        <ele>16.60000038147</ele>
        <time>2019-11-10T10:29:25.000Z</time>
      </trkpt>
      <trkpt lat="47.35354" lon="-2.37746">
        <ele>16.200000762939</ele>
        <time>2019-11-10T10:29:26.000Z</time>
      </trkpt>
      <trkpt lat="47.35355" lon="-2.37751">
        <ele>15.800000190735</ele>
        <time>2019-11-10T10:29:27.000Z</time>
      </trkpt>
      <trkpt lat="47.35357" lon="-2.37756">
        <ele>15.39999961853</ele>
        <time>2019-11-10T10:29:28.000Z</time>
      </trkpt>
      <trkpt lat="47.35358" lon="-2.37761">
        <ele>14.800000190735</ele>
        <time>2019-11-10T10:29:29.000Z</time>
      </trkpt>
      <trkpt lat="47.3536" lon="-2.37765">
        <ele>14.800000190735</ele>
        <time>2019-11-10T10:29:30.000Z</time>
      </trkpt>
      <trkpt lat="47.35361" lon="-2.3778">
        <ele>14.800000190735</ele>
        <time>2019-11-10T10:29:33.000Z</time>
      </trkpt>
      <trkpt lat="47.35358" lon="-2.37785">
        <ele>14.800000190735</ele>
        <time>2019-11-10T10:29:34.000Z</time>
      </trkpt>
      <trkpt lat="47.35346" lon="-2.37794">
        <ele>14.800000190735</ele>
        <time>2019-11-10T10:29:37.000Z</time>
      </trkpt>
      <trkpt lat="47.35342" lon="-2.37796">
        <ele>14.800000190735</ele>
        <time>2019-11-10T10:29:38.000Z</time>
      </trkpt>
      <trkpt lat="47.35332" lon="-2.378">
        <ele>14.800000190735</ele>
        <time>2019-11-10T10:29:40.000Z</time>
      </trkpt>
      <trkpt lat="47.35317" lon="-2.37804">
        <ele>14.800000190735</ele>
        <time>2019-11-10T10:29:43.000Z</time>
      </trkpt>
      <trkpt lat="47.35277" lon="-2.3782">
        <ele>14.39999961853</ele>
        <time>2019-11-10T10:29:51.000Z</time>
      </trkpt>
      <trkpt lat="47.35272" lon="-2.37823">
        <ele>14</ele>
        <time>2019-11-10T10:29:52.000Z</time>
      </trkpt>
      <trkpt lat="47.35266" lon="-2.37827">
        <ele>13.60000038147</ele>
        <time>2019-11-10T10:29:53.000Z</time>
      </trkpt>
      <trkpt lat="47.35261" lon="-2.37831">
        <ele>13.199999809265</ele>
        <time>2019-11-10T10:29:54.000Z</time>
      </trkpt>
      <trkpt lat="47.35255" lon="-2.37836">
        <ele>12.800000190735</ele>
        <time>2019-11-10T10:29:55.000Z</time>
      </trkpt>
      <trkpt lat="47.35249" lon="-2.37841">
        <ele>12.800000190735</ele>
        <time>2019-11-10T10:29:56.000Z</time>
      </trkpt>
      <trkpt lat="47.35244" lon="-2.37847">
        <ele>12.800000190735</ele>
        <time>2019-11-10T10:29:57.000Z</time>
      </trkpt>
      <trkpt lat="47.35228" lon="-2.37863">
        <ele>12.800000190735</ele>
        <time>2019-11-10T10:30:00.000Z</time>
      </trkpt>
      <trkpt lat="47.35192" lon="-2.37889">
        <ele>12.800000190735</ele>
        <time>2019-11-10T10:30:06.000Z</time>
      </trkpt>
      <trkpt lat="47.35155" lon="-2.37917">
        <ele>12.800000190735</ele>
        <time>2019-11-10T10:30:12.000Z</time>
      </trkpt>
      <trkpt lat="47.35133" lon="-2.37934">
        <ele>12.800000190735</ele>
        <time>2019-11-10T10:30:16.000Z</time>
      </trkpt>
      <trkpt lat="47.35127" lon="-2.37939">
        <ele>12.800000190735</ele>
        <time>2019-11-10T10:30:17.000Z</time>
      </trkpt>
      <trkpt lat="47.35111" lon="-2.37951">
        <ele>12.800000190735</ele>
        <time>2019-11-10T10:30:20.000Z</time>
      </trkpt>
      <trkpt lat="47.351" lon="-2.3796">
        <ele>12.800000190735</ele>
        <time>2019-11-10T10:30:22.000Z</time>
      </trkpt>
      <trkpt lat="47.35084" lon="-2.37972">
        <ele>12.800000190735</ele>
        <time>2019-11-10T10:30:25.000Z</time>
      </trkpt>
      <trkpt lat="47.35074" lon="-2.37981">
        <ele>12.800000190735</ele>
        <time>2019-11-10T10:30:27.000Z</time>
      </trkpt>
      <trkpt lat="47.35038" lon="-2.3801">
        <ele>12.800000190735</ele>
        <time>2019-11-10T10:30:34.000Z</time>
      </trkpt>
      <trkpt lat="47.35003" lon="-2.38038">
        <ele>12.800000190735</ele>
        <time>2019-11-10T10:30:41.000Z</time>
      </trkpt>
      <trkpt lat="47.34982" lon="-2.38056">
        <ele>12.800000190735</ele>
        <time>2019-11-10T10:30:46.000Z</time>
      </trkpt>
      <trkpt lat="47.34978" lon="-2.38059">
        <ele>12.800000190735</ele>
        <time>2019-11-10T10:30:47.000Z</time>
      </trkpt>
      <trkpt lat="47.34969" lon="-2.38057">
        <ele>12.800000190735</ele>
        <time>2019-11-10T10:30:49.000Z</time>
      </trkpt>
      <trkpt lat="47.34959" lon="-2.38038">
        <ele>12.800000190735</ele>
        <time>2019-11-10T10:30:52.000Z</time>
      </trkpt>
      <trkpt lat="47.34956" lon="-2.38031">
        <ele>12.800000190735</ele>
        <time>2019-11-10T10:30:53.000Z</time>
      </trkpt>
      <trkpt lat="47.34952" lon="-2.38025">
        <ele>12.800000190735</ele>
        <time>2019-11-10T10:30:54.000Z</time>
      </trkpt>
      <trkpt lat="47.34936" lon="-2.37999">
        <ele>12.800000190735</ele>
        <time>2019-11-10T10:30:58.000Z</time>
      </trkpt>
      <trkpt lat="47.3491" lon="-2.37978">
        <ele>12.800000190735</ele>
        <time>2019-11-10T10:31:03.000Z</time>
      </trkpt>
      <trkpt lat="47.3488" lon="-2.37953">
        <ele>12.800000190735</ele>
        <time>2019-11-10T10:31:09.000Z</time>
      </trkpt>
      <trkpt lat="47.34845" lon="-2.37924">
        <ele>12.800000190735</ele>
        <time>2019-11-10T10:31:16.000Z</time>
      </trkpt>
      <trkpt lat="47.34824" lon="-2.37909">
        <ele>12.800000190735</ele>
        <time>2019-11-10T10:31:20.000Z</time>
      </trkpt>
      <trkpt lat="47.34804" lon="-2.37894">
        <ele>12.800000190735</ele>
        <time>2019-11-10T10:31:24.000Z</time>
      </trkpt>
      <trkpt lat="47.34795" lon="-2.37885">
        <ele>12.800000190735</ele>
        <time>2019-11-10T10:31:26.000Z</time>
      </trkpt>
      <trkpt lat="47.34779" lon="-2.37871">
        <ele>12.800000190735</ele>
        <time>2019-11-10T10:31:30.000Z</time>
      </trkpt>
      <trkpt lat="47.34775" lon="-2.37868">
        <ele>12.800000190735</ele>
        <time>2019-11-10T10:31:31.000Z</time>
      </trkpt>
      <trkpt lat="47.34759" lon="-2.37864">
        <ele>12.800000190735</ele>
        <time>2019-11-10T10:31:35.000Z</time>
      </trkpt>
      <trkpt lat="47.34751" lon="-2.37877">
        <ele>12.800000190735</ele>
        <time>2019-11-10T10:31:38.000Z</time>
      </trkpt>
      <trkpt lat="47.34745" lon="-2.37896">
        <ele>12.800000190735</ele>
        <time>2019-11-10T10:31:41.000Z</time>
      </trkpt>
      <trkpt lat="47.34739" lon="-2.3791">
        <ele>13.199999809265</ele>
        <time>2019-11-10T10:31:43.000Z</time>
      </trkpt>
      <trkpt lat="47.34735" lon="-2.37916">
        <ele>13.60000038147</ele>
        <time>2019-11-10T10:31:44.000Z</time>
      </trkpt>
      <trkpt lat="47.34731" lon="-2.37922">
        <ele>14</ele>
        <time>2019-11-10T10:31:45.000Z</time>
      </trkpt>
      <trkpt lat="47.34727" lon="-2.37927">
        <ele>14.39999961853</ele>
        <time>2019-11-10T10:31:46.000Z</time>
      </trkpt>
      <trkpt lat="47.34722" lon="-2.37934">
        <ele>14.800000190735</ele>
        <time>2019-11-10T10:31:47.000Z</time>
      </trkpt>
      <trkpt lat="47.34688" lon="-2.37974">
        <ele>14.800000190735</ele>
        <time>2019-11-10T10:31:54.000Z</time>
      </trkpt>
      <trkpt lat="47.34658" lon="-2.38001">
        <ele>14.800000190735</ele>
        <time>2019-11-10T10:32:00.000Z</time>
      </trkpt>
      <trkpt lat="47.34634" lon="-2.3802">
        <ele>14.800000190735</ele>
        <time>2019-11-10T10:32:05.000Z</time>
      </trkpt>
      <trkpt lat="47.34625" lon="-2.38029">
        <ele>14.800000190735</ele>
        <time>2019-11-10T10:32:07.000Z</time>
      </trkpt>
      <trkpt lat="47.34612" lon="-2.38041">
        <ele>14.800000190735</ele>
        <time>2019-11-10T10:32:10.000Z</time>
      </trkpt>
      <trkpt lat="47.34609" lon="-2.38053">
        <ele>14.800000190735</ele>
        <time>2019-11-10T10:32:12.000Z</time>
      </trkpt>
      <trkpt lat="47.34614" lon="-2.38073">
        <ele>14.800000190735</ele>
        <time>2019-11-10T10:32:15.000Z</time>
      </trkpt>
      <trkpt lat="47.34619" lon="-2.38085">
        <ele>14.800000190735</ele>
        <time>2019-11-10T10:32:17.000Z</time>
      </trkpt>
      <trkpt lat="47.34623" lon="-2.38091">
        <ele>14.800000190735</ele>
        <time>2019-11-10T10:32:18.000Z</time>
      </trkpt>
      <trkpt lat="47.3463" lon="-2.38103">
        <ele>14.800000190735</ele>
        <time>2019-11-10T10:32:20.000Z</time>
      </trkpt>
      <trkpt lat="47.34642" lon="-2.38127">
        <ele>14.800000190735</ele>
        <time>2019-11-10T10:32:24.000Z</time>
      </trkpt>
      <trkpt lat="47.34644" lon="-2.38135">
        <ele>14.800000190735</ele>
        <time>2019-11-10T10:32:25.000Z</time>
      </trkpt>
      <trkpt lat="47.34647" lon="-2.38148">
        <ele>14.800000190735</ele>
        <time>2019-11-10T10:32:27.000Z</time>
      </trkpt>
      <trkpt lat="47.34649" lon="-2.3817">
        <ele>14.800000190735</ele>
        <time>2019-11-10T10:32:30.000Z</time>
      </trkpt>
      <trkpt lat="47.3465" lon="-2.38217">
        <ele>14.800000190735</ele>
        <time>2019-11-10T10:32:36.000Z</time>
      </trkpt>
      <trkpt lat="47.34651" lon="-2.38262">
        <ele>14.800000190735</ele>
        <time>2019-11-10T10:32:42.000Z</time>
      </trkpt>
      <trkpt lat="47.34653" lon="-2.38312">
        <ele>14.800000190735</ele>
        <time>2019-11-10T10:32:49.000Z</time>
      </trkpt>
      <trkpt lat="47.34655" lon="-2.38347">
        <ele>14.800000190735</ele>
        <time>2019-11-10T10:32:54.000Z</time>
      </trkpt>
      <trkpt lat="47.34656" lon="-2.38354">
        <ele>14.800000190735</ele>
        <time>2019-11-10T10:32:55.000Z</time>
      </trkpt>
      <trkpt lat="47.34659" lon="-2.3839">
        <ele>14.800000190735</ele>
        <time>2019-11-10T10:33:00.000Z</time>
      </trkpt>
      <trkpt lat="47.34662" lon="-2.38403">
        <ele>14.800000190735</ele>
        <time>2019-11-10T10:33:02.000Z</time>
      </trkpt>
      <trkpt lat="47.34665" lon="-2.38417">
        <ele>14.800000190735</ele>
        <time>2019-11-10T10:33:04.000Z</time>
      </trkpt>
      <trkpt lat="47.34667" lon="-2.38423">
        <ele>14.39999961853</ele>
        <time>2019-11-10T10:33:05.000Z</time>
      </trkpt>
      <trkpt lat="47.34669" lon="-2.3843">
        <ele>14</ele>
        <time>2019-11-10T10:33:06.000Z</time>
      </trkpt>
      <trkpt lat="47.34671" lon="-2.38437">
        <ele>13.60000038147</ele>
        <time>2019-11-10T10:33:07.000Z</time>
      </trkpt>
      <trkpt lat="47.34673" lon="-2.38443">
        <ele>13.199999809265</ele>
        <time>2019-11-10T10:33:08.000Z</time>
      </trkpt>
      <trkpt lat="47.34675" lon="-2.38449">
        <ele>12.800000190735</ele>
        <time>2019-11-10T10:33:09.000Z</time>
      </trkpt>
      <trkpt lat="47.34678" lon="-2.38463">
        <ele>12.800000190735</ele>
        <time>2019-11-10T10:33:11.000Z</time>
      </trkpt>
      <trkpt lat="47.34685" lon="-2.38509">
        <ele>12.800000190735</ele>
        <time>2019-11-10T10:33:18.000Z</time>
      </trkpt>
      <trkpt lat="47.34689" lon="-2.38547">
        <ele>12.800000190735</ele>
        <time>2019-11-10T10:33:24.000Z</time>
      </trkpt>
      <trkpt lat="47.3469" lon="-2.38586">
        <ele>12.800000190735</ele>
        <time>2019-11-10T10:33:30.000Z</time>
      </trkpt>
      <trkpt lat="47.34691" lon="-2.38617">
        <ele>12.800000190735</ele>
        <time>2019-11-10T10:33:35.000Z</time>
      </trkpt>
      <trkpt lat="47.34693" lon="-2.38648">
        <ele>12.800000190735</ele>
        <time>2019-11-10T10:33:40.000Z</time>
      </trkpt>
      <trkpt lat="47.34697" lon="-2.38693">
        <ele>12.800000190735</ele>
        <time>2019-11-10T10:33:46.000Z</time>
      </trkpt>
      <trkpt lat="47.34699" lon="-2.38709">
        <ele>12.800000190735</ele>
        <time>2019-11-10T10:33:48.000Z</time>
      </trkpt>
      <trkpt lat="47.347" lon="-2.38733">
        <ele>12.800000190735</ele>
        <time>2019-11-10T10:33:51.000Z</time>
      </trkpt>
      <trkpt lat="47.34701" lon="-2.38757">
        <ele>12.800000190735</ele>
        <time>2019-11-10T10:33:54.000Z</time>
      </trkpt>
      <trkpt lat="47.34703" lon="-2.38781">
        <ele>12.800000190735</ele>
        <time>2019-11-10T10:33:57.000Z</time>
      </trkpt>
      <trkpt lat="47.34704" lon="-2.38805">
        <ele>12.800000190735</ele>
        <time>2019-11-10T10:34:01.000Z</time>
      </trkpt>
      <trkpt lat="47.34704" lon="-2.38818">
        <ele>12.800000190735</ele>
        <time>2019-11-10T10:34:03.000Z</time>
      </trkpt>
      <trkpt lat="47.34705" lon="-2.38843">
        <ele>12.800000190735</ele>
        <time>2019-11-10T10:34:07.000Z</time>
      </trkpt>
      <trkpt lat="47.34705" lon="-2.38876">
        <ele>12.800000190735</ele>
        <time>2019-11-10T10:34:12.000Z</time>
      </trkpt>
      <trkpt lat="47.34705" lon="-2.38882">
        <ele>12.800000190735</ele>
        <time>2019-11-10T10:34:13.000Z</time>
      </trkpt>
      <trkpt lat="47.34706" lon="-2.38919">
        <ele>12.800000190735</ele>
        <time>2019-11-10T10:34:19.000Z</time>
      </trkpt>
      <trkpt lat="47.34705" lon="-2.38952">
        <ele>12.800000190735</ele>
        <time>2019-11-10T10:34:25.000Z</time>
      </trkpt>
      <trkpt lat="47.34705" lon="-2.38975">
        <ele>12.800000190735</ele>
        <time>2019-11-10T10:34:30.000Z</time>
      </trkpt>
      <trkpt lat="47.34704" lon="-2.38999">
        <ele>12.800000190735</ele>
        <time>2019-11-10T10:34:35.000Z</time>
      </trkpt>
      <trkpt lat="47.347" lon="-2.39026">
        <ele>12.800000190735</ele>
        <time>2019-11-10T10:34:40.000Z</time>
      </trkpt>
      <trkpt lat="47.34697" lon="-2.39053">
        <ele>12.800000190735</ele>
        <time>2019-11-10T10:34:45.000Z</time>
      </trkpt>
      <trkpt lat="47.34694" lon="-2.39085">
        <ele>12.800000190735</ele>
        <time>2019-11-10T10:34:51.000Z</time>
      </trkpt>
      <trkpt lat="47.3469" lon="-2.39121">
        <ele>12.800000190735</ele>
        <time>2019-11-10T10:34:57.000Z</time>
      </trkpt>
      <trkpt lat="47.34688" lon="-2.39158">
        <ele>12.800000190735</ele>
        <time>2019-11-10T10:35:03.000Z</time>
      </trkpt>
      <trkpt lat="47.34693" lon="-2.39195">
        <ele>12.800000190735</ele>
        <time>2019-11-10T10:35:10.000Z</time>
      </trkpt>
      <trkpt lat="47.347" lon="-2.39216">
        <ele>12.800000190735</ele>
        <time>2019-11-10T10:35:14.000Z</time>
      </trkpt>
      <trkpt lat="47.347" lon="-2.39233">
        <ele>12.800000190735</ele>
        <time>2019-11-10T10:35:17.000Z</time>
      </trkpt>
      <trkpt lat="47.34698" lon="-2.39238">
        <ele>12.800000190735</ele>
        <time>2019-11-10T10:35:18.000Z</time>
      </trkpt>
      <trkpt lat="47.34685" lon="-2.39261">
        <ele>12.800000190735</ele>
        <time>2019-11-10T10:35:23.000Z</time>
      </trkpt>
      <trkpt lat="47.34668" lon="-2.39291">
        <ele>12.800000190735</ele>
        <time>2019-11-10T10:35:30.000Z</time>
      </trkpt>
      <trkpt lat="47.34664" lon="-2.39301">
        <ele>13.199999809265</ele>
        <time>2019-11-10T10:35:32.000Z</time>
      </trkpt>
      <trkpt lat="47.34662" lon="-2.39306">
        <ele>13.60000038147</ele>
        <time>2019-11-10T10:35:33.000Z</time>
      </trkpt>
      <trkpt lat="47.34661" lon="-2.3931">
        <ele>14</ele>
        <time>2019-11-10T10:35:34.000Z</time>
      </trkpt>
      <trkpt lat="47.34661" lon="-2.39316">
        <ele>14.39999961853</ele>
        <time>2019-11-10T10:35:35.000Z</time>
      </trkpt>
      <trkpt lat="47.34659" lon="-2.39321">
        <ele>14.800000190735</ele>
        <time>2019-11-10T10:35:36.000Z</time>
      </trkpt>
      <trkpt lat="47.34652" lon="-2.39333">
        <ele>14.800000190735</ele>
        <time>2019-11-10T10:35:39.000Z</time>
      </trkpt>
      <trkpt lat="47.3464" lon="-2.3935">
        <ele>14.800000190735</ele>
        <time>2019-11-10T10:35:43.000Z</time>
      </trkpt>
      <trkpt lat="47.34634" lon="-2.39358">
        <ele>14.800000190735</ele>
        <time>2019-11-10T10:35:45.000Z</time>
      </trkpt>
      <trkpt lat="47.34619" lon="-2.39384">
        <ele>14.800000190735</ele>
        <time>2019-11-10T10:35:51.000Z</time>
      </trkpt>
      <trkpt lat="47.34603" lon="-2.39411">
        <ele>15.199999809265</ele>
        <time>2019-11-10T10:35:57.000Z</time>
      </trkpt>
      <trkpt lat="47.34601" lon="-2.39416">
        <ele>15.60000038147</ele>
        <time>2019-11-10T10:35:58.000Z</time>
      </trkpt>
      <trkpt lat="47.34598" lon="-2.39421">
        <ele>16</ele>
        <time>2019-11-10T10:35:59.000Z</time>
      </trkpt>
      <trkpt lat="47.34595" lon="-2.39425">
        <ele>16.39999961853</ele>
        <time>2019-11-10T10:36:00.000Z</time>
      </trkpt>
      <trkpt lat="47.34593" lon="-2.3943">
        <ele>16.799999237061</ele>
        <time>2019-11-10T10:36:01.000Z</time>
      </trkpt>
      <trkpt lat="47.34579" lon="-2.39445">
        <ele>16.799999237061</ele>
        <time>2019-11-10T10:36:05.000Z</time>
      </trkpt>
      <trkpt lat="47.34563" lon="-2.39463">
        <ele>17.200000762939</ele>
        <time>2019-11-10T10:36:10.000Z</time>
      </trkpt>
      <trkpt lat="47.34559" lon="-2.39468">
        <ele>17.60000038147</ele>
        <time>2019-11-10T10:36:11.000Z</time>
      </trkpt>
      <trkpt lat="47.34557" lon="-2.39472">
        <ele>18</ele>
        <time>2019-11-10T10:36:12.000Z</time>
      </trkpt>
      <trkpt lat="47.34555" lon="-2.39478">
        <ele>18.60000038147</ele>
        <time>2019-11-10T10:36:13.000Z</time>
      </trkpt>
      <trkpt lat="47.34554" lon="-2.39484">
        <ele>19</ele>
        <time>2019-11-10T10:36:14.000Z</time>
      </trkpt>
      <trkpt lat="47.34551" lon="-2.39495">
        <ele>19</ele>
        <time>2019-11-10T10:36:16.000Z</time>
      </trkpt>
      <trkpt lat="47.3455" lon="-2.39502">
        <ele>19</ele>
        <time>2019-11-10T10:36:17.000Z</time>
      </trkpt>
      <trkpt lat="47.34548" lon="-2.39519">
        <ele>19</ele>
        <time>2019-11-10T10:36:20.000Z</time>
      </trkpt>
      <trkpt lat="47.34547" lon="-2.39531">
        <ele>19</ele>
        <time>2019-11-10T10:36:22.000Z</time>
      </trkpt>
      <trkpt lat="47.34542" lon="-2.39553">
        <ele>19</ele>
        <time>2019-11-10T10:36:26.000Z</time>
      </trkpt>
      <trkpt lat="47.3454" lon="-2.39559">
        <ele>19</ele>
        <time>2019-11-10T10:36:27.000Z</time>
      </trkpt>
      <trkpt lat="47.34539" lon="-2.39564">
        <ele>19.39999961853</ele>
        <time>2019-11-10T10:36:28.000Z</time>
      </trkpt>
      <trkpt lat="47.34537" lon="-2.3957">
        <ele>19.799999237061</ele>
        <time>2019-11-10T10:36:29.000Z</time>
      </trkpt>
      <trkpt lat="47.34535" lon="-2.39575">
        <ele>20.200000762939</ele>
        <time>2019-11-10T10:36:30.000Z</time>
      </trkpt>
      <trkpt lat="47.34533" lon="-2.3958">
        <ele>20.60000038147</ele>
        <time>2019-11-10T10:36:31.000Z</time>
      </trkpt>
      <trkpt lat="47.3453" lon="-2.39586">
        <ele>21</ele>
        <time>2019-11-10T10:36:32.000Z</time>
      </trkpt>
      <trkpt lat="47.34524" lon="-2.39597">
        <ele>21</ele>
        <time>2019-11-10T10:36:34.000Z</time>
      </trkpt>
      <trkpt lat="47.34508" lon="-2.39633">
        <ele>21</ele>
        <time>2019-11-10T10:36:40.000Z</time>
      </trkpt>
      <trkpt lat="47.34505" lon="-2.39639">
        <ele>21</ele>
        <time>2019-11-10T10:36:41.000Z</time>
      </trkpt>
      <trkpt lat="47.34477" lon="-2.3969">
        <ele>21</ele>
        <time>2019-11-10T10:36:49.000Z</time>
      </trkpt>
      <trkpt lat="47.34475" lon="-2.39697">
        <ele>21</ele>
        <time>2019-11-10T10:36:50.000Z</time>
      </trkpt>
      <trkpt lat="47.34471" lon="-2.39722">
        <ele>21</ele>
        <time>2019-11-10T10:36:53.000Z</time>
      </trkpt>
      <trkpt lat="47.34471" lon="-2.39738">
        <ele>21</ele>
        <time>2019-11-10T10:36:55.000Z</time>
      </trkpt>
      <trkpt lat="47.34471" lon="-2.39762">
        <ele>21</ele>
        <time>2019-11-10T10:36:58.000Z</time>
      </trkpt>
      <trkpt lat="47.34479" lon="-2.3977">
        <ele>21</ele>
        <time>2019-11-10T10:37:00.000Z</time>
      </trkpt>
      <trkpt lat="47.34488" lon="-2.39772">
        <ele>21</ele>
        <time>2019-11-10T10:37:02.000Z</time>
      </trkpt>
      <trkpt lat="47.34501" lon="-2.39778">
        <ele>21</ele>
        <time>2019-11-10T10:37:05.000Z</time>
      </trkpt>
      <trkpt lat="47.34513" lon="-2.39786">
        <ele>21</ele>
        <time>2019-11-10T10:37:08.000Z</time>
      </trkpt>
      <trkpt lat="47.34523" lon="-2.39794">
        <ele>21</ele>
        <time>2019-11-10T10:37:11.000Z</time>
      </trkpt>
      <trkpt lat="47.34547" lon="-2.39815">
        <ele>21</ele>
        <time>2019-11-10T10:37:18.000Z</time>
      </trkpt>
      <trkpt lat="47.34572" lon="-2.3984">
        <ele>21</ele>
        <time>2019-11-10T10:37:25.000Z</time>
      </trkpt>
      <trkpt lat="47.3458" lon="-2.39846">
        <ele>21</ele>
        <time>2019-11-10T10:37:27.000Z</time>
      </trkpt>
      <trkpt lat="47.34598" lon="-2.39854">
        <ele>21</ele>
        <time>2019-11-10T10:37:31.000Z</time>
      </trkpt>
      <trkpt lat="47.34607" lon="-2.39861">
        <ele>21</ele>
        <time>2019-11-10T10:37:33.000Z</time>
      </trkpt>
      <trkpt lat="47.34612" lon="-2.39874">
        <ele>21</ele>
        <time>2019-11-10T10:37:35.000Z</time>
      </trkpt>
      <trkpt lat="47.34611" lon="-2.39889">
        <ele>20.60000038147</ele>
        <time>2019-11-10T10:37:37.000Z</time>
      </trkpt>
      <trkpt lat="47.3461" lon="-2.39895">
        <ele>20.200000762939</ele>
        <time>2019-11-10T10:37:38.000Z</time>
      </trkpt>
      <trkpt lat="47.34608" lon="-2.39901">
        <ele>19.799999237061</ele>
        <time>2019-11-10T10:37:39.000Z</time>
      </trkpt>
      <trkpt lat="47.34606" lon="-2.39907">
        <ele>19.39999961853</ele>
        <time>2019-11-10T10:37:40.000Z</time>
      </trkpt>
      <trkpt lat="47.34604" lon="-2.39914">
        <ele>19</ele>
        <time>2019-11-10T10:37:41.000Z</time>
      </trkpt>
      <trkpt lat="47.34597" lon="-2.39933">
        <ele>19</ele>
        <time>2019-11-10T10:37:44.000Z</time>
      </trkpt>
      <trkpt lat="47.34594" lon="-2.39946">
        <ele>19</ele>
        <time>2019-11-10T10:37:46.000Z</time>
      </trkpt>
      <trkpt lat="47.34591" lon="-2.39956">
        <ele>19</ele>
        <time>2019-11-10T10:37:48.000Z</time>
      </trkpt>
      <trkpt lat="47.34587" lon="-2.39962">
        <ele>19</ele>
        <time>2019-11-10T10:37:50.000Z</time>
      </trkpt>
      <trkpt lat="47.34586" lon="-2.39966">
        <ele>19</ele>
        <time>2019-11-10T10:37:51.000Z</time>
      </trkpt>
      <trkpt lat="47.34585" lon="-2.39976">
        <ele>19</ele>
        <time>2019-11-10T10:37:53.000Z</time>
      </trkpt>
      <trkpt lat="47.34586" lon="-2.39985">
        <ele>19</ele>
        <time>2019-11-10T10:37:55.000Z</time>
      </trkpt>
      <trkpt lat="47.34592" lon="-2.40001">
        <ele>19</ele>
        <time>2019-11-10T10:38:00.000Z</time>
      </trkpt>
      <trkpt lat="47.34597" lon="-2.40007">
        <ele>19</ele>
        <time>2019-11-10T10:38:04.000Z</time>
      </trkpt>
      <trkpt lat="47.34594" lon="-2.40008">
        <ele>19</ele>
        <time>2019-11-10T10:38:07.000Z</time>
      </trkpt>
      <trkpt lat="47.34588" lon="-2.40002">
        <ele>19</ele>
        <time>2019-11-10T10:38:12.000Z</time>
      </trkpt>
      <trkpt lat="47.34585" lon="-2.39999">
        <ele>19</ele>
        <time>2019-11-10T10:38:14.000Z</time>
      </trkpt>
      <trkpt lat="47.34582" lon="-2.39994">
        <ele>19</ele>
        <time>2019-11-10T10:38:18.000Z</time>
      </trkpt>
      <trkpt lat="47.34581" lon="-2.39993">
        <ele>19</ele>
        <time>2019-11-10T10:38:20.000Z</time>
      </trkpt>
      <trkpt lat="47.34583" lon="-2.39991">
        <ele>19</ele>
        <time>2019-11-10T10:38:46.000Z</time>
      </trkpt>
      <trkpt lat="47.34584" lon="-2.39992">
        <ele>19</ele>
        <time>2019-11-10T10:38:47.000Z</time>
      </trkpt>
      <trkpt lat="47.34592" lon="-2.4">
        <ele>19</ele>
        <time>2019-11-10T10:38:51.000Z</time>
      </trkpt>
      <trkpt lat="47.34596" lon="-2.40006">
        <ele>19</ele>
        <time>2019-11-10T10:38:53.000Z</time>
      </trkpt>
      <trkpt lat="47.34608" lon="-2.40025">
        <ele>19</ele>
        <time>2019-11-10T10:38:58.000Z</time>
      </trkpt>
      <trkpt lat="47.34621" lon="-2.40047">
        <ele>19</ele>
        <time>2019-11-10T10:39:03.000Z</time>
      </trkpt>
      <trkpt lat="47.34637" lon="-2.40072">
        <ele>19</ele>
        <time>2019-11-10T10:39:09.000Z</time>
      </trkpt>
      <trkpt lat="47.34657" lon="-2.40103">
        <ele>19</ele>
        <time>2019-11-10T10:39:17.000Z</time>
      </trkpt>
      <trkpt lat="47.34678" lon="-2.40119">
        <ele>19</ele>
        <time>2019-11-10T10:39:24.000Z</time>
      </trkpt>
      <trkpt lat="47.34701" lon="-2.40126">
        <ele>19</ele>
        <time>2019-11-10T10:39:30.000Z</time>
      </trkpt>
      <trkpt lat="47.34724" lon="-2.40135">
        <ele>19</ele>
        <time>2019-11-10T10:39:36.000Z</time>
      </trkpt>
      <trkpt lat="47.34728" lon="-2.40137">
        <ele>19</ele>
        <time>2019-11-10T10:39:37.000Z</time>
      </trkpt>
      <trkpt lat="47.3474" lon="-2.40151">
        <ele>19</ele>
        <time>2019-11-10T10:39:41.000Z</time>
      </trkpt>
      <trkpt lat="47.34752" lon="-2.40167">
        <ele>19</ele>
        <time>2019-11-10T10:39:46.000Z</time>
      </trkpt>
      <trkpt lat="47.3477" lon="-2.40193">
        <ele>19</ele>
        <time>2019-11-10T10:39:53.000Z</time>
      </trkpt>
      <trkpt lat="47.34788" lon="-2.40211">
        <ele>19</ele>
        <time>2019-11-10T10:39:59.000Z</time>
      </trkpt>
      <trkpt lat="47.34798" lon="-2.4022">
        <ele>19</ele>
        <time>2019-11-10T10:40:02.000Z</time>
      </trkpt>
      <trkpt lat="47.34804" lon="-2.40231">
        <ele>18.60000038147</ele>
        <time>2019-11-10T10:40:04.000Z</time>
      </trkpt>
      <trkpt lat="47.34807" lon="-2.40239">
        <ele>18.200000762939</ele>
        <time>2019-11-10T10:40:05.000Z</time>
      </trkpt>
      <trkpt lat="47.3481" lon="-2.40245">
        <ele>17.799999237061</ele>
        <time>2019-11-10T10:40:06.000Z</time>
      </trkpt>
      <trkpt lat="47.34813" lon="-2.40252">
        <ele>17.39999961853</ele>
        <time>2019-11-10T10:40:07.000Z</time>
      </trkpt>
      <trkpt lat="47.34816" lon="-2.40258">
        <ele>17</ele>
        <time>2019-11-10T10:40:08.000Z</time>
      </trkpt>
      <trkpt lat="47.34819" lon="-2.40264">
        <ele>17</ele>
        <time>2019-11-10T10:40:09.000Z</time>
      </trkpt>
      <trkpt lat="47.3484" lon="-2.40306">
        <ele>17</ele>
        <time>2019-11-10T10:40:16.000Z</time>
      </trkpt>
      <trkpt lat="47.34845" lon="-2.40317">
        <ele>17</ele>
        <time>2019-11-10T10:40:18.000Z</time>
      </trkpt>
      <trkpt lat="47.34848" lon="-2.40323">
        <ele>16.60000038147</ele>
        <time>2019-11-10T10:40:19.000Z</time>
      </trkpt>
      <trkpt lat="47.3485" lon="-2.4033">
        <ele>16</ele>
        <time>2019-11-10T10:40:20.000Z</time>
      </trkpt>
      <trkpt lat="47.34853" lon="-2.40337">
        <ele>15.60000038147</ele>
        <time>2019-11-10T10:40:21.000Z</time>
      </trkpt>
      <trkpt lat="47.34855" lon="-2.40344">
        <ele>15.199999809265</ele>
        <time>2019-11-10T10:40:22.000Z</time>
      </trkpt>
      <trkpt lat="47.34857" lon="-2.40352">
        <ele>14.800000190735</ele>
        <time>2019-11-10T10:40:23.000Z</time>
      </trkpt>
      <trkpt lat="47.34859" lon="-2.40359">
        <ele>14.800000190735</ele>
        <time>2019-11-10T10:40:24.000Z</time>
      </trkpt>
      <trkpt lat="47.34863" lon="-2.40382">
        <ele>14.800000190735</ele>
        <time>2019-11-10T10:40:27.000Z</time>
      </trkpt>
      <trkpt lat="47.34872" lon="-2.40442">
        <ele>14.800000190735</ele>
        <time>2019-11-10T10:40:34.000Z</time>
      </trkpt>
      <trkpt lat="47.34879" lon="-2.40477">
        <ele>14.39999961853</ele>
        <time>2019-11-10T10:40:38.000Z</time>
      </trkpt>
      <trkpt lat="47.34881" lon="-2.40485">
        <ele>13.800000190735</ele>
        <time>2019-11-10T10:40:39.000Z</time>
      </trkpt>
      <trkpt lat="47.34882" lon="-2.40495">
        <ele>13.39999961853</ele>
        <time>2019-11-10T10:40:40.000Z</time>
      </trkpt>
      <trkpt lat="47.34883" lon="-2.40503">
        <ele>13</ele>
        <time>2019-11-10T10:40:41.000Z</time>
      </trkpt>
      <trkpt lat="47.34884" lon="-2.40512">
        <ele>12.60000038147</ele>
        <time>2019-11-10T10:40:42.000Z</time>
      </trkpt>
      <trkpt lat="47.34887" lon="-2.40554">
        <ele>12.60000038147</ele>
        <time>2019-11-10T10:40:47.000Z</time>
      </trkpt>
      <trkpt lat="47.34884" lon="-2.4056">
        <ele>12.60000038147</ele>
        <time>2019-11-10T10:40:48.000Z</time>
      </trkpt>
      <trkpt lat="47.34873" lon="-2.40578">
        <ele>12.199999809265</ele>
        <time>2019-11-10T10:40:51.000Z</time>
      </trkpt>
      <trkpt lat="47.34869" lon="-2.40583">
        <ele>11.800000190735</ele>
        <time>2019-11-10T10:40:52.000Z</time>
      </trkpt>
      <trkpt lat="47.34864" lon="-2.40588">
        <ele>11.39999961853</ele>
        <time>2019-11-10T10:40:53.000Z</time>
      </trkpt>
      <trkpt lat="47.3486" lon="-2.40593">
        <ele>11</ele>
        <time>2019-11-10T10:40:54.000Z</time>
      </trkpt>
      <trkpt lat="47.34856" lon="-2.40597">
        <ele>10.60000038147</ele>
        <time>2019-11-10T10:40:55.000Z</time>
      </trkpt>
      <trkpt lat="47.3484" lon="-2.40619">
        <ele>10.60000038147</ele>
        <time>2019-11-10T10:40:59.000Z</time>
      </trkpt>
      <trkpt lat="47.34832" lon="-2.40647">
        <ele>10.60000038147</ele>
        <time>2019-11-10T10:41:03.000Z</time>
      </trkpt>
      <trkpt lat="47.34823" lon="-2.40696">
        <ele>10.60000038147</ele>
        <time>2019-11-10T10:41:10.000Z</time>
      </trkpt>
      <trkpt lat="47.34822" lon="-2.40723">
        <ele>11</ele>
        <time>2019-11-10T10:41:14.000Z</time>
      </trkpt>
      <trkpt lat="47.34822" lon="-2.4073">
        <ele>11.39999961853</ele>
        <time>2019-11-10T10:41:15.000Z</time>
      </trkpt>
      <trkpt lat="47.34823" lon="-2.40736">
        <ele>11.800000190735</ele>
        <time>2019-11-10T10:41:16.000Z</time>
      </trkpt>
      <trkpt lat="47.34824" lon="-2.40743">
        <ele>12.199999809265</ele>
        <time>2019-11-10T10:41:17.000Z</time>
      </trkpt>
      <trkpt lat="47.34825" lon="-2.40749">
        <ele>12.800000190735</ele>
        <time>2019-11-10T10:41:18.000Z</time>
      </trkpt>
      <trkpt lat="47.34826" lon="-2.40756">
        <ele>12.800000190735</ele>
        <time>2019-11-10T10:41:19.000Z</time>
      </trkpt>
      <trkpt lat="47.3483" lon="-2.40768">
        <ele>12.800000190735</ele>
        <time>2019-11-10T10:41:21.000Z</time>
      </trkpt>
      <trkpt lat="47.34833" lon="-2.40773">
        <ele>12.800000190735</ele>
        <time>2019-11-10T10:41:22.000Z</time>
      </trkpt>
      <trkpt lat="47.34847" lon="-2.40777">
        <ele>12.800000190735</ele>
        <time>2019-11-10T10:41:25.000Z</time>
      </trkpt>
      <trkpt lat="47.34852" lon="-2.40778">
        <ele>12.800000190735</ele>
        <time>2019-11-10T10:41:26.000Z</time>
      </trkpt>
      <trkpt lat="47.34874" lon="-2.40779">
        <ele>12.800000190735</ele>
        <time>2019-11-10T10:41:31.000Z</time>
      </trkpt>
      <trkpt lat="47.34897" lon="-2.4079">
        <ele>12.800000190735</ele>
        <time>2019-11-10T10:41:37.000Z</time>
      </trkpt>
      <trkpt lat="47.34911" lon="-2.40815">
        <ele>12.800000190735</ele>
        <time>2019-11-10T10:41:42.000Z</time>
      </trkpt>
      <trkpt lat="47.34922" lon="-2.40836">
        <ele>12.800000190735</ele>
        <time>2019-11-10T10:41:46.000Z</time>
      </trkpt>
      <trkpt lat="47.34928" lon="-2.40847">
        <ele>13.199999809265</ele>
        <time>2019-11-10T10:41:48.000Z</time>
      </trkpt>
      <trkpt lat="47.3493" lon="-2.40852">
        <ele>13.60000038147</ele>
        <time>2019-11-10T10:41:49.000Z</time>
      </trkpt>
      <trkpt lat="47.34932" lon="-2.40859">
        <ele>14</ele>
        <time>2019-11-10T10:41:50.000Z</time>
      </trkpt>
      <trkpt lat="47.34933" lon="-2.40865">
        <ele>14.39999961853</ele>
        <time>2019-11-10T10:41:51.000Z</time>
      </trkpt>
      <trkpt lat="47.34934" lon="-2.40872">
        <ele>14.800000190735</ele>
        <time>2019-11-10T10:41:52.000Z</time>
      </trkpt>
      <trkpt lat="47.34935" lon="-2.4088">
        <ele>14.800000190735</ele>
        <time>2019-11-10T10:41:53.000Z</time>
      </trkpt>
      <trkpt lat="47.34941" lon="-2.40922">
        <ele>14.800000190735</ele>
        <time>2019-11-10T10:41:59.000Z</time>
      </trkpt>
      <trkpt lat="47.3494" lon="-2.40959">
        <ele>14.800000190735</ele>
        <time>2019-11-10T10:42:04.000Z</time>
      </trkpt>
      <trkpt lat="47.34935" lon="-2.4101">
        <ele>14.800000190735</ele>
        <time>2019-11-10T10:42:11.000Z</time>
      </trkpt>
      <trkpt lat="47.34935" lon="-2.41032">
        <ele>14.800000190735</ele>
        <time>2019-11-10T10:42:14.000Z</time>
      </trkpt>
      <trkpt lat="47.34937" lon="-2.41046">
        <ele>14.800000190735</ele>
        <time>2019-11-10T10:42:16.000Z</time>
      </trkpt>
      <trkpt lat="47.34942" lon="-2.41061">
        <ele>14.39999961853</ele>
        <time>2019-11-10T10:42:18.000Z</time>
      </trkpt>
      <trkpt lat="47.34945" lon="-2.41069">
        <ele>14</ele>
        <time>2019-11-10T10:42:19.000Z</time>
      </trkpt>
      <trkpt lat="47.34949" lon="-2.41076">
        <ele>13.60000038147</ele>
        <time>2019-11-10T10:42:20.000Z</time>
      </trkpt>
      <trkpt lat="47.34952" lon="-2.41085">
        <ele>13.199999809265</ele>
        <time>2019-11-10T10:42:21.000Z</time>
      </trkpt>
      <trkpt lat="47.34955" lon="-2.41093">
        <ele>12.800000190735</ele>
        <time>2019-11-10T10:42:22.000Z</time>
      </trkpt>
      <trkpt lat="47.34977" lon="-2.41142">
        <ele>12.800000190735</ele>
        <time>2019-11-10T10:42:28.000Z</time>
      </trkpt>
      <trkpt lat="47.34985" lon="-2.4116">
        <ele>12.800000190735</ele>
        <time>2019-11-10T10:42:31.000Z</time>
      </trkpt>
      <trkpt lat="47.34989" lon="-2.41167">
        <ele>12.800000190735</ele>
        <time>2019-11-10T10:42:32.000Z</time>
      </trkpt>
      <trkpt lat="47.34997" lon="-2.41184">
        <ele>12.800000190735</ele>
        <time>2019-11-10T10:42:35.000Z</time>
      </trkpt>
      <trkpt lat="47.35001" lon="-2.41197">
        <ele>12.800000190735</ele>
        <time>2019-11-10T10:42:37.000Z</time>
      </trkpt>
      <trkpt lat="47.3501" lon="-2.41222">
        <ele>12.800000190735</ele>
        <time>2019-11-10T10:42:41.000Z</time>
      </trkpt>
      <trkpt lat="47.35014" lon="-2.41235">
        <ele>12.800000190735</ele>
        <time>2019-11-10T10:42:43.000Z</time>
      </trkpt>
      <trkpt lat="47.35028" lon="-2.41269">
        <ele>12.800000190735</ele>
        <time>2019-11-10T10:42:48.000Z</time>
      </trkpt>
      <trkpt lat="47.35031" lon="-2.41275">
        <ele>12.800000190735</ele>
        <time>2019-11-10T10:42:49.000Z</time>
      </trkpt>
      <trkpt lat="47.35044" lon="-2.41308">
        <ele>12.800000190735</ele>
        <time>2019-11-10T10:42:54.000Z</time>
      </trkpt>
      <trkpt lat="47.35047" lon="-2.41315">
        <ele>12.800000190735</ele>
        <time>2019-11-10T10:42:55.000Z</time>
      </trkpt>
      <trkpt lat="47.35058" lon="-2.41347">
        <ele>12.800000190735</ele>
        <time>2019-11-10T10:42:59.000Z</time>
      </trkpt>
      <trkpt lat="47.35071" lon="-2.41377">
        <ele>12.800000190735</ele>
        <time>2019-11-10T10:43:03.000Z</time>
      </trkpt>
      <trkpt lat="47.35075" lon="-2.41391">
        <ele>12.800000190735</ele>
        <time>2019-11-10T10:43:05.000Z</time>
      </trkpt>
      <trkpt lat="47.35072" lon="-2.41405">
        <ele>12.800000190735</ele>
        <time>2019-11-10T10:43:07.000Z</time>
      </trkpt>
      <trkpt lat="47.35065" lon="-2.41414">
        <ele>12.39999961853</ele>
        <time>2019-11-10T10:43:09.000Z</time>
      </trkpt>
      <trkpt lat="47.3506" lon="-2.41414">
        <ele>12</ele>
        <time>2019-11-10T10:43:10.000Z</time>
      </trkpt>
      <trkpt lat="47.35056" lon="-2.41416">
        <ele>11.60000038147</ele>
        <time>2019-11-10T10:43:11.000Z</time>
      </trkpt>
      <trkpt lat="47.35051" lon="-2.41419">
        <ele>11</ele>
        <time>2019-11-10T10:43:12.000Z</time>
      </trkpt>
      <trkpt lat="47.35046" lon="-2.41422">
        <ele>10.60000038147</ele>
        <time>2019-11-10T10:43:13.000Z</time>
      </trkpt>
      <trkpt lat="47.35037" lon="-2.41427">
        <ele>10.60000038147</ele>
        <time>2019-11-10T10:43:15.000Z</time>
      </trkpt>
      <trkpt lat="47.35009" lon="-2.41442">
        <ele>10.60000038147</ele>
        <time>2019-11-10T10:43:21.000Z</time>
      </trkpt>
      <trkpt lat="47.35003" lon="-2.41443">
        <ele>10.60000038147</ele>
        <time>2019-11-10T10:43:22.000Z</time>
      </trkpt>
      <trkpt lat="47.34993" lon="-2.41448">
        <ele>10.60000038147</ele>
        <time>2019-11-10T10:43:24.000Z</time>
      </trkpt>
      <trkpt lat="47.34983" lon="-2.41453">
        <ele>10.60000038147</ele>
        <time>2019-11-10T10:43:26.000Z</time>
      </trkpt>
      <trkpt lat="47.34957" lon="-2.41462">
        <ele>10.60000038147</ele>
        <time>2019-11-10T10:43:31.000Z</time>
      </trkpt>
      <trkpt lat="47.34946" lon="-2.41465">
        <ele>11</ele>
        <time>2019-11-10T10:43:33.000Z</time>
      </trkpt>
      <trkpt lat="47.34941" lon="-2.41466">
        <ele>11.39999961853</ele>
        <time>2019-11-10T10:43:34.000Z</time>
      </trkpt>
      <trkpt lat="47.34935" lon="-2.41468">
        <ele>11.800000190735</ele>
        <time>2019-11-10T10:43:35.000Z</time>
      </trkpt>
      <trkpt lat="47.34929" lon="-2.4147">
        <ele>12.199999809265</ele>
        <time>2019-11-10T10:43:36.000Z</time>
      </trkpt>
      <trkpt lat="47.34923" lon="-2.41471">
        <ele>12.60000038147</ele>
        <time>2019-11-10T10:43:37.000Z</time>
      </trkpt>
      <trkpt lat="47.34891" lon="-2.41482">
        <ele>12.60000038147</ele>
        <time>2019-11-10T10:43:43.000Z</time>
      </trkpt>
      <trkpt lat="47.34857" lon="-2.41493">
        <ele>12.60000038147</ele>
        <time>2019-11-10T10:43:49.000Z</time>
      </trkpt>
      <trkpt lat="47.3482" lon="-2.41503">
        <ele>12.60000038147</ele>
        <time>2019-11-10T10:43:56.000Z</time>
      </trkpt>
      <trkpt lat="47.34815" lon="-2.41505">
        <ele>12.60000038147</ele>
        <time>2019-11-10T10:43:57.000Z</time>
      </trkpt>
      <trkpt lat="47.34793" lon="-2.41512">
        <ele>12.60000038147</ele>
        <time>2019-11-10T10:44:01.000Z</time>
      </trkpt>
      <trkpt lat="47.34752" lon="-2.41524">
        <ele>12.60000038147</ele>
        <time>2019-11-10T10:44:08.000Z</time>
      </trkpt>
      <trkpt lat="47.34739" lon="-2.41528">
        <ele>13</ele>
        <time>2019-11-10T10:44:10.000Z</time>
      </trkpt>
      <trkpt lat="47.34734" lon="-2.4153">
        <ele>13.60000038147</ele>
        <time>2019-11-10T10:44:11.000Z</time>
      </trkpt>
      <trkpt lat="47.34729" lon="-2.41532">
        <ele>14</ele>
        <time>2019-11-10T10:44:12.000Z</time>
      </trkpt>
      <trkpt lat="47.34724" lon="-2.41534">
        <ele>14.39999961853</ele>
        <time>2019-11-10T10:44:13.000Z</time>
      </trkpt>
      <trkpt lat="47.3472" lon="-2.41535">
        <ele>14.800000190735</ele>
        <time>2019-11-10T10:44:14.000Z</time>
      </trkpt>
      <trkpt lat="47.34691" lon="-2.41543">
        <ele>14.800000190735</ele>
        <time>2019-11-10T10:44:20.000Z</time>
      </trkpt>
      <trkpt lat="47.34682" lon="-2.41547">
        <ele>14.800000190735</ele>
        <time>2019-11-10T10:44:22.000Z</time>
      </trkpt>
      <trkpt lat="47.34672" lon="-2.41551">
        <ele>15.199999809265</ele>
        <time>2019-11-10T10:44:24.000Z</time>
      </trkpt>
      <trkpt lat="47.34667" lon="-2.41552">
        <ele>15.60000038147</ele>
        <time>2019-11-10T10:44:25.000Z</time>
      </trkpt>
      <trkpt lat="47.34661" lon="-2.41554">
        <ele>16</ele>
        <time>2019-11-10T10:44:26.000Z</time>
      </trkpt>
      <trkpt lat="47.34657" lon="-2.41556">
        <ele>16.799999237061</ele>
        <time>2019-11-10T10:44:27.000Z</time>
      </trkpt>
      <trkpt lat="47.34647" lon="-2.41558">
        <ele>16.799999237061</ele>
        <time>2019-11-10T10:44:29.000Z</time>
      </trkpt>
      <trkpt lat="47.34638" lon="-2.41563">
        <ele>16.799999237061</ele>
        <time>2019-11-10T10:44:31.000Z</time>
      </trkpt>
      <trkpt lat="47.34609" lon="-2.41576">
        <ele>16.799999237061</ele>
        <time>2019-11-10T10:44:36.000Z</time>
      </trkpt>
      <trkpt lat="47.34572" lon="-2.41594">
        <ele>16.799999237061</ele>
        <time>2019-11-10T10:44:43.000Z</time>
      </trkpt>
      <trkpt lat="47.34555" lon="-2.416">
        <ele>16.799999237061</ele>
        <time>2019-11-10T10:44:47.000Z</time>
      </trkpt>
      <trkpt lat="47.3455" lon="-2.41602">
        <ele>16.799999237061</ele>
        <time>2019-11-10T10:44:48.000Z</time>
      </trkpt>
      <trkpt lat="47.34527" lon="-2.4161">
        <ele>16.799999237061</ele>
        <time>2019-11-10T10:44:53.000Z</time>
      </trkpt>
      <trkpt lat="47.34509" lon="-2.41618">
        <ele>16.799999237061</ele>
        <time>2019-11-10T10:44:57.000Z</time>
      </trkpt>
      <trkpt lat="47.34499" lon="-2.41622">
        <ele>17.200000762939</ele>
        <time>2019-11-10T10:44:59.000Z</time>
      </trkpt>
      <trkpt lat="47.34494" lon="-2.41623">
        <ele>17.60000038147</ele>
        <time>2019-11-10T10:45:00.000Z</time>
      </trkpt>
      <trkpt lat="47.34489" lon="-2.41625">
        <ele>18</ele>
        <time>2019-11-10T10:45:01.000Z</time>
      </trkpt>
      <trkpt lat="47.34484" lon="-2.41627">
        <ele>18.39999961853</ele>
        <time>2019-11-10T10:45:02.000Z</time>
      </trkpt>
      <trkpt lat="47.34479" lon="-2.41629">
        <ele>18.799999237061</ele>
        <time>2019-11-10T10:45:03.000Z</time>
      </trkpt>
      <trkpt lat="47.34469" lon="-2.41635">
        <ele>18.799999237061</ele>
        <time>2019-11-10T10:45:05.000Z</time>
      </trkpt>
      <trkpt lat="47.34445" lon="-2.41655">
        <ele>18.799999237061</ele>
        <time>2019-11-10T10:45:10.000Z</time>
      </trkpt>
      <trkpt lat="47.3444" lon="-2.41662">
        <ele>18.799999237061</ele>
        <time>2019-11-10T10:45:11.000Z</time>
      </trkpt>
      <trkpt lat="47.34421" lon="-2.41686">
        <ele>18.799999237061</ele>
        <time>2019-11-10T10:45:16.000Z</time>
      </trkpt>
      <trkpt lat="47.34416" lon="-2.4169">
        <ele>18.799999237061</ele>
        <time>2019-11-10T10:45:17.000Z</time>
      </trkpt>
      <trkpt lat="47.344" lon="-2.41701">
        <ele>19.200000762939</ele>
        <time>2019-11-10T10:45:21.000Z</time>
      </trkpt>
      <trkpt lat="47.34396" lon="-2.41704">
        <ele>19.60000038147</ele>
        <time>2019-11-10T10:45:22.000Z</time>
      </trkpt>
      <trkpt lat="47.34392" lon="-2.41706">
        <ele>20</ele>
        <time>2019-11-10T10:45:23.000Z</time>
      </trkpt>
      <trkpt lat="47.34388" lon="-2.4171">
        <ele>20.39999961853</ele>
        <time>2019-11-10T10:45:24.000Z</time>
      </trkpt>
      <trkpt lat="47.34383" lon="-2.41712">
        <ele>20.799999237061</ele>
        <time>2019-11-10T10:45:25.000Z</time>
      </trkpt>
      <trkpt lat="47.34372" lon="-2.4172">
        <ele>20.799999237061</ele>
        <time>2019-11-10T10:45:28.000Z</time>
      </trkpt>
      <trkpt lat="47.34347" lon="-2.41732">
        <ele>20.799999237061</ele>
        <time>2019-11-10T10:45:34.000Z</time>
      </trkpt>
      <trkpt lat="47.34343" lon="-2.41734">
        <ele>21.200000762939</ele>
        <time>2019-11-10T10:45:35.000Z</time>
      </trkpt>
      <trkpt lat="47.34339" lon="-2.41735">
        <ele>21.60000038147</ele>
        <time>2019-11-10T10:45:36.000Z</time>
      </trkpt>
      <trkpt lat="47.34335" lon="-2.41736">
        <ele>22.200000762939</ele>
        <time>2019-11-10T10:45:37.000Z</time>
      </trkpt>
      <trkpt lat="47.34331" lon="-2.41738">
        <ele>22.60000038147</ele>
        <time>2019-11-10T10:45:38.000Z</time>
      </trkpt>
      <trkpt lat="47.34326" lon="-2.41741">
        <ele>23</ele>
        <time>2019-11-10T10:45:39.000Z</time>
      </trkpt>
      <trkpt lat="47.34322" lon="-2.41743">
        <ele>23</ele>
        <time>2019-11-10T10:45:40.000Z</time>
      </trkpt>
      <trkpt lat="47.34295" lon="-2.4176">
        <ele>23</ele>
        <time>2019-11-10T10:45:46.000Z</time>
      </trkpt>
      <trkpt lat="47.34264" lon="-2.41779">
        <ele>23.39999961853</ele>
        <time>2019-11-10T10:45:53.000Z</time>
      </trkpt>
      <trkpt lat="47.3426" lon="-2.41781">
        <ele>23.799999237061</ele>
        <time>2019-11-10T10:45:54.000Z</time>
      </trkpt>
      <trkpt lat="47.34256" lon="-2.41783">
        <ele>24.200000762939</ele>
        <time>2019-11-10T10:45:55.000Z</time>
      </trkpt>
      <trkpt lat="47.34252" lon="-2.41784">
        <ele>24.60000038147</ele>
        <time>2019-11-10T10:45:56.000Z</time>
      </trkpt>
      <trkpt lat="47.34247" lon="-2.41784">
        <ele>25</ele>
        <time>2019-11-10T10:45:57.000Z</time>
      </trkpt>
      <trkpt lat="47.34239" lon="-2.41779">
        <ele>25</ele>
        <time>2019-11-10T10:45:59.000Z</time>
      </trkpt>
      <trkpt lat="47.34231" lon="-2.41761">
        <ele>25</ele>
        <time>2019-11-10T10:46:02.000Z</time>
      </trkpt>
      <trkpt lat="47.34229" lon="-2.41755">
        <ele>25</ele>
        <time>2019-11-10T10:46:03.000Z</time>
      </trkpt>
      <trkpt lat="47.34224" lon="-2.41734">
        <ele>25</ele>
        <time>2019-11-10T10:46:06.000Z</time>
      </trkpt>
      <trkpt lat="47.34223" lon="-2.41727">
        <ele>25</ele>
        <time>2019-11-10T10:46:07.000Z</time>
      </trkpt>
      <trkpt lat="47.34214" lon="-2.41708">
        <ele>25</ele>
        <time>2019-11-10T10:46:10.000Z</time>
      </trkpt>
      <trkpt lat="47.34199" lon="-2.41699">
        <ele>25</ele>
        <time>2019-11-10T10:46:13.000Z</time>
      </trkpt>
      <trkpt lat="47.34185" lon="-2.41705">
        <ele>25</ele>
        <time>2019-11-10T10:46:16.000Z</time>
      </trkpt>
      <trkpt lat="47.34175" lon="-2.41719">
        <ele>25</ele>
        <time>2019-11-10T10:46:19.000Z</time>
      </trkpt>
      <trkpt lat="47.34171" lon="-2.41724">
        <ele>25</ele>
        <time>2019-11-10T10:46:20.000Z</time>
      </trkpt>
      <trkpt lat="47.34147" lon="-2.41749">
        <ele>25</ele>
        <time>2019-11-10T10:46:26.000Z</time>
      </trkpt>
      <trkpt lat="47.34142" lon="-2.41753">
        <ele>25</ele>
        <time>2019-11-10T10:46:27.000Z</time>
      </trkpt>
      <trkpt lat="47.3413" lon="-2.41763">
        <ele>25</ele>
        <time>2019-11-10T10:46:30.000Z</time>
      </trkpt>
      <trkpt lat="47.34126" lon="-2.41767">
        <ele>25.39999961853</ele>
        <time>2019-11-10T10:46:31.000Z</time>
      </trkpt>
      <trkpt lat="47.34122" lon="-2.4177">
        <ele>25.799999237061</ele>
        <time>2019-11-10T10:46:32.000Z</time>
      </trkpt>
      <trkpt lat="47.34118" lon="-2.41773">
        <ele>26.200000762939</ele>
        <time>2019-11-10T10:46:33.000Z</time>
      </trkpt>
      <trkpt lat="47.34114" lon="-2.41777">
        <ele>26.60000038147</ele>
        <time>2019-11-10T10:46:34.000Z</time>
      </trkpt>
      <trkpt lat="47.3411" lon="-2.4178">
        <ele>27</ele>
        <time>2019-11-10T10:46:35.000Z</time>
      </trkpt>
      <trkpt lat="47.3409" lon="-2.41798">
        <ele>27</ele>
        <time>2019-11-10T10:46:40.000Z</time>
      </trkpt>
      <trkpt lat="47.34069" lon="-2.4182">
        <ele>27</ele>
        <time>2019-11-10T10:46:46.000Z</time>
      </trkpt>
      <trkpt lat="47.34065" lon="-2.41823">
        <ele>27</ele>
        <time>2019-11-10T10:46:47.000Z</time>
      </trkpt>
      <trkpt lat="47.34062" lon="-2.41828">
        <ele>27.39999961853</ele>
        <time>2019-11-10T10:46:48.000Z</time>
      </trkpt>
      <trkpt lat="47.34058" lon="-2.41832">
        <ele>28</ele>
        <time>2019-11-10T10:46:49.000Z</time>
      </trkpt>
      <trkpt lat="47.34055" lon="-2.41837">
        <ele>28.39999961853</ele>
        <time>2019-11-10T10:46:50.000Z</time>
      </trkpt>
      <trkpt lat="47.34052" lon="-2.41842">
        <ele>28.799999237061</ele>
        <time>2019-11-10T10:46:51.000Z</time>
      </trkpt>
      <trkpt lat="47.34049" lon="-2.41847">
        <ele>29.200000762939</ele>
        <time>2019-11-10T10:46:52.000Z</time>
      </trkpt>
      <trkpt lat="47.34038" lon="-2.41862">
        <ele>29.200000762939</ele>
        <time>2019-11-10T10:46:55.000Z</time>
      </trkpt>
      <trkpt lat="47.34021" lon="-2.41888">
        <ele>29.200000762939</ele>
        <time>2019-11-10T10:47:00.000Z</time>
      </trkpt>
      <trkpt lat="47.34019" lon="-2.41893">
        <ele>29.200000762939</ele>
        <time>2019-11-10T10:47:01.000Z</time>
      </trkpt>
      <trkpt lat="47.33999" lon="-2.41924">
        <ele>29.200000762939</ele>
        <time>2019-11-10T10:47:07.000Z</time>
      </trkpt>
      <trkpt lat="47.33988" lon="-2.4194">
        <ele>29.60000038147</ele>
        <time>2019-11-10T10:47:10.000Z</time>
      </trkpt>
      <trkpt lat="47.33984" lon="-2.41945">
        <ele>30</ele>
        <time>2019-11-10T10:47:11.000Z</time>
      </trkpt>
      <trkpt lat="47.33981" lon="-2.4195">
        <ele>30.39999961853</ele>
        <time>2019-11-10T10:47:12.000Z</time>
      </trkpt>
      <trkpt lat="47.33977" lon="-2.41955">
        <ele>30.799999237061</ele>
        <time>2019-11-10T10:47:13.000Z</time>
      </trkpt>
      <trkpt lat="47.33972" lon="-2.4196">
        <ele>31.200000762939</ele>
        <time>2019-11-10T10:47:14.000Z</time>
      </trkpt>
      <trkpt lat="47.33947" lon="-2.41988">
        <ele>31.200000762939</ele>
        <time>2019-11-10T10:47:20.000Z</time>
      </trkpt>
      <trkpt lat="47.33911" lon="-2.42024">
        <ele>31.200000762939</ele>
        <time>2019-11-10T10:47:28.000Z</time>
      </trkpt>
      <trkpt lat="47.33886" lon="-2.42047">
        <ele>31.200000762939</ele>
        <time>2019-11-10T10:47:34.000Z</time>
      </trkpt>
      <trkpt lat="47.3385" lon="-2.42072">
        <ele>31.200000762939</ele>
        <time>2019-11-10T10:47:42.000Z</time>
      </trkpt>
      <trkpt lat="47.33838" lon="-2.4208">
        <ele>31.60000038147</ele>
        <time>2019-11-10T10:47:45.000Z</time>
      </trkpt>
      <trkpt lat="47.33834" lon="-2.42082">
        <ele>32</ele>
        <time>2019-11-10T10:47:46.000Z</time>
      </trkpt>
      <trkpt lat="47.3383" lon="-2.42084">
        <ele>32.400001525879</ele>
        <time>2019-11-10T10:47:47.000Z</time>
      </trkpt>
      <trkpt lat="47.33826" lon="-2.42087">
        <ele>32.799999237061</ele>
        <time>2019-11-10T10:47:48.000Z</time>
      </trkpt>
      <trkpt lat="47.33822" lon="-2.4209">
        <ele>33.200000762939</ele>
        <time>2019-11-10T10:47:49.000Z</time>
      </trkpt>
      <trkpt lat="47.3381" lon="-2.42098">
        <ele>33.200000762939</ele>
        <time>2019-11-10T10:47:52.000Z</time>
      </trkpt>
      <trkpt lat="47.33795" lon="-2.42102">
        <ele>33.200000762939</ele>
        <time>2019-11-10T10:47:55.000Z</time>
      </trkpt>
      <trkpt lat="47.33791" lon="-2.42104">
        <ele>33.200000762939</ele>
        <time>2019-11-10T10:47:56.000Z</time>
      </trkpt>
      <trkpt lat="47.3376" lon="-2.42116">
        <ele>33.200000762939</ele>
        <time>2019-11-10T10:48:03.000Z</time>
      </trkpt>
      <trkpt lat="47.33748" lon="-2.42121">
        <ele>33.599998474121</ele>
        <time>2019-11-10T10:48:06.000Z</time>
      </trkpt>
      <trkpt lat="47.33743" lon="-2.42123">
        <ele>34.200000762939</ele>
        <time>2019-11-10T10:48:07.000Z</time>
      </trkpt>
      <trkpt lat="47.33739" lon="-2.42124">
        <ele>35</ele>
        <time>2019-11-10T10:48:08.000Z</time>
      </trkpt>
      <trkpt lat="47.33735" lon="-2.42125">
        <ele>35.400001525879</ele>
        <time>2019-11-10T10:48:09.000Z</time>
      </trkpt>
      <trkpt lat="47.3373" lon="-2.42126">
        <ele>35.400001525879</ele>
        <time>2019-11-10T10:48:10.000Z</time>
      </trkpt>
      <trkpt lat="47.33705" lon="-2.42133">
        <ele>35.400001525879</ele>
        <time>2019-11-10T10:48:16.000Z</time>
      </trkpt>
      <trkpt lat="47.33688" lon="-2.42138">
        <ele>35.400001525879</ele>
        <time>2019-11-10T10:48:20.000Z</time>
      </trkpt>
      <trkpt lat="47.3368" lon="-2.42141">
        <ele>35.799999237061</ele>
        <time>2019-11-10T10:48:22.000Z</time>
      </trkpt>
      <trkpt lat="47.33676" lon="-2.42142">
        <ele>36.200000762939</ele>
        <time>2019-11-10T10:48:23.000Z</time>
      </trkpt>
      <trkpt lat="47.33672" lon="-2.42143">
        <ele>36.599998474121</ele>
        <time>2019-11-10T10:48:24.000Z</time>
      </trkpt>
      <trkpt lat="47.33668" lon="-2.42144">
        <ele>37</ele>
        <time>2019-11-10T10:48:25.000Z</time>
      </trkpt>
      <trkpt lat="47.33664" lon="-2.42145">
        <ele>37.400001525879</ele>
        <time>2019-11-10T10:48:26.000Z</time>
      </trkpt>
      <trkpt lat="47.33653" lon="-2.42148">
        <ele>37.400001525879</ele>
        <time>2019-11-10T10:48:29.000Z</time>
      </trkpt>
      <trkpt lat="47.33639" lon="-2.4215">
        <ele>37.799999237061</ele>
        <time>2019-11-10T10:48:34.000Z</time>
      </trkpt>
      <trkpt lat="47.33637" lon="-2.42149">
        <ele>38.400001525879</ele>
        <time>2019-11-10T10:48:35.000Z</time>
      </trkpt>
      <trkpt lat="47.33636" lon="-2.42149">
        <ele>38.799999237061</ele>
        <time>2019-11-10T10:48:36.000Z</time>
      </trkpt>
      <trkpt lat="47.33634" lon="-2.4215">
        <ele>39.200000762939</ele>
        <time>2019-11-10T10:48:37.000Z</time>
      </trkpt>
      <trkpt lat="47.33631" lon="-2.42153">
        <ele>39.599998474121</ele>
        <time>2019-11-10T10:48:38.000Z</time>
      </trkpt>
      <trkpt lat="47.3362" lon="-2.42157">
        <ele>39.599998474121</ele>
        <time>2019-11-10T10:48:41.000Z</time>
      </trkpt>
      <trkpt lat="47.33613" lon="-2.42159">
        <ele>39.599998474121</ele>
        <time>2019-11-10T10:48:43.000Z</time>
      </trkpt>
      <trkpt lat="47.33593" lon="-2.42168">
        <ele>39.599998474121</ele>
        <time>2019-11-10T10:48:49.000Z</time>
      </trkpt>
      <trkpt lat="47.33582" lon="-2.42179">
        <ele>40.200000762939</ele>
        <time>2019-11-10T10:48:55.000Z</time>
      </trkpt>
      <trkpt lat="47.33583" lon="-2.42178">
        <ele>40.599998474121</ele>
        <time>2019-11-10T10:48:56.000Z</time>
      </trkpt>
      <trkpt lat="47.33579" lon="-2.4218">
        <ele>41.799999237061</ele>
        <time>2019-11-10T10:49:01.000Z</time>
      </trkpt>
      <trkpt lat="47.33578" lon="-2.42181">
        <ele>41.799999237061</ele>
        <time>2019-11-10T10:49:02.000Z</time>
      </trkpt>
      <trkpt lat="47.33566" lon="-2.42185">
        <ele>41.799999237061</ele>
        <time>2019-11-10T10:49:07.000Z</time>
      </trkpt>
      <trkpt lat="47.33556" lon="-2.42194">
        <ele>41.799999237061</ele>
        <time>2019-11-10T10:49:11.000Z</time>
      </trkpt>
      <trkpt lat="47.33554" lon="-2.42194">
        <ele>41.799999237061</ele>
        <time>2019-11-10T10:49:12.000Z</time>
      </trkpt>
      <trkpt lat="47.3355" lon="-2.42189">
        <ele>41.799999237061</ele>
        <time>2019-11-10T10:49:14.000Z</time>
      </trkpt>
      <trkpt lat="47.33543" lon="-2.42186">
        <ele>41.799999237061</ele>
        <time>2019-11-10T10:49:16.000Z</time>
      </trkpt>
      <trkpt lat="47.33536" lon="-2.42187">
        <ele>41.799999237061</ele>
        <time>2019-11-10T10:49:18.000Z</time>
      </trkpt>
      <trkpt lat="47.33516" lon="-2.42194">
        <ele>41.799999237061</ele>
        <time>2019-11-10T10:49:24.000Z</time>
      </trkpt>
      <trkpt lat="47.33489" lon="-2.42205">
        <ele>41.799999237061</ele>
        <time>2019-11-10T10:49:31.000Z</time>
      </trkpt>
      <trkpt lat="47.33461" lon="-2.42217">
        <ele>41.799999237061</ele>
        <time>2019-11-10T10:49:38.000Z</time>
      </trkpt>
      <trkpt lat="47.33435" lon="-2.42229">
        <ele>41.799999237061</ele>
        <time>2019-11-10T10:49:45.000Z</time>
      </trkpt>
      <trkpt lat="47.33418" lon="-2.42238">
        <ele>42.200000762939</ele>
        <time>2019-11-10T10:49:50.000Z</time>
      </trkpt>
      <trkpt lat="47.33415" lon="-2.42239">
        <ele>42.599998474121</ele>
        <time>2019-11-10T10:49:51.000Z</time>
      </trkpt>
      <trkpt lat="47.33411" lon="-2.4224">
        <ele>43</ele>
        <time>2019-11-10T10:49:52.000Z</time>
      </trkpt>
      <trkpt lat="47.33408" lon="-2.42242">
        <ele>43.400001525879</ele>
        <time>2019-11-10T10:49:53.000Z</time>
      </trkpt>
      <trkpt lat="47.33405" lon="-2.42244">
        <ele>43.799999237061</ele>
        <time>2019-11-10T10:49:54.000Z</time>
      </trkpt>
      <trkpt lat="47.33388" lon="-2.42261">
        <ele>43.799999237061</ele>
        <time>2019-11-10T10:50:01.000Z</time>
      </trkpt>
      <trkpt lat="47.33368" lon="-2.42285">
        <ele>43.799999237061</ele>
        <time>2019-11-10T10:50:09.000Z</time>
      </trkpt>
      <trkpt lat="47.33351" lon="-2.42301">
        <ele>44.200000762939</ele>
        <time>2019-11-10T10:50:15.000Z</time>
      </trkpt>
      <trkpt lat="47.33349" lon="-2.42305">
        <ele>44.599998474121</ele>
        <time>2019-11-10T10:50:16.000Z</time>
      </trkpt>
      <trkpt lat="47.33346" lon="-2.42309">
        <ele>45</ele>
        <time>2019-11-10T10:50:17.000Z</time>
      </trkpt>
      <trkpt lat="47.33342" lon="-2.42312">
        <ele>45.599998474121</ele>
        <time>2019-11-10T10:50:18.000Z</time>
      </trkpt>
      <trkpt lat="47.33339" lon="-2.42315">
        <ele>46</ele>
        <time>2019-11-10T10:50:19.000Z</time>
      </trkpt>
      <trkpt lat="47.3333" lon="-2.42323">
        <ele>46</ele>
        <time>2019-11-10T10:50:22.000Z</time>
      </trkpt>
      <trkpt lat="47.33311" lon="-2.42343">
        <ele>46</ele>
        <time>2019-11-10T10:50:28.000Z</time>
      </trkpt>
      <trkpt lat="47.33287" lon="-2.42368">
        <ele>46</ele>
        <time>2019-11-10T10:50:35.000Z</time>
      </trkpt>
      <trkpt lat="47.33259" lon="-2.42394">
        <ele>46</ele>
        <time>2019-11-10T10:50:43.000Z</time>
      </trkpt>
      <trkpt lat="47.33233" lon="-2.42417">
        <ele>46</ele>
        <time>2019-11-10T10:50:51.000Z</time>
      </trkpt>
      <trkpt lat="47.33222" lon="-2.42427">
        <ele>46</ele>
        <time>2019-11-10T10:50:54.000Z</time>
      </trkpt>
      <trkpt lat="47.33211" lon="-2.42435">
        <ele>46</ele>
        <time>2019-11-10T10:50:57.000Z</time>
      </trkpt>
      <trkpt lat="47.33189" lon="-2.42455">
        <ele>46</ele>
        <time>2019-11-10T10:51:03.000Z</time>
      </trkpt>
      <trkpt lat="47.33159" lon="-2.4248">
        <ele>45.599998474121</ele>
        <time>2019-11-10T10:51:11.000Z</time>
      </trkpt>
      <trkpt lat="47.33156" lon="-2.42484">
        <ele>45</ele>
        <time>2019-11-10T10:51:12.000Z</time>
      </trkpt>
      <trkpt lat="47.33152" lon="-2.42487">
        <ele>44.599998474121</ele>
        <time>2019-11-10T10:51:13.000Z</time>
      </trkpt>
      <trkpt lat="47.33149" lon="-2.4249">
        <ele>44.200000762939</ele>
        <time>2019-11-10T10:51:14.000Z</time>
      </trkpt>
      <trkpt lat="47.33145" lon="-2.42492">
        <ele>43.799999237061</ele>
        <time>2019-11-10T10:51:15.000Z</time>
      </trkpt>
      <trkpt lat="47.33128" lon="-2.42506">
        <ele>43.799999237061</ele>
        <time>2019-11-10T10:51:20.000Z</time>
      </trkpt>
      <trkpt lat="47.33107" lon="-2.42523">
        <ele>43.799999237061</ele>
        <time>2019-11-10T10:51:26.000Z</time>
      </trkpt>
      <trkpt lat="47.33089" lon="-2.42536">
        <ele>43.799999237061</ele>
        <time>2019-11-10T10:51:32.000Z</time>
      </trkpt>
      <trkpt lat="47.33085" lon="-2.42542">
        <ele>43.799999237061</ele>
        <time>2019-11-10T10:51:36.000Z</time>
      </trkpt>
      <trkpt lat="47.33087" lon="-2.42548">
        <ele>43.799999237061</ele>
        <time>2019-11-10T10:51:40.000Z</time>
      </trkpt>
      <trkpt lat="47.33087" lon="-2.42551">
        <ele>43.799999237061</ele>
        <time>2019-11-10T10:51:44.000Z</time>
      </trkpt>
      <trkpt lat="47.33088" lon="-2.42554">
        <ele>43.799999237061</ele>
        <time>2019-11-10T10:51:47.000Z</time>
      </trkpt>
      <trkpt lat="47.33089" lon="-2.42557">
        <ele>43.799999237061</ele>
        <time>2019-11-10T10:51:48.000Z</time>
      </trkpt>
      <trkpt lat="47.331" lon="-2.42586">
        <ele>43.799999237061</ele>
        <time>2019-11-10T10:51:55.000Z</time>
      </trkpt>
      <trkpt lat="47.33107" lon="-2.42614">
        <ele>43.799999237061</ele>
        <time>2019-11-10T10:52:01.000Z</time>
      </trkpt>
      <trkpt lat="47.33112" lon="-2.4263">
        <ele>43.799999237061</ele>
        <time>2019-11-10T10:52:06.000Z</time>
      </trkpt>
      <trkpt lat="47.33113" lon="-2.42638">
        <ele>43.799999237061</ele>
        <time>2019-11-10T10:52:12.000Z</time>
      </trkpt>
      <trkpt lat="47.33105" lon="-2.42644">
        <ele>43.799999237061</ele>
        <time>2019-11-10T10:52:15.000Z</time>
      </trkpt>
      <trkpt lat="47.33084" lon="-2.4266">
        <ele>43.799999237061</ele>
        <time>2019-11-10T10:52:21.000Z</time>
      </trkpt>
      <trkpt lat="47.33059" lon="-2.42673">
        <ele>43.799999237061</ele>
        <time>2019-11-10T10:52:28.000Z</time>
      </trkpt>
      <trkpt lat="47.3303" lon="-2.42669">
        <ele>43.799999237061</ele>
        <time>2019-11-10T10:52:35.000Z</time>
      </trkpt>
      <trkpt lat="47.33022" lon="-2.42671">
        <ele>43.799999237061</ele>
        <time>2019-11-10T10:52:37.000Z</time>
      </trkpt>
      <trkpt lat="47.33014" lon="-2.42683">
        <ele>43.799999237061</ele>
        <time>2019-11-10T10:52:40.000Z</time>
      </trkpt>
      <trkpt lat="47.33008" lon="-2.4269">
        <ele>43.799999237061</ele>
        <time>2019-11-10T10:52:42.000Z</time>
      </trkpt>
      <trkpt lat="47.33004" lon="-2.42702">
        <ele>43.799999237061</ele>
        <time>2019-11-10T10:52:45.000Z</time>
      </trkpt>
      <trkpt lat="47.33005" lon="-2.4271">
        <ele>43.799999237061</ele>
        <time>2019-11-10T10:52:47.000Z</time>
      </trkpt>
      <trkpt lat="47.3301" lon="-2.42718">
        <ele>43.799999237061</ele>
        <time>2019-11-10T10:52:49.000Z</time>
      </trkpt>
      <trkpt lat="47.33012" lon="-2.42721">
        <ele>44.200000762939</ele>
        <time>2019-11-10T10:52:50.000Z</time>
      </trkpt>
      <trkpt lat="47.33015" lon="-2.42724">
        <ele>44.599998474121</ele>
        <time>2019-11-10T10:52:51.000Z</time>
      </trkpt>
      <trkpt lat="47.33018" lon="-2.42727">
        <ele>45</ele>
        <time>2019-11-10T10:52:52.000Z</time>
      </trkpt>
      <trkpt lat="47.33022" lon="-2.42729">
        <ele>45.400001525879</ele>
        <time>2019-11-10T10:52:53.000Z</time>
      </trkpt>
      <trkpt lat="47.33025" lon="-2.42732">
        <ele>45.799999237061</ele>
        <time>2019-11-10T10:52:54.000Z</time>
      </trkpt>
      <trkpt lat="47.33028" lon="-2.42734">
        <ele>45.799999237061</ele>
        <time>2019-11-10T10:52:55.000Z</time>
      </trkpt>
      <trkpt lat="47.33044" lon="-2.42749">
        <ele>45.799999237061</ele>
        <time>2019-11-10T10:53:00.000Z</time>
      </trkpt>
      <trkpt lat="47.33068" lon="-2.42772">
        <ele>45.799999237061</ele>
        <time>2019-11-10T10:53:08.000Z</time>
      </trkpt>
      <trkpt lat="47.33095" lon="-2.42797">
        <ele>45.799999237061</ele>
        <time>2019-11-10T10:53:16.000Z</time>
      </trkpt>
      <trkpt lat="47.33112" lon="-2.42816">
        <ele>45.799999237061</ele>
        <time>2019-11-10T10:53:22.000Z</time>
      </trkpt>
      <trkpt lat="47.33114" lon="-2.42825">
        <ele>45.799999237061</ele>
        <time>2019-11-10T10:53:24.000Z</time>
      </trkpt>
      <trkpt lat="47.33111" lon="-2.42835">
        <ele>45.799999237061</ele>
        <time>2019-11-10T10:53:26.000Z</time>
      </trkpt>
      <trkpt lat="47.331" lon="-2.42853">
        <ele>45.799999237061</ele>
        <time>2019-11-10T10:53:30.000Z</time>
      </trkpt>
      <trkpt lat="47.33097" lon="-2.42856">
        <ele>45.799999237061</ele>
        <time>2019-11-10T10:53:31.000Z</time>
      </trkpt>
      <trkpt lat="47.33076" lon="-2.4288">
        <ele>45.799999237061</ele>
        <time>2019-11-10T10:53:38.000Z</time>
      </trkpt>
      <trkpt lat="47.33064" lon="-2.42896">
        <ele>45.799999237061</ele>
        <time>2019-11-10T10:53:43.000Z</time>
      </trkpt>
      <trkpt lat="47.33063" lon="-2.429">
        <ele>45.799999237061</ele>
        <time>2019-11-10T10:53:44.000Z</time>
      </trkpt>
      <trkpt lat="47.33055" lon="-2.42916">
        <ele>45.799999237061</ele>
        <time>2019-11-10T10:53:48.000Z</time>
      </trkpt>
      <trkpt lat="47.33051" lon="-2.42919">
        <ele>45.799999237061</ele>
        <time>2019-11-10T10:53:49.000Z</time>
      </trkpt>
      <trkpt lat="47.33043" lon="-2.4292">
        <ele>45.799999237061</ele>
        <time>2019-11-10T10:53:51.000Z</time>
      </trkpt>
      <trkpt lat="47.33017" lon="-2.42924">
        <ele>45.799999237061</ele>
        <time>2019-11-10T10:53:58.000Z</time>
      </trkpt>
      <trkpt lat="47.32988" lon="-2.42931">
        <ele>45.799999237061</ele>
        <time>2019-11-10T10:54:05.000Z</time>
      </trkpt>
      <trkpt lat="47.32977" lon="-2.42942">
        <ele>45.799999237061</ele>
        <time>2019-11-10T10:54:09.000Z</time>
      </trkpt>
      <trkpt lat="47.32965" lon="-2.42942">
        <ele>45.799999237061</ele>
        <time>2019-11-10T10:54:13.000Z</time>
      </trkpt>
      <trkpt lat="47.32954" lon="-2.42937">
        <ele>45.799999237061</ele>
        <time>2019-11-10T10:54:18.000Z</time>
      </trkpt>
      <trkpt lat="47.32951" lon="-2.42937">
        <ele>45.799999237061</ele>
        <time>2019-11-10T10:54:20.000Z</time>
      </trkpt>
      <trkpt lat="47.3295" lon="-2.42936">
        <ele>45.799999237061</ele>
        <time>2019-11-10T10:54:22.000Z</time>
      </trkpt>
      <trkpt lat="47.32949" lon="-2.42935">
        <ele>45.799999237061</ele>
        <time>2019-11-10T10:54:24.000Z</time>
      </trkpt>
      <trkpt lat="47.32939" lon="-2.42937">
        <ele>45.799999237061</ele>
        <time>2019-11-10T10:54:29.000Z</time>
      </trkpt>
      <trkpt lat="47.3292" lon="-2.42944">
        <ele>45.799999237061</ele>
        <time>2019-11-10T10:54:35.000Z</time>
      </trkpt>
      <trkpt lat="47.32892" lon="-2.4295">
        <ele>45.799999237061</ele>
        <time>2019-11-10T10:54:42.000Z</time>
      </trkpt>
      <trkpt lat="47.32866" lon="-2.42954">
        <ele>46.200000762939</ele>
        <time>2019-11-10T10:54:49.000Z</time>
      </trkpt>
      <trkpt lat="47.32863" lon="-2.42954">
        <ele>46.599998474121</ele>
        <time>2019-11-10T10:54:50.000Z</time>
      </trkpt>
      <trkpt lat="47.3286" lon="-2.42954">
        <ele>47</ele>
        <time>2019-11-10T10:54:51.000Z</time>
      </trkpt>
      <trkpt lat="47.32857" lon="-2.42954">
        <ele>47.599998474121</ele>
        <time>2019-11-10T10:54:52.000Z</time>
      </trkpt>
      <trkpt lat="47.32854" lon="-2.42954">
        <ele>48</ele>
        <time>2019-11-10T10:54:53.000Z</time>
      </trkpt>
      <trkpt lat="47.32848" lon="-2.42953">
        <ele>48</ele>
        <time>2019-11-10T10:54:55.000Z</time>
      </trkpt>
      <trkpt lat="47.32833" lon="-2.42951">
        <ele>48</ele>
        <time>2019-11-10T10:55:00.000Z</time>
      </trkpt>
      <trkpt lat="47.32832" lon="-2.42952">
        <ele>48</ele>
        <time>2019-11-10T10:55:01.000Z</time>
      </trkpt>
      <trkpt lat="47.32824" lon="-2.42955">
        <ele>48</ele>
        <time>2019-11-10T10:55:04.000Z</time>
      </trkpt>
      <trkpt lat="47.32809" lon="-2.42957">
        <ele>48</ele>
        <time>2019-11-10T10:55:10.000Z</time>
      </trkpt>
      <trkpt lat="47.32797" lon="-2.42952">
        <ele>48.400001525879</ele>
        <time>2019-11-10T10:55:15.000Z</time>
      </trkpt>
      <trkpt lat="47.32794" lon="-2.42952">
        <ele>48.799999237061</ele>
        <time>2019-11-10T10:55:16.000Z</time>
      </trkpt>
      <trkpt lat="47.32791" lon="-2.42953">
        <ele>49.200000762939</ele>
        <time>2019-11-10T10:55:17.000Z</time>
      </trkpt>
      <trkpt lat="47.32788" lon="-2.42954">
        <ele>49.599998474121</ele>
        <time>2019-11-10T10:55:18.000Z</time>
      </trkpt>
      <trkpt lat="47.32786" lon="-2.42955">
        <ele>50</ele>
        <time>2019-11-10T10:55:19.000Z</time>
      </trkpt>
      <trkpt lat="47.32781" lon="-2.4296">
        <ele>50</ele>
        <time>2019-11-10T10:55:21.000Z</time>
      </trkpt>
      <trkpt lat="47.3278" lon="-2.42964">
        <ele>50</ele>
        <time>2019-11-10T10:55:22.000Z</time>
      </trkpt>
      <trkpt lat="47.32778" lon="-2.42973">
        <ele>50</ele>
        <time>2019-11-10T10:55:25.000Z</time>
      </trkpt>
      <trkpt lat="47.32771" lon="-2.42984">
        <ele>50</ele>
        <time>2019-11-10T10:55:29.000Z</time>
      </trkpt>
      <trkpt lat="47.32766" lon="-2.42993">
        <ele>50</ele>
        <time>2019-11-10T10:55:33.000Z</time>
      </trkpt>
      <trkpt lat="47.32759" lon="-2.4301">
        <ele>50</ele>
        <time>2019-11-10T10:55:39.000Z</time>
      </trkpt>
      <trkpt lat="47.32756" lon="-2.43016">
        <ele>50</ele>
        <time>2019-11-10T10:55:41.000Z</time>
      </trkpt>
      <trkpt lat="47.3275" lon="-2.43022">
        <ele>50</ele>
        <time>2019-11-10T10:55:44.000Z</time>
      </trkpt>
      <trkpt lat="47.32744" lon="-2.43024">
        <ele>50</ele>
        <time>2019-11-10T10:55:47.000Z</time>
      </trkpt>
      <trkpt lat="47.32737" lon="-2.43026">
        <ele>50</ele>
        <time>2019-11-10T10:55:51.000Z</time>
      </trkpt>
      <trkpt lat="47.32726" lon="-2.43028">
        <ele>50</ele>
        <time>2019-11-10T10:55:57.000Z</time>
      </trkpt>
      <trkpt lat="47.32712" lon="-2.43033">
        <ele>50</ele>
        <time>2019-11-10T10:56:03.000Z</time>
      </trkpt>
      <trkpt lat="47.32698" lon="-2.43035">
        <ele>50</ele>
        <time>2019-11-10T10:56:08.000Z</time>
      </trkpt>
      <trkpt lat="47.32698" lon="-2.43023">
        <ele>50</ele>
        <time>2019-11-10T10:56:12.000Z</time>
      </trkpt>
      <trkpt lat="47.32699" lon="-2.42995">
        <ele>50</ele>
        <time>2019-11-10T10:56:20.000Z</time>
      </trkpt>
      <trkpt lat="47.32701" lon="-2.42965">
        <ele>50</ele>
        <time>2019-11-10T10:56:27.000Z</time>
      </trkpt>
      <trkpt lat="47.32702" lon="-2.42945">
        <ele>50</ele>
        <time>2019-11-10T10:56:32.000Z</time>
      </trkpt>
      <trkpt lat="47.327" lon="-2.42943">
        <ele>50</ele>
        <time>2019-11-10T10:56:33.000Z</time>
      </trkpt>
      <trkpt lat="47.32686" lon="-2.42942">
        <ele>50</ele>
        <time>2019-11-10T10:56:38.000Z</time>
      </trkpt>
      <trkpt lat="47.32668" lon="-2.42938">
        <ele>50</ele>
        <time>2019-11-10T10:56:44.000Z</time>
      </trkpt>
      <trkpt lat="47.32662" lon="-2.42937">
        <ele>49.599998474121</ele>
        <time>2019-11-10T10:56:46.000Z</time>
      </trkpt>
      <trkpt lat="47.32658" lon="-2.42937">
        <ele>49.200000762939</ele>
        <time>2019-11-10T10:56:47.000Z</time>
      </trkpt>
      <trkpt lat="47.32655" lon="-2.42936">
        <ele>48.799999237061</ele>
        <time>2019-11-10T10:56:48.000Z</time>
      </trkpt>
      <trkpt lat="47.32651" lon="-2.42934">
        <ele>48.400001525879</ele>
        <time>2019-11-10T10:56:49.000Z</time>
      </trkpt>
      <trkpt lat="47.32648" lon="-2.42933">
        <ele>48</ele>
        <time>2019-11-10T10:56:50.000Z</time>
      </trkpt>
      <trkpt lat="47.32638" lon="-2.42929">
        <ele>48</ele>
        <time>2019-11-10T10:56:55.000Z</time>
      </trkpt>
      <trkpt lat="47.32633" lon="-2.42928">
        <ele>48</ele>
        <time>2019-11-10T10:56:57.000Z</time>
      </trkpt>
      <trkpt lat="47.3263" lon="-2.42923">
        <ele>48</ele>
        <time>2019-11-10T10:56:59.000Z</time>
      </trkpt>
      <trkpt lat="47.3263" lon="-2.42908">
        <ele>48</ele>
        <time>2019-11-10T10:57:02.000Z</time>
      </trkpt>
      <trkpt lat="47.32631" lon="-2.42902">
        <ele>48</ele>
        <time>2019-11-10T10:57:03.000Z</time>
      </trkpt>
      <trkpt lat="47.32637" lon="-2.42862">
        <ele>48</ele>
        <time>2019-11-10T10:57:09.000Z</time>
      </trkpt>
      <trkpt lat="47.32649" lon="-2.42817">
        <ele>48</ele>
        <time>2019-11-10T10:57:16.000Z</time>
      </trkpt>
      <trkpt lat="47.32662" lon="-2.42781">
        <ele>48</ele>
        <time>2019-11-10T10:57:22.000Z</time>
      </trkpt>
      <trkpt lat="47.32674" lon="-2.42759">
        <ele>48</ele>
        <time>2019-11-10T10:57:27.000Z</time>
      </trkpt>
      <trkpt lat="47.32684" lon="-2.42739">
        <ele>48</ele>
        <time>2019-11-10T10:57:32.000Z</time>
      </trkpt>
      <trkpt lat="47.327" lon="-2.42714">
        <ele>48</ele>
        <time>2019-11-10T10:57:39.000Z</time>
      </trkpt>
      <trkpt lat="47.32705" lon="-2.42707">
        <ele>47.599998474121</ele>
        <time>2019-11-10T10:57:41.000Z</time>
      </trkpt>
      <trkpt lat="47.32707" lon="-2.42704">
        <ele>47.200000762939</ele>
        <time>2019-11-10T10:57:42.000Z</time>
      </trkpt>
      <trkpt lat="47.3271" lon="-2.42701">
        <ele>46.799999237061</ele>
        <time>2019-11-10T10:57:43.000Z</time>
      </trkpt>
      <trkpt lat="47.32712" lon="-2.42698">
        <ele>46.400001525879</ele>
        <time>2019-11-10T10:57:44.000Z</time>
      </trkpt>
      <trkpt lat="47.32714" lon="-2.42696">
        <ele>46</ele>
        <time>2019-11-10T10:57:45.000Z</time>
      </trkpt>
      <trkpt lat="47.32716" lon="-2.42693">
        <ele>46</ele>
        <time>2019-11-10T10:57:46.000Z</time>
      </trkpt>
      <trkpt lat="47.32727" lon="-2.42681">
        <ele>46</ele>
        <time>2019-11-10T10:57:51.000Z</time>
      </trkpt>
      <trkpt lat="47.32742" lon="-2.42672">
        <ele>46</ele>
        <time>2019-11-10T10:57:57.000Z</time>
      </trkpt>
      <trkpt lat="47.32746" lon="-2.42671">
        <ele>46</ele>
        <time>2019-11-10T10:58:00.000Z</time>
      </trkpt>
      <trkpt lat="47.32747" lon="-2.4267">
        <ele>46</ele>
        <time>2019-11-10T10:58:01.000Z</time>
      </trkpt>
      <trkpt lat="47.32749" lon="-2.4267">
        <ele>46</ele>
        <time>2019-11-10T10:58:04.000Z</time>
      </trkpt>
      <trkpt lat="47.32747" lon="-2.42665">
        <ele>46</ele>
        <time>2019-11-10T11:00:32.000Z</time>
      </trkpt>
      <trkpt lat="47.32744" lon="-2.42663">
        <ele>46</ele>
        <time>2019-11-10T11:00:36.000Z</time>
      </trkpt>
      <trkpt lat="47.32743" lon="-2.42662">
        <ele>46</ele>
        <time>2019-11-10T11:00:37.000Z</time>
      </trkpt>
      <trkpt lat="47.32734" lon="-2.42662">
        <ele>46</ele>
        <time>2019-11-10T11:00:42.000Z</time>
      </trkpt>
      <trkpt lat="47.32727" lon="-2.42664">
        <ele>46</ele>
        <time>2019-11-10T11:00:47.000Z</time>
      </trkpt>
      <trkpt lat="47.32712" lon="-2.42672">
        <ele>46</ele>
        <time>2019-11-10T11:00:53.000Z</time>
      </trkpt>
      <trkpt lat="47.3271" lon="-2.42671">
        <ele>46</ele>
        <time>2019-11-10T11:00:54.000Z</time>
      </trkpt>
      <trkpt lat="47.32706" lon="-2.42667">
        <ele>46</ele>
        <time>2019-11-10T11:00:56.000Z</time>
      </trkpt>
      <trkpt lat="47.32701" lon="-2.42653">
        <ele>46</ele>
        <time>2019-11-10T11:01:01.000Z</time>
      </trkpt>
      <trkpt lat="47.32694" lon="-2.42634">
        <ele>46</ele>
        <time>2019-11-10T11:01:06.000Z</time>
      </trkpt>
      <trkpt lat="47.3269" lon="-2.42621">
        <ele>46</ele>
        <time>2019-11-10T11:01:09.000Z</time>
      </trkpt>
      <trkpt lat="47.32687" lon="-2.42611">
        <ele>46</ele>
        <time>2019-11-10T11:01:11.000Z</time>
      </trkpt>
      <trkpt lat="47.3268" lon="-2.42577">
        <ele>46</ele>
        <time>2019-11-10T11:01:17.000Z</time>
      </trkpt>
      <trkpt lat="47.32678" lon="-2.42564">
        <ele>46</ele>
        <time>2019-11-10T11:01:19.000Z</time>
      </trkpt>
      <trkpt lat="47.32672" lon="-2.4254">
        <ele>46</ele>
        <time>2019-11-10T11:01:23.000Z</time>
      </trkpt>
      <trkpt lat="47.32665" lon="-2.42516">
        <ele>46.400001525879</ele>
        <time>2019-11-10T11:01:27.000Z</time>
      </trkpt>
      <trkpt lat="47.32663" lon="-2.42511">
        <ele>46.799999237061</ele>
        <time>2019-11-10T11:01:28.000Z</time>
      </trkpt>
      <trkpt lat="47.32661" lon="-2.42505">
        <ele>47.200000762939</ele>
        <time>2019-11-10T11:01:29.000Z</time>
      </trkpt>
      <trkpt lat="47.32659" lon="-2.425">
        <ele>47.799999237061</ele>
        <time>2019-11-10T11:01:30.000Z</time>
      </trkpt>
      <trkpt lat="47.32657" lon="-2.42494">
        <ele>48.200000762939</ele>
        <time>2019-11-10T11:01:31.000Z</time>
      </trkpt>
      <trkpt lat="47.32646" lon="-2.42463">
        <ele>48.200000762939</ele>
        <time>2019-11-10T11:01:37.000Z</time>
      </trkpt>
      <trkpt lat="47.32642" lon="-2.42453">
        <ele>48.200000762939</ele>
        <time>2019-11-10T11:01:39.000Z</time>
      </trkpt>
      <trkpt lat="47.3263" lon="-2.42421">
        <ele>48.200000762939</ele>
        <time>2019-11-10T11:01:45.000Z</time>
      </trkpt>
      <trkpt lat="47.32622" lon="-2.42403">
        <ele>48.200000762939</ele>
        <time>2019-11-10T11:01:48.000Z</time>
      </trkpt>
      <trkpt lat="47.32614" lon="-2.42385">
        <ele>48.200000762939</ele>
        <time>2019-11-10T11:01:51.000Z</time>
      </trkpt>
      <trkpt lat="47.3261" lon="-2.42379">
        <ele>48.200000762939</ele>
        <time>2019-11-10T11:01:52.000Z</time>
      </trkpt>
      <trkpt lat="47.32592" lon="-2.42345">
        <ele>48.200000762939</ele>
        <time>2019-11-10T11:01:58.000Z</time>
      </trkpt>
      <trkpt lat="47.32571" lon="-2.42307">
        <ele>48.200000762939</ele>
        <time>2019-11-10T11:02:05.000Z</time>
      </trkpt>
      <trkpt lat="47.32545" lon="-2.42256">
        <ele>48.200000762939</ele>
        <time>2019-11-10T11:02:14.000Z</time>
      </trkpt>
      <trkpt lat="47.32539" lon="-2.42246">
        <ele>48.200000762939</ele>
        <time>2019-11-10T11:02:16.000Z</time>
      </trkpt>
      <trkpt lat="47.32527" lon="-2.42224">
        <ele>48.200000762939</ele>
        <time>2019-11-10T11:02:20.000Z</time>
      </trkpt>
      <trkpt lat="47.3252" lon="-2.42214">
        <ele>48.200000762939</ele>
        <time>2019-11-10T11:02:22.000Z</time>
      </trkpt>
      <trkpt lat="47.32516" lon="-2.42208">
        <ele>48.599998474121</ele>
        <time>2019-11-10T11:02:23.000Z</time>
      </trkpt>
      <trkpt lat="47.32513" lon="-2.42203">
        <ele>49</ele>
        <time>2019-11-10T11:02:24.000Z</time>
      </trkpt>
      <trkpt lat="47.32509" lon="-2.42198">
        <ele>49.400001525879</ele>
        <time>2019-11-10T11:02:25.000Z</time>
      </trkpt>
      <trkpt lat="47.32506" lon="-2.42192">
        <ele>49.799999237061</ele>
        <time>2019-11-10T11:02:26.000Z</time>
      </trkpt>
      <trkpt lat="47.32503" lon="-2.42187">
        <ele>50.200000762939</ele>
        <time>2019-11-10T11:02:27.000Z</time>
      </trkpt>
      <trkpt lat="47.32492" lon="-2.42165">
        <ele>50.599998474121</ele>
        <time>2019-11-10T11:02:31.000Z</time>
      </trkpt>
      <trkpt lat="47.3249" lon="-2.4216">
        <ele>51</ele>
        <time>2019-11-10T11:02:32.000Z</time>
      </trkpt>
      <trkpt lat="47.32488" lon="-2.42154">
        <ele>51.400001525879</ele>
        <time>2019-11-10T11:02:33.000Z</time>
      </trkpt>
      <trkpt lat="47.32485" lon="-2.4215">
        <ele>51.799999237061</ele>
        <time>2019-11-10T11:02:34.000Z</time>
      </trkpt>
      <trkpt lat="47.32481" lon="-2.42145">
        <ele>52.200000762939</ele>
        <time>2019-11-10T11:02:35.000Z</time>
      </trkpt>
      <trkpt lat="47.32473" lon="-2.42138">
        <ele>52.200000762939</ele>
        <time>2019-11-10T11:02:37.000Z</time>
      </trkpt>
      <trkpt lat="47.32443" lon="-2.42113">
        <ele>52.200000762939</ele>
        <time>2019-11-10T11:02:44.000Z</time>
      </trkpt>
      <trkpt lat="47.32422" lon="-2.42091">
        <ele>52.200000762939</ele>
        <time>2019-11-10T11:02:49.000Z</time>
      </trkpt>
      <trkpt lat="47.32396" lon="-2.42062">
        <ele>52.200000762939</ele>
        <time>2019-11-10T11:02:55.000Z</time>
      </trkpt>
      <trkpt lat="47.32363" lon="-2.42025">
        <ele>52.200000762939</ele>
        <time>2019-11-10T11:03:01.000Z</time>
      </trkpt>
      <trkpt lat="47.32317" lon="-2.41983">
        <ele>52.200000762939</ele>
        <time>2019-11-10T11:03:08.000Z</time>
      </trkpt>
      <trkpt lat="47.32303" lon="-2.41972">
        <ele>52.200000762939</ele>
        <time>2019-11-10T11:03:10.000Z</time>
      </trkpt>
      <trkpt lat="47.3229" lon="-2.4196">
        <ele>51.799999237061</ele>
        <time>2019-11-10T11:03:12.000Z</time>
      </trkpt>
      <trkpt lat="47.32284" lon="-2.41953">
        <ele>51.400001525879</ele>
        <time>2019-11-10T11:03:13.000Z</time>
      </trkpt>
      <trkpt lat="47.32278" lon="-2.41948">
        <ele>51</ele>
        <time>2019-11-10T11:03:14.000Z</time>
      </trkpt>
      <trkpt lat="47.32272" lon="-2.41942">
        <ele>50.599998474121</ele>
        <time>2019-11-10T11:03:15.000Z</time>
      </trkpt>
      <trkpt lat="47.32265" lon="-2.41936">
        <ele>50.200000762939</ele>
        <time>2019-11-10T11:03:16.000Z</time>
      </trkpt>
      <trkpt lat="47.32252" lon="-2.41925">
        <ele>49.799999237061</ele>
        <time>2019-11-10T11:03:18.000Z</time>
      </trkpt>
      <trkpt lat="47.32246" lon="-2.4192">
        <ele>48.799999237061</ele>
        <time>2019-11-10T11:03:19.000Z</time>
      </trkpt>
      <trkpt lat="47.32239" lon="-2.41916">
        <ele>48.400001525879</ele>
        <time>2019-11-10T11:03:20.000Z</time>
      </trkpt>
      <trkpt lat="47.32233" lon="-2.41915">
        <ele>48</ele>
        <time>2019-11-10T11:03:21.000Z</time>
      </trkpt>
      <trkpt lat="47.32214" lon="-2.41897">
        <ele>48</ele>
        <time>2019-11-10T11:03:24.000Z</time>
      </trkpt>
      <trkpt lat="47.32197" lon="-2.41875">
        <ele>48</ele>
        <time>2019-11-10T11:03:27.000Z</time>
      </trkpt>
      <trkpt lat="47.32191" lon="-2.41869">
        <ele>48</ele>
        <time>2019-11-10T11:03:28.000Z</time>
      </trkpt>
      <trkpt lat="47.32161" lon="-2.41847">
        <ele>48</ele>
        <time>2019-11-10T11:03:33.000Z</time>
      </trkpt>
      <trkpt lat="47.3214" lon="-2.41852">
        <ele>48</ele>
        <time>2019-11-10T11:03:36.000Z</time>
      </trkpt>
      <trkpt lat="47.32121" lon="-2.41859">
        <ele>48</ele>
        <time>2019-11-10T11:03:39.000Z</time>
      </trkpt>
      <trkpt lat="47.32111" lon="-2.41871">
        <ele>48</ele>
        <time>2019-11-10T11:03:41.000Z</time>
      </trkpt>
      <trkpt lat="47.32097" lon="-2.41877">
        <ele>48</ele>
        <time>2019-11-10T11:03:44.000Z</time>
      </trkpt>
      <trkpt lat="47.32087" lon="-2.41859">
        <ele>48</ele>
        <time>2019-11-10T11:03:47.000Z</time>
      </trkpt>
      <trkpt lat="47.3208" lon="-2.41826">
        <ele>48</ele>
        <time>2019-11-10T11:03:51.000Z</time>
      </trkpt>
      <trkpt lat="47.32075" lon="-2.41808">
        <ele>48</ele>
        <time>2019-11-10T11:03:53.000Z</time>
      </trkpt>
      <trkpt lat="47.32063" lon="-2.41774">
        <ele>48</ele>
        <time>2019-11-10T11:03:57.000Z</time>
      </trkpt>
      <trkpt lat="47.32042" lon="-2.41712">
        <ele>48</ele>
        <time>2019-11-10T11:04:04.000Z</time>
      </trkpt>
      <trkpt lat="47.32019" lon="-2.41646">
        <ele>48</ele>
        <time>2019-11-10T11:04:11.000Z</time>
      </trkpt>
      <trkpt lat="47.31997" lon="-2.41575">
        <ele>48</ele>
        <time>2019-11-10T11:04:18.000Z</time>
      </trkpt>
      <trkpt lat="47.31992" lon="-2.41553">
        <ele>47.599998474121</ele>
        <time>2019-11-10T11:04:20.000Z</time>
      </trkpt>
      <trkpt lat="47.31989" lon="-2.41542">
        <ele>47.200000762939</ele>
        <time>2019-11-10T11:04:21.000Z</time>
      </trkpt>
      <trkpt lat="47.31988" lon="-2.41531">
        <ele>46.799999237061</ele>
        <time>2019-11-10T11:04:22.000Z</time>
      </trkpt>
      <trkpt lat="47.31987" lon="-2.41521">
        <ele>46.400001525879</ele>
        <time>2019-11-10T11:04:23.000Z</time>
      </trkpt>
      <trkpt lat="47.31986" lon="-2.41511">
        <ele>46</ele>
        <time>2019-11-10T11:04:24.000Z</time>
      </trkpt>
      <trkpt lat="47.31984" lon="-2.41502">
        <ele>46</ele>
        <time>2019-11-10T11:04:25.000Z</time>
      </trkpt>
      <trkpt lat="47.3198" lon="-2.41494">
        <ele>45.599998474121</ele>
        <time>2019-11-10T11:04:26.000Z</time>
      </trkpt>
      <trkpt lat="47.31975" lon="-2.4149">
        <ele>45.200000762939</ele>
        <time>2019-11-10T11:04:27.000Z</time>
      </trkpt>
      <trkpt lat="47.3197" lon="-2.41488">
        <ele>44.799999237061</ele>
        <time>2019-11-10T11:04:28.000Z</time>
      </trkpt>
      <trkpt lat="47.31965" lon="-2.41484">
        <ele>44.400001525879</ele>
        <time>2019-11-10T11:04:29.000Z</time>
      </trkpt>
      <trkpt lat="47.3196" lon="-2.41482">
        <ele>44</ele>
        <time>2019-11-10T11:04:30.000Z</time>
      </trkpt>
      <trkpt lat="47.31954" lon="-2.41483">
        <ele>44</ele>
        <time>2019-11-10T11:04:31.000Z</time>
      </trkpt>
      <trkpt lat="47.31949" lon="-2.41484">
        <ele>44</ele>
        <time>2019-11-10T11:04:32.000Z</time>
      </trkpt>
      <trkpt lat="47.31942" lon="-2.41484">
        <ele>44</ele>
        <time>2019-11-10T11:04:33.000Z</time>
      </trkpt>
      <trkpt lat="47.3193" lon="-2.41479">
        <ele>44</ele>
        <time>2019-11-10T11:04:35.000Z</time>
      </trkpt>
      <trkpt lat="47.31924" lon="-2.41475">
        <ele>43.599998474121</ele>
        <time>2019-11-10T11:04:36.000Z</time>
      </trkpt>
      <trkpt lat="47.31919" lon="-2.4147">
        <ele>43.200000762939</ele>
        <time>2019-11-10T11:04:37.000Z</time>
      </trkpt>
      <trkpt lat="47.31913" lon="-2.41464">
        <ele>42.799999237061</ele>
        <time>2019-11-10T11:04:38.000Z</time>
      </trkpt>
      <trkpt lat="47.31908" lon="-2.41458">
        <ele>42.400001525879</ele>
        <time>2019-11-10T11:04:39.000Z</time>
      </trkpt>
      <trkpt lat="47.31903" lon="-2.41451">
        <ele>42</ele>
        <time>2019-11-10T11:04:40.000Z</time>
      </trkpt>
      <trkpt lat="47.31872" lon="-2.41409">
        <ele>42</ele>
        <time>2019-11-10T11:04:46.000Z</time>
      </trkpt>
      <trkpt lat="47.31832" lon="-2.41368">
        <ele>42</ele>
        <time>2019-11-10T11:04:53.000Z</time>
      </trkpt>
      <trkpt lat="47.31788" lon="-2.41338">
        <ele>42</ele>
        <time>2019-11-10T11:05:00.000Z</time>
      </trkpt>
      <trkpt lat="47.31776" lon="-2.4133">
        <ele>42.400001525879</ele>
        <time>2019-11-10T11:05:02.000Z</time>
      </trkpt>
      <trkpt lat="47.3177" lon="-2.41326">
        <ele>42.799999237061</ele>
        <time>2019-11-10T11:05:03.000Z</time>
      </trkpt>
      <trkpt lat="47.31765" lon="-2.41322">
        <ele>43.200000762939</ele>
        <time>2019-11-10T11:05:04.000Z</time>
      </trkpt>
      <trkpt lat="47.31759" lon="-2.41318">
        <ele>43.599998474121</ele>
        <time>2019-11-10T11:05:05.000Z</time>
      </trkpt>
      <trkpt lat="47.31753" lon="-2.41313">
        <ele>44.200000762939</ele>
        <time>2019-11-10T11:05:06.000Z</time>
      </trkpt>
      <trkpt lat="47.31737" lon="-2.41302">
        <ele>44.200000762939</ele>
        <time>2019-11-10T11:05:09.000Z</time>
      </trkpt>
      <trkpt lat="47.31697" lon="-2.41276">
        <ele>44.200000762939</ele>
        <time>2019-11-10T11:05:16.000Z</time>
      </trkpt>
      <trkpt lat="47.31692" lon="-2.41271">
        <ele>44.200000762939</ele>
        <time>2019-11-10T11:05:17.000Z</time>
      </trkpt>
      <trkpt lat="47.31649" lon="-2.41241">
        <ele>44.200000762939</ele>
        <time>2019-11-10T11:05:24.000Z</time>
      </trkpt>
      <trkpt lat="47.31635" lon="-2.41232">
        <ele>44.599998474121</ele>
        <time>2019-11-10T11:05:26.000Z</time>
      </trkpt>
      <trkpt lat="47.31628" lon="-2.41228">
        <ele>45</ele>
        <time>2019-11-10T11:05:27.000Z</time>
      </trkpt>
      <trkpt lat="47.31621" lon="-2.41223">
        <ele>45.400001525879</ele>
        <time>2019-11-10T11:05:28.000Z</time>
      </trkpt>
      <trkpt lat="47.31614" lon="-2.41219">
        <ele>45.799999237061</ele>
        <time>2019-11-10T11:05:29.000Z</time>
      </trkpt>
      <trkpt lat="47.31606" lon="-2.41214">
        <ele>46.200000762939</ele>
        <time>2019-11-10T11:05:30.000Z</time>
      </trkpt>
      <trkpt lat="47.31599" lon="-2.41209">
        <ele>46.200000762939</ele>
        <time>2019-11-10T11:05:31.000Z</time>
      </trkpt>
      <trkpt lat="47.31544" lon="-2.41177">
        <ele>46.200000762939</ele>
        <time>2019-11-10T11:05:38.000Z</time>
      </trkpt>
      <trkpt lat="47.31519" lon="-2.41163">
        <ele>45.799999237061</ele>
        <time>2019-11-10T11:05:41.000Z</time>
      </trkpt>
      <trkpt lat="47.31511" lon="-2.41159">
        <ele>45.400001525879</ele>
        <time>2019-11-10T11:05:42.000Z</time>
      </trkpt>
      <trkpt lat="47.31503" lon="-2.41154">
        <ele>45</ele>
        <time>2019-11-10T11:05:43.000Z</time>
      </trkpt>
      <trkpt lat="47.31495" lon="-2.4115">
        <ele>44.599998474121</ele>
        <time>2019-11-10T11:05:44.000Z</time>
      </trkpt>
      <trkpt lat="47.31487" lon="-2.41145">
        <ele>44.200000762939</ele>
        <time>2019-11-10T11:05:45.000Z</time>
      </trkpt>
      <trkpt lat="47.31479" lon="-2.41141">
        <ele>44.200000762939</ele>
        <time>2019-11-10T11:05:46.000Z</time>
      </trkpt>
      <trkpt lat="47.31446" lon="-2.41123">
        <ele>43.799999237061</ele>
        <time>2019-11-10T11:05:50.000Z</time>
      </trkpt>
      <trkpt lat="47.31437" lon="-2.41119">
        <ele>43.200000762939</ele>
        <time>2019-11-10T11:05:51.000Z</time>
      </trkpt>
      <trkpt lat="47.31429" lon="-2.41115">
        <ele>42.799999237061</ele>
        <time>2019-11-10T11:05:52.000Z</time>
      </trkpt>
      <trkpt lat="47.31421" lon="-2.4111">
        <ele>42.200000762939</ele>
        <time>2019-11-10T11:05:53.000Z</time>
      </trkpt>
      <trkpt lat="47.31413" lon="-2.41106">
        <ele>41.799999237061</ele>
        <time>2019-11-10T11:05:54.000Z</time>
      </trkpt>
      <trkpt lat="47.31361" lon="-2.41078">
        <ele>41.799999237061</ele>
        <time>2019-11-10T11:06:00.000Z</time>
      </trkpt>
      <trkpt lat="47.31327" lon="-2.4106">
        <ele>41.400001525879</ele>
        <time>2019-11-10T11:06:04.000Z</time>
      </trkpt>
      <trkpt lat="47.31319" lon="-2.41055">
        <ele>41</ele>
        <time>2019-11-10T11:06:05.000Z</time>
      </trkpt>
      <trkpt lat="47.3131" lon="-2.41051">
        <ele>40.599998474121</ele>
        <time>2019-11-10T11:06:06.000Z</time>
      </trkpt>
      <trkpt lat="47.31302" lon="-2.41047">
        <ele>40.200000762939</ele>
        <time>2019-11-10T11:06:07.000Z</time>
      </trkpt>
      <trkpt lat="47.31293" lon="-2.41043">
        <ele>39.799999237061</ele>
        <time>2019-11-10T11:06:08.000Z</time>
      </trkpt>
      <trkpt lat="47.31239" lon="-2.41014">
        <ele>39.799999237061</ele>
        <time>2019-11-10T11:06:14.000Z</time>
      </trkpt>
      <trkpt lat="47.3122" lon="-2.41003">
        <ele>39.400001525879</ele>
        <time>2019-11-10T11:06:16.000Z</time>
      </trkpt>
      <trkpt lat="47.3121" lon="-2.40998">
        <ele>38.799999237061</ele>
        <time>2019-11-10T11:06:17.000Z</time>
      </trkpt>
      <trkpt lat="47.312" lon="-2.40993">
        <ele>38.400001525879</ele>
        <time>2019-11-10T11:06:18.000Z</time>
      </trkpt>
      <trkpt lat="47.31191" lon="-2.40989">
        <ele>37.799999237061</ele>
        <time>2019-11-10T11:06:19.000Z</time>
      </trkpt>
      <trkpt lat="47.3118" lon="-2.40984">
        <ele>37.400001525879</ele>
        <time>2019-11-10T11:06:20.000Z</time>
      </trkpt>
      <trkpt lat="47.31171" lon="-2.40978">
        <ele>37</ele>
        <time>2019-11-10T11:06:21.000Z</time>
      </trkpt>
      <trkpt lat="47.31161" lon="-2.40973">
        <ele>36.599998474121</ele>
        <time>2019-11-10T11:06:22.000Z</time>
      </trkpt>
      <trkpt lat="47.31151" lon="-2.40968">
        <ele>36</ele>
        <time>2019-11-10T11:06:23.000Z</time>
      </trkpt>
      <trkpt lat="47.31142" lon="-2.40962">
        <ele>35.599998474121</ele>
        <time>2019-11-10T11:06:24.000Z</time>
      </trkpt>
      <trkpt lat="47.31132" lon="-2.40957">
        <ele>35.200000762939</ele>
        <time>2019-11-10T11:06:25.000Z</time>
      </trkpt>
      <trkpt lat="47.31123" lon="-2.40952">
        <ele>34.599998474121</ele>
        <time>2019-11-10T11:06:26.000Z</time>
      </trkpt>
      <trkpt lat="47.31113" lon="-2.40947">
        <ele>34.200000762939</ele>
        <time>2019-11-10T11:06:27.000Z</time>
      </trkpt>
      <trkpt lat="47.31104" lon="-2.40943">
        <ele>33.799999237061</ele>
        <time>2019-11-10T11:06:28.000Z</time>
      </trkpt>
      <trkpt lat="47.31095" lon="-2.40938">
        <ele>33.200000762939</ele>
        <time>2019-11-10T11:06:29.000Z</time>
      </trkpt>
      <trkpt lat="47.31059" lon="-2.40919">
        <ele>32.799999237061</ele>
        <time>2019-11-10T11:06:33.000Z</time>
      </trkpt>
      <trkpt lat="47.3105" lon="-2.40914">
        <ele>32.400001525879</ele>
        <time>2019-11-10T11:06:34.000Z</time>
      </trkpt>
      <trkpt lat="47.3104" lon="-2.40909">
        <ele>32</ele>
        <time>2019-11-10T11:06:35.000Z</time>
      </trkpt>
      <trkpt lat="47.31031" lon="-2.40904">
        <ele>31.200000762939</ele>
        <time>2019-11-10T11:06:36.000Z</time>
      </trkpt>
      <trkpt lat="47.30978" lon="-2.40879">
        <ele>31.200000762939</ele>
        <time>2019-11-10T11:06:42.000Z</time>
      </trkpt>
      <trkpt lat="47.30951" lon="-2.40868">
        <ele>30.799999237061</ele>
        <time>2019-11-10T11:06:45.000Z</time>
      </trkpt>
      <trkpt lat="47.30942" lon="-2.40865">
        <ele>30.200000762939</ele>
        <time>2019-11-10T11:06:46.000Z</time>
      </trkpt>
      <trkpt lat="47.30932" lon="-2.40862">
        <ele>29.799999237061</ele>
        <time>2019-11-10T11:06:47.000Z</time>
      </trkpt>
      <trkpt lat="47.30922" lon="-2.40859">
        <ele>29.39999961853</ele>
        <time>2019-11-10T11:06:48.000Z</time>
      </trkpt>
      <trkpt lat="47.30913" lon="-2.40856">
        <ele>28.799999237061</ele>
        <time>2019-11-10T11:06:49.000Z</time>
      </trkpt>
      <trkpt lat="47.30902" lon="-2.40852">
        <ele>28.39999961853</ele>
        <time>2019-11-10T11:06:50.000Z</time>
      </trkpt>
      <trkpt lat="47.30891" lon="-2.4085">
        <ele>28</ele>
        <time>2019-11-10T11:06:51.000Z</time>
      </trkpt>
      <trkpt lat="47.30881" lon="-2.40847">
        <ele>27.60000038147</ele>
        <time>2019-11-10T11:06:52.000Z</time>
      </trkpt>
      <trkpt lat="47.3087" lon="-2.40844">
        <ele>27.200000762939</ele>
        <time>2019-11-10T11:06:53.000Z</time>
      </trkpt>
      <trkpt lat="47.30859" lon="-2.40841">
        <ele>26.799999237061</ele>
        <time>2019-11-10T11:06:54.000Z</time>
      </trkpt>
      <trkpt lat="47.30826" lon="-2.40834">
        <ele>26.200000762939</ele>
        <time>2019-11-10T11:06:57.000Z</time>
      </trkpt>
      <trkpt lat="47.30815" lon="-2.40833">
        <ele>25.60000038147</ele>
        <time>2019-11-10T11:06:58.000Z</time>
      </trkpt>
      <trkpt lat="47.30804" lon="-2.40831">
        <ele>25</ele>
        <time>2019-11-10T11:06:59.000Z</time>
      </trkpt>
      <trkpt lat="47.30793" lon="-2.4083">
        <ele>24.200000762939</ele>
        <time>2019-11-10T11:07:00.000Z</time>
      </trkpt>
      <trkpt lat="47.30782" lon="-2.40829">
        <ele>22.799999237061</ele>
        <time>2019-11-10T11:07:01.000Z</time>
      </trkpt>
      <trkpt lat="47.30771" lon="-2.40828">
        <ele>22.200000762939</ele>
        <time>2019-11-10T11:07:02.000Z</time>
      </trkpt>
      <trkpt lat="47.30761" lon="-2.40827">
        <ele>21.39999961853</ele>
        <time>2019-11-10T11:07:03.000Z</time>
      </trkpt>
      <trkpt lat="47.3075" lon="-2.40827">
        <ele>20.799999237061</ele>
        <time>2019-11-10T11:07:04.000Z</time>
      </trkpt>
      <trkpt lat="47.30739" lon="-2.40826">
        <ele>20.200000762939</ele>
        <time>2019-11-10T11:07:05.000Z</time>
      </trkpt>
      <trkpt lat="47.30728" lon="-2.40827">
        <ele>19.39999961853</ele>
        <time>2019-11-10T11:07:06.000Z</time>
      </trkpt>
      <trkpt lat="47.30717" lon="-2.40827">
        <ele>19</ele>
        <time>2019-11-10T11:07:07.000Z</time>
      </trkpt>
      <trkpt lat="47.30707" lon="-2.40827">
        <ele>18.60000038147</ele>
        <time>2019-11-10T11:07:08.000Z</time>
      </trkpt>
      <trkpt lat="47.30696" lon="-2.40828">
        <ele>18.200000762939</ele>
        <time>2019-11-10T11:07:09.000Z</time>
      </trkpt>
      <trkpt lat="47.30687" lon="-2.4083">
        <ele>17.799999237061</ele>
        <time>2019-11-10T11:07:10.000Z</time>
      </trkpt>
      <trkpt lat="47.30678" lon="-2.40832">
        <ele>17.200000762939</ele>
        <time>2019-11-10T11:07:11.000Z</time>
      </trkpt>
      <trkpt lat="47.30668" lon="-2.40833">
        <ele>16.60000038147</ele>
        <time>2019-11-10T11:07:12.000Z</time>
      </trkpt>
      <trkpt lat="47.30659" lon="-2.40832">
        <ele>16</ele>
        <time>2019-11-10T11:07:13.000Z</time>
      </trkpt>
      <trkpt lat="47.3065" lon="-2.40832">
        <ele>15.39999961853</ele>
        <time>2019-11-10T11:07:14.000Z</time>
      </trkpt>
      <trkpt lat="47.30641" lon="-2.40832">
        <ele>14.800000190735</ele>
        <time>2019-11-10T11:07:15.000Z</time>
      </trkpt>
      <trkpt lat="47.30633" lon="-2.40835">
        <ele>14.39999961853</ele>
        <time>2019-11-10T11:07:16.000Z</time>
      </trkpt>
      <trkpt lat="47.30626" lon="-2.40839">
        <ele>13.800000190735</ele>
        <time>2019-11-10T11:07:17.000Z</time>
      </trkpt>
      <trkpt lat="47.30619" lon="-2.40844">
        <ele>13.39999961853</ele>
        <time>2019-11-10T11:07:18.000Z</time>
      </trkpt>
      <trkpt lat="47.30614" lon="-2.40851">
        <ele>12.800000190735</ele>
        <time>2019-11-10T11:07:19.000Z</time>
      </trkpt>
      <trkpt lat="47.30608" lon="-2.40854">
        <ele>12.199999809265</ele>
        <time>2019-11-10T11:07:20.000Z</time>
      </trkpt>
      <trkpt lat="47.30601" lon="-2.40854">
        <ele>11.60000038147</ele>
        <time>2019-11-10T11:07:21.000Z</time>
      </trkpt>
      <trkpt lat="47.30595" lon="-2.40853">
        <ele>11</ele>
        <time>2019-11-10T11:07:22.000Z</time>
      </trkpt>
      <trkpt lat="47.30587" lon="-2.40851">
        <ele>10.60000038147</ele>
        <time>2019-11-10T11:07:23.000Z</time>
      </trkpt>
      <trkpt lat="47.30564" lon="-2.40853">
        <ele>10.60000038147</ele>
        <time>2019-11-10T11:07:26.000Z</time>
      </trkpt>
      <trkpt lat="47.30556" lon="-2.40855">
        <ele>10</ele>
        <time>2019-11-10T11:07:27.000Z</time>
      </trkpt>
      <trkpt lat="47.30548" lon="-2.40858">
        <ele>9.6000003814697</ele>
        <time>2019-11-10T11:07:28.000Z</time>
      </trkpt>
      <trkpt lat="47.3054" lon="-2.40861">
        <ele>9.1999998092651</ele>
        <time>2019-11-10T11:07:29.000Z</time>
      </trkpt>
      <trkpt lat="47.30531" lon="-2.40863">
        <ele>8.8000001907349</ele>
        <time>2019-11-10T11:07:30.000Z</time>
      </trkpt>
      <trkpt lat="47.30523" lon="-2.40866">
        <ele>8.3999996185303</ele>
        <time>2019-11-10T11:07:31.000Z</time>
      </trkpt>
      <trkpt lat="47.30514" lon="-2.40869">
        <ele>8</ele>
        <time>2019-11-10T11:07:32.000Z</time>
      </trkpt>
      <trkpt lat="47.30505" lon="-2.40873">
        <ele>7.4000000953674</ele>
        <time>2019-11-10T11:07:33.000Z</time>
      </trkpt>
      <trkpt lat="47.30496" lon="-2.40876">
        <ele>7</ele>
        <time>2019-11-10T11:07:34.000Z</time>
      </trkpt>
      <trkpt lat="47.30487" lon="-2.40879">
        <ele>6.5999999046326</ele>
        <time>2019-11-10T11:07:35.000Z</time>
      </trkpt>
      <trkpt lat="47.30478" lon="-2.40882">
        <ele>6.1999998092651</ele>
        <time>2019-11-10T11:07:36.000Z</time>
      </trkpt>
      <trkpt lat="47.30433" lon="-2.40897">
        <ele>5.8000001907349</ele>
        <time>2019-11-10T11:07:41.000Z</time>
      </trkpt>
      <trkpt lat="47.30424" lon="-2.409">
        <ele>5.4000000953674</ele>
        <time>2019-11-10T11:07:42.000Z</time>
      </trkpt>
      <trkpt lat="47.30414" lon="-2.40903">
        <ele>4.8000001907349</ele>
        <time>2019-11-10T11:07:43.000Z</time>
      </trkpt>
      <trkpt lat="47.30406" lon="-2.40906">
        <ele>4.4000000953674</ele>
        <time>2019-11-10T11:07:44.000Z</time>
      </trkpt>
      <trkpt lat="47.30398" lon="-2.40909">
        <ele>4</ele>
        <time>2019-11-10T11:07:45.000Z</time>
      </trkpt>
      <trkpt lat="47.30381" lon="-2.40914">
        <ele>4</ele>
        <time>2019-11-10T11:07:47.000Z</time>
      </trkpt>
      <trkpt lat="47.30325" lon="-2.40932">
        <ele>4</ele>
        <time>2019-11-10T11:07:54.000Z</time>
      </trkpt>
      <trkpt lat="47.30309" lon="-2.40935">
        <ele>4</ele>
        <time>2019-11-10T11:07:56.000Z</time>
      </trkpt>
      <trkpt lat="47.3026" lon="-2.40939">
        <ele>4</ele>
        <time>2019-11-10T11:08:02.000Z</time>
      </trkpt>
      <trkpt lat="47.30202" lon="-2.40929">
        <ele>4</ele>
        <time>2019-11-10T11:08:09.000Z</time>
      </trkpt>
      <trkpt lat="47.30155" lon="-2.40908">
        <ele>4</ele>
        <time>2019-11-10T11:08:15.000Z</time>
      </trkpt>
      <trkpt lat="47.30103" lon="-2.40871">
        <ele>4</ele>
        <time>2019-11-10T11:08:22.000Z</time>
      </trkpt>
      <trkpt lat="47.30054" lon="-2.40826">
        <ele>4</ele>
        <time>2019-11-10T11:08:29.000Z</time>
      </trkpt>
      <trkpt lat="47.30047" lon="-2.4082">
        <ele>4</ele>
        <time>2019-11-10T11:08:30.000Z</time>
      </trkpt>
      <trkpt lat="47.30007" lon="-2.40782">
        <ele>4</ele>
        <time>2019-11-10T11:08:36.000Z</time>
      </trkpt>
      <trkpt lat="47.3" lon="-2.40776">
        <ele>4.4000000953674</ele>
        <time>2019-11-10T11:08:37.000Z</time>
      </trkpt>
      <trkpt lat="47.29992" lon="-2.40769">
        <ele>4.8000001907349</ele>
        <time>2019-11-10T11:08:38.000Z</time>
      </trkpt>
      <trkpt lat="47.29986" lon="-2.40763">
        <ele>5.1999998092651</ele>
        <time>2019-11-10T11:08:39.000Z</time>
      </trkpt>
      <trkpt lat="47.29978" lon="-2.40757">
        <ele>6</ele>
        <time>2019-11-10T11:08:40.000Z</time>
      </trkpt>
      <trkpt lat="47.29971" lon="-2.40751">
        <ele>6</ele>
        <time>2019-11-10T11:08:41.000Z</time>
      </trkpt>
      <trkpt lat="47.29932" lon="-2.40716">
        <ele>6</ele>
        <time>2019-11-10T11:08:47.000Z</time>
      </trkpt>
      <trkpt lat="47.29879" lon="-2.40669">
        <ele>6</ele>
        <time>2019-11-10T11:08:55.000Z</time>
      </trkpt>
      <trkpt lat="47.29873" lon="-2.40664">
        <ele>6</ele>
        <time>2019-11-10T11:08:56.000Z</time>
      </trkpt>
      <trkpt lat="47.2983" lon="-2.40628">
        <ele>6</ele>
        <time>2019-11-10T11:09:02.000Z</time>
      </trkpt>
      <trkpt lat="47.29809" lon="-2.40614">
        <ele>6</ele>
        <time>2019-11-10T11:09:05.000Z</time>
      </trkpt>
      <trkpt lat="47.29796" lon="-2.406">
        <ele>6</ele>
        <time>2019-11-10T11:09:07.000Z</time>
      </trkpt>
      <trkpt lat="47.29783" lon="-2.40586">
        <ele>6</ele>
        <time>2019-11-10T11:09:09.000Z</time>
      </trkpt>
      <trkpt lat="47.29777" lon="-2.40578">
        <ele>6</ele>
        <time>2019-11-10T11:09:10.000Z</time>
      </trkpt>
      <trkpt lat="47.2977" lon="-2.40571">
        <ele>6</ele>
        <time>2019-11-10T11:09:11.000Z</time>
      </trkpt>
      <trkpt lat="47.29742" lon="-2.40543">
        <ele>6</ele>
        <time>2019-11-10T11:09:15.000Z</time>
      </trkpt>
      <trkpt lat="47.29696" lon="-2.4049">
        <ele>6</ele>
        <time>2019-11-10T11:09:22.000Z</time>
      </trkpt>
      <trkpt lat="47.29668" lon="-2.40448">
        <ele>6.4000000953674</ele>
        <time>2019-11-10T11:09:27.000Z</time>
      </trkpt>
      <trkpt lat="47.29662" lon="-2.40439">
        <ele>7.1999998092651</ele>
        <time>2019-11-10T11:09:28.000Z</time>
      </trkpt>
      <trkpt lat="47.29657" lon="-2.40429">
        <ele>7.5999999046326</ele>
        <time>2019-11-10T11:09:29.000Z</time>
      </trkpt>
      <trkpt lat="47.29652" lon="-2.4042">
        <ele>8</ele>
        <time>2019-11-10T11:09:30.000Z</time>
      </trkpt>
      <trkpt lat="47.29627" lon="-2.4037">
        <ele>8</ele>
        <time>2019-11-10T11:09:35.000Z</time>
      </trkpt>
      <trkpt lat="47.29598" lon="-2.40303">
        <ele>8</ele>
        <time>2019-11-10T11:09:41.000Z</time>
      </trkpt>
      <trkpt lat="47.29595" lon="-2.40291">
        <ele>8</ele>
        <time>2019-11-10T11:09:42.000Z</time>
      </trkpt>
      <trkpt lat="47.29574" lon="-2.40217">
        <ele>8</ele>
        <time>2019-11-10T11:09:48.000Z</time>
      </trkpt>
      <trkpt lat="47.29568" lon="-2.40192">
        <ele>7.5999999046326</ele>
        <time>2019-11-10T11:09:50.000Z</time>
      </trkpt>
      <trkpt lat="47.29565" lon="-2.4018">
        <ele>7.1999998092651</ele>
        <time>2019-11-10T11:09:51.000Z</time>
      </trkpt>
      <trkpt lat="47.29561" lon="-2.40167">
        <ele>6.5999999046326</ele>
        <time>2019-11-10T11:09:52.000Z</time>
      </trkpt>
      <trkpt lat="47.29558" lon="-2.40154">
        <ele>5.8000001907349</ele>
        <time>2019-11-10T11:09:53.000Z</time>
      </trkpt>
      <trkpt lat="47.29547" lon="-2.40106">
        <ele>5.1999998092651</ele>
        <time>2019-11-10T11:09:57.000Z</time>
      </trkpt>
      <trkpt lat="47.29544" lon="-2.40093">
        <ele>4.8000001907349</ele>
        <time>2019-11-10T11:09:58.000Z</time>
      </trkpt>
      <trkpt lat="47.29541" lon="-2.40081">
        <ele>4.4000000953674</ele>
        <time>2019-11-10T11:09:59.000Z</time>
      </trkpt>
      <trkpt lat="47.29538" lon="-2.40068">
        <ele>4</ele>
        <time>2019-11-10T11:10:00.000Z</time>
      </trkpt>
      <trkpt lat="47.29535" lon="-2.40057">
        <ele>3.5999999046326</ele>
        <time>2019-11-10T11:10:01.000Z</time>
      </trkpt>
      <trkpt lat="47.29522" lon="-2.40012">
        <ele>3.5999999046326</ele>
        <time>2019-11-10T11:10:05.000Z</time>
      </trkpt>
      <trkpt lat="47.29497" lon="-2.39936">
        <ele>3.5999999046326</ele>
        <time>2019-11-10T11:10:12.000Z</time>
      </trkpt>
      <trkpt lat="47.29492" lon="-2.39926">
        <ele>3.5999999046326</ele>
        <time>2019-11-10T11:10:13.000Z</time>
      </trkpt>
      <trkpt lat="47.29466" lon="-2.39868">
        <ele>3.5999999046326</ele>
        <time>2019-11-10T11:10:19.000Z</time>
      </trkpt>
      <trkpt lat="47.2946" lon="-2.39859">
        <ele>3.5999999046326</ele>
        <time>2019-11-10T11:10:20.000Z</time>
      </trkpt>
      <trkpt lat="47.29445" lon="-2.39842">
        <ele>3.2000000476837</ele>
        <time>2019-11-10T11:10:23.000Z</time>
      </trkpt>
      <trkpt lat="47.29442" lon="-2.39839">
        <ele>2.5999999046326</ele>
        <time>2019-11-10T11:10:24.000Z</time>
      </trkpt>
      <trkpt lat="47.29439" lon="-2.39837">
        <ele>2.2000000476837</ele>
        <time>2019-11-10T11:10:25.000Z</time>
      </trkpt>
      <trkpt lat="47.29437" lon="-2.39836">
        <ele>1.6000000238419</ele>
        <time>2019-11-10T11:10:26.000Z</time>
      </trkpt>
      <trkpt lat="47.29433" lon="-2.39835">
        <ele>1.2000000476837</ele>
        <time>2019-11-10T11:10:27.000Z</time>
      </trkpt>
      <trkpt lat="47.29429" lon="-2.39833">
        <ele>1.2000000476837</ele>
        <time>2019-11-10T11:10:28.000Z</time>
      </trkpt>
      <trkpt lat="47.29424" lon="-2.3983">
        <ele>1.2000000476837</ele>
        <time>2019-11-10T11:10:29.000Z</time>
      </trkpt>
      <trkpt lat="47.29411" lon="-2.39813">
        <ele>1.2000000476837</ele>
        <time>2019-11-10T11:10:32.000Z</time>
      </trkpt>
      <trkpt lat="47.29406" lon="-2.39786">
        <ele>1.2000000476837</ele>
        <time>2019-11-10T11:10:35.000Z</time>
      </trkpt>
      <trkpt lat="47.29398" lon="-2.39761">
        <ele>1.2000000476837</ele>
        <time>2019-11-10T11:10:38.000Z</time>
      </trkpt>
      <trkpt lat="47.29389" lon="-2.39747">
        <ele>1.2000000476837</ele>
        <time>2019-11-10T11:10:40.000Z</time>
      </trkpt>
      <trkpt lat="47.29375" lon="-2.39727">
        <ele>1.2000000476837</ele>
        <time>2019-11-10T11:10:43.000Z</time>
      </trkpt>
      <trkpt lat="47.29347" lon="-2.39698">
        <ele>1.2000000476837</ele>
        <time>2019-11-10T11:10:48.000Z</time>
      </trkpt>
      <trkpt lat="47.29307" lon="-2.39657">
        <ele>1.2000000476837</ele>
        <time>2019-11-10T11:10:55.000Z</time>
      </trkpt>
      <trkpt lat="47.2927" lon="-2.39627">
        <ele>1.2000000476837</ele>
        <time>2019-11-10T11:11:02.000Z</time>
      </trkpt>
      <trkpt lat="47.29234" lon="-2.39602">
        <ele>1.2000000476837</ele>
        <time>2019-11-10T11:11:08.000Z</time>
      </trkpt>
      <trkpt lat="47.29222" lon="-2.39593">
        <ele>1.2000000476837</ele>
        <time>2019-11-10T11:11:10.000Z</time>
      </trkpt>
      <trkpt lat="47.29204" lon="-2.39583">
        <ele>1.2000000476837</ele>
        <time>2019-11-10T11:11:13.000Z</time>
      </trkpt>
      <trkpt lat="47.29156" lon="-2.39554">
        <ele>1.2000000476837</ele>
        <time>2019-11-10T11:11:21.000Z</time>
      </trkpt>
      <trkpt lat="47.29133" lon="-2.39545">
        <ele>1.2000000476837</ele>
        <time>2019-11-10T11:11:25.000Z</time>
      </trkpt>
      <trkpt lat="47.29128" lon="-2.39546">
        <ele>1.2000000476837</ele>
        <time>2019-11-10T11:11:26.000Z</time>
      </trkpt>
      <trkpt lat="47.29118" lon="-2.39545">
        <ele>1.2000000476837</ele>
        <time>2019-11-10T11:11:28.000Z</time>
      </trkpt>
      <trkpt lat="47.29108" lon="-2.39537">
        <ele>1.2000000476837</ele>
        <time>2019-11-10T11:11:30.000Z</time>
      </trkpt>
      <trkpt lat="47.29091" lon="-2.39512">
        <ele>1.2000000476837</ele>
        <time>2019-11-10T11:11:34.000Z</time>
      </trkpt>
      <trkpt lat="47.29068" lon="-2.39495">
        <ele>1.2000000476837</ele>
        <time>2019-11-10T11:11:38.000Z</time>
      </trkpt>
      <trkpt lat="47.29062" lon="-2.39491">
        <ele>1.6000000238419</ele>
        <time>2019-11-10T11:11:39.000Z</time>
      </trkpt>
      <trkpt lat="47.29056" lon="-2.39487">
        <ele>2</ele>
        <time>2019-11-10T11:11:40.000Z</time>
      </trkpt>
      <trkpt lat="47.2905" lon="-2.39484">
        <ele>2.5999999046326</ele>
        <time>2019-11-10T11:11:41.000Z</time>
      </trkpt>
      <trkpt lat="47.29044" lon="-2.39481">
        <ele>3</ele>
        <time>2019-11-10T11:11:42.000Z</time>
      </trkpt>
      <trkpt lat="47.29039" lon="-2.39477">
        <ele>3.4000000953674</ele>
        <time>2019-11-10T11:11:43.000Z</time>
      </trkpt>
      <trkpt lat="47.29033" lon="-2.39474">
        <ele>3.4000000953674</ele>
        <time>2019-11-10T11:11:44.000Z</time>
      </trkpt>
      <trkpt lat="47.28988" lon="-2.3945">
        <ele>3.4000000953674</ele>
        <time>2019-11-10T11:11:52.000Z</time>
      </trkpt>
      <trkpt lat="47.28977" lon="-2.39445">
        <ele>3.7999999523163</ele>
        <time>2019-11-10T11:11:54.000Z</time>
      </trkpt>
      <trkpt lat="47.28971" lon="-2.39442">
        <ele>4.1999998092651</ele>
        <time>2019-11-10T11:11:55.000Z</time>
      </trkpt>
      <trkpt lat="47.28966" lon="-2.3944">
        <ele>4.8000001907349</ele>
        <time>2019-11-10T11:11:56.000Z</time>
      </trkpt>
      <trkpt lat="47.28959" lon="-2.39437">
        <ele>5.1999998092651</ele>
        <time>2019-11-10T11:11:57.000Z</time>
      </trkpt>
      <trkpt lat="47.28954" lon="-2.39435">
        <ele>5.5999999046326</ele>
        <time>2019-11-10T11:11:58.000Z</time>
      </trkpt>
      <trkpt lat="47.28915" lon="-2.39421">
        <ele>5.5999999046326</ele>
        <time>2019-11-10T11:12:05.000Z</time>
      </trkpt>
      <trkpt lat="47.28903" lon="-2.39418">
        <ele>6</ele>
        <time>2019-11-10T11:12:07.000Z</time>
      </trkpt>
      <trkpt lat="47.28898" lon="-2.39416">
        <ele>6.4000000953674</ele>
        <time>2019-11-10T11:12:08.000Z</time>
      </trkpt>
      <trkpt lat="47.28893" lon="-2.39414">
        <ele>7</ele>
        <time>2019-11-10T11:12:09.000Z</time>
      </trkpt>
      <trkpt lat="47.28887" lon="-2.39412">
        <ele>7.4000000953674</ele>
        <time>2019-11-10T11:12:10.000Z</time>
      </trkpt>
      <trkpt lat="47.28881" lon="-2.3941">
        <ele>7.8000001907349</ele>
        <time>2019-11-10T11:12:11.000Z</time>
      </trkpt>
      <trkpt lat="47.28875" lon="-2.39408">
        <ele>7.8000001907349</ele>
        <time>2019-11-10T11:12:12.000Z</time>
      </trkpt>
      <trkpt lat="47.28838" lon="-2.39392">
        <ele>8.1999998092651</ele>
        <time>2019-11-10T11:12:19.000Z</time>
      </trkpt>
      <trkpt lat="47.28834" lon="-2.39387">
        <ele>8.6000003814697</ele>
        <time>2019-11-10T11:12:20.000Z</time>
      </trkpt>
      <trkpt lat="47.28829" lon="-2.39382">
        <ele>9</ele>
        <time>2019-11-10T11:12:21.000Z</time>
      </trkpt>
      <trkpt lat="47.28824" lon="-2.39375">
        <ele>9.8000001907349</ele>
        <time>2019-11-10T11:12:22.000Z</time>
      </trkpt>
      <trkpt lat="47.2882" lon="-2.39368">
        <ele>9.8000001907349</ele>
        <time>2019-11-10T11:12:23.000Z</time>
      </trkpt>
      <trkpt lat="47.28799" lon="-2.39324">
        <ele>9.3999996185303</ele>
        <time>2019-11-10T11:12:28.000Z</time>
      </trkpt>
      <trkpt lat="47.28795" lon="-2.39316">
        <ele>9</ele>
        <time>2019-11-10T11:12:29.000Z</time>
      </trkpt>
      <trkpt lat="47.2879" lon="-2.39308">
        <ele>8.6000003814697</ele>
        <time>2019-11-10T11:12:30.000Z</time>
      </trkpt>
      <trkpt lat="47.28786" lon="-2.393">
        <ele>8.1999998092651</ele>
        <time>2019-11-10T11:12:31.000Z</time>
      </trkpt>
      <trkpt lat="47.28783" lon="-2.39294">
        <ele>7.5999999046326</ele>
        <time>2019-11-10T11:12:32.000Z</time>
      </trkpt>
      <trkpt lat="47.2878" lon="-2.39289">
        <ele>7.1999998092651</ele>
        <time>2019-11-10T11:12:33.000Z</time>
      </trkpt>
      <trkpt lat="47.28778" lon="-2.39285">
        <ele>6.5999999046326</ele>
        <time>2019-11-10T11:12:34.000Z</time>
      </trkpt>
      <trkpt lat="47.28775" lon="-2.39282">
        <ele>6.1999998092651</ele>
        <time>2019-11-10T11:12:35.000Z</time>
      </trkpt>
      <trkpt lat="47.28774" lon="-2.3928">
        <ele>5.5999999046326</ele>
        <time>2019-11-10T11:12:36.000Z</time>
      </trkpt>
      <trkpt lat="47.28772" lon="-2.39276">
        <ele>5.1999998092651</ele>
        <time>2019-11-10T11:12:39.000Z</time>
      </trkpt>
      <trkpt lat="47.28771" lon="-2.39275">
        <ele>4.8000001907349</ele>
        <time>2019-11-10T11:12:40.000Z</time>
      </trkpt>
      <trkpt lat="47.28771" lon="-2.39274">
        <ele>4.4000000953674</ele>
        <time>2019-11-10T11:12:41.000Z</time>
      </trkpt>
      <trkpt lat="47.28769" lon="-2.39272">
        <ele>4</ele>
        <time>2019-11-10T11:12:42.000Z</time>
      </trkpt>
      <trkpt lat="47.28768" lon="-2.39269">
        <ele>3.5999999046326</ele>
        <time>2019-11-10T11:12:43.000Z</time>
      </trkpt>
      <trkpt lat="47.28764" lon="-2.39261">
        <ele>3.5999999046326</ele>
        <time>2019-11-10T11:12:45.000Z</time>
      </trkpt>
      <trkpt lat="47.28755" lon="-2.3924">
        <ele>3.5999999046326</ele>
        <time>2019-11-10T11:12:49.000Z</time>
      </trkpt>
      <trkpt lat="47.28737" lon="-2.39199">
        <ele>3.5999999046326</ele>
        <time>2019-11-10T11:12:55.000Z</time>
      </trkpt>
      <trkpt lat="47.28714" lon="-2.39148">
        <ele>3.5999999046326</ele>
        <time>2019-11-10T11:13:02.000Z</time>
      </trkpt>
      <trkpt lat="47.28712" lon="-2.39143">
        <ele>3.5999999046326</ele>
        <time>2019-11-10T11:13:03.000Z</time>
      </trkpt>
      <trkpt lat="47.28707" lon="-2.39138">
        <ele>3.5999999046326</ele>
        <time>2019-11-10T11:13:05.000Z</time>
      </trkpt>
      <trkpt lat="47.28698" lon="-2.39142">
        <ele>3.5999999046326</ele>
        <time>2019-11-10T11:13:09.000Z</time>
      </trkpt>
      <trkpt lat="47.28682" lon="-2.39154">
        <ele>3.5999999046326</ele>
        <time>2019-11-10T11:13:14.000Z</time>
      </trkpt>
      <trkpt lat="47.28674" lon="-2.39139">
        <ele>3.5999999046326</ele>
        <time>2019-11-10T11:13:17.000Z</time>
      </trkpt>
      <trkpt lat="47.28673" lon="-2.39129">
        <ele>3.5999999046326</ele>
        <time>2019-11-10T11:13:19.000Z</time>
      </trkpt>
      <trkpt lat="47.28669" lon="-2.39121">
        <ele>3.5999999046326</ele>
        <time>2019-11-10T11:13:21.000Z</time>
      </trkpt>
      <trkpt lat="47.28652" lon="-2.39101">
        <ele>3.5999999046326</ele>
        <time>2019-11-10T11:13:26.000Z</time>
      </trkpt>
      <trkpt lat="47.28628" lon="-2.39072">
        <ele>3.5999999046326</ele>
        <time>2019-11-10T11:13:32.000Z</time>
      </trkpt>
      <trkpt lat="47.2862" lon="-2.39061">
        <ele>3.5999999046326</ele>
        <time>2019-11-10T11:13:34.000Z</time>
      </trkpt>
      <trkpt lat="47.28609" lon="-2.39047">
        <ele>3.5999999046326</ele>
        <time>2019-11-10T11:13:37.000Z</time>
      </trkpt>
      <trkpt lat="47.28602" lon="-2.39039">
        <ele>3.5999999046326</ele>
        <time>2019-11-10T11:13:39.000Z</time>
      </trkpt>
      <trkpt lat="47.28594" lon="-2.39032">
        <ele>3.5999999046326</ele>
        <time>2019-11-10T11:13:42.000Z</time>
      </trkpt>
      <trkpt lat="47.28585" lon="-2.39012">
        <ele>3.5999999046326</ele>
        <time>2019-11-10T11:13:46.000Z</time>
      </trkpt>
      <trkpt lat="47.28576" lon="-2.38994">
        <ele>3.5999999046326</ele>
        <time>2019-11-10T11:13:49.000Z</time>
      </trkpt>
      <trkpt lat="47.28565" lon="-2.38977">
        <ele>3.5999999046326</ele>
        <time>2019-11-10T11:13:52.000Z</time>
      </trkpt>
      <trkpt lat="47.28538" lon="-2.38932">
        <ele>3.5999999046326</ele>
        <time>2019-11-10T11:13:59.000Z</time>
      </trkpt>
      <trkpt lat="47.28509" lon="-2.38885">
        <ele>3.5999999046326</ele>
        <time>2019-11-10T11:14:06.000Z</time>
      </trkpt>
      <trkpt lat="47.28481" lon="-2.38842">
        <ele>3.5999999046326</ele>
        <time>2019-11-10T11:14:13.000Z</time>
      </trkpt>
      <trkpt lat="47.28451" lon="-2.38794">
        <ele>3.5999999046326</ele>
        <time>2019-11-10T11:14:20.000Z</time>
      </trkpt>
      <trkpt lat="47.28428" lon="-2.38757">
        <ele>3.2000000476837</ele>
        <time>2019-11-10T11:14:25.000Z</time>
      </trkpt>
      <trkpt lat="47.28423" lon="-2.3875">
        <ele>2.4000000953674</ele>
        <time>2019-11-10T11:14:26.000Z</time>
      </trkpt>
      <trkpt lat="47.28418" lon="-2.38744">
        <ele>2</ele>
        <time>2019-11-10T11:14:27.000Z</time>
      </trkpt>
      <trkpt lat="47.28413" lon="-2.3874">
        <ele>1.6000000238419</ele>
        <time>2019-11-10T11:14:28.000Z</time>
      </trkpt>
      <trkpt lat="47.28402" lon="-2.38736">
        <ele>1.6000000238419</ele>
        <time>2019-11-10T11:14:30.000Z</time>
      </trkpt>
      <trkpt lat="47.28391" lon="-2.38737">
        <ele>1.6000000238419</ele>
        <time>2019-11-10T11:14:32.000Z</time>
      </trkpt>
      <trkpt lat="47.28379" lon="-2.3874">
        <ele>1.6000000238419</ele>
        <time>2019-11-10T11:14:34.000Z</time>
      </trkpt>
      <trkpt lat="47.2835" lon="-2.38745">
        <ele>1.6000000238419</ele>
        <time>2019-11-10T11:14:39.000Z</time>
      </trkpt>
      <trkpt lat="47.28319" lon="-2.3875">
        <ele>1.6000000238419</ele>
        <time>2019-11-10T11:14:45.000Z</time>
      </trkpt>
      <trkpt lat="47.28307" lon="-2.38752">
        <ele>1.6000000238419</ele>
        <time>2019-11-10T11:14:49.000Z</time>
      </trkpt>
      <trkpt lat="47.28301" lon="-2.38741">
        <ele>1.6000000238419</ele>
        <time>2019-11-10T11:14:52.000Z</time>
      </trkpt>
      <trkpt lat="47.28298" lon="-2.3873">
        <ele>1.6000000238419</ele>
        <time>2019-11-10T11:14:54.000Z</time>
      </trkpt>
      <trkpt lat="47.28292" lon="-2.38718">
        <ele>1.6000000238419</ele>
        <time>2019-11-10T11:14:57.000Z</time>
      </trkpt>
      <trkpt lat="47.28284" lon="-2.38707">
        <ele>2</ele>
        <time>2019-11-10T11:15:00.000Z</time>
      </trkpt>
      <trkpt lat="47.2828" lon="-2.38704">
        <ele>2.4000000953674</ele>
        <time>2019-11-10T11:15:01.000Z</time>
      </trkpt>
      <trkpt lat="47.28277" lon="-2.38702">
        <ele>2.7999999523163</ele>
        <time>2019-11-10T11:15:02.000Z</time>
      </trkpt>
      <trkpt lat="47.28273" lon="-2.38699">
        <ele>3.2000000476837</ele>
        <time>2019-11-10T11:15:03.000Z</time>
      </trkpt>
      <trkpt lat="47.28269" lon="-2.38697">
        <ele>3.5999999046326</ele>
        <time>2019-11-10T11:15:04.000Z</time>
      </trkpt>
      <trkpt lat="47.28256" lon="-2.38689">
        <ele>4</ele>
        <time>2019-11-10T11:15:07.000Z</time>
      </trkpt>
      <trkpt lat="47.28251" lon="-2.38686">
        <ele>4.4000000953674</ele>
        <time>2019-11-10T11:15:08.000Z</time>
      </trkpt>
      <trkpt lat="47.28247" lon="-2.38681">
        <ele>5</ele>
        <time>2019-11-10T11:15:09.000Z</time>
      </trkpt>
      <trkpt lat="47.28242" lon="-2.38677">
        <ele>5.4000000953674</ele>
        <time>2019-11-10T11:15:10.000Z</time>
      </trkpt>
      <trkpt lat="47.28239" lon="-2.38673">
        <ele>5.8000001907349</ele>
        <time>2019-11-10T11:15:11.000Z</time>
      </trkpt>
      <trkpt lat="47.28235" lon="-2.38667">
        <ele>5.8000001907349</ele>
        <time>2019-11-10T11:15:12.000Z</time>
      </trkpt>
      <trkpt lat="47.28229" lon="-2.38652">
        <ele>5.8000001907349</ele>
        <time>2019-11-10T11:15:14.000Z</time>
      </trkpt>
      <trkpt lat="47.28227" lon="-2.38645">
        <ele>5.8000001907349</ele>
        <time>2019-11-10T11:15:15.000Z</time>
      </trkpt>
      <trkpt lat="47.28215" lon="-2.3861">
        <ele>5.4000000953674</ele>
        <time>2019-11-10T11:15:19.000Z</time>
      </trkpt>
      <trkpt lat="47.2821" lon="-2.38603">
        <ele>4.8000001907349</ele>
        <time>2019-11-10T11:15:20.000Z</time>
      </trkpt>
      <trkpt lat="47.28203" lon="-2.38599">
        <ele>4.4000000953674</ele>
        <time>2019-11-10T11:15:21.000Z</time>
      </trkpt>
      <trkpt lat="47.28197" lon="-2.38598">
        <ele>4</ele>
        <time>2019-11-10T11:15:22.000Z</time>
      </trkpt>
      <trkpt lat="47.2819" lon="-2.38599">
        <ele>3.4000000953674</ele>
        <time>2019-11-10T11:15:23.000Z</time>
      </trkpt>
      <trkpt lat="47.28179" lon="-2.38602">
        <ele>3.4000000953674</ele>
        <time>2019-11-10T11:15:25.000Z</time>
      </trkpt>
      <trkpt lat="47.28148" lon="-2.38605">
        <ele>3.4000000953674</ele>
        <time>2019-11-10T11:15:31.000Z</time>
      </trkpt>
      <trkpt lat="47.28124" lon="-2.38611">
        <ele>3.4000000953674</ele>
        <time>2019-11-10T11:15:36.000Z</time>
      </trkpt>
      <trkpt lat="47.28112" lon="-2.38614">
        <ele>3.4000000953674</ele>
        <time>2019-11-10T11:15:39.000Z</time>
      </trkpt>
      <trkpt lat="47.2811" lon="-2.38609">
        <ele>3.4000000953674</ele>
        <time>2019-11-10T11:15:40.000Z</time>
      </trkpt>
      <trkpt lat="47.28106" lon="-2.38587">
        <ele>3.4000000953674</ele>
        <time>2019-11-10T11:15:43.000Z</time>
      </trkpt>
      <trkpt lat="47.28105" lon="-2.38572">
        <ele>3.4000000953674</ele>
        <time>2019-11-10T11:15:45.000Z</time>
      </trkpt>
      <trkpt lat="47.28102" lon="-2.38537">
        <ele>3.4000000953674</ele>
        <time>2019-11-10T11:15:49.000Z</time>
      </trkpt>
      <trkpt lat="47.28092" lon="-2.38473">
        <ele>3.4000000953674</ele>
        <time>2019-11-10T11:15:56.000Z</time>
      </trkpt>
      <trkpt lat="47.28076" lon="-2.38387">
        <ele>3.4000000953674</ele>
        <time>2019-11-10T11:16:05.000Z</time>
      </trkpt>
      <trkpt lat="47.28063" lon="-2.38319">
        <ele>3.4000000953674</ele>
        <time>2019-11-10T11:16:12.000Z</time>
      </trkpt>
      <trkpt lat="47.28048" lon="-2.38239">
        <ele>3.4000000953674</ele>
        <time>2019-11-10T11:16:20.000Z</time>
      </trkpt>
      <trkpt lat="47.28045" lon="-2.38218">
        <ele>3.4000000953674</ele>
        <time>2019-11-10T11:16:22.000Z</time>
      </trkpt>
      <trkpt lat="47.28029" lon="-2.38132">
        <ele>3.4000000953674</ele>
        <time>2019-11-10T11:16:30.000Z</time>
      </trkpt>
      <trkpt lat="47.28027" lon="-2.38121">
        <ele>3.4000000953674</ele>
        <time>2019-11-10T11:16:31.000Z</time>
      </trkpt>
      <trkpt lat="47.28013" lon="-2.38045">
        <ele>3.4000000953674</ele>
        <time>2019-11-10T11:16:38.000Z</time>
      </trkpt>
      <trkpt lat="47.27997" lon="-2.37961">
        <ele>3.4000000953674</ele>
        <time>2019-11-10T11:16:46.000Z</time>
      </trkpt>
      <trkpt lat="47.27984" lon="-2.37888">
        <ele>3.4000000953674</ele>
        <time>2019-11-10T11:16:53.000Z</time>
      </trkpt>
      <trkpt lat="47.27975" lon="-2.37848">
        <ele>3.4000000953674</ele>
        <time>2019-11-10T11:16:58.000Z</time>
      </trkpt>
      <trkpt lat="47.27974" lon="-2.37835">
        <ele>3.4000000953674</ele>
        <time>2019-11-10T11:17:02.000Z</time>
      </trkpt>
      <trkpt lat="47.2797" lon="-2.37812">
        <ele>3.4000000953674</ele>
        <time>2019-11-10T11:17:06.000Z</time>
      </trkpt>
      <trkpt lat="47.27968" lon="-2.37797">
        <ele>3.4000000953674</ele>
        <time>2019-11-10T11:17:08.000Z</time>
      </trkpt>
      <trkpt lat="47.27966" lon="-2.3778">
        <ele>3.4000000953674</ele>
        <time>2019-11-10T11:17:10.000Z</time>
      </trkpt>
      <trkpt lat="47.2796" lon="-2.37763">
        <ele>3.4000000953674</ele>
        <time>2019-11-10T11:17:12.000Z</time>
      </trkpt>
      <trkpt lat="47.27955" lon="-2.37744">
        <ele>3.4000000953674</ele>
        <time>2019-11-10T11:17:14.000Z</time>
      </trkpt>
      <trkpt lat="47.27937" lon="-2.37666">
        <ele>3.4000000953674</ele>
        <time>2019-11-10T11:17:22.000Z</time>
      </trkpt>
      <trkpt lat="47.27932" lon="-2.37647">
        <ele>3.4000000953674</ele>
        <time>2019-11-10T11:17:24.000Z</time>
      </trkpt>
      <trkpt lat="47.2792" lon="-2.37598">
        <ele>3.4000000953674</ele>
        <time>2019-11-10T11:17:29.000Z</time>
      </trkpt>
      <trkpt lat="47.27902" lon="-2.37526">
        <ele>3.4000000953674</ele>
        <time>2019-11-10T11:17:36.000Z</time>
      </trkpt>
      <trkpt lat="47.27883" lon="-2.37444">
        <ele>3.4000000953674</ele>
        <time>2019-11-10T11:17:44.000Z</time>
      </trkpt>
      <trkpt lat="47.27863" lon="-2.37365">
        <ele>3.4000000953674</ele>
        <time>2019-11-10T11:17:52.000Z</time>
      </trkpt>
      <trkpt lat="47.27843" lon="-2.37287">
        <ele>3.4000000953674</ele>
        <time>2019-11-10T11:18:00.000Z</time>
      </trkpt>
      <trkpt lat="47.27829" lon="-2.37228">
        <ele>3.4000000953674</ele>
        <time>2019-11-10T11:18:06.000Z</time>
      </trkpt>
      <trkpt lat="47.27817" lon="-2.3718">
        <ele>3.4000000953674</ele>
        <time>2019-11-10T11:18:11.000Z</time>
      </trkpt>
      <trkpt lat="47.27815" lon="-2.3717">
        <ele>3.7999999523163</ele>
        <time>2019-11-10T11:18:12.000Z</time>
      </trkpt>
      <trkpt lat="47.27812" lon="-2.37161">
        <ele>4.4000000953674</ele>
        <time>2019-11-10T11:18:13.000Z</time>
      </trkpt>
      <trkpt lat="47.27809" lon="-2.37152">
        <ele>4.8000001907349</ele>
        <time>2019-11-10T11:18:14.000Z</time>
      </trkpt>
      <trkpt lat="47.27806" lon="-2.37142">
        <ele>5.1999998092651</ele>
        <time>2019-11-10T11:18:15.000Z</time>
      </trkpt>
      <trkpt lat="47.27803" lon="-2.37132">
        <ele>5.5999999046326</ele>
        <time>2019-11-10T11:18:16.000Z</time>
      </trkpt>
      <trkpt lat="47.27786" lon="-2.37073">
        <ele>5.5999999046326</ele>
        <time>2019-11-10T11:18:22.000Z</time>
      </trkpt>
      <trkpt lat="47.27765" lon="-2.36993">
        <ele>5.5999999046326</ele>
        <time>2019-11-10T11:18:30.000Z</time>
      </trkpt>
      <trkpt lat="47.27746" lon="-2.36927">
        <ele>5.5999999046326</ele>
        <time>2019-11-10T11:18:37.000Z</time>
      </trkpt>
      <trkpt lat="47.27724" lon="-2.36849">
        <ele>5.5999999046326</ele>
        <time>2019-11-10T11:18:45.000Z</time>
      </trkpt>
      <trkpt lat="47.27708" lon="-2.36798">
        <ele>5.5999999046326</ele>
        <time>2019-11-10T11:18:50.000Z</time>
      </trkpt>
      <trkpt lat="47.27684" lon="-2.36724">
        <ele>5.5999999046326</ele>
        <time>2019-11-10T11:18:57.000Z</time>
      </trkpt>
      <trkpt lat="47.2768" lon="-2.36714">
        <ele>5.5999999046326</ele>
        <time>2019-11-10T11:18:58.000Z</time>
      </trkpt>
      <trkpt lat="47.27656" lon="-2.3664">
        <ele>5.5999999046326</ele>
        <time>2019-11-10T11:19:05.000Z</time>
      </trkpt>
      <trkpt lat="47.27645" lon="-2.36611">
        <ele>5.5999999046326</ele>
        <time>2019-11-10T11:19:08.000Z</time>
      </trkpt>
      <trkpt lat="47.27622" lon="-2.36542">
        <ele>5.5999999046326</ele>
        <time>2019-11-10T11:19:15.000Z</time>
      </trkpt>
      <trkpt lat="47.27594" lon="-2.36464">
        <ele>5.5999999046326</ele>
        <time>2019-11-10T11:19:23.000Z</time>
      </trkpt>
      <trkpt lat="47.27567" lon="-2.36394">
        <ele>5.5999999046326</ele>
        <time>2019-11-10T11:19:30.000Z</time>
      </trkpt>
      <trkpt lat="47.27563" lon="-2.36384">
        <ele>5.5999999046326</ele>
        <time>2019-11-10T11:19:31.000Z</time>
      </trkpt>
      <trkpt lat="47.27537" lon="-2.36313">
        <ele>5.5999999046326</ele>
        <time>2019-11-10T11:19:38.000Z</time>
      </trkpt>
      <trkpt lat="47.27534" lon="-2.36304">
        <ele>5.5999999046326</ele>
        <time>2019-11-10T11:19:39.000Z</time>
      </trkpt>
      <trkpt lat="47.27507" lon="-2.36235">
        <ele>5.5999999046326</ele>
        <time>2019-11-10T11:19:46.000Z</time>
      </trkpt>
      <trkpt lat="47.27477" lon="-2.36156">
        <ele>5.5999999046326</ele>
        <time>2019-11-10T11:19:54.000Z</time>
      </trkpt>
      <trkpt lat="47.27467" lon="-2.36124">
        <ele>5.5999999046326</ele>
        <time>2019-11-10T11:19:57.000Z</time>
      </trkpt>
      <trkpt lat="47.27461" lon="-2.36104">
        <ele>5.5999999046326</ele>
        <time>2019-11-10T11:19:59.000Z</time>
      </trkpt>
      <trkpt lat="47.27443" lon="-2.36066">
        <ele>5.5999999046326</ele>
        <time>2019-11-10T11:20:03.000Z</time>
      </trkpt>
      <trkpt lat="47.2744" lon="-2.36056">
        <ele>5.5999999046326</ele>
        <time>2019-11-10T11:20:04.000Z</time>
      </trkpt>
      <trkpt lat="47.27415" lon="-2.35996">
        <ele>5.5999999046326</ele>
        <time>2019-11-10T11:20:10.000Z</time>
      </trkpt>
      <trkpt lat="47.27384" lon="-2.35921">
        <ele>5.5999999046326</ele>
        <time>2019-11-10T11:20:17.000Z</time>
      </trkpt>
      <trkpt lat="47.27353" lon="-2.35845">
        <ele>5.5999999046326</ele>
        <time>2019-11-10T11:20:24.000Z</time>
      </trkpt>
      <trkpt lat="47.27327" lon="-2.35777">
        <ele>5.5999999046326</ele>
        <time>2019-11-10T11:20:31.000Z</time>
      </trkpt>
      <trkpt lat="47.27325" lon="-2.35767">
        <ele>5.1999998092651</ele>
        <time>2019-11-10T11:20:32.000Z</time>
      </trkpt>
      <trkpt lat="47.27322" lon="-2.35758">
        <ele>4.8000001907349</ele>
        <time>2019-11-10T11:20:33.000Z</time>
      </trkpt>
      <trkpt lat="47.27318" lon="-2.35749">
        <ele>4.1999998092651</ele>
        <time>2019-11-10T11:20:34.000Z</time>
      </trkpt>
      <trkpt lat="47.27313" lon="-2.3574">
        <ele>3.4000000953674</ele>
        <time>2019-11-10T11:20:35.000Z</time>
      </trkpt>
      <trkpt lat="47.27309" lon="-2.35732">
        <ele>3.4000000953674</ele>
        <time>2019-11-10T11:20:36.000Z</time>
      </trkpt>
      <trkpt lat="47.27302" lon="-2.35712">
        <ele>3.4000000953674</ele>
        <time>2019-11-10T11:20:39.000Z</time>
      </trkpt>
      <trkpt lat="47.27299" lon="-2.35705">
        <ele>3.4000000953674</ele>
        <time>2019-11-10T11:20:40.000Z</time>
      </trkpt>
      <trkpt lat="47.27295" lon="-2.35697">
        <ele>3.4000000953674</ele>
        <time>2019-11-10T11:20:41.000Z</time>
      </trkpt>
      <trkpt lat="47.27282" lon="-2.35675">
        <ele>3.4000000953674</ele>
        <time>2019-11-10T11:20:44.000Z</time>
      </trkpt>
      <trkpt lat="47.27261" lon="-2.35631">
        <ele>3.4000000953674</ele>
        <time>2019-11-10T11:20:49.000Z</time>
      </trkpt>
      <trkpt lat="47.27227" lon="-2.35555">
        <ele>3.4000000953674</ele>
        <time>2019-11-10T11:20:57.000Z</time>
      </trkpt>
      <trkpt lat="47.27196" lon="-2.35488">
        <ele>3.4000000953674</ele>
        <time>2019-11-10T11:21:04.000Z</time>
      </trkpt>
      <trkpt lat="47.27191" lon="-2.35479">
        <ele>3.4000000953674</ele>
        <time>2019-11-10T11:21:05.000Z</time>
      </trkpt>
      <trkpt lat="47.27186" lon="-2.35469">
        <ele>3.7999999523163</ele>
        <time>2019-11-10T11:21:06.000Z</time>
      </trkpt>
      <trkpt lat="47.27182" lon="-2.3546">
        <ele>4.1999998092651</ele>
        <time>2019-11-10T11:21:07.000Z</time>
      </trkpt>
      <trkpt lat="47.27177" lon="-2.3545">
        <ele>4.5999999046326</ele>
        <time>2019-11-10T11:21:08.000Z</time>
      </trkpt>
      <trkpt lat="47.27172" lon="-2.35441">
        <ele>5.1999998092651</ele>
        <time>2019-11-10T11:21:09.000Z</time>
      </trkpt>
      <trkpt lat="47.27168" lon="-2.35432">
        <ele>5.5999999046326</ele>
        <time>2019-11-10T11:21:10.000Z</time>
      </trkpt>
      <trkpt lat="47.27154" lon="-2.35405">
        <ele>5.5999999046326</ele>
        <time>2019-11-10T11:21:13.000Z</time>
      </trkpt>
      <trkpt lat="47.27149" lon="-2.35397">
        <ele>5.5999999046326</ele>
        <time>2019-11-10T11:21:14.000Z</time>
      </trkpt>
      <trkpt lat="47.27125" lon="-2.35354">
        <ele>5.5999999046326</ele>
        <time>2019-11-10T11:21:19.000Z</time>
      </trkpt>
      <trkpt lat="47.27087" lon="-2.35294">
        <ele>5.5999999046326</ele>
        <time>2019-11-10T11:21:26.000Z</time>
      </trkpt>
      <trkpt lat="47.27049" lon="-2.35236">
        <ele>5.5999999046326</ele>
        <time>2019-11-10T11:21:33.000Z</time>
      </trkpt>
      <trkpt lat="47.27044" lon="-2.35228">
        <ele>5.5999999046326</ele>
        <time>2019-11-10T11:21:34.000Z</time>
      </trkpt>
      <trkpt lat="47.27014" lon="-2.35177">
        <ele>5.1999998092651</ele>
        <time>2019-11-10T11:21:40.000Z</time>
      </trkpt>
      <trkpt lat="47.27009" lon="-2.35168">
        <ele>4.5999999046326</ele>
        <time>2019-11-10T11:21:41.000Z</time>
      </trkpt>
      <trkpt lat="47.27004" lon="-2.35159">
        <ele>4.1999998092651</ele>
        <time>2019-11-10T11:21:42.000Z</time>
      </trkpt>
      <trkpt lat="47.26999" lon="-2.3515">
        <ele>3.7999999523163</ele>
        <time>2019-11-10T11:21:43.000Z</time>
      </trkpt>
      <trkpt lat="47.26994" lon="-2.35141">
        <ele>3.4000000953674</ele>
        <time>2019-11-10T11:21:44.000Z</time>
      </trkpt>
      <trkpt lat="47.26956" lon="-2.35083">
        <ele>3.4000000953674</ele>
        <time>2019-11-10T11:21:51.000Z</time>
      </trkpt>
      <trkpt lat="47.2695" lon="-2.35074">
        <ele>3.4000000953674</ele>
        <time>2019-11-10T11:21:52.000Z</time>
      </trkpt>
      <trkpt lat="47.2691" lon="-2.35017">
        <ele>3.4000000953674</ele>
        <time>2019-11-10T11:21:59.000Z</time>
      </trkpt>
      <trkpt lat="47.26904" lon="-2.35009">
        <ele>3.4000000953674</ele>
        <time>2019-11-10T11:22:00.000Z</time>
      </trkpt>
      <trkpt lat="47.26863" lon="-2.34949">
        <ele>3.4000000953674</ele>
        <time>2019-11-10T11:22:07.000Z</time>
      </trkpt>
      <trkpt lat="47.26852" lon="-2.34933">
        <ele>3.4000000953674</ele>
        <time>2019-11-10T11:22:09.000Z</time>
      </trkpt>
      <trkpt lat="47.26814" lon="-2.34874">
        <ele>3.4000000953674</ele>
        <time>2019-11-10T11:22:16.000Z</time>
      </trkpt>
      <trkpt lat="47.26804" lon="-2.34859">
        <ele>3.4000000953674</ele>
        <time>2019-11-10T11:22:18.000Z</time>
      </trkpt>
      <trkpt lat="47.26768" lon="-2.34812">
        <ele>3.4000000953674</ele>
        <time>2019-11-10T11:22:25.000Z</time>
      </trkpt>
      <trkpt lat="47.2674" lon="-2.34777">
        <ele>3.4000000953674</ele>
        <time>2019-11-10T11:22:30.000Z</time>
      </trkpt>
      <trkpt lat="47.26707" lon="-2.34734">
        <ele>3.4000000953674</ele>
        <time>2019-11-10T11:22:36.000Z</time>
      </trkpt>
      <trkpt lat="47.26669" lon="-2.34685">
        <ele>3.4000000953674</ele>
        <time>2019-11-10T11:22:43.000Z</time>
      </trkpt>
      <trkpt lat="47.26635" lon="-2.34644">
        <ele>3.4000000953674</ele>
        <time>2019-11-10T11:22:49.000Z</time>
      </trkpt>
      <trkpt lat="47.26595" lon="-2.34596">
        <ele>3.4000000953674</ele>
        <time>2019-11-10T11:22:56.000Z</time>
      </trkpt>
      <trkpt lat="47.26546" lon="-2.34543">
        <ele>3.4000000953674</ele>
        <time>2019-11-10T11:23:04.000Z</time>
      </trkpt>
      <trkpt lat="47.26499" lon="-2.34505">
        <ele>3.4000000953674</ele>
        <time>2019-11-10T11:23:11.000Z</time>
      </trkpt>
      <trkpt lat="47.2645" lon="-2.34472">
        <ele>3.4000000953674</ele>
        <time>2019-11-10T11:23:18.000Z</time>
      </trkpt>
      <trkpt lat="47.26402" lon="-2.34437">
        <ele>3.4000000953674</ele>
        <time>2019-11-10T11:23:25.000Z</time>
      </trkpt>
      <trkpt lat="47.26395" lon="-2.34431">
        <ele>3.4000000953674</ele>
        <time>2019-11-10T11:23:26.000Z</time>
      </trkpt>
      <trkpt lat="47.26349" lon="-2.34389">
        <ele>3.4000000953674</ele>
        <time>2019-11-10T11:23:33.000Z</time>
      </trkpt>
      <trkpt lat="47.26327" lon="-2.34376">
        <ele>3.4000000953674</ele>
        <time>2019-11-10T11:23:36.000Z</time>
      </trkpt>
      <trkpt lat="47.26315" lon="-2.34363">
        <ele>3.4000000953674</ele>
        <time>2019-11-10T11:23:38.000Z</time>
      </trkpt>
      <trkpt lat="47.2629" lon="-2.34334">
        <ele>3.4000000953674</ele>
        <time>2019-11-10T11:23:42.000Z</time>
      </trkpt>
      <trkpt lat="47.26284" lon="-2.34328">
        <ele>3.4000000953674</ele>
        <time>2019-11-10T11:23:43.000Z</time>
      </trkpt>
      <trkpt lat="47.26241" lon="-2.3428">
        <ele>3.4000000953674</ele>
        <time>2019-11-10T11:23:50.000Z</time>
      </trkpt>
      <trkpt lat="47.26195" lon="-2.34233">
        <ele>3.4000000953674</ele>
        <time>2019-11-10T11:23:57.000Z</time>
      </trkpt>
      <trkpt lat="47.26189" lon="-2.34226">
        <ele>3.4000000953674</ele>
        <time>2019-11-10T11:23:58.000Z</time>
      </trkpt>
      <trkpt lat="47.26153" lon="-2.34189">
        <ele>3.4000000953674</ele>
        <time>2019-11-10T11:24:04.000Z</time>
      </trkpt>
      <trkpt lat="47.26139" lon="-2.34182">
        <ele>3.4000000953674</ele>
        <time>2019-11-10T11:24:06.000Z</time>
      </trkpt>
      <trkpt lat="47.26125" lon="-2.34174">
        <ele>3.4000000953674</ele>
        <time>2019-11-10T11:24:08.000Z</time>
      </trkpt>
      <trkpt lat="47.26101" lon="-2.34154">
        <ele>3.4000000953674</ele>
        <time>2019-11-10T11:24:12.000Z</time>
      </trkpt>
      <trkpt lat="47.26094" lon="-2.3415">
        <ele>3.4000000953674</ele>
        <time>2019-11-10T11:24:13.000Z</time>
      </trkpt>
      <trkpt lat="47.26063" lon="-2.34134">
        <ele>3.4000000953674</ele>
        <time>2019-11-10T11:24:18.000Z</time>
      </trkpt>
      <trkpt lat="47.26051" lon="-2.34127">
        <ele>3.4000000953674</ele>
        <time>2019-11-10T11:24:20.000Z</time>
      </trkpt>
      <trkpt lat="47.26028" lon="-2.34116">
        <ele>3.4000000953674</ele>
        <time>2019-11-10T11:24:24.000Z</time>
      </trkpt>
      <trkpt lat="47.2599" lon="-2.34098">
        <ele>3.4000000953674</ele>
        <time>2019-11-10T11:24:31.000Z</time>
      </trkpt>
      <trkpt lat="47.25957" lon="-2.34082">
        <ele>3.4000000953674</ele>
        <time>2019-11-10T11:24:38.000Z</time>
      </trkpt>
      <trkpt lat="47.25932" lon="-2.34073">
        <ele>3.4000000953674</ele>
        <time>2019-11-10T11:24:44.000Z</time>
      </trkpt>
      <trkpt lat="47.25923" lon="-2.34072">
        <ele>3.4000000953674</ele>
        <time>2019-11-10T11:24:46.000Z</time>
      </trkpt>
      <trkpt lat="47.25919" lon="-2.34072">
        <ele>3</ele>
        <time>2019-11-10T11:24:47.000Z</time>
      </trkpt>
      <trkpt lat="47.25915" lon="-2.34072">
        <ele>2.5999999046326</ele>
        <time>2019-11-10T11:24:48.000Z</time>
      </trkpt>
      <trkpt lat="47.2591" lon="-2.34071">
        <ele>2.2000000476837</ele>
        <time>2019-11-10T11:24:49.000Z</time>
      </trkpt>
      <trkpt lat="47.25906" lon="-2.34069">
        <ele>1.7999999523163</ele>
        <time>2019-11-10T11:24:50.000Z</time>
      </trkpt>
      <trkpt lat="47.25902" lon="-2.34066">
        <ele>1.3999999761581</ele>
        <time>2019-11-10T11:24:51.000Z</time>
      </trkpt>
      <trkpt lat="47.25897" lon="-2.34055">
        <ele>1.3999999761581</ele>
        <time>2019-11-10T11:24:53.000Z</time>
      </trkpt>
      <trkpt lat="47.25898" lon="-2.34033">
        <ele>1.3999999761581</ele>
        <time>2019-11-10T11:24:56.000Z</time>
      </trkpt>
      <trkpt lat="47.25906" lon="-2.34015">
        <ele>1.3999999761581</ele>
        <time>2019-11-10T11:25:00.000Z</time>
      </trkpt>
      <trkpt lat="47.25908" lon="-2.34009">
        <ele>1.3999999761581</ele>
        <time>2019-11-10T11:25:01.000Z</time>
      </trkpt>
      <trkpt lat="47.25911" lon="-2.3399">
        <ele>1.3999999761581</ele>
        <time>2019-11-10T11:25:04.000Z</time>
      </trkpt>
      <trkpt lat="47.25914" lon="-2.33976">
        <ele>1.3999999761581</ele>
        <time>2019-11-10T11:25:06.000Z</time>
      </trkpt>
      <trkpt lat="47.25924" lon="-2.33951">
        <ele>1.3999999761581</ele>
        <time>2019-11-10T11:25:10.000Z</time>
      </trkpt>
      <trkpt lat="47.25938" lon="-2.3393">
        <ele>1.3999999761581</ele>
        <time>2019-11-10T11:25:14.000Z</time>
      </trkpt>
      <trkpt lat="47.25944" lon="-2.33921">
        <ele>1.3999999761581</ele>
        <time>2019-11-10T11:25:16.000Z</time>
      </trkpt>
      <trkpt lat="47.25946" lon="-2.33915">
        <ele>1.3999999761581</ele>
        <time>2019-11-10T11:25:17.000Z</time>
      </trkpt>
      <trkpt lat="47.25949" lon="-2.33899">
        <ele>1.3999999761581</ele>
        <time>2019-11-10T11:25:20.000Z</time>
      </trkpt>
      <trkpt lat="47.25957" lon="-2.33877">
        <ele>1.3999999761581</ele>
        <time>2019-11-10T11:25:25.000Z</time>
      </trkpt>
      <trkpt lat="47.25961" lon="-2.33866">
        <ele>1.3999999761581</ele>
        <time>2019-11-10T11:25:27.000Z</time>
      </trkpt>
      <trkpt lat="47.25967" lon="-2.33842">
        <ele>1.3999999761581</ele>
        <time>2019-11-10T11:25:31.000Z</time>
      </trkpt>
      <trkpt lat="47.25981" lon="-2.33804">
        <ele>1.3999999761581</ele>
        <time>2019-11-10T11:25:36.000Z</time>
      </trkpt>
      <trkpt lat="47.25993" lon="-2.33764">
        <ele>1.3999999761581</ele>
        <time>2019-11-10T11:25:41.000Z</time>
      </trkpt>
      <trkpt lat="47.26013" lon="-2.33702">
        <ele>1.3999999761581</ele>
        <time>2019-11-10T11:25:49.000Z</time>
      </trkpt>
      <trkpt lat="47.26025" lon="-2.33666">
        <ele>1.3999999761581</ele>
        <time>2019-11-10T11:25:54.000Z</time>
      </trkpt>
      <trkpt lat="47.26031" lon="-2.33664">
        <ele>1.3999999761581</ele>
        <time>2019-11-10T11:25:55.000Z</time>
      </trkpt>
      <trkpt lat="47.26046" lon="-2.33666">
        <ele>1.3999999761581</ele>
        <time>2019-11-10T11:25:58.000Z</time>
      </trkpt>
      <trkpt lat="47.26055" lon="-2.33663">
        <ele>1.3999999761581</ele>
        <time>2019-11-10T11:26:00.000Z</time>
      </trkpt>
      <trkpt lat="47.2606" lon="-2.33651">
        <ele>1.3999999761581</ele>
        <time>2019-11-10T11:26:02.000Z</time>
      </trkpt>
      <trkpt lat="47.26065" lon="-2.3363">
        <ele>1.3999999761581</ele>
        <time>2019-11-10T11:26:05.000Z</time>
      </trkpt>
      <trkpt lat="47.26069" lon="-2.33615">
        <ele>1.3999999761581</ele>
        <time>2019-11-10T11:26:07.000Z</time>
      </trkpt>
      <trkpt lat="47.26071" lon="-2.33608">
        <ele>1.3999999761581</ele>
        <time>2019-11-10T11:26:08.000Z</time>
      </trkpt>
      <trkpt lat="47.26079" lon="-2.33575">
        <ele>1.3999999761581</ele>
        <time>2019-11-10T11:26:12.000Z</time>
      </trkpt>
      <trkpt lat="47.26082" lon="-2.33559">
        <ele>1.3999999761581</ele>
        <time>2019-11-10T11:26:14.000Z</time>
      </trkpt>
      <trkpt lat="47.26105" lon="-2.335">
        <ele>1.3999999761581</ele>
        <time>2019-11-10T11:26:22.000Z</time>
      </trkpt>
      <trkpt lat="47.2611" lon="-2.33487">
        <ele>1.3999999761581</ele>
        <time>2019-11-10T11:26:24.000Z</time>
      </trkpt>
      <trkpt lat="47.26119" lon="-2.33469">
        <ele>1.3999999761581</ele>
        <time>2019-11-10T11:26:27.000Z</time>
      </trkpt>
      <trkpt lat="47.26128" lon="-2.3345">
        <ele>1.3999999761581</ele>
        <time>2019-11-10T11:26:32.000Z</time>
      </trkpt>
      <trkpt lat="47.26134" lon="-2.33433">
        <ele>1.3999999761581</ele>
        <time>2019-11-10T11:26:38.000Z</time>
      </trkpt>
      <trkpt lat="47.26134" lon="-2.33417">
        <ele>1.3999999761581</ele>
        <time>2019-11-10T11:26:41.000Z</time>
      </trkpt>
      <trkpt lat="47.26132" lon="-2.33413">
        <ele>1.3999999761581</ele>
        <time>2019-11-10T11:26:42.000Z</time>
      </trkpt>
      <trkpt lat="47.26121" lon="-2.33407">
        <ele>1.3999999761581</ele>
        <time>2019-11-10T11:26:45.000Z</time>
      </trkpt>
      <trkpt lat="47.26114" lon="-2.33401">
        <ele>1.3999999761581</ele>
        <time>2019-11-10T11:26:47.000Z</time>
      </trkpt>
      <trkpt lat="47.26106" lon="-2.33393">
        <ele>1.3999999761581</ele>
        <time>2019-11-10T11:26:49.000Z</time>
      </trkpt>
      <trkpt lat="47.26102" lon="-2.33387">
        <ele>1.3999999761581</ele>
        <time>2019-11-10T11:26:50.000Z</time>
      </trkpt>
      <trkpt lat="47.26094" lon="-2.33378">
        <ele>1.3999999761581</ele>
        <time>2019-11-10T11:26:52.000Z</time>
      </trkpt>
      <trkpt lat="47.2608" lon="-2.33368">
        <ele>1.3999999761581</ele>
        <time>2019-11-10T11:26:55.000Z</time>
      </trkpt>
      <trkpt lat="47.26071" lon="-2.33346">
        <ele>1.3999999761581</ele>
        <time>2019-11-10T11:26:58.000Z</time>
      </trkpt>
      <trkpt lat="47.26067" lon="-2.33331">
        <ele>1.3999999761581</ele>
        <time>2019-11-10T11:27:00.000Z</time>
      </trkpt>
      <trkpt lat="47.26058" lon="-2.33304">
        <ele>1.3999999761581</ele>
        <time>2019-11-10T11:27:04.000Z</time>
      </trkpt>
      <trkpt lat="47.26039" lon="-2.33252">
        <ele>1.3999999761581</ele>
        <time>2019-11-10T11:27:11.000Z</time>
      </trkpt>
      <trkpt lat="47.26021" lon="-2.33203">
        <ele>1.3999999761581</ele>
        <time>2019-11-10T11:27:18.000Z</time>
      </trkpt>
      <trkpt lat="47.26003" lon="-2.33148">
        <ele>1.3999999761581</ele>
        <time>2019-11-10T11:27:26.000Z</time>
      </trkpt>
      <trkpt lat="47.2598" lon="-2.33085">
        <ele>1.3999999761581</ele>
        <time>2019-11-10T11:27:35.000Z</time>
      </trkpt>
      <trkpt lat="47.25963" lon="-2.33035">
        <ele>1.3999999761581</ele>
        <time>2019-11-10T11:27:42.000Z</time>
      </trkpt>
      <trkpt lat="47.25961" lon="-2.33027">
        <ele>1.3999999761581</ele>
        <time>2019-11-10T11:27:43.000Z</time>
      </trkpt>
      <trkpt lat="47.25952" lon="-2.32999">
        <ele>1.3999999761581</ele>
        <time>2019-11-10T11:27:47.000Z</time>
      </trkpt>
      <trkpt lat="47.25938" lon="-2.32957">
        <ele>1.3999999761581</ele>
        <time>2019-11-10T11:27:53.000Z</time>
      </trkpt>
      <trkpt lat="47.25916" lon="-2.32893">
        <ele>1.3999999761581</ele>
        <time>2019-11-10T11:28:02.000Z</time>
      </trkpt>
      <trkpt lat="47.25898" lon="-2.32846">
        <ele>1.3999999761581</ele>
        <time>2019-11-10T11:28:09.000Z</time>
      </trkpt>
      <trkpt lat="47.25883" lon="-2.32802">
        <ele>1.3999999761581</ele>
        <time>2019-11-10T11:28:15.000Z</time>
      </trkpt>
      <trkpt lat="47.25863" lon="-2.32741">
        <ele>1.3999999761581</ele>
        <time>2019-11-10T11:28:24.000Z</time>
      </trkpt>
      <trkpt lat="47.25849" lon="-2.32693">
        <ele>1.3999999761581</ele>
        <time>2019-11-10T11:28:31.000Z</time>
      </trkpt>
      <trkpt lat="47.25833" lon="-2.32635">
        <ele>1.3999999761581</ele>
        <time>2019-11-10T11:28:39.000Z</time>
      </trkpt>
      <trkpt lat="47.25822" lon="-2.32585">
        <ele>1.3999999761581</ele>
        <time>2019-11-10T11:28:46.000Z</time>
      </trkpt>
      <trkpt lat="47.2581" lon="-2.32534">
        <ele>1.3999999761581</ele>
        <time>2019-11-10T11:28:53.000Z</time>
      </trkpt>
      <trkpt lat="47.25801" lon="-2.32496">
        <ele>1.3999999761581</ele>
        <time>2019-11-10T11:28:59.000Z</time>
      </trkpt>
      <trkpt lat="47.25799" lon="-2.32473">
        <ele>1.3999999761581</ele>
        <time>2019-11-10T11:29:03.000Z</time>
      </trkpt>
      <trkpt lat="47.25801" lon="-2.32468">
        <ele>1.3999999761581</ele>
        <time>2019-11-10T11:29:04.000Z</time>
      </trkpt>
      <trkpt lat="47.25814" lon="-2.32456">
        <ele>1.3999999761581</ele>
        <time>2019-11-10T11:29:08.000Z</time>
      </trkpt>
      <trkpt lat="47.25818" lon="-2.32457">
        <ele>1.3999999761581</ele>
        <time>2019-11-10T11:29:09.000Z</time>
      </trkpt>
      <trkpt lat="47.25826" lon="-2.32464">
        <ele>1.3999999761581</ele>
        <time>2019-11-10T11:29:11.000Z</time>
      </trkpt>
      <trkpt lat="47.25849" lon="-2.32472">
        <ele>1.3999999761581</ele>
        <time>2019-11-10T11:29:16.000Z</time>
      </trkpt>
      <trkpt lat="47.25853" lon="-2.32472">
        <ele>1.3999999761581</ele>
        <time>2019-11-10T11:29:17.000Z</time>
      </trkpt>
      <trkpt lat="47.25858" lon="-2.32472">
        <ele>1.3999999761581</ele>
        <time>2019-11-10T11:29:18.000Z</time>
      </trkpt>
      <trkpt lat="47.25876" lon="-2.32469">
        <ele>1.3999999761581</ele>
        <time>2019-11-10T11:29:22.000Z</time>
      </trkpt>
      <trkpt lat="47.25887" lon="-2.32466">
        <ele>1.3999999761581</ele>
        <time>2019-11-10T11:29:24.000Z</time>
      </trkpt>
      <trkpt lat="47.25895" lon="-2.32458">
        <ele>1.3999999761581</ele>
        <time>2019-11-10T11:29:26.000Z</time>
      </trkpt>
      <trkpt lat="47.25904" lon="-2.32451">
        <ele>1.3999999761581</ele>
        <time>2019-11-10T11:29:28.000Z</time>
      </trkpt>
      <trkpt lat="47.25921" lon="-2.32431">
        <ele>1.3999999761581</ele>
        <time>2019-11-10T11:29:32.000Z</time>
      </trkpt>
      <trkpt lat="47.25953" lon="-2.3239">
        <ele>1.3999999761581</ele>
        <time>2019-11-10T11:29:40.000Z</time>
      </trkpt>
      <trkpt lat="47.25964" lon="-2.32375">
        <ele>1.3999999761581</ele>
        <time>2019-11-10T11:29:43.000Z</time>
      </trkpt>
      <trkpt lat="47.25976" lon="-2.3236">
        <ele>1.3999999761581</ele>
        <time>2019-11-10T11:29:46.000Z</time>
      </trkpt>
      <trkpt lat="47.2598" lon="-2.32352">
        <ele>1.3999999761581</ele>
        <time>2019-11-10T11:29:49.000Z</time>
      </trkpt>
      <trkpt lat="47.25982" lon="-2.3235">
        <ele>1.3999999761581</ele>
        <time>2019-11-10T11:29:50.000Z</time>
      </trkpt>
      <trkpt lat="47.25992" lon="-2.32341">
        <ele>1.3999999761581</ele>
        <time>2019-11-10T11:29:54.000Z</time>
      </trkpt>
      <trkpt lat="47.26012" lon="-2.32315">
        <ele>1.3999999761581</ele>
        <time>2019-11-10T11:30:00.000Z</time>
      </trkpt>
      <trkpt lat="47.26037" lon="-2.32286">
        <ele>1.3999999761581</ele>
        <time>2019-11-10T11:30:07.000Z</time>
      </trkpt>
      <trkpt lat="47.26063" lon="-2.32256">
        <ele>1.3999999761581</ele>
        <time>2019-11-10T11:30:14.000Z</time>
      </trkpt>
      <trkpt lat="47.2607" lon="-2.32247">
        <ele>1.3999999761581</ele>
        <time>2019-11-10T11:30:16.000Z</time>
      </trkpt>
      <trkpt lat="47.26083" lon="-2.3223">
        <ele>1.3999999761581</ele>
        <time>2019-11-10T11:30:20.000Z</time>
      </trkpt>
      <trkpt lat="47.26093" lon="-2.32215">
        <ele>1.3999999761581</ele>
        <time>2019-11-10T11:30:23.000Z</time>
      </trkpt>
      <trkpt lat="47.26096" lon="-2.3221">
        <ele>1.3999999761581</ele>
        <time>2019-11-10T11:30:24.000Z</time>
      </trkpt>
      <trkpt lat="47.26107" lon="-2.32189">
        <ele>1.3999999761581</ele>
        <time>2019-11-10T11:30:28.000Z</time>
      </trkpt>
      <trkpt lat="47.26118" lon="-2.32164">
        <ele>1.3999999761581</ele>
        <time>2019-11-10T11:30:32.000Z</time>
      </trkpt>
      <trkpt lat="47.2612" lon="-2.32158">
        <ele>1.3999999761581</ele>
        <time>2019-11-10T11:30:33.000Z</time>
      </trkpt>
      <trkpt lat="47.26137" lon="-2.32107">
        <ele>1.3999999761581</ele>
        <time>2019-11-10T11:30:41.000Z</time>
      </trkpt>
      <trkpt lat="47.26143" lon="-2.3208">
        <ele>1.3999999761581</ele>
        <time>2019-11-10T11:30:46.000Z</time>
      </trkpt>
      <trkpt lat="47.26152" lon="-2.32058">
        <ele>1.3999999761581</ele>
        <time>2019-11-10T11:30:50.000Z</time>
      </trkpt>
      <trkpt lat="47.26154" lon="-2.32052">
        <ele>1.3999999761581</ele>
        <time>2019-11-10T11:30:51.000Z</time>
      </trkpt>
      <trkpt lat="47.26168" lon="-2.32023">
        <ele>1.3999999761581</ele>
        <time>2019-11-10T11:30:57.000Z</time>
      </trkpt>
      <trkpt lat="47.26184" lon="-2.32022">
        <ele>1.3999999761581</ele>
        <time>2019-11-10T11:31:02.000Z</time>
      </trkpt>
      <trkpt lat="47.26194" lon="-2.32025">
        <ele>1.3999999761581</ele>
        <time>2019-11-10T11:31:07.000Z</time>
      </trkpt>
      <trkpt lat="47.26196" lon="-2.32023">
        <ele>1.3999999761581</ele>
        <time>2019-11-10T11:31:09.000Z</time>
      </trkpt>
      <trkpt lat="47.26197" lon="-2.32015">
        <ele>1.3999999761581</ele>
        <time>2019-11-10T11:31:12.000Z</time>
      </trkpt>
      <trkpt lat="47.26199" lon="-2.3201">
        <ele>1.3999999761581</ele>
        <time>2019-11-10T11:31:15.000Z</time>
      </trkpt>
      <trkpt lat="47.262" lon="-2.32009">
        <ele>1.3999999761581</ele>
        <time>2019-11-10T11:31:16.000Z</time>
      </trkpt>
      <trkpt lat="47.26202" lon="-2.32007">
        <ele>1.3999999761581</ele>
        <time>2019-11-10T11:31:17.000Z</time>
      </trkpt>
      <trkpt lat="47.26209" lon="-2.32">
        <ele>1.3999999761581</ele>
        <time>2019-11-10T11:31:20.000Z</time>
      </trkpt>
      <trkpt lat="47.26214" lon="-2.31994">
        <ele>1.3999999761581</ele>
        <time>2019-11-10T11:31:22.000Z</time>
      </trkpt>
      <trkpt lat="47.26216" lon="-2.3199">
        <ele>1.3999999761581</ele>
        <time>2019-11-10T11:31:23.000Z</time>
      </trkpt>
      <trkpt lat="47.26222" lon="-2.31982">
        <ele>1.3999999761581</ele>
        <time>2019-11-10T11:31:26.000Z</time>
      </trkpt>
      <trkpt lat="47.26231" lon="-2.31976">
        <ele>1.3999999761581</ele>
        <time>2019-11-10T11:31:30.000Z</time>
      </trkpt>
      <trkpt lat="47.26239" lon="-2.31956">
        <ele>1.3999999761581</ele>
        <time>2019-11-10T11:31:34.000Z</time>
      </trkpt>
      <trkpt lat="47.26241" lon="-2.31952">
        <ele>1.3999999761581</ele>
        <time>2019-11-10T11:31:35.000Z</time>
      </trkpt>
      <trkpt lat="47.26245" lon="-2.31945">
        <ele>1.3999999761581</ele>
        <time>2019-11-10T11:31:37.000Z</time>
      </trkpt>
      <trkpt lat="47.26254" lon="-2.3193">
        <ele>1.3999999761581</ele>
        <time>2019-11-10T11:31:41.000Z</time>
      </trkpt>
      <trkpt lat="47.26268" lon="-2.31911">
        <ele>1.3999999761581</ele>
        <time>2019-11-10T11:31:46.000Z</time>
      </trkpt>
      <trkpt lat="47.26286" lon="-2.31898">
        <ele>1.3999999761581</ele>
        <time>2019-11-10T11:31:51.000Z</time>
      </trkpt>
      <trkpt lat="47.26293" lon="-2.31882">
        <ele>1.3999999761581</ele>
        <time>2019-11-10T11:31:55.000Z</time>
      </trkpt>
      <trkpt lat="47.26294" lon="-2.31863">
        <ele>1.3999999761581</ele>
        <time>2019-11-10T11:31:59.000Z</time>
      </trkpt>
      <trkpt lat="47.26294" lon="-2.31858">
        <ele>1.3999999761581</ele>
        <time>2019-11-10T11:32:00.000Z</time>
      </trkpt>
      <trkpt lat="47.26295" lon="-2.31841">
        <ele>1.3999999761581</ele>
        <time>2019-11-10T11:32:04.000Z</time>
      </trkpt>
      <trkpt lat="47.26298" lon="-2.31815">
        <ele>1.3999999761581</ele>
        <time>2019-11-10T11:32:09.000Z</time>
      </trkpt>
      <trkpt lat="47.26299" lon="-2.31787">
        <ele>1.3999999761581</ele>
        <time>2019-11-10T11:32:14.000Z</time>
      </trkpt>
      <trkpt lat="47.26297" lon="-2.31764">
        <ele>1.3999999761581</ele>
        <time>2019-11-10T11:32:18.000Z</time>
      </trkpt>
      <trkpt lat="47.26296" lon="-2.31759">
        <ele>1.3999999761581</ele>
        <time>2019-11-10T11:32:19.000Z</time>
      </trkpt>
      <trkpt lat="47.26298" lon="-2.31727">
        <ele>1.3999999761581</ele>
        <time>2019-11-10T11:32:24.000Z</time>
      </trkpt>
      <trkpt lat="47.2631" lon="-2.31716">
        <ele>1.3999999761581</ele>
        <time>2019-11-10T11:32:27.000Z</time>
      </trkpt>
      <trkpt lat="47.26314" lon="-2.31714">
        <ele>1.3999999761581</ele>
        <time>2019-11-10T11:32:28.000Z</time>
      </trkpt>
      <trkpt lat="47.26328" lon="-2.31706">
        <ele>1.3999999761581</ele>
        <time>2019-11-10T11:32:32.000Z</time>
      </trkpt>
      <trkpt lat="47.26331" lon="-2.31701">
        <ele>1.7999999523163</ele>
        <time>2019-11-10T11:32:33.000Z</time>
      </trkpt>
      <trkpt lat="47.26332" lon="-2.31696">
        <ele>2.2000000476837</ele>
        <time>2019-11-10T11:32:34.000Z</time>
      </trkpt>
      <trkpt lat="47.26334" lon="-2.31691">
        <ele>2.5999999046326</ele>
        <time>2019-11-10T11:32:35.000Z</time>
      </trkpt>
      <trkpt lat="47.26337" lon="-2.31689">
        <ele>3</ele>
        <time>2019-11-10T11:32:36.000Z</time>
      </trkpt>
      <trkpt lat="47.2634" lon="-2.31688">
        <ele>3.5999999046326</ele>
        <time>2019-11-10T11:32:37.000Z</time>
      </trkpt>
      <trkpt lat="47.26343" lon="-2.31686">
        <ele>3.5999999046326</ele>
        <time>2019-11-10T11:32:38.000Z</time>
      </trkpt>
      <trkpt lat="47.26346" lon="-2.31684">
        <ele>3.5999999046326</ele>
        <time>2019-11-10T11:32:39.000Z</time>
      </trkpt>
      <trkpt lat="47.26358" lon="-2.31678">
        <ele>4</ele>
        <time>2019-11-10T11:32:43.000Z</time>
      </trkpt>
      <trkpt lat="47.26361" lon="-2.31677">
        <ele>4.4000000953674</ele>
        <time>2019-11-10T11:32:44.000Z</time>
      </trkpt>
      <trkpt lat="47.26364" lon="-2.31675">
        <ele>4.8000001907349</ele>
        <time>2019-11-10T11:32:45.000Z</time>
      </trkpt>
      <trkpt lat="47.26367" lon="-2.31674">
        <ele>5.4000000953674</ele>
        <time>2019-11-10T11:32:46.000Z</time>
      </trkpt>
      <trkpt lat="47.26371" lon="-2.31673">
        <ele>5.8000001907349</ele>
        <time>2019-11-10T11:32:47.000Z</time>
      </trkpt>
      <trkpt lat="47.26382" lon="-2.31665">
        <ele>5.8000001907349</ele>
        <time>2019-11-10T11:32:51.000Z</time>
      </trkpt>
      <trkpt lat="47.26394" lon="-2.31657">
        <ele>5.8000001907349</ele>
        <time>2019-11-10T11:32:56.000Z</time>
      </trkpt>
      <trkpt lat="47.26407" lon="-2.31649">
        <ele>5.8000001907349</ele>
        <time>2019-11-10T11:33:01.000Z</time>
      </trkpt>
      <trkpt lat="47.26411" lon="-2.31631">
        <ele>5.8000001907349</ele>
        <time>2019-11-10T11:33:05.000Z</time>
      </trkpt>
      <trkpt lat="47.26412" lon="-2.31613">
        <ele>5.8000001907349</ele>
        <time>2019-11-10T11:33:09.000Z</time>
      </trkpt>
      <trkpt lat="47.26411" lon="-2.31591">
        <ele>5.8000001907349</ele>
        <time>2019-11-10T11:33:14.000Z</time>
      </trkpt>
      <trkpt lat="47.26412" lon="-2.3157">
        <ele>5.8000001907349</ele>
        <time>2019-11-10T11:33:19.000Z</time>
      </trkpt>
      <trkpt lat="47.26413" lon="-2.31555">
        <ele>5.8000001907349</ele>
        <time>2019-11-10T11:33:23.000Z</time>
      </trkpt>
      <trkpt lat="47.26415" lon="-2.31553">
        <ele>5.8000001907349</ele>
        <time>2019-11-10T11:33:24.000Z</time>
      </trkpt>
      <trkpt lat="47.26418" lon="-2.31554">
        <ele>6.1999998092651</ele>
        <time>2019-11-10T11:33:26.000Z</time>
      </trkpt>
      <trkpt lat="47.26419" lon="-2.31554">
        <ele>6.5999999046326</ele>
        <time>2019-11-10T11:33:27.000Z</time>
      </trkpt>
      <trkpt lat="47.2642" lon="-2.31554">
        <ele>7</ele>
        <time>2019-11-10T11:33:28.000Z</time>
      </trkpt>
    </trkseg>
  </trk>
</gpx>